<?xml version="1.0" encoding="UTF-8"?>
<gpx version="1.1" creator="2bulu-scraper" xmlns="http://www.topografix.com/GPX/1/1">
  <metadata><name>峨眉山(万年寺北线)</name><desc>source: 2bulu.com trackId=71957384; exported 2026-09-01T16:27:52.176Z</desc>
    <bounds minlat="29.522322" minlon="103.3267937" maxlat="29.5831109" maxlon="103.4416545"/>
    <link href="https://www.2bulu.com/track/t-9zLk%252Fht2LBPp%252FR2KBg5Tzw%253D%253D.htm"><text>2bulu 源页面</text></link>
  </metadata>
  <wpt lat="29.5707423" lon="103.4414704"><ele>506</ele><name>报国寺
        
        </name></wpt>
  <wpt lat="29.5668113" lon="103.4387145"><ele>497</ele><name>步道
        
        </name></wpt>
  <wpt lat="29.5649448" lon="103.4267395"><ele>611</ele><name>爬升
        
        </name></wpt>
  <wpt lat="29.5653637" lon="103.421242"><ele>794</ele><name>红牛墙
        
        </name></wpt>
  <wpt lat="29.5698205" lon="103.4183083"><ele>885</ele><name>平缓一下
        
        </name></wpt>
  <wpt lat="29.5719914" lon="103.4011432"><ele>727</ele><name>检票口
        
        </name></wpt>
  <wpt lat="29.5719997" lon="103.4009672"><ele>730</ele><name>又开始爬
        
        </name></wpt>
  <wpt lat="29.5742181" lon="103.3922131"><ele>647</ele><name>双桥清音
        
        </name></wpt>
  <wpt lat="29.5814182" lon="103.3836376"><ele>950</ele><name>野猴
        
        </name></wpt>
  <wpt lat="29.5819049" lon="103.3828392"><ele>945</ele><name>心愿坊
        
        </name></wpt>
  <wpt lat="29.5736628" lon="103.3622534"><ele>1576</ele><name>夜爬
        
        </name></wpt>
  <wpt lat="29.5686885" lon="103.3596643"><ele>1694</ele><name>初殿
        
        </name></wpt>
  <wpt lat="29.5614414" lon="103.3453779"><ele>1776</ele><name>又要上坡
        
        </name></wpt>
  <wpt lat="29.5588129" lon="103.3442663"><ele>2019</ele><name>洗象池
        
        </name></wpt>
  <wpt lat="29.5422674" lon="103.3320205"><ele>2395</ele><name>灵觉寺
        
        </name></wpt>
  <wpt lat="29.5226818" lon="103.334894"><ele>3009</ele><name>金顶
        
        </name></wpt>
  <wpt lat="29.5223891" lon="103.3371182"><ele>3030</ele><name>日出
        </name></wpt>
  <wpt lat="29.5247884" lon="103.3357499"><ele>3001</ele><name>奖牌
        </name></wpt>
  <wpt lat="29.524148" lon="103.3347957"><ele>2995</ele><name>云海
        </name></wpt>
  <trk><name>峨眉山(万年寺北线)</name>
      <trkseg>
        <trkpt lat="29.5714077" lon="103.4412952"><ele>507.61</ele><time>2025-09-12T22:07:13.000Z</time></trkpt>
        <trkpt lat="29.5713544" lon="103.4413135"><ele>507.61</ele><time>2025-09-12T22:07:19.000Z</time></trkpt>
        <trkpt lat="29.5712989" lon="103.4413279"><ele>506.99</ele><time>2025-09-12T22:07:25.000Z</time></trkpt>
        <trkpt lat="29.5712484" lon="103.4413121"><ele>506.07</ele><time>2025-09-12T22:07:31.000Z</time></trkpt>
        <trkpt lat="29.5711931" lon="103.4413218"><ele>506.16</ele><time>2025-09-12T22:07:37.000Z</time></trkpt>
        <trkpt lat="29.5711341" lon="103.4413222"><ele>507.29</ele><time>2025-09-12T22:07:43.000Z</time></trkpt>
        <trkpt lat="29.5710689" lon="103.4413366"><ele>508.08</ele><time>2025-09-12T22:07:49.000Z</time></trkpt>
        <trkpt lat="29.5710109" lon="103.4413633"><ele>507.98</ele><time>2025-09-12T22:07:55.000Z</time></trkpt>
        <trkpt lat="29.570954" lon="103.4413963"><ele>508.46</ele><time>2025-09-12T22:08:01.000Z</time></trkpt>
        <trkpt lat="29.5708964" lon="103.4414303"><ele>508.21</ele><time>2025-09-12T22:08:07.000Z</time></trkpt>
        <trkpt lat="29.5708444" lon="103.4414523"><ele>507.67</ele><time>2025-09-12T22:08:11.000Z</time></trkpt>
        <trkpt lat="29.5707913" lon="103.4414688"><ele>507.7</ele><time>2025-09-12T22:08:15.000Z</time></trkpt>
        <trkpt lat="29.5707423" lon="103.4414704"><ele>507.62</ele><time>2025-09-12T22:08:21.000Z</time></trkpt>
        <trkpt lat="29.570702" lon="103.4415066"><ele>507.12</ele><time>2025-09-12T22:08:29.000Z</time></trkpt>
        <trkpt lat="29.570662" lon="103.4415541"><ele>505.42</ele><time>2025-09-12T22:08:35.000Z</time></trkpt>
        <trkpt lat="29.5706242" lon="103.4416046"><ele>503.62</ele><time>2025-09-12T22:08:41.000Z</time></trkpt>
        <trkpt lat="29.5705749" lon="103.4416349"><ele>502.04</ele><time>2025-09-12T22:08:47.000Z</time></trkpt>
        <trkpt lat="29.5705148" lon="103.4416414"><ele>501.21</ele><time>2025-09-12T22:08:53.000Z</time></trkpt>
        <trkpt lat="29.5704649" lon="103.4416545"><ele>500.5</ele><time>2025-09-12T22:08:57.000Z</time></trkpt>
        <trkpt lat="29.5704195" lon="103.4416458"><ele>499.65</ele><time>2025-09-12T22:09:01.000Z</time></trkpt>
        <trkpt lat="29.5704103" lon="103.441636"><ele>499.48</ele><time>2025-09-12T22:09:03.000Z</time></trkpt>
        <trkpt lat="29.5704466" lon="103.4416044"><ele>499.46</ele><time>2025-09-12T22:09:29.000Z</time></trkpt>
        <trkpt lat="29.5704931" lon="103.4415724"><ele>499.4</ele><time>2025-09-12T22:09:35.000Z</time></trkpt>
        <trkpt lat="29.57052" lon="103.4415186"><ele>498.86</ele><time>2025-09-12T22:09:41.000Z</time></trkpt>
        <trkpt lat="29.570556" lon="103.4414565"><ele>497.57</ele><time>2025-09-12T22:09:47.000Z</time></trkpt>
        <trkpt lat="29.570601" lon="103.4414273"><ele>495.61</ele><time>2025-09-12T22:09:53.000Z</time></trkpt>
        <trkpt lat="29.570601" lon="103.4414273"><ele>495.61</ele><time>2025-09-12T22:10:03.000Z</time></trkpt>
        <trkpt lat="29.570601" lon="103.4414273"><ele>495.61</ele><time>2025-09-12T22:10:07.000Z</time></trkpt>
        <trkpt lat="29.570601" lon="103.4414273"><ele>495.61</ele><time>2025-09-12T22:10:47.000Z</time></trkpt>
        <trkpt lat="29.5705609" lon="103.4414337"><ele>494.16</ele><time>2025-09-12T22:10:53.000Z</time></trkpt>
        <trkpt lat="29.5705609" lon="103.4414337"><ele>494.16</ele><time>2025-09-12T22:16:53.000Z</time></trkpt>
        <trkpt lat="29.5705857" lon="103.4413895"><ele>493.35</ele><time>2025-09-12T22:17:35.000Z</time></trkpt>
        <trkpt lat="29.5705857" lon="103.4413895"><ele>493.35</ele><time>2025-09-12T22:18:03.000Z</time></trkpt>
        <trkpt lat="29.5705497" lon="103.4414064"><ele>494.65</ele><time>2025-09-12T22:18:09.000Z</time></trkpt>
        <trkpt lat="29.5705497" lon="103.4414064"><ele>494.65</ele><time>2025-09-12T22:18:17.000Z</time></trkpt>
        <trkpt lat="29.5705554" lon="103.4414526"><ele>495.83</ele><time>2025-09-12T22:18:29.000Z</time></trkpt>
        <trkpt lat="29.5705243" lon="103.4414748"><ele>497.65</ele><time>2025-09-12T22:18:37.000Z</time></trkpt>
        <trkpt lat="29.5704752" lon="103.4414621"><ele>498.5</ele><time>2025-09-12T22:18:41.000Z</time></trkpt>
        <trkpt lat="29.5704276" lon="103.4414282"><ele>498.94</ele><time>2025-09-12T22:18:45.000Z</time></trkpt>
        <trkpt lat="29.5703957" lon="103.4413667"><ele>498.82</ele><time>2025-09-12T22:18:51.000Z</time></trkpt>
        <trkpt lat="29.5703539" lon="103.4413065"><ele>498.75</ele><time>2025-09-12T22:18:57.000Z</time></trkpt>
        <trkpt lat="29.5703035" lon="103.4412551"><ele>498.67</ele><time>2025-09-12T22:19:03.000Z</time></trkpt>
        <trkpt lat="29.5702653" lon="103.4412129"><ele>497.95</ele><time>2025-09-12T22:19:07.000Z</time></trkpt>
        <trkpt lat="29.5702238" lon="103.4411793"><ele>497.39</ele><time>2025-09-12T22:19:11.000Z</time></trkpt>
        <trkpt lat="29.5701719" lon="103.4411385"><ele>497.27</ele><time>2025-09-12T22:19:17.000Z</time></trkpt>
        <trkpt lat="29.5701263" lon="103.4411093"><ele>497.83</ele><time>2025-09-12T22:19:21.000Z</time></trkpt>
        <trkpt lat="29.5700796" lon="103.4410773"><ele>498.34</ele><time>2025-09-12T22:19:25.000Z</time></trkpt>
        <trkpt lat="29.5700271" lon="103.4410497"><ele>498.48</ele><time>2025-09-12T22:19:29.000Z</time></trkpt>
        <trkpt lat="29.5699541" lon="103.4410368"><ele>498.65</ele><time>2025-09-12T22:19:34.000Z</time></trkpt>
        <trkpt lat="29.5698923" lon="103.4410252"><ele>499.73</ele><time>2025-09-12T22:19:38.000Z</time></trkpt>
        <trkpt lat="29.569837" lon="103.4410101"><ele>500.84</ele><time>2025-09-12T22:19:42.000Z</time></trkpt>
        <trkpt lat="29.5697873" lon="103.4409966"><ele>501.88</ele><time>2025-09-12T22:19:46.000Z</time></trkpt>
        <trkpt lat="29.5697425" lon="103.4409798"><ele>502.39</ele><time>2025-09-12T22:19:50.000Z</time></trkpt>
        <trkpt lat="29.5697191" lon="103.440972"><ele>502.54</ele><time>2025-09-12T22:19:53.000Z</time></trkpt>
        <trkpt lat="29.5696688" lon="103.4409663"><ele>502.21</ele><time>2025-09-12T22:19:58.000Z</time></trkpt>
        <trkpt lat="29.5696191" lon="103.4409537"><ele>501.7</ele><time>2025-09-12T22:20:02.000Z</time></trkpt>
        <trkpt lat="29.569565" lon="103.440936"><ele>501.44</ele><time>2025-09-12T22:20:08.000Z</time></trkpt>
        <trkpt lat="29.5695152" lon="103.4409362"><ele>501.84</ele><time>2025-09-12T22:20:16.000Z</time></trkpt>
        <trkpt lat="29.5694632" lon="103.4409485"><ele>502.75</ele><time>2025-09-12T22:20:22.000Z</time></trkpt>
        <trkpt lat="29.569409" lon="103.4409559"><ele>502.63</ele><time>2025-09-12T22:20:28.000Z</time></trkpt>
        <trkpt lat="29.569359" lon="103.4409508"><ele>501.85</ele><time>2025-09-12T22:20:34.000Z</time></trkpt>
        <trkpt lat="29.5693043" lon="103.4409552"><ele>500.96</ele><time>2025-09-12T22:20:40.000Z</time></trkpt>
        <trkpt lat="29.5692511" lon="103.4409516"><ele>500.28</ele><time>2025-09-12T22:20:46.000Z</time></trkpt>
        <trkpt lat="29.5692035" lon="103.4409638"><ele>497.94</ele><time>2025-09-12T22:20:54.000Z</time></trkpt>
        <trkpt lat="29.5691544" lon="103.4409649"><ele>497.05</ele><time>2025-09-12T22:21:02.000Z</time></trkpt>
        <trkpt lat="29.569105" lon="103.4409409"><ele>496.09</ele><time>2025-09-12T22:21:10.000Z</time></trkpt>
        <trkpt lat="29.5690776" lon="103.4408932"><ele>494.7</ele><time>2025-09-12T22:21:16.000Z</time></trkpt>
        <trkpt lat="29.5690576" lon="103.4408333"><ele>495.04</ele><time>2025-09-12T22:21:24.000Z</time></trkpt>
        <trkpt lat="29.5690547" lon="103.4407672"><ele>495.73</ele><time>2025-09-12T22:21:32.000Z</time></trkpt>
        <trkpt lat="29.5690501" lon="103.4407001"><ele>495.54</ele><time>2025-09-12T22:21:40.000Z</time></trkpt>
        <trkpt lat="29.5690258" lon="103.4406465"><ele>495.53</ele><time>2025-09-12T22:21:48.000Z</time></trkpt>
        <trkpt lat="29.5690258" lon="103.4406465"><ele>495.53</ele><time>2025-09-12T22:22:07.000Z</time></trkpt>
        <trkpt lat="29.5689853" lon="103.4406015"><ele>495.46</ele><time>2025-09-12T22:22:11.000Z</time></trkpt>
        <trkpt lat="29.5689853" lon="103.4406015"><ele>495.46</ele><time>2025-09-12T22:22:17.000Z</time></trkpt>
        <trkpt lat="29.5689371" lon="103.4405645"><ele>493.96</ele><time>2025-09-12T22:22:23.000Z</time></trkpt>
        <trkpt lat="29.5688912" lon="103.4405248"><ele>493.1</ele><time>2025-09-12T22:22:29.000Z</time></trkpt>
        <trkpt lat="29.5688479" lon="103.4404818"><ele>492.62</ele><time>2025-09-12T22:22:35.000Z</time></trkpt>
        <trkpt lat="29.5687995" lon="103.4404522"><ele>492.32</ele><time>2025-09-12T22:22:40.000Z</time></trkpt>
        <trkpt lat="29.5687538" lon="103.4404237"><ele>492.95</ele><time>2025-09-12T22:22:46.000Z</time></trkpt>
        <trkpt lat="29.5687152" lon="103.4403894"><ele>493.16</ele><time>2025-09-12T22:22:52.000Z</time></trkpt>
        <trkpt lat="29.5686751" lon="103.4403551"><ele>492.64</ele><time>2025-09-12T22:22:58.000Z</time></trkpt>
        <trkpt lat="29.5686345" lon="103.4403165"><ele>492.09</ele><time>2025-09-12T22:23:04.000Z</time></trkpt>
        <trkpt lat="29.568587" lon="103.4402875"><ele>491.68</ele><time>2025-09-12T22:23:10.000Z</time></trkpt>
        <trkpt lat="29.5685392" lon="103.4402638"><ele>490.83</ele><time>2025-09-12T22:23:16.000Z</time></trkpt>
        <trkpt lat="29.5684947" lon="103.4402216"><ele>490.43</ele><time>2025-09-12T22:23:22.000Z</time></trkpt>
        <trkpt lat="29.5684644" lon="103.4401636"><ele>490.22</ele><time>2025-09-12T22:23:28.000Z</time></trkpt>
        <trkpt lat="29.5684363" lon="103.4401023"><ele>490.32</ele><time>2025-09-12T22:23:35.000Z</time></trkpt>
        <trkpt lat="29.5684124" lon="103.4400397"><ele>490.42</ele><time>2025-09-12T22:23:41.000Z</time></trkpt>
        <trkpt lat="29.5684009" lon="103.4399846"><ele>490.63</ele><time>2025-09-12T22:23:45.000Z</time></trkpt>
        <trkpt lat="29.5683803" lon="103.4399316"><ele>490.84</ele><time>2025-09-12T22:23:49.000Z</time></trkpt>
        <trkpt lat="29.5683703" lon="103.4398694"><ele>491.87</ele><time>2025-09-12T22:23:57.000Z</time></trkpt>
        <trkpt lat="29.5683696" lon="103.4397948"><ele>492.44</ele><time>2025-09-12T22:24:03.000Z</time></trkpt>
        <trkpt lat="29.5683918" lon="103.4397347"><ele>493</ele><time>2025-09-12T22:24:07.000Z</time></trkpt>
        <trkpt lat="29.568386" lon="103.4396724"><ele>492.12</ele><time>2025-09-12T22:24:13.000Z</time></trkpt>
        <trkpt lat="29.5683538" lon="103.439615"><ele>491.6</ele><time>2025-09-12T22:24:17.000Z</time></trkpt>
        <trkpt lat="29.5682951" lon="103.4395825"><ele>491.36</ele><time>2025-09-12T22:24:21.000Z</time></trkpt>
        <trkpt lat="29.5682433" lon="103.4395443"><ele>492.11</ele><time>2025-09-12T22:24:25.000Z</time></trkpt>
        <trkpt lat="29.5681868" lon="103.4395173"><ele>493.02</ele><time>2025-09-12T22:24:31.000Z</time></trkpt>
        <trkpt lat="29.5681253" lon="103.4394858"><ele>493.9</ele><time>2025-09-12T22:24:37.000Z</time></trkpt>
        <trkpt lat="29.5680728" lon="103.4394656"><ele>493.93</ele><time>2025-09-12T22:24:41.000Z</time></trkpt>
        <trkpt lat="29.56802" lon="103.4394742"><ele>493.72</ele><time>2025-09-12T22:24:47.000Z</time></trkpt>
        <trkpt lat="29.5679595" lon="103.4394991"><ele>493.47</ele><time>2025-09-12T22:24:53.000Z</time></trkpt>
        <trkpt lat="29.5679102" lon="103.4395322"><ele>494.46</ele><time>2025-09-12T22:24:57.000Z</time></trkpt>
        <trkpt lat="29.5678808" lon="103.4395941"><ele>494.92</ele><time>2025-09-12T22:25:01.000Z</time></trkpt>
        <trkpt lat="29.5678477" lon="103.4396445"><ele>494.2</ele><time>2025-09-12T22:25:05.000Z</time></trkpt>
        <trkpt lat="29.5677877" lon="103.4396425"><ele>493.34</ele><time>2025-09-12T22:25:11.000Z</time></trkpt>
        <trkpt lat="29.5677416" lon="103.4396058"><ele>493.16</ele><time>2025-09-12T22:25:15.000Z</time></trkpt>
        <trkpt lat="29.5677033" lon="103.4395603"><ele>493.65</ele><time>2025-09-12T22:25:19.000Z</time></trkpt>
        <trkpt lat="29.5676531" lon="103.4395262"><ele>494.52</ele><time>2025-09-12T22:25:25.000Z</time></trkpt>
        <trkpt lat="29.5675949" lon="103.4395174"><ele>494.64</ele><time>2025-09-12T22:25:31.000Z</time></trkpt>
        <trkpt lat="29.5675474" lon="103.4394986"><ele>494.58</ele><time>2025-09-12T22:25:35.000Z</time></trkpt>
        <trkpt lat="29.5675054" lon="103.4394579"><ele>494.57</ele><time>2025-09-12T22:25:41.000Z</time></trkpt>
        <trkpt lat="29.5674657" lon="103.439415"><ele>494.62</ele><time>2025-09-12T22:25:47.000Z</time></trkpt>
        <trkpt lat="29.5674216" lon="103.4393807"><ele>494.54</ele><time>2025-09-12T22:25:53.000Z</time></trkpt>
        <trkpt lat="29.5673773" lon="103.4393441"><ele>493.24</ele><time>2025-09-12T22:25:59.000Z</time></trkpt>
        <trkpt lat="29.5673398" lon="103.4393053"><ele>492.42</ele><time>2025-09-12T22:26:03.000Z</time></trkpt>
        <trkpt lat="29.5672916" lon="103.4392535"><ele>492.85</ele><time>2025-09-12T22:26:09.000Z</time></trkpt>
        <trkpt lat="29.5672472" lon="103.4391932"><ele>494.16</ele><time>2025-09-12T22:26:15.000Z</time></trkpt>
        <trkpt lat="29.5672103" lon="103.4391346"><ele>495.23</ele><time>2025-09-12T22:26:21.000Z</time></trkpt>
        <trkpt lat="29.5671762" lon="103.439093"><ele>496.42</ele><time>2025-09-12T22:26:27.000Z</time></trkpt>
        <trkpt lat="29.5671541" lon="103.4390401"><ele>495.7</ele><time>2025-09-12T22:26:33.000Z</time></trkpt>
        <trkpt lat="29.5671401" lon="103.4389795"><ele>494.28</ele><time>2025-09-12T22:26:39.000Z</time></trkpt>
        <trkpt lat="29.5670917" lon="103.4389527"><ele>494.1</ele><time>2025-09-12T22:26:43.000Z</time></trkpt>
        <trkpt lat="29.567042" lon="103.4389349"><ele>495.18</ele><time>2025-09-12T22:26:47.000Z</time></trkpt>
        <trkpt lat="29.5669863" lon="103.4389021"><ele>497.39</ele><time>2025-09-12T22:26:53.000Z</time></trkpt>
        <trkpt lat="29.5669356" lon="103.4388561"><ele>499.83</ele><time>2025-09-12T22:26:59.000Z</time></trkpt>
        <trkpt lat="29.566894" lon="103.4388039"><ele>500.67</ele><time>2025-09-12T22:27:03.000Z</time></trkpt>
        <trkpt lat="29.566853" lon="103.4387575"><ele>501.84</ele><time>2025-09-12T22:27:09.000Z</time></trkpt>
        <trkpt lat="29.5668113" lon="103.4387145"><ele>500.91</ele><time>2025-09-12T22:27:15.000Z</time></trkpt>
        <trkpt lat="29.5667808" lon="103.4386581"><ele>499.08</ele><time>2025-09-12T22:27:25.000Z</time></trkpt>
        <trkpt lat="29.5667696" lon="103.4386032"><ele>498.77</ele><time>2025-09-12T22:27:29.000Z</time></trkpt>
        <trkpt lat="29.5667459" lon="103.4385563"><ele>498.9</ele><time>2025-09-12T22:27:35.000Z</time></trkpt>
        <trkpt lat="29.5667166" lon="103.4385083"><ele>499.27</ele><time>2025-09-12T22:27:41.000Z</time></trkpt>
        <trkpt lat="29.5667126" lon="103.4384404"><ele>499.64</ele><time>2025-09-12T22:27:47.000Z</time></trkpt>
        <trkpt lat="29.5666974" lon="103.4383741"><ele>499.96</ele><time>2025-09-12T22:27:53.000Z</time></trkpt>
        <trkpt lat="29.5666699" lon="103.4383079"><ele>500.17</ele><time>2025-09-12T22:27:59.000Z</time></trkpt>
        <trkpt lat="29.5666533" lon="103.4382501"><ele>500.63</ele><time>2025-09-12T22:28:05.000Z</time></trkpt>
        <trkpt lat="29.5666492" lon="103.4381856"><ele>502.68</ele><time>2025-09-12T22:28:11.000Z</time></trkpt>
        <trkpt lat="29.5666494" lon="103.4381303"><ele>504.18</ele><time>2025-09-12T22:28:15.000Z</time></trkpt>
        <trkpt lat="29.5666519" lon="103.4380686"><ele>504.61</ele><time>2025-09-12T22:28:23.000Z</time></trkpt>
        <trkpt lat="29.566659" lon="103.4380019"><ele>505.37</ele><time>2025-09-12T22:28:29.000Z</time></trkpt>
        <trkpt lat="29.5666357" lon="103.4379446"><ele>505.21</ele><time>2025-09-12T22:28:35.000Z</time></trkpt>
        <trkpt lat="29.5665952" lon="103.4379173"><ele>504.63</ele><time>2025-09-12T22:28:41.000Z</time></trkpt>
        <trkpt lat="29.5665456" lon="103.4378897"><ele>505.25</ele><time>2025-09-12T22:28:47.000Z</time></trkpt>
        <trkpt lat="29.5664921" lon="103.43786"><ele>505.3</ele><time>2025-09-12T22:28:53.000Z</time></trkpt>
        <trkpt lat="29.5664562" lon="103.4378066"><ele>505.43</ele><time>2025-09-12T22:28:59.000Z</time></trkpt>
        <trkpt lat="29.566429" lon="103.4377497"><ele>504.58</ele><time>2025-09-12T22:29:05.000Z</time></trkpt>
        <trkpt lat="29.5664008" lon="103.4377054"><ele>504.25</ele><time>2025-09-12T22:29:09.000Z</time></trkpt>
        <trkpt lat="29.5663653" lon="103.4376613"><ele>504.16</ele><time>2025-09-12T22:29:15.000Z</time></trkpt>
        <trkpt lat="29.566324" lon="103.4376169"><ele>505.5</ele><time>2025-09-12T22:29:21.000Z</time></trkpt>
        <trkpt lat="29.5662764" lon="103.4375788"><ele>507.09</ele><time>2025-09-12T22:29:29.000Z</time></trkpt>
        <trkpt lat="29.566228" lon="103.4375328"><ele>507.97</ele><time>2025-09-12T22:29:35.000Z</time></trkpt>
        <trkpt lat="29.5661862" lon="103.4374893"><ele>509.49</ele><time>2025-09-12T22:29:41.000Z</time></trkpt>
        <trkpt lat="29.5661406" lon="103.4374641"><ele>509.65</ele><time>2025-09-12T22:29:45.000Z</time></trkpt>
        <trkpt lat="29.5660998" lon="103.4374347"><ele>509.97</ele><time>2025-09-12T22:29:49.000Z</time></trkpt>
        <trkpt lat="29.5660635" lon="103.4373851"><ele>510.56</ele><time>2025-09-12T22:29:55.000Z</time></trkpt>
        <trkpt lat="29.5660388" lon="103.437324"><ele>511.58</ele><time>2025-09-12T22:30:01.000Z</time></trkpt>
        <trkpt lat="29.5660011" lon="103.4372737"><ele>513.5</ele><time>2025-09-12T22:30:07.000Z</time></trkpt>
        <trkpt lat="29.5659679" lon="103.43722"><ele>513.5</ele><time>2025-09-12T22:30:11.000Z</time></trkpt>
        <trkpt lat="29.56593" lon="103.4371608"><ele>514.32</ele><time>2025-09-12T22:30:15.000Z</time></trkpt>
        <trkpt lat="29.565897" lon="103.4371069"><ele>515.53</ele><time>2025-09-12T22:30:19.000Z</time></trkpt>
        <trkpt lat="29.56587" lon="103.4370611"><ele>516.78</ele><time>2025-09-12T22:30:23.000Z</time></trkpt>
        <trkpt lat="29.5658314" lon="103.4370185"><ele>518.14</ele><time>2025-09-12T22:30:29.000Z</time></trkpt>
        <trkpt lat="29.5657968" lon="103.4369775"><ele>518.58</ele><time>2025-09-12T22:30:37.000Z</time></trkpt>
        <trkpt lat="29.5658045" lon="103.4369223"><ele>519.27</ele><time>2025-09-12T22:30:47.000Z</time></trkpt>
        <trkpt lat="29.5658225" lon="103.4368647"><ele>517.74</ele><time>2025-09-12T22:30:53.000Z</time></trkpt>
        <trkpt lat="29.5658381" lon="103.4367968"><ele>515.96</ele><time>2025-09-12T22:30:59.000Z</time></trkpt>
        <trkpt lat="29.5658617" lon="103.4367271"><ele>514.28</ele><time>2025-09-12T22:31:05.000Z</time></trkpt>
        <trkpt lat="29.5658885" lon="103.4366637"><ele>512.73</ele><time>2025-09-12T22:31:11.000Z</time></trkpt>
        <trkpt lat="29.5659128" lon="103.4366079"><ele>513.24</ele><time>2025-09-12T22:31:17.000Z</time></trkpt>
        <trkpt lat="29.5658968" lon="103.4365457"><ele>513.66</ele><time>2025-09-12T22:31:23.000Z</time></trkpt>
        <trkpt lat="29.5658586" lon="103.436487"><ele>513.53</ele><time>2025-09-12T22:31:29.000Z</time></trkpt>
        <trkpt lat="29.5658212" lon="103.436427"><ele>514.52</ele><time>2025-09-12T22:31:35.000Z</time></trkpt>
        <trkpt lat="29.5657883" lon="103.4363696"><ele>516.15</ele><time>2025-09-12T22:31:41.000Z</time></trkpt>
        <trkpt lat="29.5657699" lon="103.436318"><ele>516.43</ele><time>2025-09-12T22:31:45.000Z</time></trkpt>
        <trkpt lat="29.56576" lon="103.4362632"><ele>516.83</ele><time>2025-09-12T22:31:49.000Z</time></trkpt>
        <trkpt lat="29.5657462" lon="103.4361914"><ele>517.39</ele><time>2025-09-12T22:31:55.000Z</time></trkpt>
        <trkpt lat="29.5657364" lon="103.4361243"><ele>517.82</ele><time>2025-09-12T22:32:01.000Z</time></trkpt>
        <trkpt lat="29.565725" lon="103.4360697"><ele>517.44</ele><time>2025-09-12T22:32:07.000Z</time></trkpt>
        <trkpt lat="29.5657175" lon="103.4360127"><ele>517.84</ele><time>2025-09-12T22:32:15.000Z</time></trkpt>
        <trkpt lat="29.5657091" lon="103.4359518"><ele>517.23</ele><time>2025-09-12T22:32:23.000Z</time></trkpt>
        <trkpt lat="29.5656945" lon="103.4358994"><ele>516.77</ele><time>2025-09-12T22:32:29.000Z</time></trkpt>
        <trkpt lat="29.5656722" lon="103.4358477"><ele>516.36</ele><time>2025-09-12T22:32:35.000Z</time></trkpt>
        <trkpt lat="29.5656618" lon="103.4357966"><ele>515.9</ele><time>2025-09-12T22:32:53.000Z</time></trkpt>
        <trkpt lat="29.5656237" lon="103.4357919"><ele>517.61</ele><time>2025-09-12T22:33:09.000Z</time></trkpt>
        <trkpt lat="29.5655933" lon="103.4357606"><ele>519.85</ele><time>2025-09-12T22:33:15.000Z</time></trkpt>
        <trkpt lat="29.5655686" lon="103.435716"><ele>520.78</ele><time>2025-09-12T22:33:19.000Z</time></trkpt>
        <trkpt lat="29.5655376" lon="103.435677"><ele>521.94</ele><time>2025-09-12T22:33:23.000Z</time></trkpt>
        <trkpt lat="29.5655053" lon="103.4356214"><ele>524.2</ele><time>2025-09-12T22:33:31.000Z</time></trkpt>
        <trkpt lat="29.5655304" lon="103.4355643"><ele>523.7</ele><time>2025-09-12T22:33:37.000Z</time></trkpt>
        <trkpt lat="29.565582" lon="103.4355301"><ele>524.38</ele><time>2025-09-12T22:33:43.000Z</time></trkpt>
        <trkpt lat="29.5656176" lon="103.4354835"><ele>524.74</ele><time>2025-09-12T22:33:49.000Z</time></trkpt>
        <trkpt lat="29.5656042" lon="103.4354268"><ele>524.33</ele><time>2025-09-12T22:33:55.000Z</time></trkpt>
        <trkpt lat="29.565583" lon="103.43537"><ele>524.59</ele><time>2025-09-12T22:34:03.000Z</time></trkpt>
        <trkpt lat="29.5656028" lon="103.4353219"><ele>526.31</ele><time>2025-09-12T22:34:09.000Z</time></trkpt>
        <trkpt lat="29.5656087" lon="103.4352615"><ele>527.22</ele><time>2025-09-12T22:34:19.000Z</time></trkpt>
        <trkpt lat="29.5656291" lon="103.4351995"><ele>527.21</ele><time>2025-09-12T22:34:25.000Z</time></trkpt>
        <trkpt lat="29.5655993" lon="103.4351518"><ele>526.66</ele><time>2025-09-12T22:34:31.000Z</time></trkpt>
        <trkpt lat="29.5655658" lon="103.4351018"><ele>526.33</ele><time>2025-09-12T22:34:35.000Z</time></trkpt>
        <trkpt lat="29.5655314" lon="103.4350599"><ele>526.57</ele><time>2025-09-12T22:34:39.000Z</time></trkpt>
        <trkpt lat="29.5655505" lon="103.4350283"><ele>527.98</ele><time>2025-09-12T22:34:45.000Z</time></trkpt>
        <trkpt lat="29.5656024" lon="103.4350374"><ele>529.41</ele><time>2025-09-12T22:34:49.000Z</time></trkpt>
        <trkpt lat="29.5656568" lon="103.4350637"><ele>531.05</ele><time>2025-09-12T22:34:53.000Z</time></trkpt>
        <trkpt lat="29.5656973" lon="103.4351104"><ele>531.36</ele><time>2025-09-12T22:34:59.000Z</time></trkpt>
        <trkpt lat="29.5657299" lon="103.4351635"><ele>531.16</ele><time>2025-09-12T22:35:03.000Z</time></trkpt>
        <trkpt lat="29.5657807" lon="103.4351945"><ele>531.88</ele><time>2025-09-12T22:35:09.000Z</time></trkpt>
        <trkpt lat="29.5658288" lon="103.4351774"><ele>533.19</ele><time>2025-09-12T22:35:15.000Z</time></trkpt>
        <trkpt lat="29.565869" lon="103.4351245"><ele>534.97</ele><time>2025-09-12T22:35:23.000Z</time></trkpt>
        <trkpt lat="29.5658677" lon="103.4350595"><ele>534.84</ele><time>2025-09-12T22:35:27.000Z</time></trkpt>
        <trkpt lat="29.5658264" lon="103.4350056"><ele>534.42</ele><time>2025-09-12T22:35:31.000Z</time></trkpt>
        <trkpt lat="29.5657776" lon="103.4349732"><ele>534.35</ele><time>2025-09-12T22:35:35.000Z</time></trkpt>
        <trkpt lat="29.5657402" lon="103.4349311"><ele>534.29</ele><time>2025-09-12T22:35:39.000Z</time></trkpt>
        <trkpt lat="29.5656971" lon="103.4348924"><ele>534.83</ele><time>2025-09-12T22:35:45.000Z</time></trkpt>
        <trkpt lat="29.5656554" lon="103.4348543"><ele>536.06</ele><time>2025-09-12T22:35:49.000Z</time></trkpt>
        <trkpt lat="29.5656118" lon="103.4348316"><ele>537.27</ele><time>2025-09-12T22:35:55.000Z</time></trkpt>
        <trkpt lat="29.5655823" lon="103.4347811"><ele>538.84</ele><time>2025-09-12T22:36:01.000Z</time></trkpt>
        <trkpt lat="29.565565" lon="103.4347159"><ele>539.18</ele><time>2025-09-12T22:36:09.000Z</time></trkpt>
        <trkpt lat="29.5655479" lon="103.4346453"><ele>539.98</ele><time>2025-09-12T22:36:15.000Z</time></trkpt>
        <trkpt lat="29.5655348" lon="103.4345806"><ele>541.63</ele><time>2025-09-12T22:36:21.000Z</time></trkpt>
        <trkpt lat="29.5655407" lon="103.4345225"><ele>541.8</ele><time>2025-09-12T22:36:25.000Z</time></trkpt>
        <trkpt lat="29.5655642" lon="103.4344725"><ele>541.56</ele><time>2025-09-12T22:36:30.000Z</time></trkpt>
        <trkpt lat="29.5655958" lon="103.4344224"><ele>541.19</ele><time>2025-09-12T22:36:36.000Z</time></trkpt>
        <trkpt lat="29.5656516" lon="103.4343908"><ele>541.75</ele><time>2025-09-12T22:36:42.000Z</time></trkpt>
        <trkpt lat="29.5656805" lon="103.4343394"><ele>543.01</ele><time>2025-09-12T22:36:48.000Z</time></trkpt>
        <trkpt lat="29.5657191" lon="103.4343006"><ele>544.69</ele><time>2025-09-12T22:36:54.000Z</time></trkpt>
        <trkpt lat="29.5657547" lon="103.4342647"><ele>546.1</ele><time>2025-09-12T22:37:00.000Z</time></trkpt>
        <trkpt lat="29.5657918" lon="103.4342211"><ele>546.94</ele><time>2025-09-12T22:37:08.000Z</time></trkpt>
        <trkpt lat="29.5658165" lon="103.4341684"><ele>547.62</ele><time>2025-09-12T22:37:16.000Z</time></trkpt>
        <trkpt lat="29.5657934" lon="103.434105"><ele>548.54</ele><time>2025-09-12T22:37:28.000Z</time></trkpt>
        <trkpt lat="29.5657666" lon="103.4340433"><ele>549.98</ele><time>2025-09-12T22:37:32.000Z</time></trkpt>
        <trkpt lat="29.5657372" lon="103.4339941"><ele>551.21</ele><time>2025-09-12T22:37:36.000Z</time></trkpt>
        <trkpt lat="29.565723" lon="103.4339325"><ele>552.88</ele><time>2025-09-12T22:37:44.000Z</time></trkpt>
        <trkpt lat="29.5657248" lon="103.4338741"><ele>555.16</ele><time>2025-09-12T22:37:50.000Z</time></trkpt>
        <trkpt lat="29.5657033" lon="103.4338156"><ele>556.06</ele><time>2025-09-12T22:37:56.000Z</time></trkpt>
        <trkpt lat="29.5657289" lon="103.4337608"><ele>556.68</ele><time>2025-09-12T22:38:04.000Z</time></trkpt>
        <trkpt lat="29.5657273" lon="103.4337016"><ele>555.5</ele><time>2025-09-12T22:38:12.000Z</time></trkpt>
        <trkpt lat="29.5657373" lon="103.4336389"><ele>555.05</ele><time>2025-09-12T22:38:22.000Z</time></trkpt>
        <trkpt lat="29.5657373" lon="103.4336389"><ele>555.05</ele><time>2025-09-12T22:38:35.000Z</time></trkpt>
        <trkpt lat="29.5657563" lon="103.4335834"><ele>556.07</ele><time>2025-09-12T22:38:37.000Z</time></trkpt>
        <trkpt lat="29.5657563" lon="103.4335834"><ele>556.07</ele><time>2025-09-12T22:38:38.000Z</time></trkpt>
        <trkpt lat="29.5657869" lon="103.4335419"><ele>554.5</ele><time>2025-09-12T22:38:42.000Z</time></trkpt>
        <trkpt lat="29.5658152" lon="103.4334837"><ele>553.87</ele><time>2025-09-12T22:38:48.000Z</time></trkpt>
        <trkpt lat="29.565826" lon="103.4334189"><ele>554.2</ele><time>2025-09-12T22:38:54.000Z</time></trkpt>
        <trkpt lat="29.56583" lon="103.4333614"><ele>556.33</ele><time>2025-09-12T22:39:02.000Z</time></trkpt>
        <trkpt lat="29.5658025" lon="103.4332962"><ele>557.96</ele><time>2025-09-12T22:39:08.000Z</time></trkpt>
        <trkpt lat="29.5657665" lon="103.4332247"><ele>557.62</ele><time>2025-09-12T22:39:14.000Z</time></trkpt>
        <trkpt lat="29.565747" lon="103.4331495"><ele>556.85</ele><time>2025-09-12T22:39:20.000Z</time></trkpt>
        <trkpt lat="29.5657407" lon="103.4330701"><ele>555.76</ele><time>2025-09-12T22:39:26.000Z</time></trkpt>
        <trkpt lat="29.5657101" lon="103.4330004"><ele>557.68</ele><time>2025-09-12T22:39:36.000Z</time></trkpt>
        <trkpt lat="29.5656836" lon="103.4329481"><ele>557.63</ele><time>2025-09-12T22:39:40.000Z</time></trkpt>
        <trkpt lat="29.5656508" lon="103.4329077"><ele>556.71</ele><time>2025-09-12T22:39:44.000Z</time></trkpt>
        <trkpt lat="29.565637" lon="103.43285"><ele>556.5</ele><time>2025-09-12T22:39:48.000Z</time></trkpt>
        <trkpt lat="29.5656121" lon="103.4328012"><ele>555.98</ele><time>2025-09-12T22:39:52.000Z</time></trkpt>
        <trkpt lat="29.5655758" lon="103.4327513"><ele>556.15</ele><time>2025-09-12T22:39:56.000Z</time></trkpt>
        <trkpt lat="29.5655631" lon="103.4326982"><ele>556.48</ele><time>2025-09-12T22:40:00.000Z</time></trkpt>
        <trkpt lat="29.5655385" lon="103.4326448"><ele>555.32</ele><time>2025-09-12T22:40:04.000Z</time></trkpt>
        <trkpt lat="29.5655083" lon="103.4325899"><ele>553.9</ele><time>2025-09-12T22:40:12.000Z</time></trkpt>
        <trkpt lat="29.5654902" lon="103.4325355"><ele>553.66</ele><time>2025-09-12T22:40:18.000Z</time></trkpt>
        <trkpt lat="29.5654751" lon="103.4324592"><ele>554.87</ele><time>2025-09-12T22:40:24.000Z</time></trkpt>
        <trkpt lat="29.5654592" lon="103.4323922"><ele>555.6</ele><time>2025-09-12T22:40:30.000Z</time></trkpt>
        <trkpt lat="29.5654479" lon="103.4323214"><ele>557.13</ele><time>2025-09-12T22:40:36.000Z</time></trkpt>
        <trkpt lat="29.5654322" lon="103.4322512"><ele>558.94</ele><time>2025-09-12T22:40:42.000Z</time></trkpt>
        <trkpt lat="29.5654129" lon="103.4321828"><ele>560.02</ele><time>2025-09-12T22:40:48.000Z</time></trkpt>
        <trkpt lat="29.5653912" lon="103.4321175"><ele>561.35</ele><time>2025-09-12T22:40:54.000Z</time></trkpt>
        <trkpt lat="29.5653674" lon="103.4320586"><ele>560.86</ele><time>2025-09-12T22:41:00.000Z</time></trkpt>
        <trkpt lat="29.5653499" lon="103.4319897"><ele>560.13</ele><time>2025-09-12T22:41:06.000Z</time></trkpt>
        <trkpt lat="29.5653213" lon="103.4319315"><ele>559.81</ele><time>2025-09-12T22:41:12.000Z</time></trkpt>
        <trkpt lat="29.565333" lon="103.4318664"><ele>559.47</ele><time>2025-09-12T22:41:18.000Z</time></trkpt>
        <trkpt lat="29.565378" lon="103.4318114"><ele>559.68</ele><time>2025-09-12T22:41:24.000Z</time></trkpt>
        <trkpt lat="29.5654182" lon="103.431758"><ele>558.26</ele><time>2025-09-12T22:41:32.000Z</time></trkpt>
        <trkpt lat="29.5654427" lon="103.4317019"><ele>558.43</ele><time>2025-09-12T22:41:38.000Z</time></trkpt>
        <trkpt lat="29.5654689" lon="103.4316481"><ele>558.68</ele><time>2025-09-12T22:41:44.000Z</time></trkpt>
        <trkpt lat="29.5654791" lon="103.4315959"><ele>559.04</ele><time>2025-09-12T22:41:48.000Z</time></trkpt>
        <trkpt lat="29.5654974" lon="103.4315425"><ele>559.01</ele><time>2025-09-12T22:41:56.000Z</time></trkpt>
        <trkpt lat="29.5655144" lon="103.4314783"><ele>560.07</ele><time>2025-09-12T22:42:04.000Z</time></trkpt>
        <trkpt lat="29.5655249" lon="103.4314122"><ele>561.51</ele><time>2025-09-12T22:42:12.000Z</time></trkpt>
        <trkpt lat="29.5655326" lon="103.4313548"><ele>563.26</ele><time>2025-09-12T22:42:20.000Z</time></trkpt>
        <trkpt lat="29.5655594" lon="103.4312921"><ele>565.4</ele><time>2025-09-12T22:42:30.000Z</time></trkpt>
        <trkpt lat="29.5655656" lon="103.431228"><ele>566.41</ele><time>2025-09-12T22:42:36.000Z</time></trkpt>
        <trkpt lat="29.5655703" lon="103.4311613"><ele>567.37</ele><time>2025-09-12T22:42:42.000Z</time></trkpt>
        <trkpt lat="29.5655811" lon="103.4310955"><ele>569.26</ele><time>2025-09-12T22:42:48.000Z</time></trkpt>
        <trkpt lat="29.5655804" lon="103.4310268"><ele>570.87</ele><time>2025-09-12T22:42:52.000Z</time></trkpt>
        <trkpt lat="29.5655688" lon="103.4309595"><ele>572.75</ele><time>2025-09-12T22:42:58.000Z</time></trkpt>
        <trkpt lat="29.5655202" lon="103.4309162"><ele>573.34</ele><time>2025-09-12T22:43:04.000Z</time></trkpt>
        <trkpt lat="29.5654698" lon="103.4308934"><ele>573.82</ele><time>2025-09-12T22:43:08.000Z</time></trkpt>
        <trkpt lat="29.5654211" lon="103.4308655"><ele>573.8</ele><time>2025-09-12T22:43:14.000Z</time></trkpt>
        <trkpt lat="29.5653791" lon="103.4308267"><ele>575.33</ele><time>2025-09-12T22:43:20.000Z</time></trkpt>
        <trkpt lat="29.5653657" lon="103.4307511"><ele>576.75</ele><time>2025-09-12T22:43:24.000Z</time></trkpt>
        <trkpt lat="29.5653565" lon="103.4306823"><ele>576.91</ele><time>2025-09-12T22:43:30.000Z</time></trkpt>
        <trkpt lat="29.5653596" lon="103.4306206"><ele>577.12</ele><time>2025-09-12T22:43:38.000Z</time></trkpt>
        <trkpt lat="29.5653481" lon="103.4305515"><ele>578.25</ele><time>2025-09-12T22:43:44.000Z</time></trkpt>
        <trkpt lat="29.5653291" lon="103.4304907"><ele>578.37</ele><time>2025-09-12T22:43:50.000Z</time></trkpt>
        <trkpt lat="29.5653182" lon="103.4304341"><ele>578.86</ele><time>2025-09-12T22:43:56.000Z</time></trkpt>
        <trkpt lat="29.5653115" lon="103.4303622"><ele>579.22</ele><time>2025-09-12T22:44:02.000Z</time></trkpt>
        <trkpt lat="29.565305" lon="103.4302932"><ele>579.28</ele><time>2025-09-12T22:44:08.000Z</time></trkpt>
        <trkpt lat="29.5653014" lon="103.4302337"><ele>578.82</ele><time>2025-09-12T22:44:12.000Z</time></trkpt>
        <trkpt lat="29.5653009" lon="103.4301698"><ele>579.29</ele><time>2025-09-12T22:44:18.000Z</time></trkpt>
        <trkpt lat="29.5653014" lon="103.4301103"><ele>579.26</ele><time>2025-09-12T22:44:24.000Z</time></trkpt>
        <trkpt lat="29.5652988" lon="103.4300554"><ele>579.32</ele><time>2025-09-12T22:44:28.000Z</time></trkpt>
        <trkpt lat="29.5652881" lon="103.4299974"><ele>578.95</ele><time>2025-09-12T22:44:34.000Z</time></trkpt>
        <trkpt lat="29.5652707" lon="103.4299379"><ele>579.51</ele><time>2025-09-12T22:44:40.000Z</time></trkpt>
        <trkpt lat="29.5652379" lon="103.4298733"><ele>580.5</ele><time>2025-09-12T22:44:46.000Z</time></trkpt>
        <trkpt lat="29.5652062" lon="103.4298125"><ele>581.21</ele><time>2025-09-12T22:44:52.000Z</time></trkpt>
        <trkpt lat="29.5651807" lon="103.4297393"><ele>581.51</ele><time>2025-09-12T22:44:58.000Z</time></trkpt>
        <trkpt lat="29.5651657" lon="103.429678"><ele>582.13</ele><time>2025-09-12T22:45:04.000Z</time></trkpt>
        <trkpt lat="29.5651539" lon="103.4296127"><ele>583.37</ele><time>2025-09-12T22:45:10.000Z</time></trkpt>
        <trkpt lat="29.5651236" lon="103.4295742"><ele>584.78</ele><time>2025-09-12T22:45:16.000Z</time></trkpt>
        <trkpt lat="29.5650913" lon="103.4295317"><ele>585.11</ele><time>2025-09-12T22:45:24.000Z</time></trkpt>
        <trkpt lat="29.565076" lon="103.4294813"><ele>583.93</ele><time>2025-09-12T22:45:28.000Z</time></trkpt>
        <trkpt lat="29.5650514" lon="103.4294283"><ele>583.26</ele><time>2025-09-12T22:45:34.000Z</time></trkpt>
        <trkpt lat="29.5650187" lon="103.4293835"><ele>582.77</ele><time>2025-09-12T22:45:40.000Z</time></trkpt>
        <trkpt lat="29.5649875" lon="103.4293248"><ele>583.56</ele><time>2025-09-12T22:45:46.000Z</time></trkpt>
        <trkpt lat="29.5649605" lon="103.4292633"><ele>582.79</ele><time>2025-09-12T22:45:52.000Z</time></trkpt>
        <trkpt lat="29.5649426" lon="103.4291972"><ele>581.41</ele><time>2025-09-12T22:45:58.000Z</time></trkpt>
        <trkpt lat="29.5649322" lon="103.4291309"><ele>581.79</ele><time>2025-09-12T22:46:04.000Z</time></trkpt>
        <trkpt lat="29.5649119" lon="103.4290657"><ele>582.18</ele><time>2025-09-12T22:46:10.000Z</time></trkpt>
        <trkpt lat="29.5648919" lon="103.4289978"><ele>582.74</ele><time>2025-09-12T22:46:16.000Z</time></trkpt>
        <trkpt lat="29.5648778" lon="103.4289264"><ele>583.15</ele><time>2025-09-12T22:46:22.000Z</time></trkpt>
        <trkpt lat="29.5648613" lon="103.4288549"><ele>583</ele><time>2025-09-12T22:46:28.000Z</time></trkpt>
        <trkpt lat="29.5648458" lon="103.4287845"><ele>582.24</ele><time>2025-09-12T22:46:34.000Z</time></trkpt>
        <trkpt lat="29.5648334" lon="103.4287177"><ele>582.57</ele><time>2025-09-12T22:46:40.000Z</time></trkpt>
        <trkpt lat="29.5648341" lon="103.4286488"><ele>583.87</ele><time>2025-09-12T22:46:46.000Z</time></trkpt>
        <trkpt lat="29.5648437" lon="103.4285641"><ele>584.18</ele><time>2025-09-12T22:46:56.000Z</time></trkpt>
        <trkpt lat="29.564851" lon="103.4284966"><ele>585.7</ele><time>2025-09-12T22:47:02.000Z</time></trkpt>
        <trkpt lat="29.5648878" lon="103.428458"><ele>585.73</ele><time>2025-09-12T22:47:08.000Z</time></trkpt>
        <trkpt lat="29.5649433" lon="103.4284308"><ele>586.31</ele><time>2025-09-12T22:47:14.000Z</time></trkpt>
        <trkpt lat="29.5649958" lon="103.4284143"><ele>586.43</ele><time>2025-09-12T22:47:18.000Z</time></trkpt>
        <trkpt lat="29.5650445" lon="103.4283895"><ele>587.29</ele><time>2025-09-12T22:47:24.000Z</time></trkpt>
        <trkpt lat="29.5651048" lon="103.4283631"><ele>588.17</ele><time>2025-09-12T22:47:30.000Z</time></trkpt>
        <trkpt lat="29.5651607" lon="103.4283354"><ele>589.67</ele><time>2025-09-12T22:47:36.000Z</time></trkpt>
        <trkpt lat="29.5652035" lon="103.4283052"><ele>590.74</ele><time>2025-09-12T22:47:40.000Z</time></trkpt>
        <trkpt lat="29.5652448" lon="103.4282583"><ele>591.73</ele><time>2025-09-12T22:47:46.000Z</time></trkpt>
        <trkpt lat="29.5652869" lon="103.4282122"><ele>591.46</ele><time>2025-09-12T22:47:52.000Z</time></trkpt>
        <trkpt lat="29.5653337" lon="103.4281714"><ele>591.42</ele><time>2025-09-12T22:47:58.000Z</time></trkpt>
        <trkpt lat="29.5653774" lon="103.4281264"><ele>591.84</ele><time>2025-09-12T22:48:04.000Z</time></trkpt>
        <trkpt lat="29.5654313" lon="103.4280917"><ele>592.95</ele><time>2025-09-12T22:48:10.000Z</time></trkpt>
        <trkpt lat="29.5654743" lon="103.4280536"><ele>594.23</ele><time>2025-09-12T22:48:14.000Z</time></trkpt>
        <trkpt lat="29.5655075" lon="103.4279903"><ele>595.22</ele><time>2025-09-12T22:48:20.000Z</time></trkpt>
        <trkpt lat="29.5655212" lon="103.4279161"><ele>596.24</ele><time>2025-09-12T22:48:26.000Z</time></trkpt>
        <trkpt lat="29.5655097" lon="103.4278479"><ele>597.32</ele><time>2025-09-12T22:48:30.000Z</time></trkpt>
        <trkpt lat="29.5655011" lon="103.4277832"><ele>598.65</ele><time>2025-09-12T22:48:34.000Z</time></trkpt>
        <trkpt lat="29.5654912" lon="103.4277071"><ele>599.07</ele><time>2025-09-12T22:48:40.000Z</time></trkpt>
        <trkpt lat="29.5654888" lon="103.4276317"><ele>597.76</ele><time>2025-09-12T22:48:46.000Z</time></trkpt>
        <trkpt lat="29.565484" lon="103.4275634"><ele>596.74</ele><time>2025-09-12T22:48:52.000Z</time></trkpt>
        <trkpt lat="29.5654698" lon="103.4275037"><ele>594.8</ele><time>2025-09-12T22:48:58.000Z</time></trkpt>
        <trkpt lat="29.5654544" lon="103.427442"><ele>593.85</ele><time>2025-09-12T22:49:04.000Z</time></trkpt>
        <trkpt lat="29.5654378" lon="103.4273795"><ele>593.7</ele><time>2025-09-12T22:49:10.000Z</time></trkpt>
        <trkpt lat="29.5654205" lon="103.4273149"><ele>593.11</ele><time>2025-09-12T22:49:16.000Z</time></trkpt>
        <trkpt lat="29.5653913" lon="103.4272518"><ele>594.01</ele><time>2025-09-12T22:49:22.000Z</time></trkpt>
        <trkpt lat="29.5653653" lon="103.4271931"><ele>596.39</ele><time>2025-09-12T22:49:28.000Z</time></trkpt>
        <trkpt lat="29.56534" lon="103.4271438"><ele>598.2</ele><time>2025-09-12T22:49:34.000Z</time></trkpt>
        <trkpt lat="29.5653013" lon="103.4271093"><ele>597.62</ele><time>2025-09-12T22:49:40.000Z</time></trkpt>
        <trkpt lat="29.565259" lon="103.4270654"><ele>596.49</ele><time>2025-09-12T22:49:46.000Z</time></trkpt>
        <trkpt lat="29.5652058" lon="103.4270332"><ele>596.72</ele><time>2025-09-12T22:49:52.000Z</time></trkpt>
        <trkpt lat="29.565151" lon="103.4269933"><ele>597.93</ele><time>2025-09-12T22:49:58.000Z</time></trkpt>
        <trkpt lat="29.5651124" lon="103.4269534"><ele>599.3</ele><time>2025-09-12T22:50:02.000Z</time></trkpt>
        <trkpt lat="29.5650702" lon="103.4269138"><ele>601.04</ele><time>2025-09-12T22:50:08.000Z</time></trkpt>
        <trkpt lat="29.5650222" lon="103.4268918"><ele>602.84</ele><time>2025-09-12T22:50:14.000Z</time></trkpt>
        <trkpt lat="29.5649779" lon="103.4268571"><ele>603.64</ele><time>2025-09-12T22:50:20.000Z</time></trkpt>
        <trkpt lat="29.564952" lon="103.4268021"><ele>603.98</ele><time>2025-09-12T22:50:26.000Z</time></trkpt>
        <trkpt lat="29.5649448" lon="103.4267395"><ele>604.78</ele><time>2025-09-12T22:50:32.000Z</time></trkpt>
        <trkpt lat="29.564964" lon="103.4266849"><ele>607.48</ele><time>2025-09-12T22:50:42.000Z</time></trkpt>
        <trkpt lat="29.5649624" lon="103.4266284"><ele>609.86</ele><time>2025-09-12T22:50:54.000Z</time></trkpt>
        <trkpt lat="29.5649756" lon="103.4265721"><ele>609.99</ele><time>2025-09-12T22:51:08.000Z</time></trkpt>
        <trkpt lat="29.5650137" lon="103.4265376"><ele>608.52</ele><time>2025-09-12T22:51:20.000Z</time></trkpt>
        <trkpt lat="29.5650316" lon="103.4264904"><ele>608.73</ele><time>2025-09-12T22:51:32.000Z</time></trkpt>
        <trkpt lat="29.5650723" lon="103.4264642"><ele>609.18</ele><time>2025-09-12T22:51:40.000Z</time></trkpt>
        <trkpt lat="29.5650992" lon="103.4264203"><ele>610.62</ele><time>2025-09-12T22:51:54.000Z</time></trkpt>
        <trkpt lat="29.565136" lon="103.4263858"><ele>612.84</ele><time>2025-09-12T22:52:04.000Z</time></trkpt>
        <trkpt lat="29.565112" lon="103.4263517"><ele>613.23</ele><time>2025-09-12T22:52:12.000Z</time></trkpt>
        <trkpt lat="29.5651142" lon="103.4263076"><ele>614.69</ele><time>2025-09-12T22:52:22.000Z</time></trkpt>
        <trkpt lat="29.5651383" lon="103.4262656"><ele>615.69</ele><time>2025-09-12T22:52:30.000Z</time></trkpt>
        <trkpt lat="29.5651718" lon="103.4262226"><ele>617.87</ele><time>2025-09-12T22:52:44.000Z</time></trkpt>
        <trkpt lat="29.5651719" lon="103.4261688"><ele>620.51</ele><time>2025-09-12T22:52:56.000Z</time></trkpt>
        <trkpt lat="29.5651888" lon="103.4261149"><ele>622.94</ele><time>2025-09-12T22:53:16.000Z</time></trkpt>
        <trkpt lat="29.5652257" lon="103.4260706"><ele>626.16</ele><time>2025-09-12T22:53:32.000Z</time></trkpt>
        <trkpt lat="29.5652578" lon="103.4260252"><ele>628.73</ele><time>2025-09-12T22:53:48.000Z</time></trkpt>
        <trkpt lat="29.5652853" lon="103.4259761"><ele>632.07</ele><time>2025-09-12T22:54:02.000Z</time></trkpt>
        <trkpt lat="29.5652994" lon="103.4259248"><ele>636.18</ele><time>2025-09-12T22:54:14.000Z</time></trkpt>
        <trkpt lat="29.5653123" lon="103.4258722"><ele>639.44</ele><time>2025-09-12T22:54:28.000Z</time></trkpt>
        <trkpt lat="29.5653232" lon="103.4258132"><ele>641.83</ele><time>2025-09-12T22:54:40.000Z</time></trkpt>
        <trkpt lat="29.5653025" lon="103.4257538"><ele>643.56</ele><time>2025-09-12T22:54:46.000Z</time></trkpt>
        <trkpt lat="29.5652777" lon="103.4256834"><ele>644.33</ele><time>2025-09-12T22:54:52.000Z</time></trkpt>
        <trkpt lat="29.565227" lon="103.4256103"><ele>645.37</ele><time>2025-09-12T22:54:56.000Z</time></trkpt>
        <trkpt lat="29.5651606" lon="103.4255821"><ele>644.53</ele><time>2025-09-12T22:55:00.000Z</time></trkpt>
        <trkpt lat="29.5651446" lon="103.425598"><ele>643.92</ele><time>2025-09-12T22:55:04.000Z</time></trkpt>
        <trkpt lat="29.5651138" lon="103.4255834"><ele>642.37</ele><time>2025-09-12T22:55:14.000Z</time></trkpt>
        <trkpt lat="29.5650823" lon="103.4255507"><ele>641.89</ele><time>2025-09-12T22:55:18.000Z</time></trkpt>
        <trkpt lat="29.5650516" lon="103.4255096"><ele>643.44</ele><time>2025-09-12T22:55:22.000Z</time></trkpt>
        <trkpt lat="29.5650275" lon="103.4254629"><ele>644.72</ele><time>2025-09-12T22:55:26.000Z</time></trkpt>
        <trkpt lat="29.5650042" lon="103.4254121"><ele>646.98</ele><time>2025-09-12T22:55:30.000Z</time></trkpt>
        <trkpt lat="29.5649706" lon="103.4253459"><ele>647.5</ele><time>2025-09-12T22:55:36.000Z</time></trkpt>
        <trkpt lat="29.5649381" lon="103.4252953"><ele>647.44</ele><time>2025-09-12T22:55:40.000Z</time></trkpt>
        <trkpt lat="29.564893" lon="103.425254"><ele>646.38</ele><time>2025-09-12T22:55:46.000Z</time></trkpt>
        <trkpt lat="29.5648471" lon="103.4252108"><ele>644.12</ele><time>2025-09-12T22:55:52.000Z</time></trkpt>
        <trkpt lat="29.5647975" lon="103.4251638"><ele>642.72</ele><time>2025-09-12T22:55:58.000Z</time></trkpt>
        <trkpt lat="29.5647588" lon="103.4251152"><ele>643.67</ele><time>2025-09-12T22:56:04.000Z</time></trkpt>
        <trkpt lat="29.5647333" lon="103.4250646"><ele>644.06</ele><time>2025-09-12T22:56:14.000Z</time></trkpt>
        <trkpt lat="29.5647381" lon="103.4250113"><ele>640.64</ele><time>2025-09-12T22:56:26.000Z</time></trkpt>
        <trkpt lat="29.5647367" lon="103.4249559"><ele>643.04</ele><time>2025-09-12T22:56:40.000Z</time></trkpt>
        <trkpt lat="29.5647266" lon="103.4249014"><ele>648.27</ele><time>2025-09-12T22:56:48.000Z</time></trkpt>
        <trkpt lat="29.5647281" lon="103.4248436"><ele>650.64</ele><time>2025-09-12T22:56:56.000Z</time></trkpt>
        <trkpt lat="29.5647318" lon="103.4247856"><ele>652.22</ele><time>2025-09-12T22:57:04.000Z</time></trkpt>
        <trkpt lat="29.5647155" lon="103.4247332"><ele>651.33</ele><time>2025-09-12T22:57:14.000Z</time></trkpt>
        <trkpt lat="29.5647019" lon="103.4246729"><ele>652.99</ele><time>2025-09-12T22:57:24.000Z</time></trkpt>
        <trkpt lat="29.564708" lon="103.4246137"><ele>656.2</ele><time>2025-09-12T22:57:32.000Z</time></trkpt>
        <trkpt lat="29.5647174" lon="103.4245533"><ele>659.8</ele><time>2025-09-12T22:57:38.000Z</time></trkpt>
        <trkpt lat="29.5647045" lon="103.424495"><ele>662.06</ele><time>2025-09-12T22:57:44.000Z</time></trkpt>
        <trkpt lat="29.564693" lon="103.424437"><ele>664.37</ele><time>2025-09-12T22:57:52.000Z</time></trkpt>
        <trkpt lat="29.5646781" lon="103.4243854"><ele>666.21</ele><time>2025-09-12T22:57:58.000Z</time></trkpt>
        <trkpt lat="29.5646443" lon="103.4243383"><ele>665.75</ele><time>2025-09-12T22:58:06.000Z</time></trkpt>
        <trkpt lat="29.5646032" lon="103.4242973"><ele>665.16</ele><time>2025-09-12T22:58:14.000Z</time></trkpt>
        <trkpt lat="29.564595" lon="103.4242375"><ele>664.03</ele><time>2025-09-12T22:58:22.000Z</time></trkpt>
        <trkpt lat="29.5646211" lon="103.4241883"><ele>664.68</ele><time>2025-09-12T22:58:28.000Z</time></trkpt>
        <trkpt lat="29.5646084" lon="103.4241456"><ele>665.17</ele><time>2025-09-12T22:58:36.000Z</time></trkpt>
        <trkpt lat="29.5645694" lon="103.4241311"><ele>667.11</ele><time>2025-09-12T22:58:50.000Z</time></trkpt>
        <trkpt lat="29.5645242" lon="103.424112"><ele>666.14</ele><time>2025-09-12T22:59:04.000Z</time></trkpt>
        <trkpt lat="29.5644924" lon="103.4240707"><ele>665.06</ele><time>2025-09-12T22:59:14.000Z</time></trkpt>
        <trkpt lat="29.5644889" lon="103.4240175"><ele>666.06</ele><time>2025-09-12T22:59:20.000Z</time></trkpt>
        <trkpt lat="29.5644678" lon="103.4239616"><ele>666.76</ele><time>2025-09-12T22:59:30.000Z</time></trkpt>
        <trkpt lat="29.5644351" lon="103.4239094"><ele>667.79</ele><time>2025-09-12T22:59:40.000Z</time></trkpt>
        <trkpt lat="29.5644015" lon="103.4238577"><ele>670.76</ele><time>2025-09-12T22:59:48.000Z</time></trkpt>
        <trkpt lat="29.5643641" lon="103.4238175"><ele>673.12</ele><time>2025-09-12T22:59:58.000Z</time></trkpt>
        <trkpt lat="29.5643717" lon="103.4237705"><ele>675.5</ele><time>2025-09-12T23:00:06.000Z</time></trkpt>
        <trkpt lat="29.5644017" lon="103.4237276"><ele>676.55</ele><time>2025-09-12T23:00:14.000Z</time></trkpt>
        <trkpt lat="29.5644009" lon="103.423673"><ele>678.09</ele><time>2025-09-12T23:00:22.000Z</time></trkpt>
        <trkpt lat="29.5643889" lon="103.4236149"><ele>680.53</ele><time>2025-09-12T23:00:30.000Z</time></trkpt>
        <trkpt lat="29.5643975" lon="103.4235562"><ele>682.17</ele><time>2025-09-12T23:00:36.000Z</time></trkpt>
        <trkpt lat="29.5644349" lon="103.4235191"><ele>683.23</ele><time>2025-09-12T23:00:42.000Z</time></trkpt>
        <trkpt lat="29.5644774" lon="103.4234791"><ele>684.23</ele><time>2025-09-12T23:00:48.000Z</time></trkpt>
        <trkpt lat="29.5644965" lon="103.4234282"><ele>684.34</ele><time>2025-09-12T23:00:56.000Z</time></trkpt>
        <trkpt lat="29.5645016" lon="103.4233719"><ele>683.87</ele><time>2025-09-12T23:01:02.000Z</time></trkpt>
        <trkpt lat="29.5645358" lon="103.4233359"><ele>684.21</ele><time>2025-09-12T23:01:10.000Z</time></trkpt>
        <trkpt lat="29.5645654" lon="103.4232953"><ele>687.96</ele><time>2025-09-12T23:01:18.000Z</time></trkpt>
        <trkpt lat="29.5645725" lon="103.4232385"><ele>691.77</ele><time>2025-09-12T23:01:24.000Z</time></trkpt>
        <trkpt lat="29.5645723" lon="103.4231718"><ele>692.9</ele><time>2025-09-12T23:01:30.000Z</time></trkpt>
        <trkpt lat="29.5645667" lon="103.4231102"><ele>695.18</ele><time>2025-09-12T23:01:36.000Z</time></trkpt>
        <trkpt lat="29.5645835" lon="103.4230581"><ele>695.87</ele><time>2025-09-12T23:01:46.000Z</time></trkpt>
        <trkpt lat="29.5645834" lon="103.4230008"><ele>696.8</ele><time>2025-09-12T23:01:54.000Z</time></trkpt>
        <trkpt lat="29.5645838" lon="103.4229416"><ele>697.05</ele><time>2025-09-12T23:02:02.000Z</time></trkpt>
        <trkpt lat="29.5645859" lon="103.4228878"><ele>698.76</ele><time>2025-09-12T23:02:16.000Z</time></trkpt>
        <trkpt lat="29.5645608" lon="103.4228491"><ele>702.59</ele><time>2025-09-12T23:02:24.000Z</time></trkpt>
        <trkpt lat="29.5645698" lon="103.4228063"><ele>707.41</ele><time>2025-09-12T23:02:30.000Z</time></trkpt>
        <trkpt lat="29.5645745" lon="103.422742"><ele>710.51</ele><time>2025-09-12T23:02:40.000Z</time></trkpt>
        <trkpt lat="29.5645411" lon="103.42269"><ele>712.22</ele><time>2025-09-12T23:02:46.000Z</time></trkpt>
        <trkpt lat="29.5644969" lon="103.422655"><ele>713.08</ele><time>2025-09-12T23:02:50.000Z</time></trkpt>
        <trkpt lat="29.5644726" lon="103.4226069"><ele>713.23</ele><time>2025-09-12T23:03:02.000Z</time></trkpt>
        <trkpt lat="29.5644513" lon="103.4225531"><ele>712.95</ele><time>2025-09-12T23:03:12.000Z</time></trkpt>
        <trkpt lat="29.5644797" lon="103.4225212"><ele>714.12</ele><time>2025-09-12T23:03:22.000Z</time></trkpt>
        <trkpt lat="29.564483" lon="103.4224756"><ele>714.52</ele><time>2025-09-12T23:03:30.000Z</time></trkpt>
        <trkpt lat="29.5644771" lon="103.4224205"><ele>716.32</ele><time>2025-09-12T23:03:42.000Z</time></trkpt>
        <trkpt lat="29.5644787" lon="103.4223633"><ele>718.11</ele><time>2025-09-12T23:03:52.000Z</time></trkpt>
        <trkpt lat="29.5644986" lon="103.4223142"><ele>719.38</ele><time>2025-09-12T23:04:00.000Z</time></trkpt>
        <trkpt lat="29.5645111" lon="103.4222581"><ele>720.28</ele><time>2025-09-12T23:04:14.000Z</time></trkpt>
        <trkpt lat="29.5644869" lon="103.4222086"><ele>721.92</ele><time>2025-09-12T23:04:20.000Z</time></trkpt>
        <trkpt lat="29.564465" lon="103.4221567"><ele>722.37</ele><time>2025-09-12T23:04:26.000Z</time></trkpt>
        <trkpt lat="29.564464" lon="103.422105"><ele>722.22</ele><time>2025-09-12T23:04:34.000Z</time></trkpt>
        <trkpt lat="29.5644425" lon="103.4220556"><ele>722.93</ele><time>2025-09-12T23:04:44.000Z</time></trkpt>
        <trkpt lat="29.5644058" lon="103.422021"><ele>725.14</ele><time>2025-09-12T23:04:54.000Z</time></trkpt>
        <trkpt lat="29.5643833" lon="103.4219699"><ele>725.5</ele><time>2025-09-12T23:05:02.000Z</time></trkpt>
        <trkpt lat="29.5644039" lon="103.4219301"><ele>726.23</ele><time>2025-09-12T23:05:12.000Z</time></trkpt>
        <trkpt lat="29.5644137" lon="103.4218808"><ele>724.86</ele><time>2025-09-12T23:05:24.000Z</time></trkpt>
        <trkpt lat="29.5644137" lon="103.421826"><ele>725.59</ele><time>2025-09-12T23:05:46.000Z</time></trkpt>
        <trkpt lat="29.5644368" lon="103.4217763"><ele>730.45</ele><time>2025-09-12T23:05:58.000Z</time></trkpt>
        <trkpt lat="29.5644471" lon="103.4217186"><ele>732.77</ele><time>2025-09-12T23:06:06.000Z</time></trkpt>
        <trkpt lat="29.5644445" lon="103.4216571"><ele>733.51</ele><time>2025-09-12T23:06:18.000Z</time></trkpt>
        <trkpt lat="29.5644374" lon="103.4216001"><ele>734.12</ele><time>2025-09-12T23:06:30.000Z</time></trkpt>
        <trkpt lat="29.5644234" lon="103.4215422"><ele>736.3</ele><time>2025-09-12T23:06:38.000Z</time></trkpt>
        <trkpt lat="29.5643886" lon="103.4215021"><ele>735.91</ele><time>2025-09-12T23:06:54.000Z</time></trkpt>
        <trkpt lat="29.5643403" lon="103.4214797"><ele>737.24</ele><time>2025-09-12T23:07:12.000Z</time></trkpt>
        <trkpt lat="29.5643202" lon="103.4214368"><ele>740.65</ele><time>2025-09-12T23:07:18.000Z</time></trkpt>
        <trkpt lat="29.5643235" lon="103.4213839"><ele>741.91</ele><time>2025-09-12T23:07:24.000Z</time></trkpt>
        <trkpt lat="29.5643376" lon="103.4213289"><ele>744.57</ele><time>2025-09-12T23:07:36.000Z</time></trkpt>
        <trkpt lat="29.5643775" lon="103.4213038"><ele>747.64</ele><time>2025-09-12T23:07:48.000Z</time></trkpt>
        <trkpt lat="29.5644269" lon="103.4212821"><ele>750.12</ele><time>2025-09-12T23:07:58.000Z</time></trkpt>
        <trkpt lat="29.5644793" lon="103.4212595"><ele>753.17</ele><time>2025-09-12T23:08:06.000Z</time></trkpt>
        <trkpt lat="29.5645261" lon="103.4212313"><ele>755.12</ele><time>2025-09-12T23:08:14.000Z</time></trkpt>
        <trkpt lat="29.5645781" lon="103.4212221"><ele>757.18</ele><time>2025-09-12T23:08:22.000Z</time></trkpt>
        <trkpt lat="29.5645781" lon="103.4212221"><ele>757.18</ele><time>2025-09-12T23:08:41.000Z</time></trkpt>
        <trkpt lat="29.5646297" lon="103.4212201"><ele>757.39</ele><time>2025-09-12T23:08:45.000Z</time></trkpt>
        <trkpt lat="29.5646297" lon="103.4212201"><ele>757.39</ele><time>2025-09-12T23:08:58.000Z</time></trkpt>
        <trkpt lat="29.564678" lon="103.4211995"><ele>758.26</ele><time>2025-09-12T23:09:04.000Z</time></trkpt>
        <trkpt lat="29.5647221" lon="103.4211632"><ele>759.48</ele><time>2025-09-12T23:09:14.000Z</time></trkpt>
        <trkpt lat="29.5647728" lon="103.4211735"><ele>759.77</ele><time>2025-09-12T23:09:24.000Z</time></trkpt>
        <trkpt lat="29.5648051" lon="103.4212148"><ele>760.92</ele><time>2025-09-12T23:09:32.000Z</time></trkpt>
        <trkpt lat="29.564844" lon="103.4212532"><ele>763.43</ele><time>2025-09-12T23:09:44.000Z</time></trkpt>
        <trkpt lat="29.5648766" lon="103.4212988"><ele>765.79</ele><time>2025-09-12T23:09:52.000Z</time></trkpt>
        <trkpt lat="29.5649037" lon="103.4213476"><ele>767.85</ele><time>2025-09-12T23:10:00.000Z</time></trkpt>
        <trkpt lat="29.56492" lon="103.4213998"><ele>769.49</ele><time>2025-09-12T23:10:10.000Z</time></trkpt>
        <trkpt lat="29.5649624" lon="103.421414"><ele>771.12</ele><time>2025-09-12T23:10:24.000Z</time></trkpt>
        <trkpt lat="29.5650099" lon="103.421413"><ele>772.26</ele><time>2025-09-12T23:10:40.000Z</time></trkpt>
        <trkpt lat="29.5650607" lon="103.4214055"><ele>775.52</ele><time>2025-09-12T23:10:52.000Z</time></trkpt>
        <trkpt lat="29.5651089" lon="103.421385"><ele>778.1</ele><time>2025-09-12T23:11:04.000Z</time></trkpt>
        <trkpt lat="29.565154" lon="103.4213644"><ele>780.53</ele><time>2025-09-12T23:11:10.000Z</time></trkpt>
        <trkpt lat="29.565198" lon="103.4213382"><ele>781.9</ele><time>2025-09-12T23:11:22.000Z</time></trkpt>
        <trkpt lat="29.5652403" lon="103.4213157"><ele>783.37</ele><time>2025-09-12T23:11:36.000Z</time></trkpt>
        <trkpt lat="29.5652822" lon="103.4212917"><ele>786.06</ele><time>2025-09-12T23:11:48.000Z</time></trkpt>
        <trkpt lat="29.5653284" lon="103.4212763"><ele>789.02</ele><time>2025-09-12T23:12:00.000Z</time></trkpt>
        <trkpt lat="29.5653637" lon="103.421242"><ele>791.49</ele><time>2025-09-12T23:12:10.000Z</time></trkpt>
        <trkpt lat="29.5653849" lon="103.4211928"><ele>792.75</ele><time>2025-09-12T23:12:30.000Z</time></trkpt>
        <trkpt lat="29.5653903" lon="103.4211385"><ele>793.53</ele><time>2025-09-12T23:12:38.000Z</time></trkpt>
        <trkpt lat="29.5654271" lon="103.421114"><ele>791.17</ele><time>2025-09-12T23:12:42.000Z</time></trkpt>
        <trkpt lat="29.5654788" lon="103.4211242"><ele>790</ele><time>2025-09-12T23:12:46.000Z</time></trkpt>
        <trkpt lat="29.5655434" lon="103.4211267"><ele>789.48</ele><time>2025-09-12T23:12:52.000Z</time></trkpt>
        <trkpt lat="29.5656057" lon="103.42114"><ele>788.88</ele><time>2025-09-12T23:12:58.000Z</time></trkpt>
        <trkpt lat="29.5656699" lon="103.4211405"><ele>791.39</ele><time>2025-09-12T23:13:04.000Z</time></trkpt>
        <trkpt lat="29.5657307" lon="103.4211333"><ele>793.95</ele><time>2025-09-12T23:13:10.000Z</time></trkpt>
        <trkpt lat="29.5657858" lon="103.4211462"><ele>795.7</ele><time>2025-09-12T23:13:16.000Z</time></trkpt>
        <trkpt lat="29.5658406" lon="103.4211614"><ele>798.06</ele><time>2025-09-12T23:13:22.000Z</time></trkpt>
        <trkpt lat="29.5658979" lon="103.4211569"><ele>800.41</ele><time>2025-09-12T23:13:28.000Z</time></trkpt>
        <trkpt lat="29.565951" lon="103.4211505"><ele>801.43</ele><time>2025-09-12T23:13:34.000Z</time></trkpt>
        <trkpt lat="29.5660047" lon="103.4211442"><ele>801.39</ele><time>2025-09-12T23:13:42.000Z</time></trkpt>
        <trkpt lat="29.5660566" lon="103.4211456"><ele>800.98</ele><time>2025-09-12T23:13:50.000Z</time></trkpt>
        <trkpt lat="29.5661054" lon="103.4211488"><ele>802.52</ele><time>2025-09-12T23:13:58.000Z</time></trkpt>
        <trkpt lat="29.566151" lon="103.4211556"><ele>803.35</ele><time>2025-09-12T23:14:06.000Z</time></trkpt>
        <trkpt lat="29.5661961" lon="103.4211536"><ele>804.61</ele><time>2025-09-12T23:14:14.000Z</time></trkpt>
        <trkpt lat="29.5662302" lon="103.4211175"><ele>805.25</ele><time>2025-09-12T23:14:22.000Z</time></trkpt>
        <trkpt lat="29.5662488" lon="103.4210648"><ele>806.15</ele><time>2025-09-12T23:14:28.000Z</time></trkpt>
        <trkpt lat="29.5662613" lon="103.4210055"><ele>805.39</ele><time>2025-09-12T23:14:34.000Z</time></trkpt>
        <trkpt lat="29.5662633" lon="103.4209477"><ele>804.98</ele><time>2025-09-12T23:14:38.000Z</time></trkpt>
        <trkpt lat="29.566268" lon="103.4208825"><ele>804.42</ele><time>2025-09-12T23:14:44.000Z</time></trkpt>
        <trkpt lat="29.5662813" lon="103.4208163"><ele>804.04</ele><time>2025-09-12T23:14:50.000Z</time></trkpt>
        <trkpt lat="29.5663001" lon="103.4207479"><ele>804</ele><time>2025-09-12T23:14:56.000Z</time></trkpt>
        <trkpt lat="29.5663129" lon="103.4206719"><ele>804.13</ele><time>2025-09-12T23:15:02.000Z</time></trkpt>
        <trkpt lat="29.566325" lon="103.4205988"><ele>803.18</ele><time>2025-09-12T23:15:08.000Z</time></trkpt>
        <trkpt lat="29.5663536" lon="103.4205379"><ele>803.8</ele><time>2025-09-12T23:15:14.000Z</time></trkpt>
        <trkpt lat="29.5663824" lon="103.4204785"><ele>804.77</ele><time>2025-09-12T23:15:20.000Z</time></trkpt>
        <trkpt lat="29.5664136" lon="103.4204236"><ele>804</ele><time>2025-09-12T23:15:26.000Z</time></trkpt>
        <trkpt lat="29.5664557" lon="103.4203656"><ele>802.77</ele><time>2025-09-12T23:15:32.000Z</time></trkpt>
        <trkpt lat="29.5664993" lon="103.4203084"><ele>802.09</ele><time>2025-09-12T23:15:38.000Z</time></trkpt>
        <trkpt lat="29.5665431" lon="103.4202579"><ele>800.69</ele><time>2025-09-12T23:15:44.000Z</time></trkpt>
        <trkpt lat="29.5665885" lon="103.4202059"><ele>800.16</ele><time>2025-09-12T23:15:50.000Z</time></trkpt>
        <trkpt lat="29.5666306" lon="103.4201524"><ele>799.51</ele><time>2025-09-12T23:15:56.000Z</time></trkpt>
        <trkpt lat="29.5666549" lon="103.4200873"><ele>799.79</ele><time>2025-09-12T23:16:02.000Z</time></trkpt>
        <trkpt lat="29.5666716" lon="103.4200186"><ele>800.43</ele><time>2025-09-12T23:16:08.000Z</time></trkpt>
        <trkpt lat="29.5666666" lon="103.4199615"><ele>800.83</ele><time>2025-09-12T23:16:12.000Z</time></trkpt>
        <trkpt lat="29.566654" lon="103.4199046"><ele>800.31</ele><time>2025-09-12T23:16:16.000Z</time></trkpt>
        <trkpt lat="29.5666503" lon="103.419842"><ele>799.49</ele><time>2025-09-12T23:16:22.000Z</time></trkpt>
        <trkpt lat="29.5666833" lon="103.4198071"><ele>798.11</ele><time>2025-09-12T23:16:28.000Z</time></trkpt>
        <trkpt lat="29.5667288" lon="103.4197878"><ele>798.89</ele><time>2025-09-12T23:16:34.000Z</time></trkpt>
        <trkpt lat="29.5667769" lon="103.4198056"><ele>799.51</ele><time>2025-09-12T23:16:40.000Z</time></trkpt>
        <trkpt lat="29.5668091" lon="103.419849"><ele>801</ele><time>2025-09-12T23:16:54.000Z</time></trkpt>
        <trkpt lat="29.5668495" lon="103.4198822"><ele>803.29</ele><time>2025-09-12T23:17:09.000Z</time></trkpt>
        <trkpt lat="29.5668851" lon="103.4199291"><ele>806.45</ele><time>2025-09-12T23:17:22.000Z</time></trkpt>
        <trkpt lat="29.5669232" lon="103.4199763"><ele>809.23</ele><time>2025-09-12T23:17:35.000Z</time></trkpt>
        <trkpt lat="29.5669614" lon="103.4200135"><ele>813.39</ele><time>2025-09-12T23:17:50.000Z</time></trkpt>
        <trkpt lat="29.5670013" lon="103.4200633"><ele>816.81</ele><time>2025-09-12T23:18:04.000Z</time></trkpt>
        <trkpt lat="29.5670051" lon="103.420125"><ele>821.07</ele><time>2025-09-12T23:18:10.000Z</time></trkpt>
        <trkpt lat="29.5669948" lon="103.4201843"><ele>824.93</ele><time>2025-09-12T23:18:18.000Z</time></trkpt>
        <trkpt lat="29.5670015" lon="103.4202469"><ele>826.93</ele><time>2025-09-12T23:18:24.000Z</time></trkpt>
        <trkpt lat="29.5670081" lon="103.4203033"><ele>826.95</ele><time>2025-09-12T23:18:30.000Z</time></trkpt>
        <trkpt lat="29.5670352" lon="103.4203587"><ele>827.52</ele><time>2025-09-12T23:18:38.000Z</time></trkpt>
        <trkpt lat="29.5670743" lon="103.4204059"><ele>829.63</ele><time>2025-09-12T23:18:46.000Z</time></trkpt>
        <trkpt lat="29.5671067" lon="103.4204595"><ele>831.55</ele><time>2025-09-12T23:18:54.000Z</time></trkpt>
        <trkpt lat="29.5671338" lon="103.4205084"><ele>833.5</ele><time>2025-09-12T23:19:02.000Z</time></trkpt>
        <trkpt lat="29.5671749" lon="103.4205478"><ele>835.61</ele><time>2025-09-12T23:19:14.000Z</time></trkpt>
        <trkpt lat="29.5672247" lon="103.4205609"><ele>839.6</ele><time>2025-09-12T23:19:24.000Z</time></trkpt>
        <trkpt lat="29.5672766" lon="103.4205507"><ele>841.69</ele><time>2025-09-12T23:19:34.000Z</time></trkpt>
        <trkpt lat="29.5673263" lon="103.4205439"><ele>842.47</ele><time>2025-09-12T23:19:44.000Z</time></trkpt>
        <trkpt lat="29.5673747" lon="103.4205427"><ele>843.16</ele><time>2025-09-12T23:19:56.000Z</time></trkpt>
        <trkpt lat="29.5674199" lon="103.4205336"><ele>843.96</ele><time>2025-09-12T23:20:06.000Z</time></trkpt>
        <trkpt lat="29.5674671" lon="103.4205095"><ele>843.49</ele><time>2025-09-12T23:20:16.000Z</time></trkpt>
        <trkpt lat="29.5675121" lon="103.4204854"><ele>843.54</ele><time>2025-09-12T23:20:26.000Z</time></trkpt>
        <trkpt lat="29.5675514" lon="103.4204515"><ele>841.59</ele><time>2025-09-12T23:20:36.000Z</time></trkpt>
        <trkpt lat="29.567596" lon="103.4204242"><ele>841.33</ele><time>2025-09-12T23:20:50.000Z</time></trkpt>
        <trkpt lat="29.5676369" lon="103.4203887"><ele>842.81</ele><time>2025-09-12T23:21:04.000Z</time></trkpt>
        <trkpt lat="29.5676852" lon="103.4203738"><ele>843.85</ele><time>2025-09-12T23:21:16.000Z</time></trkpt>
        <trkpt lat="29.5677354" lon="103.4203604"><ele>845.45</ele><time>2025-09-12T23:21:28.000Z</time></trkpt>
        <trkpt lat="29.5677854" lon="103.4203354"><ele>847.39</ele><time>2025-09-12T23:21:36.000Z</time></trkpt>
        <trkpt lat="29.5678273" lon="103.4203007"><ele>849.41</ele><time>2025-09-12T23:21:46.000Z</time></trkpt>
        <trkpt lat="29.5678663" lon="103.42027"><ele>849.9</ele><time>2025-09-12T23:21:54.000Z</time></trkpt>
        <trkpt lat="29.5678959" lon="103.420226"><ele>851.07</ele><time>2025-09-12T23:22:28.000Z</time></trkpt>
        <trkpt lat="29.567899" lon="103.4201659"><ele>853.17</ele><time>2025-09-12T23:22:36.000Z</time></trkpt>
        <trkpt lat="29.5678615" lon="103.4201343"><ele>854.59</ele><time>2025-09-12T23:22:44.000Z</time></trkpt>
        <trkpt lat="29.5678615" lon="103.4201343"><ele>854.59</ele><time>2025-09-12T23:22:57.000Z</time></trkpt>
        <trkpt lat="29.5678615" lon="103.4201343"><ele>854.59</ele><time>2025-09-12T23:23:01.000Z</time></trkpt>
        <trkpt lat="29.5678615" lon="103.4201343"><ele>854.59</ele><time>2025-09-12T23:23:35.000Z</time></trkpt>
        <trkpt lat="29.5678304" lon="103.420203"><ele>854.13</ele><time>2025-09-12T23:23:41.000Z</time></trkpt>
        <trkpt lat="29.5678304" lon="103.420203"><ele>854.13</ele><time>2025-09-12T23:25:54.000Z</time></trkpt>
        <trkpt lat="29.5678035" lon="103.4202503"><ele>853.04</ele><time>2025-09-12T23:26:00.000Z</time></trkpt>
        <trkpt lat="29.567793" lon="103.42021"><ele>853.5</ele><time>2025-09-12T23:26:18.000Z</time></trkpt>
        <trkpt lat="29.567793" lon="103.42021"><ele>853.5</ele><time>2025-09-12T23:26:33.000Z</time></trkpt>
        <trkpt lat="29.5678201" lon="103.4201726"><ele>854.42</ele><time>2025-09-12T23:26:37.000Z</time></trkpt>
        <trkpt lat="29.5678201" lon="103.4201726"><ele>854.42</ele><time>2025-09-12T23:26:58.000Z</time></trkpt>
        <trkpt lat="29.5678201" lon="103.4201726"><ele>854.42</ele><time>2025-09-12T23:27:11.000Z</time></trkpt>
        <trkpt lat="29.5678537" lon="103.4201973"><ele>855.28</ele><time>2025-09-12T23:27:15.000Z</time></trkpt>
        <trkpt lat="29.5678537" lon="103.4201973"><ele>855.28</ele><time>2025-09-12T23:27:44.000Z</time></trkpt>
        <trkpt lat="29.5679063" lon="103.4202021"><ele>857.79</ele><time>2025-09-12T23:27:54.000Z</time></trkpt>
        <trkpt lat="29.5679588" lon="103.4201961"><ele>858.3</ele><time>2025-09-12T23:28:04.000Z</time></trkpt>
        <trkpt lat="29.5679984" lon="103.4201637"><ele>858.77</ele><time>2025-09-12T23:28:18.000Z</time></trkpt>
        <trkpt lat="29.5680488" lon="103.4201479"><ele>859.01</ele><time>2025-09-12T23:28:26.000Z</time></trkpt>
        <trkpt lat="29.568093" lon="103.4201247"><ele>859.87</ele><time>2025-09-12T23:28:40.000Z</time></trkpt>
        <trkpt lat="29.5681365" lon="103.4200993"><ele>861.93</ele><time>2025-09-12T23:28:56.000Z</time></trkpt>
        <trkpt lat="29.568185" lon="103.4200985"><ele>865.69</ele><time>2025-09-12T23:29:06.000Z</time></trkpt>
        <trkpt lat="29.5682287" lon="103.4201184"><ele>869.08</ele><time>2025-09-12T23:29:14.000Z</time></trkpt>
        <trkpt lat="29.5682673" lon="103.4201502"><ele>871.31</ele><time>2025-09-12T23:29:26.000Z</time></trkpt>
        <trkpt lat="29.5683107" lon="103.420156"><ele>874.54</ele><time>2025-09-12T23:29:36.000Z</time></trkpt>
        <trkpt lat="29.5683552" lon="103.420145"><ele>876.8</ele><time>2025-09-12T23:29:48.000Z</time></trkpt>
        <trkpt lat="29.5683922" lon="103.4201138"><ele>877.29</ele><time>2025-09-12T23:30:00.000Z</time></trkpt>
        <trkpt lat="29.5684303" lon="103.4201273"><ele>877.59</ele><time>2025-09-12T23:30:14.000Z</time></trkpt>
        <trkpt lat="29.56848" lon="103.420133"><ele>879.43</ele><time>2025-09-12T23:30:30.000Z</time></trkpt>
        <trkpt lat="29.5685315" lon="103.4201318"><ele>883.28</ele><time>2025-09-12T23:30:42.000Z</time></trkpt>
        <trkpt lat="29.5685794" lon="103.4201188"><ele>887.24</ele><time>2025-09-12T23:30:54.000Z</time></trkpt>
        <trkpt lat="29.5686287" lon="103.4201122"><ele>889.57</ele><time>2025-09-12T23:31:08.000Z</time></trkpt>
        <trkpt lat="29.5686745" lon="103.4201182"><ele>891.15</ele><time>2025-09-12T23:31:16.000Z</time></trkpt>
        <trkpt lat="29.568726" lon="103.4201129"><ele>893.18</ele><time>2025-09-12T23:31:22.000Z</time></trkpt>
        <trkpt lat="29.568777" lon="103.420099"><ele>894.28</ele><time>2025-09-12T23:31:32.000Z</time></trkpt>
        <trkpt lat="29.5688103" lon="103.4200602"><ele>895.92</ele><time>2025-09-12T23:31:38.000Z</time></trkpt>
        <trkpt lat="29.5688345" lon="103.4200141"><ele>896.08</ele><time>2025-09-12T23:31:44.000Z</time></trkpt>
        <trkpt lat="29.5688658" lon="103.4199689"><ele>895.77</ele><time>2025-09-12T23:31:50.000Z</time></trkpt>
        <trkpt lat="29.5689139" lon="103.4199338"><ele>895.92</ele><time>2025-09-12T23:31:58.000Z</time></trkpt>
        <trkpt lat="29.5689591" lon="103.4199011"><ele>894.54</ele><time>2025-09-12T23:32:06.000Z</time></trkpt>
        <trkpt lat="29.5690013" lon="103.4198756"><ele>892.39</ele><time>2025-09-12T23:32:12.000Z</time></trkpt>
        <trkpt lat="29.5690465" lon="103.4198589"><ele>890.26</ele><time>2025-09-12T23:32:16.000Z</time></trkpt>
        <trkpt lat="29.5690992" lon="103.419845"><ele>888.71</ele><time>2025-09-12T23:32:22.000Z</time></trkpt>
        <trkpt lat="29.5691559" lon="103.4198273"><ele>889.16</ele><time>2025-09-12T23:32:28.000Z</time></trkpt>
        <trkpt lat="29.5692118" lon="103.4198043"><ele>890.09</ele><time>2025-09-12T23:32:34.000Z</time></trkpt>
        <trkpt lat="29.5692632" lon="103.4197822"><ele>891.04</ele><time>2025-09-12T23:32:40.000Z</time></trkpt>
        <trkpt lat="29.5693062" lon="103.4197587"><ele>890.82</ele><time>2025-09-12T23:32:46.000Z</time></trkpt>
        <trkpt lat="29.5693471" lon="103.4197305"><ele>890.59</ele><time>2025-09-12T23:32:52.000Z</time></trkpt>
        <trkpt lat="29.5693883" lon="103.4197048"><ele>889.92</ele><time>2025-09-12T23:33:00.000Z</time></trkpt>
        <trkpt lat="29.5694242" lon="103.4196682"><ele>889.1</ele><time>2025-09-12T23:33:06.000Z</time></trkpt>
        <trkpt lat="29.5694633" lon="103.4196341"><ele>889.44</ele><time>2025-09-12T23:33:12.000Z</time></trkpt>
        <trkpt lat="29.5695189" lon="103.4196122"><ele>889.58</ele><time>2025-09-12T23:33:21.000Z</time></trkpt>
        <trkpt lat="29.5695645" lon="103.4195844"><ele>888.78</ele><time>2025-09-12T23:33:25.000Z</time></trkpt>
        <trkpt lat="29.5696307" lon="103.4195332"><ele>889.39</ele><time>2025-09-12T23:33:30.000Z</time></trkpt>
        <trkpt lat="29.5696535" lon="103.4194772"><ele>889.68</ele><time>2025-09-12T23:33:34.000Z</time></trkpt>
        <trkpt lat="29.5696918" lon="103.4194265"><ele>888.13</ele><time>2025-09-12T23:33:38.000Z</time></trkpt>
        <trkpt lat="29.5697134" lon="103.4193752"><ele>887.15</ele><time>2025-09-12T23:33:48.000Z</time></trkpt>
        <trkpt lat="29.5697439" lon="103.4193074"><ele>884.72</ele><time>2025-09-12T23:33:54.000Z</time></trkpt>
        <trkpt lat="29.5697727" lon="103.4192552"><ele>883.47</ele><time>2025-09-12T23:34:00.000Z</time></trkpt>
        <trkpt lat="29.5697911" lon="103.4192033"><ele>882.25</ele><time>2025-09-12T23:34:06.000Z</time></trkpt>
        <trkpt lat="29.5697798" lon="103.4191449"><ele>881.28</ele><time>2025-09-12T23:34:12.000Z</time></trkpt>
        <trkpt lat="29.5697588" lon="103.4190844"><ele>881.28</ele><time>2025-09-12T23:34:18.000Z</time></trkpt>
        <trkpt lat="29.569748" lon="103.419028"><ele>881.43</ele><time>2025-09-12T23:34:22.000Z</time></trkpt>
        <trkpt lat="29.5697492" lon="103.4189717"><ele>881.29</ele><time>2025-09-12T23:34:26.000Z</time></trkpt>
        <trkpt lat="29.5697571" lon="103.4189034"><ele>880.97</ele><time>2025-09-12T23:34:32.000Z</time></trkpt>
        <trkpt lat="29.5697623" lon="103.4188318"><ele>881.03</ele><time>2025-09-12T23:34:38.000Z</time></trkpt>
        <trkpt lat="29.5697675" lon="103.4187629"><ele>880.87</ele><time>2025-09-12T23:34:44.000Z</time></trkpt>
        <trkpt lat="29.5697855" lon="103.4187012"><ele>881.21</ele><time>2025-09-12T23:34:50.000Z</time></trkpt>
        <trkpt lat="29.5698054" lon="103.4186322"><ele>881.66</ele><time>2025-09-12T23:34:56.000Z</time></trkpt>
        <trkpt lat="29.5698257" lon="103.4185651"><ele>881.89</ele><time>2025-09-12T23:35:02.000Z</time></trkpt>
        <trkpt lat="29.569832" lon="103.4184897"><ele>882.78</ele><time>2025-09-12T23:35:08.000Z</time></trkpt>
        <trkpt lat="29.569825" lon="103.4184298"><ele>883.69</ele><time>2025-09-12T23:35:12.000Z</time></trkpt>
        <trkpt lat="29.5698176" lon="103.4183672"><ele>884.87</ele><time>2025-09-12T23:35:18.000Z</time></trkpt>
        <trkpt lat="29.5698205" lon="103.4183083"><ele>884.45</ele><time>2025-09-12T23:35:22.000Z</time></trkpt>
        <trkpt lat="29.5698389" lon="103.4182532"><ele>884.75</ele><time>2025-09-12T23:35:26.000Z</time></trkpt>
        <trkpt lat="29.5698406" lon="103.4181997"><ele>885.53</ele><time>2025-09-12T23:35:30.000Z</time></trkpt>
        <trkpt lat="29.5698121" lon="103.4181636"><ele>885.13</ele><time>2025-09-12T23:35:34.000Z</time></trkpt>
        <trkpt lat="29.5698276" lon="103.4181106"><ele>884.98</ele><time>2025-09-12T23:35:38.000Z</time></trkpt>
        <trkpt lat="29.5698363" lon="103.4180557"><ele>883.98</ele><time>2025-09-12T23:35:44.000Z</time></trkpt>
        <trkpt lat="29.5698836" lon="103.4180043"><ele>883.24</ele><time>2025-09-12T23:35:48.000Z</time></trkpt>
        <trkpt lat="29.5699417" lon="103.4179664"><ele>882.57</ele><time>2025-09-12T23:35:52.000Z</time></trkpt>
        <trkpt lat="29.569975" lon="103.4179029"><ele>881.99</ele><time>2025-09-12T23:35:58.000Z</time></trkpt>
        <trkpt lat="29.5700085" lon="103.4178576"><ele>881.73</ele><time>2025-09-12T23:36:02.000Z</time></trkpt>
        <trkpt lat="29.5700342" lon="103.4178009"><ele>881.52</ele><time>2025-09-12T23:36:08.000Z</time></trkpt>
        <trkpt lat="29.5700461" lon="103.4177415"><ele>880.81</ele><time>2025-09-12T23:36:14.000Z</time></trkpt>
        <trkpt lat="29.5700564" lon="103.4176776"><ele>880.08</ele><time>2025-09-12T23:36:18.000Z</time></trkpt>
        <trkpt lat="29.5700648" lon="103.4176226"><ele>878.54</ele><time>2025-09-12T23:36:22.000Z</time></trkpt>
        <trkpt lat="29.5700649" lon="103.4175571"><ele>878.38</ele><time>2025-09-12T23:36:28.000Z</time></trkpt>
        <trkpt lat="29.5700689" lon="103.4174987"><ele>878.19</ele><time>2025-09-12T23:36:32.000Z</time></trkpt>
        <trkpt lat="29.5700769" lon="103.4174253"><ele>878.16</ele><time>2025-09-12T23:36:38.000Z</time></trkpt>
        <trkpt lat="29.5700921" lon="103.4173604"><ele>878.38</ele><time>2025-09-12T23:36:42.000Z</time></trkpt>
        <trkpt lat="29.5701166" lon="103.417304"><ele>878.26</ele><time>2025-09-12T23:36:46.000Z</time></trkpt>
        <trkpt lat="29.5701363" lon="103.4172509"><ele>878.36</ele><time>2025-09-12T23:36:52.000Z</time></trkpt>
        <trkpt lat="29.5701566" lon="103.4172009"><ele>878.9</ele><time>2025-09-12T23:36:56.000Z</time></trkpt>
        <trkpt lat="29.5701763" lon="103.4171463"><ele>879.2</ele><time>2025-09-12T23:37:00.000Z</time></trkpt>
        <trkpt lat="29.5702193" lon="103.4170959"><ele>879.41</ele><time>2025-09-12T23:37:06.000Z</time></trkpt>
        <trkpt lat="29.5702742" lon="103.4170875"><ele>880.29</ele><time>2025-09-12T23:37:12.000Z</time></trkpt>
        <trkpt lat="29.570334" lon="103.4170958"><ele>881.24</ele><time>2025-09-12T23:37:20.000Z</time></trkpt>
        <trkpt lat="29.5703876" lon="103.4170788"><ele>881.79</ele><time>2025-09-12T23:37:28.000Z</time></trkpt>
        <trkpt lat="29.5704088" lon="103.4170159"><ele>879.04</ele><time>2025-09-12T23:37:34.000Z</time></trkpt>
        <trkpt lat="29.5704002" lon="103.416945"><ele>875.41</ele><time>2025-09-12T23:37:40.000Z</time></trkpt>
        <trkpt lat="29.5703914" lon="103.416883"><ele>873.04</ele><time>2025-09-12T23:37:44.000Z</time></trkpt>
        <trkpt lat="29.5703794" lon="103.4168059"><ele>870.33</ele><time>2025-09-12T23:37:50.000Z</time></trkpt>
        <trkpt lat="29.5703898" lon="103.4167278"><ele>868.98</ele><time>2025-09-12T23:37:56.000Z</time></trkpt>
        <trkpt lat="29.5704142" lon="103.4166609"><ele>869</ele><time>2025-09-12T23:38:00.000Z</time></trkpt>
        <trkpt lat="29.5704422" lon="103.4166045"><ele>868.82</ele><time>2025-09-12T23:38:04.000Z</time></trkpt>
        <trkpt lat="29.5704497" lon="103.416544"><ele>868.89</ele><time>2025-09-12T23:38:10.000Z</time></trkpt>
        <trkpt lat="29.5704523" lon="103.4164798"><ele>867.77</ele><time>2025-09-12T23:38:16.000Z</time></trkpt>
        <trkpt lat="29.5704746" lon="103.4164171"><ele>866.67</ele><time>2025-09-12T23:38:22.000Z</time></trkpt>
        <trkpt lat="29.5704828" lon="103.4163606"><ele>866.71</ele><time>2025-09-12T23:38:26.000Z</time></trkpt>
        <trkpt lat="29.5704655" lon="103.4162966"><ele>866.68</ele><time>2025-09-12T23:38:30.000Z</time></trkpt>
        <trkpt lat="29.5704822" lon="103.416238"><ele>866.9</ele><time>2025-09-12T23:38:36.000Z</time></trkpt>
        <trkpt lat="29.570523" lon="103.4162056"><ele>868.05</ele><time>2025-09-12T23:38:42.000Z</time></trkpt>
        <trkpt lat="29.5705728" lon="103.4162028"><ele>869.64</ele><time>2025-09-12T23:38:48.000Z</time></trkpt>
        <trkpt lat="29.5706253" lon="103.4161908"><ele>871.65</ele><time>2025-09-12T23:38:56.000Z</time></trkpt>
        <trkpt lat="29.57067" lon="103.4161667"><ele>872.44</ele><time>2025-09-12T23:39:02.000Z</time></trkpt>
        <trkpt lat="29.5707191" lon="103.4161407"><ele>873.47</ele><time>2025-09-12T23:39:12.000Z</time></trkpt>
        <trkpt lat="29.5707624" lon="103.4161151"><ele>873.04</ele><time>2025-09-12T23:39:22.000Z</time></trkpt>
        <trkpt lat="29.5707988" lon="103.4160731"><ele>873.19</ele><time>2025-09-12T23:39:32.000Z</time></trkpt>
        <trkpt lat="29.5708252" lon="103.4160197"><ele>873.7</ele><time>2025-09-12T23:39:38.000Z</time></trkpt>
        <trkpt lat="29.5708031" lon="103.4159615"><ele>874.67</ele><time>2025-09-12T23:39:44.000Z</time></trkpt>
        <trkpt lat="29.5707571" lon="103.4159122"><ele>875.96</ele><time>2025-09-12T23:39:50.000Z</time></trkpt>
        <trkpt lat="29.5707004" lon="103.4158679"><ele>876.97</ele><time>2025-09-12T23:39:56.000Z</time></trkpt>
        <trkpt lat="29.5706555" lon="103.4158231"><ele>877.57</ele><time>2025-09-12T23:40:00.000Z</time></trkpt>
        <trkpt lat="29.5706087" lon="103.4158138"><ele>878.87</ele><time>2025-09-12T23:40:04.000Z</time></trkpt>
        <trkpt lat="29.5705592" lon="103.4158173"><ele>879.25</ele><time>2025-09-12T23:40:08.000Z</time></trkpt>
        <trkpt lat="29.5705102" lon="103.4158067"><ele>879.4</ele><time>2025-09-12T23:40:12.000Z</time></trkpt>
        <trkpt lat="29.5704648" lon="103.4157618"><ele>879.44</ele><time>2025-09-12T23:40:18.000Z</time></trkpt>
        <trkpt lat="29.5704372" lon="103.4157086"><ele>878.26</ele><time>2025-09-12T23:40:22.000Z</time></trkpt>
        <trkpt lat="29.5704052" lon="103.4156489"><ele>877.64</ele><time>2025-09-12T23:40:28.000Z</time></trkpt>
        <trkpt lat="29.5703612" lon="103.4155933"><ele>877.54</ele><time>2025-09-12T23:40:34.000Z</time></trkpt>
        <trkpt lat="29.5703108" lon="103.4155556"><ele>877.99</ele><time>2025-09-12T23:40:40.000Z</time></trkpt>
        <trkpt lat="29.570256" lon="103.415543"><ele>878.39</ele><time>2025-09-12T23:40:46.000Z</time></trkpt>
        <trkpt lat="29.5701925" lon="103.4155388"><ele>878.43</ele><time>2025-09-12T23:40:52.000Z</time></trkpt>
        <trkpt lat="29.5701354" lon="103.4155395"><ele>879.53</ele><time>2025-09-12T23:40:58.000Z</time></trkpt>
        <trkpt lat="29.5700823" lon="103.4155182"><ele>879.54</ele><time>2025-09-12T23:41:04.000Z</time></trkpt>
        <trkpt lat="29.5700406" lon="103.4154864"><ele>880.78</ele><time>2025-09-12T23:41:10.000Z</time></trkpt>
        <trkpt lat="29.5700039" lon="103.4154444"><ele>881.29</ele><time>2025-09-12T23:41:16.000Z</time></trkpt>
        <trkpt lat="29.5699673" lon="103.4153951"><ele>881.31</ele><time>2025-09-12T23:41:22.000Z</time></trkpt>
        <trkpt lat="29.5699373" lon="103.4153419"><ele>881.32</ele><time>2025-09-12T23:41:26.000Z</time></trkpt>
        <trkpt lat="29.5699123" lon="103.4152756"><ele>880.91</ele><time>2025-09-12T23:41:32.000Z</time></trkpt>
        <trkpt lat="29.5699103" lon="103.4152138"><ele>881.04</ele><time>2025-09-12T23:41:36.000Z</time></trkpt>
        <trkpt lat="29.5699106" lon="103.4151537"><ele>882.02</ele><time>2025-09-12T23:41:42.000Z</time></trkpt>
        <trkpt lat="29.5699241" lon="103.4150885"><ele>883.93</ele><time>2025-09-12T23:41:48.000Z</time></trkpt>
        <trkpt lat="29.5699231" lon="103.4150255"><ele>885.76</ele><time>2025-09-12T23:41:54.000Z</time></trkpt>
        <trkpt lat="29.5699098" lon="103.4149577"><ele>886.4</ele><time>2025-09-12T23:42:00.000Z</time></trkpt>
        <trkpt lat="29.5698731" lon="103.414898"><ele>886.96</ele><time>2025-09-12T23:42:06.000Z</time></trkpt>
        <trkpt lat="29.5698327" lon="103.414855"><ele>886.94</ele><time>2025-09-12T23:42:10.000Z</time></trkpt>
        <trkpt lat="29.5697858" lon="103.4148057"><ele>887.54</ele><time>2025-09-12T23:42:16.000Z</time></trkpt>
        <trkpt lat="29.5697406" lon="103.4147587"><ele>887.39</ele><time>2025-09-12T23:42:22.000Z</time></trkpt>
        <trkpt lat="29.5696894" lon="103.4147179"><ele>887.27</ele><time>2025-09-12T23:42:28.000Z</time></trkpt>
        <trkpt lat="29.5696289" lon="103.4147046"><ele>886.04</ele><time>2025-09-12T23:42:34.000Z</time></trkpt>
        <trkpt lat="29.5695786" lon="103.4147142"><ele>885.33</ele><time>2025-09-12T23:42:38.000Z</time></trkpt>
        <trkpt lat="29.5695205" lon="103.4147445"><ele>884.37</ele><time>2025-09-12T23:42:44.000Z</time></trkpt>
        <trkpt lat="29.5694751" lon="103.4147747"><ele>882.87</ele><time>2025-09-12T23:42:48.000Z</time></trkpt>
        <trkpt lat="29.5694178" lon="103.4148028"><ele>882.11</ele><time>2025-09-12T23:42:54.000Z</time></trkpt>
        <trkpt lat="29.5693538" lon="103.4148199"><ele>881.67</ele><time>2025-09-12T23:43:00.000Z</time></trkpt>
        <trkpt lat="29.5692865" lon="103.4148296"><ele>880.8</ele><time>2025-09-12T23:43:06.000Z</time></trkpt>
        <trkpt lat="29.569233" lon="103.4148217"><ele>879.79</ele><time>2025-09-12T23:43:10.000Z</time></trkpt>
        <trkpt lat="29.5692034" lon="103.4147753"><ele>880.02</ele><time>2025-09-12T23:43:16.000Z</time></trkpt>
        <trkpt lat="29.569194" lon="103.4147076"><ele>881.19</ele><time>2025-09-12T23:43:22.000Z</time></trkpt>
        <trkpt lat="29.5691761" lon="103.4146524"><ele>881.76</ele><time>2025-09-12T23:43:26.000Z</time></trkpt>
        <trkpt lat="29.5691548" lon="103.4145912"><ele>881.77</ele><time>2025-09-12T23:43:32.000Z</time></trkpt>
        <trkpt lat="29.5691439" lon="103.4145346"><ele>881.78</ele><time>2025-09-12T23:43:38.000Z</time></trkpt>
        <trkpt lat="29.5691277" lon="103.4144842"><ele>883.91</ele><time>2025-09-12T23:43:44.000Z</time></trkpt>
        <trkpt lat="29.569124" lon="103.4144257"><ele>884.48</ele><time>2025-09-12T23:43:50.000Z</time></trkpt>
        <trkpt lat="29.5691351" lon="103.414369"><ele>884.27</ele><time>2025-09-12T23:43:56.000Z</time></trkpt>
        <trkpt lat="29.569157" lon="103.4143175"><ele>884.11</ele><time>2025-09-12T23:44:02.000Z</time></trkpt>
        <trkpt lat="29.5691705" lon="103.4142565"><ele>885.33</ele><time>2025-09-12T23:44:08.000Z</time></trkpt>
        <trkpt lat="29.5691688" lon="103.4141866"><ele>885.06</ele><time>2025-09-12T23:44:14.000Z</time></trkpt>
        <trkpt lat="29.5691577" lon="103.4141295"><ele>884.01</ele><time>2025-09-12T23:44:18.000Z</time></trkpt>
        <trkpt lat="29.5691437" lon="103.4140684"><ele>882.26</ele><time>2025-09-12T23:44:24.000Z</time></trkpt>
        <trkpt lat="29.5691578" lon="103.4140072"><ele>881.47</ele><time>2025-09-12T23:44:30.000Z</time></trkpt>
        <trkpt lat="29.5691931" lon="103.413955"><ele>881.41</ele><time>2025-09-12T23:44:36.000Z</time></trkpt>
        <trkpt lat="29.5692153" lon="103.4138922"><ele>881.91</ele><time>2025-09-12T23:44:42.000Z</time></trkpt>
        <trkpt lat="29.569207" lon="103.4138382"><ele>882.46</ele><time>2025-09-12T23:44:46.000Z</time></trkpt>
        <trkpt lat="29.5691799" lon="103.4137956"><ele>882.89</ele><time>2025-09-12T23:44:50.000Z</time></trkpt>
        <trkpt lat="29.5691469" lon="103.4137554"><ele>882.44</ele><time>2025-09-12T23:44:54.000Z</time></trkpt>
        <trkpt lat="29.5691234" lon="103.4136981"><ele>882.04</ele><time>2025-09-12T23:45:00.000Z</time></trkpt>
        <trkpt lat="29.5690917" lon="103.4136373"><ele>882.01</ele><time>2025-09-12T23:45:06.000Z</time></trkpt>
        <trkpt lat="29.5690601" lon="103.4135771"><ele>882.14</ele><time>2025-09-12T23:45:12.000Z</time></trkpt>
        <trkpt lat="29.5690363" lon="103.4135107"><ele>881.44</ele><time>2025-09-12T23:45:18.000Z</time></trkpt>
        <trkpt lat="29.5690213" lon="103.4134449"><ele>880.23</ele><time>2025-09-12T23:45:24.000Z</time></trkpt>
        <trkpt lat="29.5690205" lon="103.4133721"><ele>879.3</ele><time>2025-09-12T23:45:30.000Z</time></trkpt>
        <trkpt lat="29.569026" lon="103.4133143"><ele>878.87</ele><time>2025-09-12T23:45:34.000Z</time></trkpt>
        <trkpt lat="29.569057" lon="103.4132583"><ele>878.15</ele><time>2025-09-12T23:45:42.000Z</time></trkpt>
        <trkpt lat="29.5690661" lon="103.4131921"><ele>876.09</ele><time>2025-09-12T23:45:48.000Z</time></trkpt>
        <trkpt lat="29.5690787" lon="103.4131288"><ele>873.69</ele><time>2025-09-12T23:45:54.000Z</time></trkpt>
        <trkpt lat="29.5691171" lon="103.4130934"><ele>871.77</ele><time>2025-09-12T23:46:00.000Z</time></trkpt>
        <trkpt lat="29.5691687" lon="103.413058"><ele>870.74</ele><time>2025-09-12T23:46:06.000Z</time></trkpt>
        <trkpt lat="29.5692093" lon="103.4130104"><ele>871.64</ele><time>2025-09-12T23:46:12.000Z</time></trkpt>
        <trkpt lat="29.5692369" lon="103.4129643"><ele>871.08</ele><time>2025-09-12T23:46:18.000Z</time></trkpt>
        <trkpt lat="29.5692677" lon="103.4129219"><ele>869.65</ele><time>2025-09-12T23:46:24.000Z</time></trkpt>
        <trkpt lat="29.5692997" lon="103.412878"><ele>869.34</ele><time>2025-09-12T23:46:30.000Z</time></trkpt>
        <trkpt lat="29.5693383" lon="103.412834"><ele>869.02</ele><time>2025-09-12T23:46:36.000Z</time></trkpt>
        <trkpt lat="29.5693797" lon="103.4128007"><ele>867.94</ele><time>2025-09-12T23:46:42.000Z</time></trkpt>
        <trkpt lat="29.5694231" lon="103.4127653"><ele>867.51</ele><time>2025-09-12T23:46:48.000Z</time></trkpt>
        <trkpt lat="29.5694503" lon="103.4127087"><ele>867.45</ele><time>2025-09-12T23:46:54.000Z</time></trkpt>
        <trkpt lat="29.5694304" lon="103.4126479"><ele>866.8</ele><time>2025-09-12T23:47:00.000Z</time></trkpt>
        <trkpt lat="29.569405" lon="103.4125775"><ele>867.72</ele><time>2025-09-12T23:47:06.000Z</time></trkpt>
        <trkpt lat="29.5694086" lon="103.4125093"><ele>868.81</ele><time>2025-09-12T23:47:12.000Z</time></trkpt>
        <trkpt lat="29.569407" lon="103.4124389"><ele>870.01</ele><time>2025-09-12T23:47:18.000Z</time></trkpt>
        <trkpt lat="29.5693974" lon="103.4123707"><ele>871.11</ele><time>2025-09-12T23:47:24.000Z</time></trkpt>
        <trkpt lat="29.5693793" lon="103.4123022"><ele>872.98</ele><time>2025-09-12T23:47:30.000Z</time></trkpt>
        <trkpt lat="29.5693598" lon="103.4122328"><ele>876.67</ele><time>2025-09-12T23:47:36.000Z</time></trkpt>
        <trkpt lat="29.5693733" lon="103.4121752"><ele>879.86</ele><time>2025-09-12T23:47:42.000Z</time></trkpt>
        <trkpt lat="29.5694105" lon="103.4121421"><ele>879.95</ele><time>2025-09-12T23:47:48.000Z</time></trkpt>
        <trkpt lat="29.5693946" lon="103.4120998"><ele>878.33</ele><time>2025-09-12T23:47:58.000Z</time></trkpt>
        <trkpt lat="29.5693473" lon="103.4120785"><ele>877.28</ele><time>2025-09-12T23:48:02.000Z</time></trkpt>
        <trkpt lat="29.5692927" lon="103.412075"><ele>876.5</ele><time>2025-09-12T23:48:06.000Z</time></trkpt>
        <trkpt lat="29.5692338" lon="103.4120715"><ele>875.02</ele><time>2025-09-12T23:48:12.000Z</time></trkpt>
        <trkpt lat="29.5691696" lon="103.4120687"><ele>874.33</ele><time>2025-09-12T23:48:18.000Z</time></trkpt>
        <trkpt lat="29.5691112" lon="103.4120662"><ele>874.14</ele><time>2025-09-12T23:48:24.000Z</time></trkpt>
        <trkpt lat="29.5690611" lon="103.4120606"><ele>874.06</ele><time>2025-09-12T23:48:30.000Z</time></trkpt>
        <trkpt lat="29.5690114" lon="103.4120322"><ele>874.58</ele><time>2025-09-12T23:48:38.000Z</time></trkpt>
        <trkpt lat="29.5689825" lon="103.4119808"><ele>874.38</ele><time>2025-09-12T23:48:46.000Z</time></trkpt>
        <trkpt lat="29.5689537" lon="103.4119292"><ele>873.79</ele><time>2025-09-12T23:48:52.000Z</time></trkpt>
        <trkpt lat="29.5689219" lon="103.4118891"><ele>872.59</ele><time>2025-09-12T23:48:58.000Z</time></trkpt>
        <trkpt lat="29.5689059" lon="103.4118351"><ele>872.23</ele><time>2025-09-12T23:49:08.000Z</time></trkpt>
        <trkpt lat="29.5688721" lon="103.4117897"><ele>871.35</ele><time>2025-09-12T23:49:16.000Z</time></trkpt>
        <trkpt lat="29.5688202" lon="103.411775"><ele>869.03</ele><time>2025-09-12T23:49:22.000Z</time></trkpt>
        <trkpt lat="29.5687604" lon="103.411775"><ele>865.55</ele><time>2025-09-12T23:49:28.000Z</time></trkpt>
        <trkpt lat="29.5687048" lon="103.4117793"><ele>862.31</ele><time>2025-09-12T23:49:34.000Z</time></trkpt>
        <trkpt lat="29.5686435" lon="103.4117877"><ele>859.94</ele><time>2025-09-12T23:49:40.000Z</time></trkpt>
        <trkpt lat="29.5685935" lon="103.4117948"><ele>858.2</ele><time>2025-09-12T23:49:44.000Z</time></trkpt>
        <trkpt lat="29.5685416" lon="103.4117768"><ele>857.64</ele><time>2025-09-12T23:49:50.000Z</time></trkpt>
        <trkpt lat="29.5685142" lon="103.4117248"><ele>857.69</ele><time>2025-09-12T23:49:56.000Z</time></trkpt>
        <trkpt lat="29.5684823" lon="103.4116794"><ele>858.95</ele><time>2025-09-12T23:50:02.000Z</time></trkpt>
        <trkpt lat="29.5684461" lon="103.4116279"><ele>859.88</ele><time>2025-09-12T23:50:10.000Z</time></trkpt>
        <trkpt lat="29.5684198" lon="103.4115715"><ele>857.26</ele><time>2025-09-12T23:50:18.000Z</time></trkpt>
        <trkpt lat="29.5683844" lon="103.4115175"><ele>854.16</ele><time>2025-09-12T23:50:26.000Z</time></trkpt>
        <trkpt lat="29.568362" lon="103.4114627"><ele>850.64</ele><time>2025-09-12T23:50:34.000Z</time></trkpt>
        <trkpt lat="29.5683853" lon="103.4114033"><ele>847.31</ele><time>2025-09-12T23:50:42.000Z</time></trkpt>
        <trkpt lat="29.5684115" lon="103.4113412"><ele>842.17</ele><time>2025-09-12T23:50:48.000Z</time></trkpt>
        <trkpt lat="29.5684448" lon="103.4112765"><ele>838.41</ele><time>2025-09-12T23:50:54.000Z</time></trkpt>
        <trkpt lat="29.5684756" lon="103.411211"><ele>836.2</ele><time>2025-09-12T23:51:00.000Z</time></trkpt>
        <trkpt lat="29.5684993" lon="103.4111571"><ele>834.29</ele><time>2025-09-12T23:51:04.000Z</time></trkpt>
        <trkpt lat="29.5685095" lon="103.4110892"><ele>832.69</ele><time>2025-09-12T23:51:10.000Z</time></trkpt>
        <trkpt lat="29.568523" lon="103.4110183"><ele>832.45</ele><time>2025-09-12T23:51:16.000Z</time></trkpt>
        <trkpt lat="29.5685382" lon="103.4109607"><ele>832.8</ele><time>2025-09-12T23:51:20.000Z</time></trkpt>
        <trkpt lat="29.568555" lon="103.4108988"><ele>832.79</ele><time>2025-09-12T23:51:26.000Z</time></trkpt>
        <trkpt lat="29.5685718" lon="103.4108474"><ele>832.57</ele><time>2025-09-12T23:51:30.000Z</time></trkpt>
        <trkpt lat="29.5685925" lon="103.4107989"><ele>832.78</ele><time>2025-09-12T23:51:34.000Z</time></trkpt>
        <trkpt lat="29.5686246" lon="103.4107403"><ele>832.51</ele><time>2025-09-12T23:51:40.000Z</time></trkpt>
        <trkpt lat="29.5686433" lon="103.4106754"><ele>831.72</ele><time>2025-09-12T23:51:46.000Z</time></trkpt>
        <trkpt lat="29.5686588" lon="103.4106072"><ele>831.42</ele><time>2025-09-12T23:51:52.000Z</time></trkpt>
        <trkpt lat="29.5686638" lon="103.4105385"><ele>831.11</ele><time>2025-09-12T23:51:58.000Z</time></trkpt>
        <trkpt lat="29.5686633" lon="103.4104658"><ele>830.47</ele><time>2025-09-12T23:52:04.000Z</time></trkpt>
        <trkpt lat="29.5686613" lon="103.4103891"><ele>829.68</ele><time>2025-09-12T23:52:10.000Z</time></trkpt>
        <trkpt lat="29.5686488" lon="103.4103121"><ele>828.96</ele><time>2025-09-12T23:52:16.000Z</time></trkpt>
        <trkpt lat="29.5686375" lon="103.4102523"><ele>828.79</ele><time>2025-09-12T23:52:20.000Z</time></trkpt>
        <trkpt lat="29.5686377" lon="103.410197"><ele>829.53</ele><time>2025-09-12T23:52:24.000Z</time></trkpt>
        <trkpt lat="29.5686352" lon="103.4101459"><ele>830.11</ele><time>2025-09-12T23:52:28.000Z</time></trkpt>
        <trkpt lat="29.5686121" lon="103.4100958"><ele>830.74</ele><time>2025-09-12T23:52:34.000Z</time></trkpt>
        <trkpt lat="29.5685829" lon="103.4100504"><ele>831.45</ele><time>2025-09-12T23:52:38.000Z</time></trkpt>
        <trkpt lat="29.5685358" lon="103.4100015"><ele>832.73</ele><time>2025-09-12T23:52:44.000Z</time></trkpt>
        <trkpt lat="29.5684863" lon="103.4099718"><ele>833.53</ele><time>2025-09-12T23:52:48.000Z</time></trkpt>
        <trkpt lat="29.5684295" lon="103.409964"><ele>833.77</ele><time>2025-09-12T23:52:54.000Z</time></trkpt>
        <trkpt lat="29.5683898" lon="103.409936"><ele>833.92</ele><time>2025-09-12T23:52:58.000Z</time></trkpt>
        <trkpt lat="29.5683503" lon="103.4098947"><ele>833.43</ele><time>2025-09-12T23:53:04.000Z</time></trkpt>
        <trkpt lat="29.5683236" lon="103.4098399"><ele>833.37</ele><time>2025-09-12T23:53:08.000Z</time></trkpt>
        <trkpt lat="29.5682999" lon="103.4097779"><ele>832.82</ele><time>2025-09-12T23:53:14.000Z</time></trkpt>
        <trkpt lat="29.5682882" lon="103.4097098"><ele>833.35</ele><time>2025-09-12T23:53:20.000Z</time></trkpt>
        <trkpt lat="29.5682627" lon="103.4096444"><ele>833.69</ele><time>2025-09-12T23:53:28.000Z</time></trkpt>
        <trkpt lat="29.5682618" lon="103.4095809"><ele>832.91</ele><time>2025-09-12T23:53:34.000Z</time></trkpt>
        <trkpt lat="29.5682559" lon="103.4095267"><ele>832.56</ele><time>2025-09-12T23:53:40.000Z</time></trkpt>
        <trkpt lat="29.5682379" lon="103.409471"><ele>831.95</ele><time>2025-09-12T23:53:48.000Z</time></trkpt>
        <trkpt lat="29.5682074" lon="103.409428"><ele>830.6</ele><time>2025-09-12T23:53:56.000Z</time></trkpt>
        <trkpt lat="29.5681774" lon="103.4093745"><ele>829.52</ele><time>2025-09-12T23:54:04.000Z</time></trkpt>
        <trkpt lat="29.5681453" lon="103.4093229"><ele>827.84</ele><time>2025-09-12T23:54:14.000Z</time></trkpt>
        <trkpt lat="29.5681274" lon="103.4092663"><ele>825.73</ele><time>2025-09-12T23:54:22.000Z</time></trkpt>
        <trkpt lat="29.568107" lon="103.4092171"><ele>823.11</ele><time>2025-09-12T23:54:30.000Z</time></trkpt>
        <trkpt lat="29.5680853" lon="103.4091606"><ele>819.96</ele><time>2025-09-12T23:54:38.000Z</time></trkpt>
        <trkpt lat="29.5680582" lon="103.4091116"><ele>817.03</ele><time>2025-09-12T23:54:44.000Z</time></trkpt>
        <trkpt lat="29.5680356" lon="103.4090541"><ele>815.51</ele><time>2025-09-12T23:54:52.000Z</time></trkpt>
        <trkpt lat="29.568012" lon="103.4089956"><ele>814.36</ele><time>2025-09-12T23:55:00.000Z</time></trkpt>
        <trkpt lat="29.5679845" lon="103.4089473"><ele>814.06</ele><time>2025-09-12T23:55:06.000Z</time></trkpt>
        <trkpt lat="29.5679694" lon="103.408885"><ele>813.5</ele><time>2025-09-12T23:55:22.000Z</time></trkpt>
        <trkpt lat="29.5679484" lon="103.4088245"><ele>809.55</ele><time>2025-09-12T23:55:28.000Z</time></trkpt>
        <trkpt lat="29.5679387" lon="103.4087652"><ele>807.44</ele><time>2025-09-12T23:55:34.000Z</time></trkpt>
        <trkpt lat="29.5679411" lon="103.4087103"><ele>805.63</ele><time>2025-09-12T23:55:42.000Z</time></trkpt>
        <trkpt lat="29.5679268" lon="103.4086417"><ele>802.46</ele><time>2025-09-12T23:55:50.000Z</time></trkpt>
        <trkpt lat="29.56789" lon="103.4085961"><ele>799.63</ele><time>2025-09-12T23:55:56.000Z</time></trkpt>
        <trkpt lat="29.5678477" lon="103.4085511"><ele>796.94</ele><time>2025-09-12T23:56:02.000Z</time></trkpt>
        <trkpt lat="29.5678132" lon="103.4085024"><ele>794.47</ele><time>2025-09-12T23:56:10.000Z</time></trkpt>
        <trkpt lat="29.5677872" lon="103.4084564"><ele>793.03</ele><time>2025-09-12T23:56:16.000Z</time></trkpt>
        <trkpt lat="29.5677453" lon="103.4084327"><ele>791.01</ele><time>2025-09-12T23:56:22.000Z</time></trkpt>
        <trkpt lat="29.5676937" lon="103.4083956"><ele>789.61</ele><time>2025-09-12T23:56:28.000Z</time></trkpt>
        <trkpt lat="29.5676397" lon="103.4083684"><ele>788.62</ele><time>2025-09-12T23:56:34.000Z</time></trkpt>
        <trkpt lat="29.5675958" lon="103.4083965"><ele>789.79</ele><time>2025-09-12T23:56:40.000Z</time></trkpt>
        <trkpt lat="29.5675952" lon="103.4084575"><ele>789.85</ele><time>2025-09-12T23:56:44.000Z</time></trkpt>
        <trkpt lat="29.5675991" lon="103.4085196"><ele>789.03</ele><time>2025-09-12T23:56:48.000Z</time></trkpt>
        <trkpt lat="29.5675869" lon="103.40859"><ele>786.97</ele><time>2025-09-12T23:56:54.000Z</time></trkpt>
        <trkpt lat="29.5675596" lon="103.4086515"><ele>784.8</ele><time>2025-09-12T23:57:00.000Z</time></trkpt>
        <trkpt lat="29.5675106" lon="103.4086872"><ele>783.31</ele><time>2025-09-12T23:57:06.000Z</time></trkpt>
        <trkpt lat="29.5674636" lon="103.4086664"><ele>782.43</ele><time>2025-09-12T23:57:10.000Z</time></trkpt>
        <trkpt lat="29.5674194" lon="103.4086344"><ele>782.06</ele><time>2025-09-12T23:57:14.000Z</time></trkpt>
        <trkpt lat="29.5673585" lon="103.4086046"><ele>781.66</ele><time>2025-09-12T23:57:20.000Z</time></trkpt>
        <trkpt lat="29.5673052" lon="103.4085694"><ele>782.52</ele><time>2025-09-12T23:57:24.000Z</time></trkpt>
        <trkpt lat="29.5672499" lon="103.4085299"><ele>784.34</ele><time>2025-09-12T23:57:30.000Z</time></trkpt>
        <trkpt lat="29.5672049" lon="103.4084966"><ele>784.17</ele><time>2025-09-12T23:57:34.000Z</time></trkpt>
        <trkpt lat="29.5671531" lon="103.4084589"><ele>783.07</ele><time>2025-09-12T23:57:40.000Z</time></trkpt>
        <trkpt lat="29.5670962" lon="103.4084418"><ele>781.99</ele><time>2025-09-12T23:57:46.000Z</time></trkpt>
        <trkpt lat="29.5670388" lon="103.4084668"><ele>780.36</ele><time>2025-09-12T23:57:52.000Z</time></trkpt>
        <trkpt lat="29.5669789" lon="103.4084764"><ele>778.66</ele><time>2025-09-12T23:57:58.000Z</time></trkpt>
        <trkpt lat="29.5669174" lon="103.4084642"><ele>777.39</ele><time>2025-09-12T23:58:04.000Z</time></trkpt>
        <trkpt lat="29.56686" lon="103.4084611"><ele>775.87</ele><time>2025-09-12T23:58:10.000Z</time></trkpt>
        <trkpt lat="29.5668108" lon="103.4084562"><ele>774.35</ele><time>2025-09-12T23:58:14.000Z</time></trkpt>
        <trkpt lat="29.5667665" lon="103.4084409"><ele>774.1</ele><time>2025-09-12T23:58:18.000Z</time></trkpt>
        <trkpt lat="29.5667251" lon="103.4084075"><ele>774.58</ele><time>2025-09-12T23:58:22.000Z</time></trkpt>
        <trkpt lat="29.5666884" lon="103.4083537"><ele>775.02</ele><time>2025-09-12T23:58:28.000Z</time></trkpt>
        <trkpt lat="29.5666744" lon="103.4083203"><ele>775.4</ele><time>2025-09-12T23:58:32.000Z</time></trkpt>
        <trkpt lat="29.5666852" lon="103.4082521"><ele>775.94</ele><time>2025-09-12T23:58:38.000Z</time></trkpt>
        <trkpt lat="29.5666901" lon="103.4082322"><ele>778.32</ele><time>2025-09-12T23:58:39.000Z</time></trkpt>
        <trkpt lat="29.5667018" lon="103.4081808"><ele>778.95</ele><time>2025-09-12T23:58:45.000Z</time></trkpt>
        <trkpt lat="29.5667197" lon="103.4081109"><ele>779.05</ele><time>2025-09-12T23:58:51.000Z</time></trkpt>
        <trkpt lat="29.5667225" lon="103.4080385"><ele>779.58</ele><time>2025-09-12T23:58:56.000Z</time></trkpt>
        <trkpt lat="29.5666957" lon="103.407981"><ele>779.27</ele><time>2025-09-12T23:59:02.000Z</time></trkpt>
        <trkpt lat="29.5666658" lon="103.4079381"><ele>779.48</ele><time>2025-09-12T23:59:08.000Z</time></trkpt>
        <trkpt lat="29.5666282" lon="103.4079021"><ele>779.64</ele><time>2025-09-12T23:59:22.000Z</time></trkpt>
        <trkpt lat="29.566613" lon="103.4078929"><ele>779.54</ele><time>2025-09-12T23:59:24.000Z</time></trkpt>
        <trkpt lat="29.5666352" lon="103.4078585"><ele>779.21</ele><time>2025-09-12T23:59:40.000Z</time></trkpt>
        <trkpt lat="29.5666347" lon="103.4078052"><ele>778.1</ele><time>2025-09-12T23:59:48.000Z</time></trkpt>
        <trkpt lat="29.5666133" lon="103.4077491"><ele>777.22</ele><time>2025-09-13T00:00:10.000Z</time></trkpt>
        <trkpt lat="29.5665837" lon="103.4076969"><ele>777.43</ele><time>2025-09-13T00:00:16.000Z</time></trkpt>
        <trkpt lat="29.5666068" lon="103.4076401"><ele>778.15</ele><time>2025-09-13T00:00:22.000Z</time></trkpt>
        <trkpt lat="29.5666276" lon="103.4075786"><ele>778.35</ele><time>2025-09-13T00:00:28.000Z</time></trkpt>
        <trkpt lat="29.5666031" lon="103.4075182"><ele>778.36</ele><time>2025-09-13T00:00:34.000Z</time></trkpt>
        <trkpt lat="29.5665535" lon="103.4074888"><ele>778.57</ele><time>2025-09-13T00:00:38.000Z</time></trkpt>
        <trkpt lat="29.5665178" lon="103.407447"><ele>779.2</ele><time>2025-09-13T00:00:44.000Z</time></trkpt>
        <trkpt lat="29.5664984" lon="103.4073854"><ele>779.49</ele><time>2025-09-13T00:00:50.000Z</time></trkpt>
        <trkpt lat="29.56648" lon="103.4073328"><ele>780.26</ele><time>2025-09-13T00:00:54.000Z</time></trkpt>
        <trkpt lat="29.5664696" lon="103.4072645"><ele>780.86</ele><time>2025-09-13T00:01:00.000Z</time></trkpt>
        <trkpt lat="29.5664652" lon="103.4072025"><ele>779.08</ele><time>2025-09-13T00:01:04.000Z</time></trkpt>
        <trkpt lat="29.5664514" lon="103.4071469"><ele>777.2</ele><time>2025-09-13T00:01:08.000Z</time></trkpt>
        <trkpt lat="29.5664276" lon="103.4071004"><ele>776.19</ele><time>2025-09-13T00:01:12.000Z</time></trkpt>
        <trkpt lat="29.5664055" lon="103.4070518"><ele>775.47</ele><time>2025-09-13T00:01:16.000Z</time></trkpt>
        <trkpt lat="29.5664004" lon="103.4069999"><ele>774.53</ele><time>2025-09-13T00:01:20.000Z</time></trkpt>
        <trkpt lat="29.5664063" lon="103.4069322"><ele>774.47</ele><time>2025-09-13T00:01:26.000Z</time></trkpt>
        <trkpt lat="29.5664296" lon="103.4068648"><ele>774.13</ele><time>2025-09-13T00:01:32.000Z</time></trkpt>
        <trkpt lat="29.566455" lon="103.4068116"><ele>773.05</ele><time>2025-09-13T00:01:36.000Z</time></trkpt>
        <trkpt lat="29.5664881" lon="103.4067716"><ele>772.66</ele><time>2025-09-13T00:01:40.000Z</time></trkpt>
        <trkpt lat="29.5665382" lon="103.4067494"><ele>772.47</ele><time>2025-09-13T00:01:44.000Z</time></trkpt>
        <trkpt lat="29.5665838" lon="103.4067268"><ele>771.89</ele><time>2025-09-13T00:01:48.000Z</time></trkpt>
        <trkpt lat="29.5666259" lon="103.4066833"><ele>770.98</ele><time>2025-09-13T00:01:54.000Z</time></trkpt>
        <trkpt lat="29.5666642" lon="103.4066456"><ele>770.12</ele><time>2025-09-13T00:01:58.000Z</time></trkpt>
        <trkpt lat="29.5667037" lon="103.4066147"><ele>769.31</ele><time>2025-09-13T00:02:02.000Z</time></trkpt>
        <trkpt lat="29.5667486" lon="103.4065835"><ele>769.17</ele><time>2025-09-13T00:02:06.000Z</time></trkpt>
        <trkpt lat="29.5667869" lon="103.4065472"><ele>769.21</ele><time>2025-09-13T00:02:10.000Z</time></trkpt>
        <trkpt lat="29.5668265" lon="103.4065075"><ele>769.03</ele><time>2025-09-13T00:02:14.000Z</time></trkpt>
        <trkpt lat="29.5668578" lon="103.4064662"><ele>768.64</ele><time>2025-09-13T00:02:18.000Z</time></trkpt>
        <trkpt lat="29.5668849" lon="103.4064058"><ele>768.32</ele><time>2025-09-13T00:02:24.000Z</time></trkpt>
        <trkpt lat="29.5669096" lon="103.4063354"><ele>767.35</ele><time>2025-09-13T00:02:30.000Z</time></trkpt>
        <trkpt lat="29.5669408" lon="103.4062897"><ele>767.85</ele><time>2025-09-13T00:02:34.000Z</time></trkpt>
        <trkpt lat="29.5669603" lon="103.4062419"><ele>768.9</ele><time>2025-09-13T00:02:38.000Z</time></trkpt>
        <trkpt lat="29.5669847" lon="103.4061796"><ele>768.69</ele><time>2025-09-13T00:02:44.000Z</time></trkpt>
        <trkpt lat="29.5670187" lon="103.4061161"><ele>768.01</ele><time>2025-09-13T00:02:50.000Z</time></trkpt>
        <trkpt lat="29.5670492" lon="103.4060617"><ele>767.37</ele><time>2025-09-13T00:02:54.000Z</time></trkpt>
        <trkpt lat="29.5670774" lon="103.4060176"><ele>767.72</ele><time>2025-09-13T00:02:58.000Z</time></trkpt>
        <trkpt lat="29.5671197" lon="103.4059677"><ele>767.02</ele><time>2025-09-13T00:03:04.000Z</time></trkpt>
        <trkpt lat="29.5671539" lon="103.4059138"><ele>765.83</ele><time>2025-09-13T00:03:10.000Z</time></trkpt>
        <trkpt lat="29.5671726" lon="103.4058538"><ele>765.78</ele><time>2025-09-13T00:03:16.000Z</time></trkpt>
        <trkpt lat="29.5671572" lon="103.4057919"><ele>764.75</ele><time>2025-09-13T00:03:22.000Z</time></trkpt>
        <trkpt lat="29.5671167" lon="103.4057603"><ele>763.8</ele><time>2025-09-13T00:03:26.000Z</time></trkpt>
        <trkpt lat="29.5670633" lon="103.4057177"><ele>762.78</ele><time>2025-09-13T00:03:32.000Z</time></trkpt>
        <trkpt lat="29.5670117" lon="103.4056645"><ele>762.4</ele><time>2025-09-13T00:03:38.000Z</time></trkpt>
        <trkpt lat="29.5669778" lon="103.4056178"><ele>761.78</ele><time>2025-09-13T00:03:42.000Z</time></trkpt>
        <trkpt lat="29.5669505" lon="103.4055739"><ele>760.9</ele><time>2025-09-13T00:03:46.000Z</time></trkpt>
        <trkpt lat="29.5669195" lon="103.4055337"><ele>761.05</ele><time>2025-09-13T00:03:50.000Z</time></trkpt>
        <trkpt lat="29.56689" lon="103.4054948"><ele>761.3</ele><time>2025-09-13T00:03:54.000Z</time></trkpt>
        <trkpt lat="29.5668606" lon="103.4054554"><ele>761.06</ele><time>2025-09-13T00:03:58.000Z</time></trkpt>
        <trkpt lat="29.5668292" lon="103.4054167"><ele>761.33</ele><time>2025-09-13T00:04:02.000Z</time></trkpt>
        <trkpt lat="29.5668" lon="103.4053734"><ele>761.35</ele><time>2025-09-13T00:04:06.000Z</time></trkpt>
        <trkpt lat="29.5667742" lon="103.4053237"><ele>760.41</ele><time>2025-09-13T00:04:10.000Z</time></trkpt>
        <trkpt lat="29.5667583" lon="103.4052591"><ele>759.2</ele><time>2025-09-13T00:04:16.000Z</time></trkpt>
        <trkpt lat="29.5667508" lon="103.405184"><ele>757.95</ele><time>2025-09-13T00:04:22.000Z</time></trkpt>
        <trkpt lat="29.5667454" lon="103.4051118"><ele>758.26</ele><time>2025-09-13T00:04:28.000Z</time></trkpt>
        <trkpt lat="29.566772" lon="103.405054"><ele>758.67</ele><time>2025-09-13T00:04:34.000Z</time></trkpt>
        <trkpt lat="29.5668249" lon="103.405047"><ele>757.84</ele><time>2025-09-13T00:04:38.000Z</time></trkpt>
        <trkpt lat="29.5668791" lon="103.4050791"><ele>757.18</ele><time>2025-09-13T00:04:42.000Z</time></trkpt>
        <trkpt lat="29.5669236" lon="103.4051184"><ele>756.85</ele><time>2025-09-13T00:04:46.000Z</time></trkpt>
        <trkpt lat="29.5669713" lon="103.4051427"><ele>756.55</ele><time>2025-09-13T00:04:50.000Z</time></trkpt>
        <trkpt lat="29.5670197" lon="103.4051423"><ele>757</ele><time>2025-09-13T00:04:54.000Z</time></trkpt>
        <trkpt lat="29.5670682" lon="103.4051293"><ele>756.41</ele><time>2025-09-13T00:04:58.000Z</time></trkpt>
        <trkpt lat="29.5671272" lon="103.4051134"><ele>755.72</ele><time>2025-09-13T00:05:04.000Z</time></trkpt>
        <trkpt lat="29.5671771" lon="103.4050956"><ele>754.99</ele><time>2025-09-13T00:05:08.000Z</time></trkpt>
        <trkpt lat="29.5672347" lon="103.4050623"><ele>754.98</ele><time>2025-09-13T00:05:14.000Z</time></trkpt>
        <trkpt lat="29.5672991" lon="103.4050316"><ele>755.03</ele><time>2025-09-13T00:05:20.000Z</time></trkpt>
        <trkpt lat="29.5673677" lon="103.4050187"><ele>754.97</ele><time>2025-09-13T00:05:26.000Z</time></trkpt>
        <trkpt lat="29.5674303" lon="103.4050206"><ele>754.68</ele><time>2025-09-13T00:05:32.000Z</time></trkpt>
        <trkpt lat="29.5674798" lon="103.4050245"><ele>754.43</ele><time>2025-09-13T00:05:36.000Z</time></trkpt>
        <trkpt lat="29.5675403" lon="103.4050378"><ele>753.85</ele><time>2025-09-13T00:05:42.000Z</time></trkpt>
        <trkpt lat="29.5676037" lon="103.4050476"><ele>753.54</ele><time>2025-09-13T00:05:48.000Z</time></trkpt>
        <trkpt lat="29.5676725" lon="103.40506"><ele>752.67</ele><time>2025-09-13T00:05:54.000Z</time></trkpt>
        <trkpt lat="29.567728" lon="103.4050709"><ele>752.11</ele><time>2025-09-13T00:05:58.000Z</time></trkpt>
        <trkpt lat="29.5677884" lon="103.4050882"><ele>751.9</ele><time>2025-09-13T00:06:04.000Z</time></trkpt>
        <trkpt lat="29.5678394" lon="103.4050875"><ele>752.09</ele><time>2025-09-13T00:06:08.000Z</time></trkpt>
        <trkpt lat="29.5678922" lon="103.4050567"><ele>751.74</ele><time>2025-09-13T00:06:14.000Z</time></trkpt>
        <trkpt lat="29.5679318" lon="103.4050195"><ele>751.14</ele><time>2025-09-13T00:06:18.000Z</time></trkpt>
        <trkpt lat="29.5679752" lon="103.4049954"><ele>751.99</ele><time>2025-09-13T00:06:22.000Z</time></trkpt>
        <trkpt lat="29.5680166" lon="103.4049645"><ele>752.55</ele><time>2025-09-13T00:06:26.000Z</time></trkpt>
        <trkpt lat="29.5680568" lon="103.4049361"><ele>753.03</ele><time>2025-09-13T00:06:30.000Z</time></trkpt>
        <trkpt lat="29.5680911" lon="103.4049024"><ele>753.56</ele><time>2025-09-13T00:06:34.000Z</time></trkpt>
        <trkpt lat="29.5681432" lon="103.4048649"><ele>754.43</ele><time>2025-09-13T00:06:40.000Z</time></trkpt>
        <trkpt lat="29.5681941" lon="103.4048425"><ele>753.45</ele><time>2025-09-13T00:06:44.000Z</time></trkpt>
        <trkpt lat="29.568251" lon="103.4048134"><ele>753.02</ele><time>2025-09-13T00:06:50.000Z</time></trkpt>
        <trkpt lat="29.5683073" lon="103.4047697"><ele>752.69</ele><time>2025-09-13T00:06:56.000Z</time></trkpt>
        <trkpt lat="29.56835" lon="103.4047126"><ele>751.59</ele><time>2025-09-13T00:07:02.000Z</time></trkpt>
        <trkpt lat="29.5683799" lon="103.4046459"><ele>750.67</ele><time>2025-09-13T00:07:08.000Z</time></trkpt>
        <trkpt lat="29.5684033" lon="103.4045928"><ele>750.37</ele><time>2025-09-13T00:07:12.000Z</time></trkpt>
        <trkpt lat="29.568429" lon="103.4045489"><ele>750.43</ele><time>2025-09-13T00:07:16.000Z</time></trkpt>
        <trkpt lat="29.5684526" lon="103.4045048"><ele>750.58</ele><time>2025-09-13T00:07:20.000Z</time></trkpt>
        <trkpt lat="29.5684808" lon="103.4044597"><ele>750.51</ele><time>2025-09-13T00:07:24.000Z</time></trkpt>
        <trkpt lat="29.5685084" lon="103.4043985"><ele>750.32</ele><time>2025-09-13T00:07:30.000Z</time></trkpt>
        <trkpt lat="29.5685311" lon="103.4043453"><ele>750.57</ele><time>2025-09-13T00:07:34.000Z</time></trkpt>
        <trkpt lat="29.568557" lon="103.404294"><ele>749.96</ele><time>2025-09-13T00:07:38.000Z</time></trkpt>
        <trkpt lat="29.5685863" lon="103.404245"><ele>748.81</ele><time>2025-09-13T00:07:42.000Z</time></trkpt>
        <trkpt lat="29.5686054" lon="103.404193"><ele>748.24</ele><time>2025-09-13T00:07:46.000Z</time></trkpt>
        <trkpt lat="29.5686284" lon="103.4041407"><ele>747.46</ele><time>2025-09-13T00:07:50.000Z</time></trkpt>
        <trkpt lat="29.5686669" lon="103.4040962"><ele>746.24</ele><time>2025-09-13T00:07:54.000Z</time></trkpt>
        <trkpt lat="29.5686965" lon="103.4040522"><ele>745.36</ele><time>2025-09-13T00:07:58.000Z</time></trkpt>
        <trkpt lat="29.5687272" lon="103.4039968"><ele>745.27</ele><time>2025-09-13T00:08:04.000Z</time></trkpt>
        <trkpt lat="29.5687635" lon="103.4039543"><ele>744.46</ele><time>2025-09-13T00:08:08.000Z</time></trkpt>
        <trkpt lat="29.568797" lon="103.4039107"><ele>744.31</ele><time>2025-09-13T00:08:12.000Z</time></trkpt>
        <trkpt lat="29.5688382" lon="103.403871"><ele>743.87</ele><time>2025-09-13T00:08:16.000Z</time></trkpt>
        <trkpt lat="29.5688851" lon="103.4038536"><ele>742.7</ele><time>2025-09-13T00:08:20.000Z</time></trkpt>
        <trkpt lat="29.5689373" lon="103.4038672"><ele>742.56</ele><time>2025-09-13T00:08:24.000Z</time></trkpt>
        <trkpt lat="29.5689898" lon="103.4038956"><ele>742.34</ele><time>2025-09-13T00:08:28.000Z</time></trkpt>
        <trkpt lat="29.569037" lon="103.4039266"><ele>742.25</ele><time>2025-09-13T00:08:32.000Z</time></trkpt>
        <trkpt lat="29.5690863" lon="103.4039446"><ele>742.09</ele><time>2025-09-13T00:08:36.000Z</time></trkpt>
        <trkpt lat="29.5691324" lon="103.4039507"><ele>740.37</ele><time>2025-09-13T00:08:40.000Z</time></trkpt>
        <trkpt lat="29.5691894" lon="103.4039327"><ele>739.27</ele><time>2025-09-13T00:08:46.000Z</time></trkpt>
        <trkpt lat="29.5692424" lon="103.4038923"><ele>737.34</ele><time>2025-09-13T00:08:52.000Z</time></trkpt>
        <trkpt lat="29.5693003" lon="103.4038469"><ele>736.64</ele><time>2025-09-13T00:08:58.000Z</time></trkpt>
        <trkpt lat="29.5693435" lon="103.4038072"><ele>736.97</ele><time>2025-09-13T00:09:02.000Z</time></trkpt>
        <trkpt lat="29.5693986" lon="103.4037667"><ele>737.89</ele><time>2025-09-13T00:09:08.000Z</time></trkpt>
        <trkpt lat="29.5694433" lon="103.403735"><ele>736.96</ele><time>2025-09-13T00:09:12.000Z</time></trkpt>
        <trkpt lat="29.5694826" lon="103.4037062"><ele>735.73</ele><time>2025-09-13T00:09:16.000Z</time></trkpt>
        <trkpt lat="29.569532" lon="103.4036675"><ele>735.22</ele><time>2025-09-13T00:09:22.000Z</time></trkpt>
        <trkpt lat="29.5695745" lon="103.4036327"><ele>734.34</ele><time>2025-09-13T00:09:26.000Z</time></trkpt>
        <trkpt lat="29.5696099" lon="103.4035961"><ele>733.88</ele><time>2025-09-13T00:09:30.000Z</time></trkpt>
        <trkpt lat="29.5696543" lon="103.4035514"><ele>733.46</ele><time>2025-09-13T00:09:36.000Z</time></trkpt>
        <trkpt lat="29.5696934" lon="103.4035013"><ele>732.92</ele><time>2025-09-13T00:09:42.000Z</time></trkpt>
        <trkpt lat="29.5697318" lon="103.4034449"><ele>732.83</ele><time>2025-09-13T00:09:48.000Z</time></trkpt>
        <trkpt lat="29.5697738" lon="103.4033923"><ele>732.59</ele><time>2025-09-13T00:09:54.000Z</time></trkpt>
        <trkpt lat="29.5698169" lon="103.4033406"><ele>732.72</ele><time>2025-09-13T00:10:00.000Z</time></trkpt>
        <trkpt lat="29.5698535" lon="103.4032797"><ele>732.6</ele><time>2025-09-13T00:10:06.000Z</time></trkpt>
        <trkpt lat="29.5698856" lon="103.4032331"><ele>732.75</ele><time>2025-09-13T00:10:10.000Z</time></trkpt>
        <trkpt lat="29.5699222" lon="103.4031799"><ele>732.51</ele><time>2025-09-13T00:10:16.000Z</time></trkpt>
        <trkpt lat="29.5699524" lon="103.4031199"><ele>732.07</ele><time>2025-09-13T00:10:22.000Z</time></trkpt>
        <trkpt lat="29.5699753" lon="103.4030683"><ele>730.83</ele><time>2025-09-13T00:10:26.000Z</time></trkpt>
        <trkpt lat="29.5699944" lon="103.4030044"><ele>730.3</ele><time>2025-09-13T00:10:32.000Z</time></trkpt>
        <trkpt lat="29.5700108" lon="103.4029496"><ele>728.78</ele><time>2025-09-13T00:10:36.000Z</time></trkpt>
        <trkpt lat="29.5700315" lon="103.4028956"><ele>727.59</ele><time>2025-09-13T00:10:40.000Z</time></trkpt>
        <trkpt lat="29.5700619" lon="103.4028512"><ele>727.12</ele><time>2025-09-13T00:10:44.000Z</time></trkpt>
        <trkpt lat="29.5701005" lon="103.4028115"><ele>726.51</ele><time>2025-09-13T00:10:48.000Z</time></trkpt>
        <trkpt lat="29.5701415" lon="103.4027762"><ele>726.22</ele><time>2025-09-13T00:10:52.000Z</time></trkpt>
        <trkpt lat="29.570188" lon="103.4027513"><ele>727</ele><time>2025-09-13T00:10:56.000Z</time></trkpt>
        <trkpt lat="29.5702373" lon="103.4027312"><ele>726.92</ele><time>2025-09-13T00:11:00.000Z</time></trkpt>
        <trkpt lat="29.5702941" lon="103.4027209"><ele>727.17</ele><time>2025-09-13T00:11:04.000Z</time></trkpt>
        <trkpt lat="29.5703487" lon="103.4027156"><ele>726.84</ele><time>2025-09-13T00:11:08.000Z</time></trkpt>
        <trkpt lat="29.5704035" lon="103.402715"><ele>725.57</ele><time>2025-09-13T00:11:12.000Z</time></trkpt>
        <trkpt lat="29.5704544" lon="103.4027178"><ele>725.08</ele><time>2025-09-13T00:11:16.000Z</time></trkpt>
        <trkpt lat="29.5705025" lon="103.402718"><ele>724.89</ele><time>2025-09-13T00:11:20.000Z</time></trkpt>
        <trkpt lat="29.5705633" lon="103.40272"><ele>724.59</ele><time>2025-09-13T00:11:26.000Z</time></trkpt>
        <trkpt lat="29.5706157" lon="103.4027236"><ele>725.03</ele><time>2025-09-13T00:11:30.000Z</time></trkpt>
        <trkpt lat="29.5706753" lon="103.4027216"><ele>725.39</ele><time>2025-09-13T00:11:36.000Z</time></trkpt>
        <trkpt lat="29.5707331" lon="103.4027006"><ele>725.01</ele><time>2025-09-13T00:11:42.000Z</time></trkpt>
        <trkpt lat="29.5707869" lon="103.4026732"><ele>723.94</ele><time>2025-09-13T00:11:48.000Z</time></trkpt>
        <trkpt lat="29.5708396" lon="103.4026388"><ele>723.06</ele><time>2025-09-13T00:11:54.000Z</time></trkpt>
        <trkpt lat="29.5709038" lon="103.4026092"><ele>724.43</ele><time>2025-09-13T00:12:00.000Z</time></trkpt>
        <trkpt lat="29.5709532" lon="103.4025845"><ele>725.12</ele><time>2025-09-13T00:12:04.000Z</time></trkpt>
        <trkpt lat="29.5710129" lon="103.4025639"><ele>724.79</ele><time>2025-09-13T00:12:10.000Z</time></trkpt>
        <trkpt lat="29.571054" lon="103.4025312"><ele>724.04</ele><time>2025-09-13T00:12:14.000Z</time></trkpt>
        <trkpt lat="29.5710973" lon="103.4024858"><ele>723.6</ele><time>2025-09-13T00:12:20.000Z</time></trkpt>
        <trkpt lat="29.5711356" lon="103.4024494"><ele>722.03</ele><time>2025-09-13T00:12:24.000Z</time></trkpt>
        <trkpt lat="29.5711861" lon="103.4024313"><ele>721.61</ele><time>2025-09-13T00:12:28.000Z</time></trkpt>
        <trkpt lat="29.571236" lon="103.4023952"><ele>720.58</ele><time>2025-09-13T00:12:34.000Z</time></trkpt>
        <trkpt lat="29.5712619" lon="103.4023458"><ele>720.91</ele><time>2025-09-13T00:12:38.000Z</time></trkpt>
        <trkpt lat="29.5712813" lon="103.4022932"><ele>720.69</ele><time>2025-09-13T00:12:42.000Z</time></trkpt>
        <trkpt lat="29.5713041" lon="103.4022406"><ele>720.89</ele><time>2025-09-13T00:12:46.000Z</time></trkpt>
        <trkpt lat="29.5713326" lon="103.4021932"><ele>720.99</ele><time>2025-09-13T00:12:50.000Z</time></trkpt>
        <trkpt lat="29.5713736" lon="103.4021418"><ele>721.52</ele><time>2025-09-13T00:12:56.000Z</time></trkpt>
        <trkpt lat="29.57141" lon="103.4020944"><ele>722.48</ele><time>2025-09-13T00:13:00.000Z</time></trkpt>
        <trkpt lat="29.5714497" lon="103.4020405"><ele>722.95</ele><time>2025-09-13T00:13:06.000Z</time></trkpt>
        <trkpt lat="29.5714921" lon="103.4019827"><ele>723.03</ele><time>2025-09-13T00:13:12.000Z</time></trkpt>
        <trkpt lat="29.5715208" lon="103.4019321"><ele>722.78</ele><time>2025-09-13T00:13:16.000Z</time></trkpt>
        <trkpt lat="29.5715548" lon="103.4018802"><ele>722.13</ele><time>2025-09-13T00:13:22.000Z</time></trkpt>
        <trkpt lat="29.5716102" lon="103.4018635"><ele>720.77</ele><time>2025-09-13T00:13:26.000Z</time></trkpt>
        <trkpt lat="29.5716632" lon="103.4018618"><ele>720.22</ele><time>2025-09-13T00:13:30.000Z</time></trkpt>
        <trkpt lat="29.571712" lon="103.4018557"><ele>719.77</ele><time>2025-09-13T00:13:34.000Z</time></trkpt>
        <trkpt lat="29.5717587" lon="103.4018464"><ele>720.63</ele><time>2025-09-13T00:13:38.000Z</time></trkpt>
        <trkpt lat="29.5718163" lon="103.4018179"><ele>721.61</ele><time>2025-09-13T00:13:44.000Z</time></trkpt>
        <trkpt lat="29.5718423" lon="103.4017672"><ele>723.85</ele><time>2025-09-13T00:13:50.000Z</time></trkpt>
        <trkpt lat="29.5718693" lon="103.4017117"><ele>726.67</ele><time>2025-09-13T00:13:58.000Z</time></trkpt>
        <trkpt lat="29.5718981" lon="103.4016661"><ele>728.55</ele><time>2025-09-13T00:14:04.000Z</time></trkpt>
        <trkpt lat="29.5719281" lon="103.401607"><ele>728.66</ele><time>2025-09-13T00:14:12.000Z</time></trkpt>
        <trkpt lat="29.5719756" lon="103.4015661"><ele>728.58</ele><time>2025-09-13T00:14:18.000Z</time></trkpt>
        <trkpt lat="29.5720281" lon="103.4015365"><ele>728.09</ele><time>2025-09-13T00:14:24.000Z</time></trkpt>
        <trkpt lat="29.5720526" lon="103.4014853"><ele>728.56</ele><time>2025-09-13T00:14:30.000Z</time></trkpt>
        <trkpt lat="29.572059" lon="103.4014218"><ele>728.38</ele><time>2025-09-13T00:14:36.000Z</time></trkpt>
        <trkpt lat="29.5720465" lon="103.4013622"><ele>728.12</ele><time>2025-09-13T00:14:42.000Z</time></trkpt>
        <trkpt lat="29.5720319" lon="103.4013"><ele>728.04</ele><time>2025-09-13T00:14:50.000Z</time></trkpt>
        <trkpt lat="29.5720292" lon="103.4012405"><ele>728.21</ele><time>2025-09-13T00:14:56.000Z</time></trkpt>
        <trkpt lat="29.5720197" lon="103.4011861"><ele>728.84</ele><time>2025-09-13T00:15:04.000Z</time></trkpt>
        <trkpt lat="29.5719914" lon="103.4011432"><ele>729.04</ele><time>2025-09-13T00:15:14.000Z</time></trkpt>
        <trkpt lat="29.5720015" lon="103.4010788"><ele>728.02</ele><time>2025-09-13T00:15:24.000Z</time></trkpt>
        <trkpt lat="29.5720289" lon="103.4010287"><ele>726.76</ele><time>2025-09-13T00:15:28.000Z</time></trkpt>
        <trkpt lat="29.5720289" lon="103.4010287"><ele>726.76</ele><time>2025-09-13T00:15:41.000Z</time></trkpt>
        <trkpt lat="29.5719938" lon="103.4010033"><ele>725.64</ele><time>2025-09-13T00:15:43.000Z</time></trkpt>
        <trkpt lat="29.5719938" lon="103.4010033"><ele>725.64</ele><time>2025-09-13T00:15:47.000Z</time></trkpt>
        <trkpt lat="29.5719997" lon="103.4009672"><ele>723.27</ele><time>2025-09-13T00:15:56.000Z</time></trkpt>
        <trkpt lat="29.5719787" lon="103.4009308"><ele>726.19</ele><time>2025-09-13T00:16:10.000Z</time></trkpt>
        <trkpt lat="29.5719447" lon="103.4008939"><ele>731.19</ele><time>2025-09-13T00:16:18.000Z</time></trkpt>
        <trkpt lat="29.5719365" lon="103.4008398"><ele>734.35</ele><time>2025-09-13T00:16:26.000Z</time></trkpt>
        <trkpt lat="29.5719412" lon="103.400783"><ele>736.74</ele><time>2025-09-13T00:16:34.000Z</time></trkpt>
        <trkpt lat="29.5719544" lon="103.4007241"><ele>738</ele><time>2025-09-13T00:16:44.000Z</time></trkpt>
        <trkpt lat="29.5719715" lon="103.4006703"><ele>739.19</ele><time>2025-09-13T00:16:52.000Z</time></trkpt>
        <trkpt lat="29.5719638" lon="103.4006128"><ele>740.37</ele><time>2025-09-13T00:17:06.000Z</time></trkpt>
        <trkpt lat="29.5719661" lon="103.4005584"><ele>741.86</ele><time>2025-09-13T00:17:16.000Z</time></trkpt>
        <trkpt lat="29.5719487" lon="103.4005073"><ele>742.64</ele><time>2025-09-13T00:17:32.000Z</time></trkpt>
        <trkpt lat="29.5719281" lon="103.4004512"><ele>746.49</ele><time>2025-09-13T00:17:48.000Z</time></trkpt>
        <trkpt lat="29.5719135" lon="103.4003964"><ele>750.72</ele><time>2025-09-13T00:18:00.000Z</time></trkpt>
        <trkpt lat="29.5719107" lon="103.4003412"><ele>752.58</ele><time>2025-09-13T00:18:14.000Z</time></trkpt>
        <trkpt lat="29.5718997" lon="103.4002868"><ele>753.99</ele><time>2025-09-13T00:18:32.000Z</time></trkpt>
        <trkpt lat="29.5718948" lon="103.4002314"><ele>755.1</ele><time>2025-09-13T00:18:44.000Z</time></trkpt>
        <trkpt lat="29.571888" lon="103.4001766"><ele>756.72</ele><time>2025-09-13T00:19:02.000Z</time></trkpt>
        <trkpt lat="29.571888" lon="103.4001217"><ele>761.7</ele><time>2025-09-13T00:19:14.000Z</time></trkpt>
        <trkpt lat="29.5718959" lon="103.4000676"><ele>765.03</ele><time>2025-09-13T00:19:24.000Z</time></trkpt>
        <trkpt lat="29.5718833" lon="103.4000105"><ele>767.3</ele><time>2025-09-13T00:19:42.000Z</time></trkpt>
        <trkpt lat="29.5718572" lon="103.3999643"><ele>771.91</ele><time>2025-09-13T00:19:52.000Z</time></trkpt>
        <trkpt lat="29.5718377" lon="103.3999105"><ele>773.87</ele><time>2025-09-13T00:20:02.000Z</time></trkpt>
        <trkpt lat="29.5718622" lon="103.3998763"><ele>774.36</ele><time>2025-09-13T00:20:16.000Z</time></trkpt>
        <trkpt lat="29.5718659" lon="103.3998285"><ele>777.3</ele><time>2025-09-13T00:20:28.000Z</time></trkpt>
        <trkpt lat="29.5718852" lon="103.3997716"><ele>779.62</ele><time>2025-09-13T00:20:38.000Z</time></trkpt>
        <trkpt lat="29.5718848" lon="103.3997099"><ele>782.73</ele><time>2025-09-13T00:20:48.000Z</time></trkpt>
        <trkpt lat="29.5718767" lon="103.3996529"><ele>782.89</ele><time>2025-09-13T00:20:56.000Z</time></trkpt>
        <trkpt lat="29.571868" lon="103.3995976"><ele>782.65</ele><time>2025-09-13T00:21:10.000Z</time></trkpt>
        <trkpt lat="29.5718551" lon="103.3995408"><ele>783.56</ele><time>2025-09-13T00:21:20.000Z</time></trkpt>
        <trkpt lat="29.5718475" lon="103.3994823"><ele>785.11</ele><time>2025-09-13T00:21:30.000Z</time></trkpt>
        <trkpt lat="29.5718416" lon="103.3994269"><ele>785.96</ele><time>2025-09-13T00:21:38.000Z</time></trkpt>
        <trkpt lat="29.5718278" lon="103.3993742"><ele>786.51</ele><time>2025-09-13T00:21:44.000Z</time></trkpt>
        <trkpt lat="29.57181" lon="103.3993103"><ele>786.51</ele><time>2025-09-13T00:21:52.000Z</time></trkpt>
        <trkpt lat="29.5718159" lon="103.3992551"><ele>787.72</ele><time>2025-09-13T00:21:58.000Z</time></trkpt>
        <trkpt lat="29.5718006" lon="103.3992027"><ele>789.08</ele><time>2025-09-13T00:22:10.000Z</time></trkpt>
        <trkpt lat="29.5717649" lon="103.399174"><ele>790.71</ele><time>2025-09-13T00:22:18.000Z</time></trkpt>
        <trkpt lat="29.5717242" lon="103.3991461"><ele>791.78</ele><time>2025-09-13T00:22:32.000Z</time></trkpt>
        <trkpt lat="29.571698" lon="103.3990991"><ele>794.24</ele><time>2025-09-13T00:22:42.000Z</time></trkpt>
        <trkpt lat="29.5716818" lon="103.3990378"><ele>797.46</ele><time>2025-09-13T00:22:52.000Z</time></trkpt>
        <trkpt lat="29.5716604" lon="103.398984"><ele>798.76</ele><time>2025-09-13T00:23:00.000Z</time></trkpt>
        <trkpt lat="29.5716415" lon="103.3989196"><ele>800.42</ele><time>2025-09-13T00:23:08.000Z</time></trkpt>
        <trkpt lat="29.5716254" lon="103.398852"><ele>800.92</ele><time>2025-09-13T00:23:14.000Z</time></trkpt>
        <trkpt lat="29.5716111" lon="103.3987864"><ele>801.52</ele><time>2025-09-13T00:23:20.000Z</time></trkpt>
        <trkpt lat="29.5716157" lon="103.3987319"><ele>801.63</ele><time>2025-09-13T00:23:24.000Z</time></trkpt>
        <trkpt lat="29.5716118" lon="103.3986678"><ele>801.68</ele><time>2025-09-13T00:23:30.000Z</time></trkpt>
        <trkpt lat="29.5716036" lon="103.3985986"><ele>803.83</ele><time>2025-09-13T00:23:36.000Z</time></trkpt>
        <trkpt lat="29.5715933" lon="103.3985268"><ele>805.18</ele><time>2025-09-13T00:23:42.000Z</time></trkpt>
        <trkpt lat="29.5715776" lon="103.3984656"><ele>806.3</ele><time>2025-09-13T00:23:50.000Z</time></trkpt>
        <trkpt lat="29.5715828" lon="103.3984047"><ele>806.95</ele><time>2025-09-13T00:23:56.000Z</time></trkpt>
        <trkpt lat="29.5715962" lon="103.3983466"><ele>807.12</ele><time>2025-09-13T00:24:02.000Z</time></trkpt>
        <trkpt lat="29.5716154" lon="103.3982842"><ele>807.64</ele><time>2025-09-13T00:24:08.000Z</time></trkpt>
        <trkpt lat="29.5716189" lon="103.3982214"><ele>809.43</ele><time>2025-09-13T00:24:16.000Z</time></trkpt>
        <trkpt lat="29.5716236" lon="103.3981569"><ele>808.93</ele><time>2025-09-13T00:24:24.000Z</time></trkpt>
        <trkpt lat="29.5716525" lon="103.3981145"><ele>808.27</ele><time>2025-09-13T00:24:30.000Z</time></trkpt>
        <trkpt lat="29.5716457" lon="103.3980699"><ele>807.31</ele><time>2025-09-13T00:24:38.000Z</time></trkpt>
        <trkpt lat="29.571623" lon="103.3980213"><ele>805.13</ele><time>2025-09-13T00:24:46.000Z</time></trkpt>
        <trkpt lat="29.571591" lon="103.3979701"><ele>804.17</ele><time>2025-09-13T00:24:54.000Z</time></trkpt>
        <trkpt lat="29.5715563" lon="103.3979203"><ele>802.72</ele><time>2025-09-13T00:25:02.000Z</time></trkpt>
        <trkpt lat="29.5715355" lon="103.3978648"><ele>801.94</ele><time>2025-09-13T00:25:14.000Z</time></trkpt>
        <trkpt lat="29.571517" lon="103.3978105"><ele>800.19</ele><time>2025-09-13T00:25:24.000Z</time></trkpt>
        <trkpt lat="29.5714993" lon="103.3977483"><ele>798.03</ele><time>2025-09-13T00:25:36.000Z</time></trkpt>
        <trkpt lat="29.5714922" lon="103.3976915"><ele>795.36</ele><time>2025-09-13T00:25:46.000Z</time></trkpt>
        <trkpt lat="29.5714809" lon="103.3976403"><ele>791.97</ele><time>2025-09-13T00:26:02.000Z</time></trkpt>
        <trkpt lat="29.5714632" lon="103.3975855"><ele>787.7</ele><time>2025-09-13T00:26:08.000Z</time></trkpt>
        <trkpt lat="29.5714439" lon="103.3975328"><ele>784.53</ele><time>2025-09-13T00:26:18.000Z</time></trkpt>
        <trkpt lat="29.5714691" lon="103.3974874"><ele>782.49</ele><time>2025-09-13T00:26:24.000Z</time></trkpt>
        <trkpt lat="29.5714866" lon="103.3974343"><ele>781.54</ele><time>2025-09-13T00:26:32.000Z</time></trkpt>
        <trkpt lat="29.5715126" lon="103.3973829"><ele>780.87</ele><time>2025-09-13T00:26:38.000Z</time></trkpt>
        <trkpt lat="29.5715517" lon="103.3973342"><ele>780.07</ele><time>2025-09-13T00:26:44.000Z</time></trkpt>
        <trkpt lat="29.5715862" lon="103.3972805"><ele>779.9</ele><time>2025-09-13T00:26:52.000Z</time></trkpt>
        <trkpt lat="29.5716004" lon="103.3972262"><ele>779.42</ele><time>2025-09-13T00:26:58.000Z</time></trkpt>
        <trkpt lat="29.571594" lon="103.3971727"><ele>779.46</ele><time>2025-09-13T00:27:06.000Z</time></trkpt>
        <trkpt lat="29.5715734" lon="103.3971246"><ele>777.74</ele><time>2025-09-13T00:27:14.000Z</time></trkpt>
        <trkpt lat="29.5715734" lon="103.3971246"><ele>777.74</ele><time>2025-09-13T00:27:31.000Z</time></trkpt>
        <trkpt lat="29.5715982" lon="103.3970995"><ele>774.96</ele><time>2025-09-13T00:27:37.000Z</time></trkpt>
        <trkpt lat="29.5715982" lon="103.3970995"><ele>774.96</ele><time>2025-09-13T00:27:48.000Z</time></trkpt>
        <trkpt lat="29.571608" lon="103.397053"><ele>772.4</ele><time>2025-09-13T00:27:58.000Z</time></trkpt>
        <trkpt lat="29.5716402" lon="103.397016"><ele>768.78</ele><time>2025-09-13T00:28:04.000Z</time></trkpt>
        <trkpt lat="29.5716865" lon="103.3969767"><ele>767.05</ele><time>2025-09-13T00:28:10.000Z</time></trkpt>
        <trkpt lat="29.5717258" lon="103.3969406"><ele>766.82</ele><time>2025-09-13T00:28:16.000Z</time></trkpt>
        <trkpt lat="29.5717385" lon="103.3968909"><ele>765.24</ele><time>2025-09-13T00:28:24.000Z</time></trkpt>
        <trkpt lat="29.5717543" lon="103.3968356"><ele>763.52</ele><time>2025-09-13T00:28:32.000Z</time></trkpt>
        <trkpt lat="29.571783" lon="103.3967879"><ele>763.35</ele><time>2025-09-13T00:28:38.000Z</time></trkpt>
        <trkpt lat="29.5718225" lon="103.3967613"><ele>761.43</ele><time>2025-09-13T00:28:44.000Z</time></trkpt>
        <trkpt lat="29.5718735" lon="103.396755"><ele>759.15</ele><time>2025-09-13T00:28:50.000Z</time></trkpt>
        <trkpt lat="29.5719337" lon="103.3967587"><ele>758.53</ele><time>2025-09-13T00:28:58.000Z</time></trkpt>
        <trkpt lat="29.5719905" lon="103.396773"><ele>757.2</ele><time>2025-09-13T00:29:04.000Z</time></trkpt>
        <trkpt lat="29.5720475" lon="103.3967875"><ele>756.51</ele><time>2025-09-13T00:29:12.000Z</time></trkpt>
        <trkpt lat="29.5720953" lon="103.3967825"><ele>755.58</ele><time>2025-09-13T00:29:20.000Z</time></trkpt>
        <trkpt lat="29.5721489" lon="103.396768"><ele>753.18</ele><time>2025-09-13T00:29:30.000Z</time></trkpt>
        <trkpt lat="29.572202" lon="103.3967663"><ele>750.99</ele><time>2025-09-13T00:29:38.000Z</time></trkpt>
        <trkpt lat="29.5722508" lon="103.3967602"><ele>749.2</ele><time>2025-09-13T00:29:44.000Z</time></trkpt>
        <trkpt lat="29.5723025" lon="103.3967507"><ele>748.13</ele><time>2025-09-13T00:29:52.000Z</time></trkpt>
        <trkpt lat="29.5723499" lon="103.3967463"><ele>748.32</ele><time>2025-09-13T00:29:58.000Z</time></trkpt>
        <trkpt lat="29.5723977" lon="103.3967233"><ele>748.95</ele><time>2025-09-13T00:30:08.000Z</time></trkpt>
        <trkpt lat="29.5724167" lon="103.3966699"><ele>748.88</ele><time>2025-09-13T00:30:14.000Z</time></trkpt>
        <trkpt lat="29.5724291" lon="103.3966044"><ele>747.52</ele><time>2025-09-13T00:30:20.000Z</time></trkpt>
        <trkpt lat="29.5724391" lon="103.3965459"><ele>745.79</ele><time>2025-09-13T00:30:26.000Z</time></trkpt>
        <trkpt lat="29.5724213" lon="103.3964759"><ele>743.9</ele><time>2025-09-13T00:30:32.000Z</time></trkpt>
        <trkpt lat="29.5724002" lon="103.3964092"><ele>742.53</ele><time>2025-09-13T00:30:38.000Z</time></trkpt>
        <trkpt lat="29.5723929" lon="103.3963402"><ele>741.75</ele><time>2025-09-13T00:30:44.000Z</time></trkpt>
        <trkpt lat="29.5724212" lon="103.3962963"><ele>743.01</ele><time>2025-09-13T00:30:52.000Z</time></trkpt>
        <trkpt lat="29.5724362" lon="103.3962448"><ele>743.29</ele><time>2025-09-13T00:31:00.000Z</time></trkpt>
        <trkpt lat="29.5724412" lon="103.3961936"><ele>741.78</ele><time>2025-09-13T00:31:04.000Z</time></trkpt>
        <trkpt lat="29.572441" lon="103.3961418"><ele>739.91</ele><time>2025-09-13T00:31:12.000Z</time></trkpt>
        <trkpt lat="29.5724556" lon="103.3960939"><ele>738.21</ele><time>2025-09-13T00:31:18.000Z</time></trkpt>
        <trkpt lat="29.5724631" lon="103.3960337"><ele>737.25</ele><time>2025-09-13T00:31:26.000Z</time></trkpt>
        <trkpt lat="29.5725035" lon="103.3960039"><ele>735.82</ele><time>2025-09-13T00:31:36.000Z</time></trkpt>
        <trkpt lat="29.5725545" lon="103.3959763"><ele>734.57</ele><time>2025-09-13T00:31:42.000Z</time></trkpt>
        <trkpt lat="29.5726058" lon="103.3959501"><ele>734.14</ele><time>2025-09-13T00:31:50.000Z</time></trkpt>
        <trkpt lat="29.5726481" lon="103.3959094"><ele>732.43</ele><time>2025-09-13T00:31:58.000Z</time></trkpt>
        <trkpt lat="29.572687" lon="103.3958732"><ele>731.18</ele><time>2025-09-13T00:32:04.000Z</time></trkpt>
        <trkpt lat="29.5727311" lon="103.3958435"><ele>730.08</ele><time>2025-09-13T00:32:12.000Z</time></trkpt>
        <trkpt lat="29.5727746" lon="103.3958112"><ele>729.17</ele><time>2025-09-13T00:32:18.000Z</time></trkpt>
        <trkpt lat="29.5728104" lon="103.3957715"><ele>727.47</ele><time>2025-09-13T00:32:24.000Z</time></trkpt>
        <trkpt lat="29.5728438" lon="103.3957273"><ele>726.53</ele><time>2025-09-13T00:32:30.000Z</time></trkpt>
        <trkpt lat="29.5728744" lon="103.3956797"><ele>725.2</ele><time>2025-09-13T00:32:36.000Z</time></trkpt>
        <trkpt lat="29.5728978" lon="103.3956306"><ele>723.81</ele><time>2025-09-13T00:32:42.000Z</time></trkpt>
        <trkpt lat="29.5729139" lon="103.3955714"><ele>722.89</ele><time>2025-09-13T00:32:48.000Z</time></trkpt>
        <trkpt lat="29.5729358" lon="103.3955081"><ele>722.61</ele><time>2025-09-13T00:32:54.000Z</time></trkpt>
        <trkpt lat="29.572955" lon="103.3954556"><ele>723.16</ele><time>2025-09-13T00:32:58.000Z</time></trkpt>
        <trkpt lat="29.5729756" lon="103.3954072"><ele>722.9</ele><time>2025-09-13T00:33:02.000Z</time></trkpt>
        <trkpt lat="29.5730102" lon="103.3953578"><ele>721.71</ele><time>2025-09-13T00:33:08.000Z</time></trkpt>
        <trkpt lat="29.5730413" lon="103.3953103"><ele>721.48</ele><time>2025-09-13T00:33:14.000Z</time></trkpt>
        <trkpt lat="29.5730288" lon="103.3952529"><ele>721.37</ele><time>2025-09-13T00:33:20.000Z</time></trkpt>
        <trkpt lat="29.5730156" lon="103.3951868"><ele>719.41</ele><time>2025-09-13T00:33:28.000Z</time></trkpt>
        <trkpt lat="29.5730058" lon="103.3951294"><ele>718.36</ele><time>2025-09-13T00:33:34.000Z</time></trkpt>
        <trkpt lat="29.5729949" lon="103.3950728"><ele>718.64</ele><time>2025-09-13T00:33:40.000Z</time></trkpt>
        <trkpt lat="29.5729925" lon="103.3950178"><ele>719.96</ele><time>2025-09-13T00:33:46.000Z</time></trkpt>
        <trkpt lat="29.5729899" lon="103.3949578"><ele>720.13</ele><time>2025-09-13T00:33:52.000Z</time></trkpt>
        <trkpt lat="29.5729938" lon="103.3948936"><ele>719.28</ele><time>2025-09-13T00:34:00.000Z</time></trkpt>
        <trkpt lat="29.5729839" lon="103.3948315"><ele>718.45</ele><time>2025-09-13T00:34:08.000Z</time></trkpt>
        <trkpt lat="29.5729534" lon="103.3947806"><ele>716.7</ele><time>2025-09-13T00:34:14.000Z</time></trkpt>
        <trkpt lat="29.5729167" lon="103.3947387"><ele>715.65</ele><time>2025-09-13T00:34:20.000Z</time></trkpt>
        <trkpt lat="29.5728754" lon="103.3947048"><ele>715.71</ele><time>2025-09-13T00:34:26.000Z</time></trkpt>
        <trkpt lat="29.5728276" lon="103.3946651"><ele>715.36</ele><time>2025-09-13T00:34:32.000Z</time></trkpt>
        <trkpt lat="29.5727898" lon="103.3946075"><ele>714.2</ele><time>2025-09-13T00:34:40.000Z</time></trkpt>
        <trkpt lat="29.5727579" lon="103.3945539"><ele>713.09</ele><time>2025-09-13T00:34:46.000Z</time></trkpt>
        <trkpt lat="29.5727538" lon="103.394497"><ele>711.74</ele><time>2025-09-13T00:34:54.000Z</time></trkpt>
        <trkpt lat="29.5727946" lon="103.3944639"><ele>711.47</ele><time>2025-09-13T00:35:02.000Z</time></trkpt>
        <trkpt lat="29.5728316" lon="103.3944209"><ele>711.46</ele><time>2025-09-13T00:35:12.000Z</time></trkpt>
        <trkpt lat="29.5728661" lon="103.39437"><ele>709.14</ele><time>2025-09-13T00:35:22.000Z</time></trkpt>
        <trkpt lat="29.5728812" lon="103.3943147"><ele>702.85</ele><time>2025-09-13T00:35:30.000Z</time></trkpt>
        <trkpt lat="29.5729065" lon="103.3942633"><ele>697.88</ele><time>2025-09-13T00:35:38.000Z</time></trkpt>
        <trkpt lat="29.5729157" lon="103.3942052"><ele>693.93</ele><time>2025-09-13T00:35:44.000Z</time></trkpt>
        <trkpt lat="29.5729263" lon="103.3941465"><ele>690.78</ele><time>2025-09-13T00:35:50.000Z</time></trkpt>
        <trkpt lat="29.5729405" lon="103.3940878"><ele>688.9</ele><time>2025-09-13T00:35:56.000Z</time></trkpt>
        <trkpt lat="29.5729555" lon="103.3940258"><ele>687.69</ele><time>2025-09-13T00:36:02.000Z</time></trkpt>
        <trkpt lat="29.5729736" lon="103.3939664"><ele>687.12</ele><time>2025-09-13T00:36:08.000Z</time></trkpt>
        <trkpt lat="29.5729885" lon="103.3939074"><ele>686.5</ele><time>2025-09-13T00:36:14.000Z</time></trkpt>
        <trkpt lat="29.5730098" lon="103.3938445"><ele>686.41</ele><time>2025-09-13T00:36:20.000Z</time></trkpt>
        <trkpt lat="29.5730334" lon="103.3937778"><ele>686.38</ele><time>2025-09-13T00:36:26.000Z</time></trkpt>
        <trkpt lat="29.5730765" lon="103.393727"><ele>687.22</ele><time>2025-09-13T00:36:32.000Z</time></trkpt>
        <trkpt lat="29.5731331" lon="103.3937146"><ele>687.21</ele><time>2025-09-13T00:36:38.000Z</time></trkpt>
        <trkpt lat="29.5731888" lon="103.3937252"><ele>687.72</ele><time>2025-09-13T00:36:42.000Z</time></trkpt>
        <trkpt lat="29.5732419" lon="103.3937262"><ele>688.3</ele><time>2025-09-13T00:36:46.000Z</time></trkpt>
        <trkpt lat="29.5732937" lon="103.3937409"><ele>687.74</ele><time>2025-09-13T00:36:52.000Z</time></trkpt>
        <trkpt lat="29.5733418" lon="103.3937307"><ele>686.18</ele><time>2025-09-13T00:36:58.000Z</time></trkpt>
        <trkpt lat="29.5733752" lon="103.393697"><ele>684.69</ele><time>2025-09-13T00:37:02.000Z</time></trkpt>
        <trkpt lat="29.5734094" lon="103.3936487"><ele>683.54</ele><time>2025-09-13T00:37:08.000Z</time></trkpt>
        <trkpt lat="29.573446" lon="103.3936074"><ele>682.75</ele><time>2025-09-13T00:37:14.000Z</time></trkpt>
        <trkpt lat="29.5734917" lon="103.3935745"><ele>683.18</ele><time>2025-09-13T00:37:20.000Z</time></trkpt>
        <trkpt lat="29.5735433" lon="103.3935503"><ele>682.54</ele><time>2025-09-13T00:37:26.000Z</time></trkpt>
        <trkpt lat="29.5735913" lon="103.39352"><ele>681.44</ele><time>2025-09-13T00:37:32.000Z</time></trkpt>
        <trkpt lat="29.5736401" lon="103.3934854"><ele>680</ele><time>2025-09-13T00:37:38.000Z</time></trkpt>
        <trkpt lat="29.5736794" lon="103.3934503"><ele>680.06</ele><time>2025-09-13T00:37:44.000Z</time></trkpt>
        <trkpt lat="29.5737256" lon="103.3934184"><ele>680.63</ele><time>2025-09-13T00:37:50.000Z</time></trkpt>
        <trkpt lat="29.5737825" lon="103.3933928"><ele>680.34</ele><time>2025-09-13T00:37:56.000Z</time></trkpt>
        <trkpt lat="29.573831" lon="103.3933538"><ele>680.03</ele><time>2025-09-13T00:38:02.000Z</time></trkpt>
        <trkpt lat="29.573878" lon="103.3933078"><ele>678.27</ele><time>2025-09-13T00:38:08.000Z</time></trkpt>
        <trkpt lat="29.5739216" lon="103.3932583"><ele>677.14</ele><time>2025-09-13T00:38:14.000Z</time></trkpt>
        <trkpt lat="29.5739537" lon="103.3932008"><ele>677.51</ele><time>2025-09-13T00:38:20.000Z</time></trkpt>
        <trkpt lat="29.5739899" lon="103.3931426"><ele>676.7</ele><time>2025-09-13T00:38:26.000Z</time></trkpt>
        <trkpt lat="29.5740166" lon="103.3930811"><ele>675.55</ele><time>2025-09-13T00:38:32.000Z</time></trkpt>
        <trkpt lat="29.5740386" lon="103.3930301"><ele>674.1</ele><time>2025-09-13T00:38:38.000Z</time></trkpt>
        <trkpt lat="29.5740613" lon="103.3929786"><ele>673.64</ele><time>2025-09-13T00:38:44.000Z</time></trkpt>
        <trkpt lat="29.5740778" lon="103.3929177"><ele>673.56</ele><time>2025-09-13T00:38:52.000Z</time></trkpt>
        <trkpt lat="29.5740863" lon="103.3928588"><ele>673.56</ele><time>2025-09-13T00:38:58.000Z</time></trkpt>
        <trkpt lat="29.5741033" lon="103.392797"><ele>674.42</ele><time>2025-09-13T00:39:06.000Z</time></trkpt>
        <trkpt lat="29.5741323" lon="103.3927435"><ele>674.1</ele><time>2025-09-13T00:39:12.000Z</time></trkpt>
        <trkpt lat="29.574158" lon="103.3926866"><ele>673.33</ele><time>2025-09-13T00:39:18.000Z</time></trkpt>
        <trkpt lat="29.5741649" lon="103.3926333"><ele>673.56</ele><time>2025-09-13T00:39:24.000Z</time></trkpt>
        <trkpt lat="29.5741613" lon="103.3925718"><ele>672.39</ele><time>2025-09-13T00:39:34.000Z</time></trkpt>
        <trkpt lat="29.5741516" lon="103.3925094"><ele>670.56</ele><time>2025-09-13T00:39:42.000Z</time></trkpt>
        <trkpt lat="29.5741274" lon="103.3924586"><ele>668.55</ele><time>2025-09-13T00:39:48.000Z</time></trkpt>
        <trkpt lat="29.5740937" lon="103.39241"><ele>666.77</ele><time>2025-09-13T00:39:56.000Z</time></trkpt>
        <trkpt lat="29.5740718" lon="103.3923542"><ele>664.64</ele><time>2025-09-13T00:40:04.000Z</time></trkpt>
        <trkpt lat="29.5741079" lon="103.3923547"><ele>662.67</ele><time>2025-09-13T00:40:12.000Z</time></trkpt>
        <trkpt lat="29.5741442" lon="103.3923988"><ele>661.68</ele><time>2025-09-13T00:40:18.000Z</time></trkpt>
        <trkpt lat="29.5742047" lon="103.3924133"><ele>661.12</ele><time>2025-09-13T00:40:26.000Z</time></trkpt>
        <trkpt lat="29.5742543" lon="103.3923928"><ele>660.33</ele><time>2025-09-13T00:40:32.000Z</time></trkpt>
        <trkpt lat="29.5742743" lon="103.3923395"><ele>659.55</ele><time>2025-09-13T00:40:38.000Z</time></trkpt>
        <trkpt lat="29.5743135" lon="103.3923272"><ele>660</ele><time>2025-09-13T00:40:54.000Z</time></trkpt>
        <trkpt lat="29.5742946" lon="103.3923036"><ele>659.63</ele><time>2025-09-13T00:41:04.000Z</time></trkpt>
        <trkpt lat="29.5742892" lon="103.3922452"><ele>659.14</ele><time>2025-09-13T00:41:18.000Z</time></trkpt>
        <trkpt lat="29.5743037" lon="103.3921788"><ele>656.48</ele><time>2025-09-13T00:41:28.000Z</time></trkpt>
        <trkpt lat="29.5742664" lon="103.392193"><ele>653.98</ele><time>2025-09-13T00:41:37.000Z</time></trkpt>
        <trkpt lat="29.5742181" lon="103.3922131"><ele>651.62</ele><time>2025-09-13T00:41:42.000Z</time></trkpt>
        <trkpt lat="29.5742342" lon="103.3921831"><ele>649.65</ele><time>2025-09-13T00:42:02.000Z</time></trkpt>
        <trkpt lat="29.5742761" lon="103.3921504"><ele>648.01</ele><time>2025-09-13T00:42:06.000Z</time></trkpt>
        <trkpt lat="29.5743302" lon="103.3921492"><ele>647.9</ele><time>2025-09-13T00:42:16.000Z</time></trkpt>
        <trkpt lat="29.5743814" lon="103.3921361"><ele>654.87</ele><time>2025-09-13T00:42:28.000Z</time></trkpt>
        <trkpt lat="29.5744309" lon="103.3921506"><ele>658.5</ele><time>2025-09-13T00:42:38.000Z</time></trkpt>
        <trkpt lat="29.5744836" lon="103.3921658"><ele>660.01</ele><time>2025-09-13T00:42:54.000Z</time></trkpt>
        <trkpt lat="29.574539" lon="103.3921737"><ele>660.58</ele><time>2025-09-13T00:43:02.000Z</time></trkpt>
        <trkpt lat="29.57459" lon="103.3921771"><ele>662.47</ele><time>2025-09-13T00:43:12.000Z</time></trkpt>
        <trkpt lat="29.5746373" lon="103.392184"><ele>663.6</ele><time>2025-09-13T00:43:20.000Z</time></trkpt>
        <trkpt lat="29.5746817" lon="103.3922036"><ele>665.69</ele><time>2025-09-13T00:43:32.000Z</time></trkpt>
        <trkpt lat="29.5747205" lon="103.3921877"><ele>668.27</ele><time>2025-09-13T00:43:38.000Z</time></trkpt>
        <trkpt lat="29.5747624" lon="103.3921602"><ele>669.29</ele><time>2025-09-13T00:43:46.000Z</time></trkpt>
        <trkpt lat="29.5748081" lon="103.392147"><ele>670.03</ele><time>2025-09-13T00:43:58.000Z</time></trkpt>
        <trkpt lat="29.5748581" lon="103.3921372"><ele>670.35</ele><time>2025-09-13T00:44:06.000Z</time></trkpt>
        <trkpt lat="29.5749062" lon="103.3921225"><ele>671.6</ele><time>2025-09-13T00:44:14.000Z</time></trkpt>
        <trkpt lat="29.574953" lon="103.392114"><ele>672.48</ele><time>2025-09-13T00:44:24.000Z</time></trkpt>
        <trkpt lat="29.5750006" lon="103.3921094"><ele>675.04</ele><time>2025-09-13T00:44:32.000Z</time></trkpt>
        <trkpt lat="29.575039" lon="103.3920793"><ele>676.47</ele><time>2025-09-13T00:44:44.000Z</time></trkpt>
        <trkpt lat="29.5750861" lon="103.392063"><ele>677.87</ele><time>2025-09-13T00:44:54.000Z</time></trkpt>
        <trkpt lat="29.5751344" lon="103.3920538"><ele>680.75</ele><time>2025-09-13T00:45:02.000Z</time></trkpt>
        <trkpt lat="29.5751814" lon="103.3920544"><ele>682.88</ele><time>2025-09-13T00:45:12.000Z</time></trkpt>
        <trkpt lat="29.5752269" lon="103.3920359"><ele>684.27</ele><time>2025-09-13T00:45:24.000Z</time></trkpt>
        <trkpt lat="29.5752714" lon="103.3920107"><ele>685.43</ele><time>2025-09-13T00:45:36.000Z</time></trkpt>
        <trkpt lat="29.575318" lon="103.3919833"><ele>687.2</ele><time>2025-09-13T00:45:50.000Z</time></trkpt>
        <trkpt lat="29.5753575" lon="103.3919506"><ele>688.57</ele><time>2025-09-13T00:45:56.000Z</time></trkpt>
        <trkpt lat="29.5753983" lon="103.3919249"><ele>689.43</ele><time>2025-09-13T00:46:10.000Z</time></trkpt>
        <trkpt lat="29.5754451" lon="103.3919038"><ele>692.09</ele><time>2025-09-13T00:46:20.000Z</time></trkpt>
        <trkpt lat="29.5754924" lon="103.3919004"><ele>693.11</ele><time>2025-09-13T00:46:28.000Z</time></trkpt>
        <trkpt lat="29.5755332" lon="103.3919227"><ele>693.63</ele><time>2025-09-13T00:46:42.000Z</time></trkpt>
        <trkpt lat="29.575576" lon="103.3919491"><ele>697.47</ele><time>2025-09-13T00:46:58.000Z</time></trkpt>
        <trkpt lat="29.5756203" lon="103.3919705"><ele>700.25</ele><time>2025-09-13T00:47:10.000Z</time></trkpt>
        <trkpt lat="29.5756647" lon="103.3919832"><ele>703.9</ele><time>2025-09-13T00:47:22.000Z</time></trkpt>
        <trkpt lat="29.5757155" lon="103.3919911"><ele>707.45</ele><time>2025-09-13T00:47:40.000Z</time></trkpt>
        <trkpt lat="29.5757638" lon="103.391992"><ele>709.93</ele><time>2025-09-13T00:47:52.000Z</time></trkpt>
        <trkpt lat="29.5758079" lon="103.3919734"><ele>712.35</ele><time>2025-09-13T00:48:00.000Z</time></trkpt>
        <trkpt lat="29.5758525" lon="103.3919647"><ele>713.59</ele><time>2025-09-13T00:48:06.000Z</time></trkpt>
        <trkpt lat="29.5759004" lon="103.3919536"><ele>713.09</ele><time>2025-09-13T00:48:20.000Z</time></trkpt>
        <trkpt lat="29.5759478" lon="103.391938"><ele>713.74</ele><time>2025-09-13T00:48:32.000Z</time></trkpt>
        <trkpt lat="29.5759982" lon="103.3919382"><ele>715.43</ele><time>2025-09-13T00:48:46.000Z</time></trkpt>
        <trkpt lat="29.5760429" lon="103.3919663"><ele>717.68</ele><time>2025-09-13T00:48:58.000Z</time></trkpt>
        <trkpt lat="29.5760863" lon="103.3919974"><ele>719.69</ele><time>2025-09-13T00:49:08.000Z</time></trkpt>
        <trkpt lat="29.5761308" lon="103.3920133"><ele>720.05</ele><time>2025-09-13T00:49:18.000Z</time></trkpt>
        <trkpt lat="29.5761738" lon="103.3920315"><ele>721.85</ele><time>2025-09-13T00:49:32.000Z</time></trkpt>
        <trkpt lat="29.5762219" lon="103.3920355"><ele>723.74</ele><time>2025-09-13T00:49:42.000Z</time></trkpt>
        <trkpt lat="29.5762735" lon="103.3920453"><ele>726.16</ele><time>2025-09-13T00:49:56.000Z</time></trkpt>
        <trkpt lat="29.5763269" lon="103.3920555"><ele>728.24</ele><time>2025-09-13T00:50:08.000Z</time></trkpt>
        <trkpt lat="29.5763814" lon="103.3920576"><ele>730.37</ele><time>2025-09-13T00:50:18.000Z</time></trkpt>
        <trkpt lat="29.5764319" lon="103.3920589"><ele>731.57</ele><time>2025-09-13T00:50:28.000Z</time></trkpt>
        <trkpt lat="29.5764812" lon="103.3920523"><ele>734.26</ele><time>2025-09-13T00:50:36.000Z</time></trkpt>
        <trkpt lat="29.5765312" lon="103.3920432"><ele>736.04</ele><time>2025-09-13T00:50:44.000Z</time></trkpt>
        <trkpt lat="29.5765782" lon="103.3920224"><ele>736.89</ele><time>2025-09-13T00:50:50.000Z</time></trkpt>
        <trkpt lat="29.5766271" lon="103.3920076"><ele>737.11</ele><time>2025-09-13T00:50:56.000Z</time></trkpt>
        <trkpt lat="29.5766754" lon="103.392"><ele>738.37</ele><time>2025-09-13T00:51:00.000Z</time></trkpt>
        <trkpt lat="29.5767257" lon="103.391973"><ele>738.96</ele><time>2025-09-13T00:51:06.000Z</time></trkpt>
        <trkpt lat="29.5767636" lon="103.3919204"><ele>739.62</ele><time>2025-09-13T00:51:12.000Z</time></trkpt>
        <trkpt lat="29.5767895" lon="103.391866"><ele>739.69</ele><time>2025-09-13T00:51:16.000Z</time></trkpt>
        <trkpt lat="29.5768089" lon="103.3918119"><ele>738.67</ele><time>2025-09-13T00:51:20.000Z</time></trkpt>
        <trkpt lat="29.5768273" lon="103.3917487"><ele>737.91</ele><time>2025-09-13T00:51:26.000Z</time></trkpt>
        <trkpt lat="29.5768553" lon="103.3916866"><ele>736.5</ele><time>2025-09-13T00:51:38.000Z</time></trkpt>
        <trkpt lat="29.5768786" lon="103.3916255"><ele>737.24</ele><time>2025-09-13T00:51:46.000Z</time></trkpt>
        <trkpt lat="29.5768913" lon="103.3915599"><ele>737.15</ele><time>2025-09-13T00:51:54.000Z</time></trkpt>
        <trkpt lat="29.5769157" lon="103.3915062"><ele>736.89</ele><time>2025-09-13T00:52:02.000Z</time></trkpt>
        <trkpt lat="29.5769339" lon="103.3914546"><ele>737.02</ele><time>2025-09-13T00:52:12.000Z</time></trkpt>
        <trkpt lat="29.57696" lon="103.3914121"><ele>738.09</ele><time>2025-09-13T00:52:18.000Z</time></trkpt>
        <trkpt lat="29.5769853" lon="103.391369"><ele>739.59</ele><time>2025-09-13T00:52:24.000Z</time></trkpt>
        <trkpt lat="29.5770095" lon="103.3913222"><ele>739.46</ele><time>2025-09-13T00:52:30.000Z</time></trkpt>
        <trkpt lat="29.5770365" lon="103.3912723"><ele>739.79</ele><time>2025-09-13T00:52:40.000Z</time></trkpt>
        <trkpt lat="29.5770706" lon="103.39122"><ele>739.21</ele><time>2025-09-13T00:52:48.000Z</time></trkpt>
        <trkpt lat="29.5771006" lon="103.3911712"><ele>739.9</ele><time>2025-09-13T00:52:54.000Z</time></trkpt>
        <trkpt lat="29.5771292" lon="103.3911203"><ele>740.36</ele><time>2025-09-13T00:53:02.000Z</time></trkpt>
        <trkpt lat="29.5771502" lon="103.3910716"><ele>741.25</ele><time>2025-09-13T00:53:10.000Z</time></trkpt>
        <trkpt lat="29.5771694" lon="103.3910238"><ele>743.66</ele><time>2025-09-13T00:53:16.000Z</time></trkpt>
        <trkpt lat="29.5772044" lon="103.3909917"><ele>744.44</ele><time>2025-09-13T00:53:22.000Z</time></trkpt>
        <trkpt lat="29.5772523" lon="103.3909676"><ele>745.94</ele><time>2025-09-13T00:53:30.000Z</time></trkpt>
        <trkpt lat="29.5773013" lon="103.3909609"><ele>747.37</ele><time>2025-09-13T00:53:36.000Z</time></trkpt>
        <trkpt lat="29.577352" lon="103.3909704"><ele>749.13</ele><time>2025-09-13T00:53:42.000Z</time></trkpt>
        <trkpt lat="29.5774047" lon="103.3909858"><ele>751.35</ele><time>2025-09-13T00:53:50.000Z</time></trkpt>
        <trkpt lat="29.5774561" lon="103.3909841"><ele>754.17</ele><time>2025-09-13T00:53:58.000Z</time></trkpt>
        <trkpt lat="29.577491" lon="103.3910133"><ele>754.43</ele><time>2025-09-13T00:54:04.000Z</time></trkpt>
        <trkpt lat="29.5775337" lon="103.3910486"><ele>753.99</ele><time>2025-09-13T00:54:12.000Z</time></trkpt>
        <trkpt lat="29.5775793" lon="103.3910862"><ele>753.88</ele><time>2025-09-13T00:54:22.000Z</time></trkpt>
        <trkpt lat="29.5776307" lon="103.3911121"><ele>755.09</ele><time>2025-09-13T00:54:30.000Z</time></trkpt>
        <trkpt lat="29.5776847" lon="103.3911268"><ele>758.1</ele><time>2025-09-13T00:54:40.000Z</time></trkpt>
        <trkpt lat="29.5777372" lon="103.3911348"><ele>760.75</ele><time>2025-09-13T00:54:50.000Z</time></trkpt>
        <trkpt lat="29.5777912" lon="103.391143"><ele>763.01</ele><time>2025-09-13T00:55:02.000Z</time></trkpt>
        <trkpt lat="29.5778397" lon="103.3911611"><ele>766.47</ele><time>2025-09-13T00:55:14.000Z</time></trkpt>
        <trkpt lat="29.5778877" lon="103.3911694"><ele>770.11</ele><time>2025-09-13T00:55:24.000Z</time></trkpt>
        <trkpt lat="29.5779204" lon="103.3911301"><ele>770.66</ele><time>2025-09-13T00:55:30.000Z</time></trkpt>
        <trkpt lat="29.5779457" lon="103.3910666"><ele>769.29</ele><time>2025-09-13T00:55:36.000Z</time></trkpt>
        <trkpt lat="29.5779758" lon="103.3909989"><ele>766.87</ele><time>2025-09-13T00:55:42.000Z</time></trkpt>
        <trkpt lat="29.5780082" lon="103.3909385"><ele>763.95</ele><time>2025-09-13T00:55:48.000Z</time></trkpt>
        <trkpt lat="29.5780408" lon="103.3908805"><ele>763.05</ele><time>2025-09-13T00:55:54.000Z</time></trkpt>
        <trkpt lat="29.578074" lon="103.390826"><ele>762.41</ele><time>2025-09-13T00:56:00.000Z</time></trkpt>
        <trkpt lat="29.5781026" lon="103.3907653"><ele>762.97</ele><time>2025-09-13T00:56:06.000Z</time></trkpt>
        <trkpt lat="29.5781324" lon="103.3907085"><ele>763.15</ele><time>2025-09-13T00:56:12.000Z</time></trkpt>
        <trkpt lat="29.5781586" lon="103.3906532"><ele>762.7</ele><time>2025-09-13T00:56:18.000Z</time></trkpt>
        <trkpt lat="29.5781875" lon="103.3906028"><ele>762.03</ele><time>2025-09-13T00:56:24.000Z</time></trkpt>
        <trkpt lat="29.578217" lon="103.3905444"><ele>760.76</ele><time>2025-09-13T00:56:30.000Z</time></trkpt>
        <trkpt lat="29.5782452" lon="103.3904876"><ele>761.09</ele><time>2025-09-13T00:56:36.000Z</time></trkpt>
        <trkpt lat="29.5782717" lon="103.3904317"><ele>761</ele><time>2025-09-13T00:56:42.000Z</time></trkpt>
        <trkpt lat="29.5783006" lon="103.3903833"><ele>760.47</ele><time>2025-09-13T00:56:48.000Z</time></trkpt>
        <trkpt lat="29.5783321" lon="103.3903391"><ele>761.86</ele><time>2025-09-13T00:56:54.000Z</time></trkpt>
        <trkpt lat="29.5783606" lon="103.3902856"><ele>763.63</ele><time>2025-09-13T00:57:00.000Z</time></trkpt>
        <trkpt lat="29.5783906" lon="103.3902225"><ele>764.98</ele><time>2025-09-13T00:57:06.000Z</time></trkpt>
        <trkpt lat="29.5784117" lon="103.3901586"><ele>765.28</ele><time>2025-09-13T00:57:12.000Z</time></trkpt>
        <trkpt lat="29.5784375" lon="103.3901009"><ele>766.03</ele><time>2025-09-13T00:57:20.000Z</time></trkpt>
        <trkpt lat="29.5784687" lon="103.3900419"><ele>767.22</ele><time>2025-09-13T00:57:28.000Z</time></trkpt>
        <trkpt lat="29.5784911" lon="103.3899796"><ele>768.76</ele><time>2025-09-13T00:57:36.000Z</time></trkpt>
        <trkpt lat="29.578508" lon="103.3899155"><ele>768.51</ele><time>2025-09-13T00:57:44.000Z</time></trkpt>
        <trkpt lat="29.5785206" lon="103.3898564"><ele>768.82</ele><time>2025-09-13T00:57:50.000Z</time></trkpt>
        <trkpt lat="29.578525" lon="103.3897914"><ele>768.7</ele><time>2025-09-13T00:57:58.000Z</time></trkpt>
        <trkpt lat="29.5785386" lon="103.3897327"><ele>770.08</ele><time>2025-09-13T00:58:06.000Z</time></trkpt>
        <trkpt lat="29.5785144" lon="103.3896648"><ele>771.39</ele><time>2025-09-13T00:58:15.000Z</time></trkpt>
        <trkpt lat="29.5784971" lon="103.3896091"><ele>774.74</ele><time>2025-09-13T00:58:18.000Z</time></trkpt>
        <trkpt lat="29.5784853" lon="103.3895476"><ele>778.46</ele><time>2025-09-13T00:58:28.000Z</time></trkpt>
        <trkpt lat="29.5784739" lon="103.3894889"><ele>784.03</ele><time>2025-09-13T00:58:34.000Z</time></trkpt>
        <trkpt lat="29.5784649" lon="103.3894179"><ele>787.45</ele><time>2025-09-13T00:58:40.000Z</time></trkpt>
        <trkpt lat="29.578452" lon="103.389347"><ele>789.75</ele><time>2025-09-13T00:58:46.000Z</time></trkpt>
        <trkpt lat="29.578436" lon="103.389285"><ele>791.05</ele><time>2025-09-13T00:58:54.000Z</time></trkpt>
        <trkpt lat="29.5783977" lon="103.3892556"><ele>792.19</ele><time>2025-09-13T00:59:00.000Z</time></trkpt>
        <trkpt lat="29.5783521" lon="103.3892149"><ele>793.2</ele><time>2025-09-13T00:59:09.000Z</time></trkpt>
        <trkpt lat="29.5783409" lon="103.3891622"><ele>792.91</ele><time>2025-09-13T00:59:17.000Z</time></trkpt>
        <trkpt lat="29.5783547" lon="103.389107"><ele>790.24</ele><time>2025-09-13T00:59:27.000Z</time></trkpt>
        <trkpt lat="29.5783887" lon="103.3890524"><ele>786.1</ele><time>2025-09-13T00:59:35.000Z</time></trkpt>
        <trkpt lat="29.5784122" lon="103.3890009"><ele>783.72</ele><time>2025-09-13T00:59:49.000Z</time></trkpt>
        <trkpt lat="29.5784256" lon="103.3889442"><ele>781.62</ele><time>2025-09-13T00:59:57.000Z</time></trkpt>
        <trkpt lat="29.5784412" lon="103.3888919"><ele>780.44</ele><time>2025-09-13T01:00:05.000Z</time></trkpt>
        <trkpt lat="29.5784695" lon="103.3888438"><ele>779.86</ele><time>2025-09-13T01:00:11.000Z</time></trkpt>
        <trkpt lat="29.5785224" lon="103.3888339"><ele>778.26</ele><time>2025-09-13T01:00:19.000Z</time></trkpt>
        <trkpt lat="29.5785775" lon="103.3888343"><ele>777.62</ele><time>2025-09-13T01:00:25.000Z</time></trkpt>
        <trkpt lat="29.578635" lon="103.3888426"><ele>777.3</ele><time>2025-09-13T01:00:31.000Z</time></trkpt>
        <trkpt lat="29.5786895" lon="103.3888539"><ele>777.45</ele><time>2025-09-13T01:00:37.000Z</time></trkpt>
        <trkpt lat="29.5787377" lon="103.3888634"><ele>777.92</ele><time>2025-09-13T01:00:43.000Z</time></trkpt>
        <trkpt lat="29.578792" lon="103.3888498"><ele>778.44</ele><time>2025-09-13T01:00:49.000Z</time></trkpt>
        <trkpt lat="29.5788361" lon="103.388801"><ele>778.65</ele><time>2025-09-13T01:00:55.000Z</time></trkpt>
        <trkpt lat="29.5788732" lon="103.3887549"><ele>778.08</ele><time>2025-09-13T01:00:59.000Z</time></trkpt>
        <trkpt lat="29.5789193" lon="103.3887123"><ele>778.79</ele><time>2025-09-13T01:01:05.000Z</time></trkpt>
        <trkpt lat="29.5789578" lon="103.3886689"><ele>780.39</ele><time>2025-09-13T01:01:11.000Z</time></trkpt>
        <trkpt lat="29.579003" lon="103.3886414"><ele>781.83</ele><time>2025-09-13T01:01:19.000Z</time></trkpt>
        <trkpt lat="29.5790451" lon="103.3886146"><ele>781.67</ele><time>2025-09-13T01:01:27.000Z</time></trkpt>
        <trkpt lat="29.5790604" lon="103.3885604"><ele>782.54</ele><time>2025-09-13T01:01:35.000Z</time></trkpt>
        <trkpt lat="29.5790705" lon="103.3884971"><ele>782.58</ele><time>2025-09-13T01:01:43.000Z</time></trkpt>
        <trkpt lat="29.5790524" lon="103.3884371"><ele>782.55</ele><time>2025-09-13T01:01:49.000Z</time></trkpt>
        <trkpt lat="29.5790432" lon="103.3883805"><ele>782.48</ele><time>2025-09-13T01:01:55.000Z</time></trkpt>
        <trkpt lat="29.5790378" lon="103.3883267"><ele>782.24</ele><time>2025-09-13T01:02:03.000Z</time></trkpt>
        <trkpt lat="29.5790431" lon="103.3882749"><ele>782.79</ele><time>2025-09-13T01:02:15.000Z</time></trkpt>
        <trkpt lat="29.5790522" lon="103.3882229"><ele>786.44</ele><time>2025-09-13T01:02:29.000Z</time></trkpt>
        <trkpt lat="29.5790682" lon="103.3881709"><ele>789.59</ele><time>2025-09-13T01:02:39.000Z</time></trkpt>
        <trkpt lat="29.5790715" lon="103.3881171"><ele>791.48</ele><time>2025-09-13T01:02:45.000Z</time></trkpt>
        <trkpt lat="29.5790504" lon="103.3880643"><ele>793.82</ele><time>2025-09-13T01:02:51.000Z</time></trkpt>
        <trkpt lat="29.5790223" lon="103.3880146"><ele>795.48</ele><time>2025-09-13T01:02:57.000Z</time></trkpt>
        <trkpt lat="29.5790167" lon="103.3879586"><ele>797.51</ele><time>2025-09-13T01:03:05.000Z</time></trkpt>
        <trkpt lat="29.5790179" lon="103.3878947"><ele>797.09</ele><time>2025-09-13T01:03:13.000Z</time></trkpt>
        <trkpt lat="29.5790213" lon="103.3878248"><ele>796.06</ele><time>2025-09-13T01:03:21.000Z</time></trkpt>
        <trkpt lat="29.5790187" lon="103.3877587"><ele>797.05</ele><time>2025-09-13T01:03:27.000Z</time></trkpt>
        <trkpt lat="29.5790176" lon="103.3876973"><ele>797.18</ele><time>2025-09-13T01:03:33.000Z</time></trkpt>
        <trkpt lat="29.5790257" lon="103.3876351"><ele>796.95</ele><time>2025-09-13T01:03:39.000Z</time></trkpt>
        <trkpt lat="29.5790255" lon="103.3875711"><ele>795.87</ele><time>2025-09-13T01:03:45.000Z</time></trkpt>
        <trkpt lat="29.5790222" lon="103.3875082"><ele>795.3</ele><time>2025-09-13T01:03:51.000Z</time></trkpt>
        <trkpt lat="29.5790019" lon="103.3874462"><ele>795.37</ele><time>2025-09-13T01:03:57.000Z</time></trkpt>
        <trkpt lat="29.5789958" lon="103.3873831"><ele>795.17</ele><time>2025-09-13T01:04:03.000Z</time></trkpt>
        <trkpt lat="29.5790012" lon="103.3873267"><ele>794.69</ele><time>2025-09-13T01:04:09.000Z</time></trkpt>
        <trkpt lat="29.5790161" lon="103.3872676"><ele>794.1</ele><time>2025-09-13T01:04:15.000Z</time></trkpt>
        <trkpt lat="29.5790287" lon="103.387214"><ele>793.53</ele><time>2025-09-13T01:04:19.000Z</time></trkpt>
        <trkpt lat="29.5790505" lon="103.3871533"><ele>793.14</ele><time>2025-09-13T01:04:25.000Z</time></trkpt>
        <trkpt lat="29.5790806" lon="103.3871007"><ele>792.02</ele><time>2025-09-13T01:04:31.000Z</time></trkpt>
        <trkpt lat="29.5791097" lon="103.3870506"><ele>792.47</ele><time>2025-09-13T01:04:39.000Z</time></trkpt>
        <trkpt lat="29.579147" lon="103.3870088"><ele>793.11</ele><time>2025-09-13T01:04:51.000Z</time></trkpt>
        <trkpt lat="29.5791752" lon="103.3869563"><ele>795.72</ele><time>2025-09-13T01:05:03.000Z</time></trkpt>
        <trkpt lat="29.5792094" lon="103.3869147"><ele>798.02</ele><time>2025-09-13T01:05:15.000Z</time></trkpt>
        <trkpt lat="29.5792402" lon="103.386873"><ele>801.96</ele><time>2025-09-13T01:05:27.000Z</time></trkpt>
        <trkpt lat="29.5792761" lon="103.386835"><ele>804.13</ele><time>2025-09-13T01:05:43.000Z</time></trkpt>
        <trkpt lat="29.5793167" lon="103.3868046"><ele>807.68</ele><time>2025-09-13T01:05:57.000Z</time></trkpt>
        <trkpt lat="29.5793599" lon="103.3867705"><ele>811.58</ele><time>2025-09-13T01:06:13.000Z</time></trkpt>
        <trkpt lat="29.5794053" lon="103.3867365"><ele>815.21</ele><time>2025-09-13T01:06:23.000Z</time></trkpt>
        <trkpt lat="29.5794375" lon="103.3866861"><ele>816.69</ele><time>2025-09-13T01:06:33.000Z</time></trkpt>
        <trkpt lat="29.5794552" lon="103.3866304"><ele>816.71</ele><time>2025-09-13T01:06:41.000Z</time></trkpt>
        <trkpt lat="29.5794636" lon="103.386573"><ele>816.88</ele><time>2025-09-13T01:06:51.000Z</time></trkpt>
        <trkpt lat="29.5794655" lon="103.3865133"><ele>816.27</ele><time>2025-09-13T01:07:01.000Z</time></trkpt>
        <trkpt lat="29.5794683" lon="103.3864529"><ele>817.09</ele><time>2025-09-13T01:07:13.000Z</time></trkpt>
        <trkpt lat="29.5794918" lon="103.3864077"><ele>819.05</ele><time>2025-09-13T01:07:27.000Z</time></trkpt>
        <trkpt lat="29.5795091" lon="103.386353"><ele>818.57</ele><time>2025-09-13T01:07:39.000Z</time></trkpt>
        <trkpt lat="29.5795069" lon="103.3862939"><ele>819.32</ele><time>2025-09-13T01:07:53.000Z</time></trkpt>
        <trkpt lat="29.5795013" lon="103.3862336"><ele>821.13</ele><time>2025-09-13T01:08:05.000Z</time></trkpt>
        <trkpt lat="29.5794976" lon="103.3861786"><ele>823.73</ele><time>2025-09-13T01:08:13.000Z</time></trkpt>
        <trkpt lat="29.5794948" lon="103.3861243"><ele>826.43</ele><time>2025-09-13T01:08:23.000Z</time></trkpt>
        <trkpt lat="29.5794947" lon="103.3860692"><ele>828.74</ele><time>2025-09-13T01:08:37.000Z</time></trkpt>
        <trkpt lat="29.579506" lon="103.3860137"><ele>830.43</ele><time>2025-09-13T01:08:51.000Z</time></trkpt>
        <trkpt lat="29.5795036" lon="103.3859593"><ele>833.31</ele><time>2025-09-13T01:09:03.000Z</time></trkpt>
        <trkpt lat="29.5795088" lon="103.3859058"><ele>837.19</ele><time>2025-09-13T01:09:11.000Z</time></trkpt>
        <trkpt lat="29.5795441" lon="103.3858745"><ele>838.58</ele><time>2025-09-13T01:09:21.000Z</time></trkpt>
        <trkpt lat="29.579579" lon="103.3858362"><ele>837.06</ele><time>2025-09-13T01:09:37.000Z</time></trkpt>
        <trkpt lat="29.579593" lon="103.385784"><ele>838.91</ele><time>2025-09-13T01:09:53.000Z</time></trkpt>
        <trkpt lat="29.579593" lon="103.385784"><ele>838.91</ele><time>2025-09-13T01:10:13.000Z</time></trkpt>
        <trkpt lat="29.5795953" lon="103.38573"><ele>841.39</ele><time>2025-09-13T01:10:15.000Z</time></trkpt>
        <trkpt lat="29.5795953" lon="103.38573"><ele>841.39</ele><time>2025-09-13T01:10:19.000Z</time></trkpt>
        <trkpt lat="29.579633" lon="103.3857022"><ele>845.97</ele><time>2025-09-13T01:10:33.000Z</time></trkpt>
        <trkpt lat="29.5796749" lon="103.3856775"><ele>848.87</ele><time>2025-09-13T01:10:41.000Z</time></trkpt>
        <trkpt lat="29.579676" lon="103.3856364"><ele>849.39</ele><time>2025-09-13T01:10:51.000Z</time></trkpt>
        <trkpt lat="29.5797172" lon="103.3855899"><ele>851.51</ele><time>2025-09-13T01:11:37.000Z</time></trkpt>
        <trkpt lat="29.5797551" lon="103.3855483"><ele>855.3</ele><time>2025-09-13T01:11:43.000Z</time></trkpt>
        <trkpt lat="29.5797982" lon="103.3855081"><ele>858.8</ele><time>2025-09-13T01:12:01.000Z</time></trkpt>
        <trkpt lat="29.5798367" lon="103.3854562"><ele>860.95</ele><time>2025-09-13T01:12:05.000Z</time></trkpt>
        <trkpt lat="29.5798845" lon="103.3854127"><ele>862.22</ele><time>2025-09-13T01:12:11.000Z</time></trkpt>
        <trkpt lat="29.579929" lon="103.3853791"><ele>864.16</ele><time>2025-09-13T01:12:15.000Z</time></trkpt>
        <trkpt lat="29.5799725" lon="103.3853522"><ele>865.52</ele><time>2025-09-13T01:12:23.000Z</time></trkpt>
        <trkpt lat="29.5800115" lon="103.3853229"><ele>866.26</ele><time>2025-09-13T01:12:31.000Z</time></trkpt>
        <trkpt lat="29.5800448" lon="103.3852889"><ele>867.8</ele><time>2025-09-13T01:12:39.000Z</time></trkpt>
        <trkpt lat="29.5800892" lon="103.3852856"><ele>871.57</ele><time>2025-09-13T01:12:49.000Z</time></trkpt>
        <trkpt lat="29.5801222" lon="103.3852561"><ele>873.52</ele><time>2025-09-13T01:12:57.000Z</time></trkpt>
        <trkpt lat="29.5801526" lon="103.3852171"><ele>874.42</ele><time>2025-09-13T01:13:05.000Z</time></trkpt>
        <trkpt lat="29.5801718" lon="103.385159"><ele>874.8</ele><time>2025-09-13T01:13:11.000Z</time></trkpt>
        <trkpt lat="29.5802008" lon="103.3850972"><ele>874.49</ele><time>2025-09-13T01:13:17.000Z</time></trkpt>
        <trkpt lat="29.5802411" lon="103.3850458"><ele>874.57</ele><time>2025-09-13T01:13:23.000Z</time></trkpt>
        <trkpt lat="29.5802808" lon="103.3849923"><ele>875.08</ele><time>2025-09-13T01:13:29.000Z</time></trkpt>
        <trkpt lat="29.5803123" lon="103.3849376"><ele>874.44</ele><time>2025-09-13T01:13:39.000Z</time></trkpt>
        <trkpt lat="29.5803485" lon="103.3848954"><ele>873.51</ele><time>2025-09-13T01:13:47.000Z</time></trkpt>
        <trkpt lat="29.5803842" lon="103.3848545"><ele>874.21</ele><time>2025-09-13T01:13:53.000Z</time></trkpt>
        <trkpt lat="29.5804213" lon="103.3848215"><ele>873.65</ele><time>2025-09-13T01:13:59.000Z</time></trkpt>
        <trkpt lat="29.580452" lon="103.3847689"><ele>873.4</ele><time>2025-09-13T01:14:07.000Z</time></trkpt>
        <trkpt lat="29.5804804" lon="103.384715"><ele>874.75</ele><time>2025-09-13T01:14:15.000Z</time></trkpt>
        <trkpt lat="29.5804989" lon="103.3846618"><ele>876.55</ele><time>2025-09-13T01:14:23.000Z</time></trkpt>
        <trkpt lat="29.5805277" lon="103.3846124"><ele>878.57</ele><time>2025-09-13T01:14:33.000Z</time></trkpt>
        <trkpt lat="29.5805624" lon="103.3845665"><ele>881.22</ele><time>2025-09-13T01:14:43.000Z</time></trkpt>
        <trkpt lat="29.5805953" lon="103.38452"><ele>882.52</ele><time>2025-09-13T01:14:53.000Z</time></trkpt>
        <trkpt lat="29.5806348" lon="103.3844878"><ele>883.36</ele><time>2025-09-13T01:15:03.000Z</time></trkpt>
        <trkpt lat="29.5806794" lon="103.3844551"><ele>884.07</ele><time>2025-09-13T01:15:15.000Z</time></trkpt>
        <trkpt lat="29.5807167" lon="103.3844196"><ele>884.88</ele><time>2025-09-13T01:15:27.000Z</time></trkpt>
        <trkpt lat="29.5807509" lon="103.3843833"><ele>887.9</ele><time>2025-09-13T01:15:37.000Z</time></trkpt>
        <trkpt lat="29.5807889" lon="103.3843541"><ele>888.45</ele><time>2025-09-13T01:15:49.000Z</time></trkpt>
        <trkpt lat="29.580821" lon="103.3843183"><ele>890.03</ele><time>2025-09-13T01:15:59.000Z</time></trkpt>
        <trkpt lat="29.5808503" lon="103.3842709"><ele>891.87</ele><time>2025-09-13T01:16:09.000Z</time></trkpt>
        <trkpt lat="29.580895" lon="103.3842351"><ele>892.87</ele><time>2025-09-13T01:16:17.000Z</time></trkpt>
        <trkpt lat="29.5809404" lon="103.384214"><ele>893.61</ele><time>2025-09-13T01:16:25.000Z</time></trkpt>
        <trkpt lat="29.5809907" lon="103.3842064"><ele>893.2</ele><time>2025-09-13T01:16:35.000Z</time></trkpt>
        <trkpt lat="29.5810382" lon="103.3842041"><ele>893.11</ele><time>2025-09-13T01:16:51.000Z</time></trkpt>
        <trkpt lat="29.58108" lon="103.3842346"><ele>894.73</ele><time>2025-09-13T01:17:11.000Z</time></trkpt>
        <trkpt lat="29.581118" lon="103.3842696"><ele>899.31</ele><time>2025-09-13T01:17:29.000Z</time></trkpt>
        <trkpt lat="29.5811572" lon="103.3843069"><ele>904.74</ele><time>2025-09-13T01:17:53.000Z</time></trkpt>
        <trkpt lat="29.5812059" lon="103.3843245"><ele>914.53</ele><time>2025-09-13T01:18:07.000Z</time></trkpt>
        <trkpt lat="29.5812447" lon="103.3843588"><ele>919.48</ele><time>2025-09-13T01:18:19.000Z</time></trkpt>
        <trkpt lat="29.581279" lon="103.3844034"><ele>923.6</ele><time>2025-09-13T01:18:33.000Z</time></trkpt>
        <trkpt lat="29.5813286" lon="103.384422"><ele>924.65</ele><time>2025-09-13T01:18:41.000Z</time></trkpt>
        <trkpt lat="29.5813767" lon="103.3844172"><ele>926.38</ele><time>2025-09-13T01:18:53.000Z</time></trkpt>
        <trkpt lat="29.581419" lon="103.3844309"><ele>927.21</ele><time>2025-09-13T01:19:07.000Z</time></trkpt>
        <trkpt lat="29.5814664" lon="103.3844419"><ele>928.35</ele><time>2025-09-13T01:19:15.000Z</time></trkpt>
        <trkpt lat="29.5815126" lon="103.3844479"><ele>929.19</ele><time>2025-09-13T01:19:27.000Z</time></trkpt>
        <trkpt lat="29.5815612" lon="103.3844428"><ele>931.21</ele><time>2025-09-13T01:19:35.000Z</time></trkpt>
        <trkpt lat="29.5816024" lon="103.3844076"><ele>931.58</ele><time>2025-09-13T01:19:39.000Z</time></trkpt>
        <trkpt lat="29.581625" lon="103.3843486"><ele>931.37</ele><time>2025-09-13T01:19:43.000Z</time></trkpt>
        <trkpt lat="29.581625" lon="103.3843486"><ele>931.37</ele><time>2025-09-13T01:19:57.000Z</time></trkpt>
        <trkpt lat="29.5816166" lon="103.3843857"><ele>930.79</ele><time>2025-09-13T01:20:03.000Z</time></trkpt>
        <trkpt lat="29.5816166" lon="103.3843857"><ele>930.79</ele><time>2025-09-13T01:20:53.000Z</time></trkpt>
        <trkpt lat="29.5816166" lon="103.3843857"><ele>930.79</ele><time>2025-09-13T01:22:15.000Z</time></trkpt>
        <trkpt lat="29.581577" lon="103.3844118"><ele>932.3</ele><time>2025-09-13T01:22:19.000Z</time></trkpt>
        <trkpt lat="29.581577" lon="103.3844118"><ele>932.3</ele><time>2025-09-13T01:22:39.000Z</time></trkpt>
        <trkpt lat="29.5816186" lon="103.3843896"><ele>934.71</ele><time>2025-09-13T01:25:11.000Z</time></trkpt>
        <trkpt lat="29.5816323" lon="103.3843795"><ele>935.32</ele><time>2025-09-13T01:25:13.000Z</time></trkpt>
        <trkpt lat="29.5816321" lon="103.3843325"><ele>935.65</ele><time>2025-09-13T01:25:22.000Z</time></trkpt>
        <trkpt lat="29.5816321" lon="103.3843325"><ele>935.65</ele><time>2025-09-13T01:25:25.000Z</time></trkpt>
        <trkpt lat="29.5816563" lon="103.3842838"><ele>934.97</ele><time>2025-09-13T01:25:29.000Z</time></trkpt>
        <trkpt lat="29.5816563" lon="103.3842838"><ele>934.97</ele><time>2025-09-13T01:25:59.000Z</time></trkpt>
        <trkpt lat="29.581684" lon="103.3842357"><ele>932.49</ele><time>2025-09-13T01:26:05.000Z</time></trkpt>
        <trkpt lat="29.5817168" lon="103.3841775"><ele>929.33</ele><time>2025-09-13T01:26:13.000Z</time></trkpt>
        <trkpt lat="29.5817579" lon="103.3841358"><ele>926.69</ele><time>2025-09-13T01:26:19.000Z</time></trkpt>
        <trkpt lat="29.5818019" lon="103.3841008"><ele>925.26</ele><time>2025-09-13T01:26:25.000Z</time></trkpt>
        <trkpt lat="29.5818186" lon="103.3841414"><ele>924.28</ele><time>2025-09-13T01:26:35.000Z</time></trkpt>
        <trkpt lat="29.5818269" lon="103.3842001"><ele>924.39</ele><time>2025-09-13T01:26:41.000Z</time></trkpt>
        <trkpt lat="29.5818449" lon="103.3842625"><ele>924.09</ele><time>2025-09-13T01:26:47.000Z</time></trkpt>
        <trkpt lat="29.5818928" lon="103.3842798"><ele>923.42</ele><time>2025-09-13T01:26:57.000Z</time></trkpt>
        <trkpt lat="29.5818928" lon="103.3842798"><ele>923.42</ele><time>2025-09-13T01:27:13.000Z</time></trkpt>
        <trkpt lat="29.581871" lon="103.3842457"><ele>922.06</ele><time>2025-09-13T01:27:17.000Z</time></trkpt>
        <trkpt lat="29.581871" lon="103.3842457"><ele>922.06</ele><time>2025-09-13T01:27:21.000Z</time></trkpt>
        <trkpt lat="29.581871" lon="103.3842457"><ele>922.06</ele><time>2025-09-13T01:27:35.000Z</time></trkpt>
        <trkpt lat="29.5818222" lon="103.3842328"><ele>920.5</ele><time>2025-09-13T01:27:39.000Z</time></trkpt>
        <trkpt lat="29.5818222" lon="103.3842328"><ele>920.5</ele><time>2025-09-13T01:28:01.000Z</time></trkpt>
        <trkpt lat="29.5817894" lon="103.3841788"><ele>918.56</ele><time>2025-09-13T01:28:13.000Z</time></trkpt>
        <trkpt lat="29.5817656" lon="103.3841242"><ele>918.97</ele><time>2025-09-13T01:28:21.000Z</time></trkpt>
        <trkpt lat="29.5817217" lon="103.3841042"><ele>918.57</ele><time>2025-09-13T01:28:33.000Z</time></trkpt>
        <trkpt lat="29.5816821" lon="103.3841287"><ele>920.38</ele><time>2025-09-13T01:28:39.000Z</time></trkpt>
        <trkpt lat="29.5816399" lon="103.3841637"><ele>921.21</ele><time>2025-09-13T01:28:45.000Z</time></trkpt>
        <trkpt lat="29.5815987" lon="103.3842122"><ele>922.51</ele><time>2025-09-13T01:28:51.000Z</time></trkpt>
        <trkpt lat="29.5815616" lon="103.384263"><ele>924.86</ele><time>2025-09-13T01:28:59.000Z</time></trkpt>
        <trkpt lat="29.5815616" lon="103.384263"><ele>924.86</ele><time>2025-09-13T01:29:17.000Z</time></trkpt>
        <trkpt lat="29.5815616" lon="103.384263"><ele>924.86</ele><time>2025-09-13T01:29:19.000Z</time></trkpt>
        <trkpt lat="29.5815616" lon="103.384263"><ele>924.86</ele><time>2025-09-13T01:29:35.000Z</time></trkpt>
        <trkpt lat="29.5816062" lon="103.3842997"><ele>924.88</ele><time>2025-09-13T01:29:39.000Z</time></trkpt>
        <trkpt lat="29.5816062" lon="103.3842997"><ele>924.88</ele><time>2025-09-13T01:30:41.000Z</time></trkpt>
        <trkpt lat="29.5816062" lon="103.3842997"><ele>924.88</ele><time>2025-09-13T01:31:19.000Z</time></trkpt>
        <trkpt lat="29.5816219" lon="103.3842371"><ele>924.24</ele><time>2025-09-13T01:31:21.000Z</time></trkpt>
        <trkpt lat="29.5816219" lon="103.3842371"><ele>924.24</ele><time>2025-09-13T01:31:33.000Z</time></trkpt>
        <trkpt lat="29.5816554" lon="103.3841913"><ele>922.72</ele><time>2025-09-13T01:31:43.000Z</time></trkpt>
        <trkpt lat="29.5816459" lon="103.3841371"><ele>922.54</ele><time>2025-09-13T01:31:55.000Z</time></trkpt>
        <trkpt lat="29.5816071" lon="103.3841094"><ele>926.2</ele><time>2025-09-13T01:32:11.000Z</time></trkpt>
        <trkpt lat="29.5815643" lon="103.3840739"><ele>931.03</ele><time>2025-09-13T01:32:21.000Z</time></trkpt>
        <trkpt lat="29.5815498" lon="103.3840222"><ele>932.82</ele><time>2025-09-13T01:32:35.000Z</time></trkpt>
        <trkpt lat="29.5815372" lon="103.3839635"><ele>933.64</ele><time>2025-09-13T01:32:45.000Z</time></trkpt>
        <trkpt lat="29.5815193" lon="103.3839104"><ele>935.52</ele><time>2025-09-13T01:32:57.000Z</time></trkpt>
        <trkpt lat="29.5814934" lon="103.3838667"><ele>936.31</ele><time>2025-09-13T01:33:11.000Z</time></trkpt>
        <trkpt lat="29.5814876" lon="103.3838171"><ele>937.33</ele><time>2025-09-13T01:33:19.000Z</time></trkpt>
        <trkpt lat="29.5814782" lon="103.3837575"><ele>938.6</ele><time>2025-09-13T01:33:27.000Z</time></trkpt>
        <trkpt lat="29.5814642" lon="103.3836968"><ele>940.51</ele><time>2025-09-13T01:33:35.000Z</time></trkpt>
        <trkpt lat="29.5814182" lon="103.3836376"><ele>942.04</ele><time>2025-09-13T01:33:47.000Z</time></trkpt>
        <trkpt lat="29.5814061" lon="103.383577"><ele>945.58</ele><time>2025-09-13T01:34:12.000Z</time></trkpt>
        <trkpt lat="29.5813893" lon="103.3835806"><ele>948.76</ele><time>2025-09-13T01:34:19.000Z</time></trkpt>
        <trkpt lat="29.5813893" lon="103.3835806"><ele>948.76</ele><time>2025-09-13T01:34:31.000Z</time></trkpt>
        <trkpt lat="29.5813992" lon="103.3835497"><ele>952.15</ele><time>2025-09-13T01:34:37.000Z</time></trkpt>
        <trkpt lat="29.5813992" lon="103.3835497"><ele>952.15</ele><time>2025-09-13T01:34:55.000Z</time></trkpt>
        <trkpt lat="29.5813838" lon="103.3835097"><ele>953.69</ele><time>2025-09-13T01:35:09.000Z</time></trkpt>
        <trkpt lat="29.5813554" lon="103.3834608"><ele>955.25</ele><time>2025-09-13T01:35:21.000Z</time></trkpt>
        <trkpt lat="29.5813497" lon="103.3834064"><ele>955.14</ele><time>2025-09-13T01:35:25.000Z</time></trkpt>
        <trkpt lat="29.5813569" lon="103.3834566"><ele>955.22</ele><time>2025-09-13T01:36:32.000Z</time></trkpt>
        <trkpt lat="29.5813719" lon="103.3835353"><ele>955.94</ele><time>2025-09-13T01:36:38.000Z</time></trkpt>
        <trkpt lat="29.5813788" lon="103.3835922"><ele>956.31</ele><time>2025-09-13T01:36:42.000Z</time></trkpt>
        <trkpt lat="29.5813849" lon="103.3836592"><ele>955.98</ele><time>2025-09-13T01:36:52.000Z</time></trkpt>
        <trkpt lat="29.581398" lon="103.3837136"><ele>954.29</ele><time>2025-09-13T01:37:00.000Z</time></trkpt>
        <trkpt lat="29.5813956" lon="103.3837729"><ele>954.04</ele><time>2025-09-13T01:37:08.000Z</time></trkpt>
        <trkpt lat="29.5813964" lon="103.3838268"><ele>953.24</ele><time>2025-09-13T01:37:12.000Z</time></trkpt>
        <trkpt lat="29.5814145" lon="103.3838817"><ele>952.19</ele><time>2025-09-13T01:37:18.000Z</time></trkpt>
        <trkpt lat="29.5814657" lon="103.3838817"><ele>951.86</ele><time>2025-09-13T01:37:24.000Z</time></trkpt>
        <trkpt lat="29.5815078" lon="103.3838473"><ele>951.44</ele><time>2025-09-13T01:37:28.000Z</time></trkpt>
        <trkpt lat="29.581552" lon="103.3837951"><ele>950.34</ele><time>2025-09-13T01:37:34.000Z</time></trkpt>
        <trkpt lat="29.5815848" lon="103.3837399"><ele>949.7</ele><time>2025-09-13T01:37:40.000Z</time></trkpt>
        <trkpt lat="29.581613" lon="103.3836849"><ele>948.96</ele><time>2025-09-13T01:37:46.000Z</time></trkpt>
        <trkpt lat="29.5816405" lon="103.38362"><ele>947.46</ele><time>2025-09-13T01:37:52.000Z</time></trkpt>
        <trkpt lat="29.5816774" lon="103.3835521"><ele>945.12</ele><time>2025-09-13T01:37:58.000Z</time></trkpt>
        <trkpt lat="29.5817133" lon="103.38349"><ele>942.6</ele><time>2025-09-13T01:38:02.000Z</time></trkpt>
        <trkpt lat="29.5817479" lon="103.3834416"><ele>941.45</ele><time>2025-09-13T01:38:06.000Z</time></trkpt>
        <trkpt lat="29.5817833" lon="103.3833989"><ele>940.69</ele><time>2025-09-13T01:38:10.000Z</time></trkpt>
        <trkpt lat="29.5818219" lon="103.3833512"><ele>939.93</ele><time>2025-09-13T01:38:16.000Z</time></trkpt>
        <trkpt lat="29.5818643" lon="103.3833073"><ele>940.04</ele><time>2025-09-13T01:38:22.000Z</time></trkpt>
        <trkpt lat="29.5819101" lon="103.3832522"><ele>938.91</ele><time>2025-09-13T01:38:28.000Z</time></trkpt>
        <trkpt lat="29.5819445" lon="103.3832078"><ele>938.58</ele><time>2025-09-13T01:38:32.000Z</time></trkpt>
        <trkpt lat="29.5819737" lon="103.3831629"><ele>938.41</ele><time>2025-09-13T01:38:36.000Z</time></trkpt>
        <trkpt lat="29.5819721" lon="103.383112"><ele>939.07</ele><time>2025-09-13T01:38:42.000Z</time></trkpt>
        <trkpt lat="29.5819515" lon="103.383054"><ele>940.24</ele><time>2025-09-13T01:38:52.000Z</time></trkpt>
        <trkpt lat="29.5819237" lon="103.3830057"><ele>940.93</ele><time>2025-09-13T01:38:58.000Z</time></trkpt>
        <trkpt lat="29.5819176" lon="103.3829507"><ele>941.19</ele><time>2025-09-13T01:39:12.000Z</time></trkpt>
        <trkpt lat="29.5819093" lon="103.3828948"><ele>942.62</ele><time>2025-09-13T01:39:22.000Z</time></trkpt>
        <trkpt lat="29.5819049" lon="103.3828392"><ele>943.03</ele><time>2025-09-13T01:39:32.000Z</time></trkpt>
        <trkpt lat="29.5818839" lon="103.3827863"><ele>943.79</ele><time>2025-09-13T01:39:50.000Z</time></trkpt>
        <trkpt lat="29.5818958" lon="103.3827289"><ele>946.09</ele><time>2025-09-13T01:40:03.000Z</time></trkpt>
        <trkpt lat="29.5819053" lon="103.3826717"><ele>948.59</ele><time>2025-09-13T01:40:09.000Z</time></trkpt>
        <trkpt lat="29.5819008" lon="103.3826047"><ele>951.65</ele><time>2025-09-13T01:40:15.000Z</time></trkpt>
        <trkpt lat="29.5819202" lon="103.382543"><ele>953.54</ele><time>2025-09-13T01:40:19.000Z</time></trkpt>
        <trkpt lat="29.5819756" lon="103.38248"><ele>953.99</ele><time>2025-09-13T01:40:23.000Z</time></trkpt>
        <trkpt lat="29.5820219" lon="103.3824204"><ele>953.14</ele><time>2025-09-13T01:40:29.000Z</time></trkpt>
        <trkpt lat="29.5820617" lon="103.3823816"><ele>951.81</ele><time>2025-09-13T01:40:33.000Z</time></trkpt>
        <trkpt lat="29.5820987" lon="103.382348"><ele>950.12</ele><time>2025-09-13T01:40:37.000Z</time></trkpt>
        <trkpt lat="29.5821068" lon="103.3822873"><ele>948.22</ele><time>2025-09-13T01:40:43.000Z</time></trkpt>
        <trkpt lat="29.5821236" lon="103.3822278"><ele>948.2</ele><time>2025-09-13T01:40:49.000Z</time></trkpt>
        <trkpt lat="29.5821425" lon="103.3821761"><ele>949.06</ele><time>2025-09-13T01:40:55.000Z</time></trkpt>
        <trkpt lat="29.5821625" lon="103.3821163"><ele>950.22</ele><time>2025-09-13T01:41:01.000Z</time></trkpt>
        <trkpt lat="29.5821813" lon="103.382056"><ele>950.47</ele><time>2025-09-13T01:41:07.000Z</time></trkpt>
        <trkpt lat="29.5821958" lon="103.3819894"><ele>950.92</ele><time>2025-09-13T01:41:13.000Z</time></trkpt>
        <trkpt lat="29.582229" lon="103.38194"><ele>951.53</ele><time>2025-09-13T01:41:19.000Z</time></trkpt>
        <trkpt lat="29.582279" lon="103.3819053"><ele>952.06</ele><time>2025-09-13T01:41:25.000Z</time></trkpt>
        <trkpt lat="29.5823285" lon="103.381867"><ele>953.19</ele><time>2025-09-13T01:41:31.000Z</time></trkpt>
        <trkpt lat="29.5823652" lon="103.3818236"><ele>953.19</ele><time>2025-09-13T01:41:35.000Z</time></trkpt>
        <trkpt lat="29.5824068" lon="103.3817706"><ele>953.82</ele><time>2025-09-13T01:41:41.000Z</time></trkpt>
        <trkpt lat="29.5824385" lon="103.3817082"><ele>954.07</ele><time>2025-09-13T01:41:47.000Z</time></trkpt>
        <trkpt lat="29.5824579" lon="103.3816489"><ele>954.01</ele><time>2025-09-13T01:41:53.000Z</time></trkpt>
        <trkpt lat="29.5824874" lon="103.381602"><ele>953.6</ele><time>2025-09-13T01:41:59.000Z</time></trkpt>
        <trkpt lat="29.5825207" lon="103.3815512"><ele>953.74</ele><time>2025-09-13T01:42:05.000Z</time></trkpt>
        <trkpt lat="29.5825495" lon="103.3814921"><ele>953.79</ele><time>2025-09-13T01:42:11.000Z</time></trkpt>
        <trkpt lat="29.5825805" lon="103.3814277"><ele>953.83</ele><time>2025-09-13T01:42:17.000Z</time></trkpt>
        <trkpt lat="29.5826314" lon="103.381372"><ele>953.53</ele><time>2025-09-13T01:42:23.000Z</time></trkpt>
        <trkpt lat="29.5826666" lon="103.3813146"><ele>953.4</ele><time>2025-09-13T01:42:29.000Z</time></trkpt>
        <trkpt lat="29.5826997" lon="103.3812565"><ele>953.48</ele><time>2025-09-13T01:42:35.000Z</time></trkpt>
        <trkpt lat="29.5827295" lon="103.3811924"><ele>953.36</ele><time>2025-09-13T01:42:41.000Z</time></trkpt>
        <trkpt lat="29.5827573" lon="103.3811297"><ele>953.38</ele><time>2025-09-13T01:42:47.000Z</time></trkpt>
        <trkpt lat="29.5827629" lon="103.3810601"><ele>953.91</ele><time>2025-09-13T01:42:53.000Z</time></trkpt>
        <trkpt lat="29.5827626" lon="103.3809902"><ele>954.76</ele><time>2025-09-13T01:42:59.000Z</time></trkpt>
        <trkpt lat="29.5827554" lon="103.3809154"><ele>955.04</ele><time>2025-09-13T01:43:05.000Z</time></trkpt>
        <trkpt lat="29.582756" lon="103.380854"><ele>955.11</ele><time>2025-09-13T01:43:09.000Z</time></trkpt>
        <trkpt lat="29.5827629" lon="103.3807959"><ele>955.07</ele><time>2025-09-13T01:43:13.000Z</time></trkpt>
        <trkpt lat="29.5827774" lon="103.3807422"><ele>954.95</ele><time>2025-09-13T01:43:17.000Z</time></trkpt>
        <trkpt lat="29.5827921" lon="103.3806736"><ele>954.67</ele><time>2025-09-13T01:43:23.000Z</time></trkpt>
        <trkpt lat="29.5828136" lon="103.3806075"><ele>954.98</ele><time>2025-09-13T01:43:29.000Z</time></trkpt>
        <trkpt lat="29.5828419" lon="103.3805392"><ele>954.61</ele><time>2025-09-13T01:43:35.000Z</time></trkpt>
        <trkpt lat="29.5828698" lon="103.3804737"><ele>954.71</ele><time>2025-09-13T01:43:41.000Z</time></trkpt>
        <trkpt lat="29.5828965" lon="103.3804246"><ele>954.64</ele><time>2025-09-13T01:43:45.000Z</time></trkpt>
        <trkpt lat="29.5829215" lon="103.3803785"><ele>954.96</ele><time>2025-09-13T01:43:49.000Z</time></trkpt>
        <trkpt lat="29.5829569" lon="103.3803262"><ele>954.84</ele><time>2025-09-13T01:43:55.000Z</time></trkpt>
        <trkpt lat="29.5829874" lon="103.3802665"><ele>954.38</ele><time>2025-09-13T01:44:01.000Z</time></trkpt>
        <trkpt lat="29.5830194" lon="103.3802056"><ele>954.42</ele><time>2025-09-13T01:44:07.000Z</time></trkpt>
        <trkpt lat="29.5830457" lon="103.3801442"><ele>955</ele><time>2025-09-13T01:44:13.000Z</time></trkpt>
        <trkpt lat="29.5830712" lon="103.3800852"><ele>956.44</ele><time>2025-09-13T01:44:19.000Z</time></trkpt>
        <trkpt lat="29.583098" lon="103.3800237"><ele>958.18</ele><time>2025-09-13T01:44:25.000Z</time></trkpt>
        <trkpt lat="29.5831109" lon="103.3799689"><ele>958.7</ele><time>2025-09-13T01:44:29.000Z</time></trkpt>
        <trkpt lat="29.5831033" lon="103.3799005"><ele>959</ele><time>2025-09-13T01:44:35.000Z</time></trkpt>
        <trkpt lat="29.583091" lon="103.3798306"><ele>958.78</ele><time>2025-09-13T01:44:41.000Z</time></trkpt>
        <trkpt lat="29.5830759" lon="103.3797722"><ele>959.9</ele><time>2025-09-13T01:44:45.000Z</time></trkpt>
        <trkpt lat="29.5830472" lon="103.3797166"><ele>961.4</ele><time>2025-09-13T01:44:51.000Z</time></trkpt>
        <trkpt lat="29.5830233" lon="103.3796638"><ele>962.14</ele><time>2025-09-13T01:44:57.000Z</time></trkpt>
        <trkpt lat="29.5829985" lon="103.3796172"><ele>962.79</ele><time>2025-09-13T01:45:03.000Z</time></trkpt>
        <trkpt lat="29.5829727" lon="103.3795689"><ele>962.73</ele><time>2025-09-13T01:45:11.000Z</time></trkpt>
        <trkpt lat="29.5829816" lon="103.3795226"><ele>963.53</ele><time>2025-09-13T01:45:29.000Z</time></trkpt>
        <trkpt lat="29.5830125" lon="103.3794814"><ele>964.44</ele><time>2025-09-13T01:45:45.000Z</time></trkpt>
        <trkpt lat="29.5830015" lon="103.3794379"><ele>966.83</ele><time>2025-09-13T01:45:53.000Z</time></trkpt>
        <trkpt lat="29.5829618" lon="103.3794225"><ele>969.95</ele><time>2025-09-13T01:45:59.000Z</time></trkpt>
        <trkpt lat="29.5829151" lon="103.3794524"><ele>971.46</ele><time>2025-09-13T01:46:07.000Z</time></trkpt>
        <trkpt lat="29.5828598" lon="103.3794887"><ele>971.46</ele><time>2025-09-13T01:46:15.000Z</time></trkpt>
        <trkpt lat="29.5828038" lon="103.3795163"><ele>970.99</ele><time>2025-09-13T01:46:21.000Z</time></trkpt>
        <trkpt lat="29.5827493" lon="103.3795416"><ele>970.61</ele><time>2025-09-13T01:46:27.000Z</time></trkpt>
        <trkpt lat="29.5826981" lon="103.379555"><ele>970.21</ele><time>2025-09-13T01:46:31.000Z</time></trkpt>
        <trkpt lat="29.5826783" lon="103.3795099"><ele>970.97</ele><time>2025-09-13T01:46:39.000Z</time></trkpt>
        <trkpt lat="29.5826835" lon="103.3794429"><ele>971.01</ele><time>2025-09-13T01:46:47.000Z</time></trkpt>
        <trkpt lat="29.5826936" lon="103.3793719"><ele>970.41</ele><time>2025-09-13T01:46:55.000Z</time></trkpt>
        <trkpt lat="29.5827339" lon="103.3793202"><ele>970.35</ele><time>2025-09-13T01:47:01.000Z</time></trkpt>
        <trkpt lat="29.5827737" lon="103.3792724"><ele>972.09</ele><time>2025-09-13T01:47:07.000Z</time></trkpt>
        <trkpt lat="29.5828172" lon="103.379226"><ele>973.25</ele><time>2025-09-13T01:47:17.000Z</time></trkpt>
        <trkpt lat="29.5828626" lon="103.3792004"><ele>974.15</ele><time>2025-09-13T01:47:29.000Z</time></trkpt>
        <trkpt lat="29.5829086" lon="103.3791874"><ele>974.65</ele><time>2025-09-13T01:47:41.000Z</time></trkpt>
        <trkpt lat="29.582947" lon="103.379152"><ele>976.3</ele><time>2025-09-13T01:47:49.000Z</time></trkpt>
        <trkpt lat="29.5829802" lon="103.3791059"><ele>977.6</ele><time>2025-09-13T01:47:55.000Z</time></trkpt>
        <trkpt lat="29.5829965" lon="103.3790509"><ele>978.68</ele><time>2025-09-13T01:48:01.000Z</time></trkpt>
        <trkpt lat="29.5830076" lon="103.3789971"><ele>979.62</ele><time>2025-09-13T01:48:07.000Z</time></trkpt>
        <trkpt lat="29.58301" lon="103.3789391"><ele>979.74</ele><time>2025-09-13T01:48:13.000Z</time></trkpt>
        <trkpt lat="29.5830091" lon="103.378877"><ele>980.04</ele><time>2025-09-13T01:48:21.000Z</time></trkpt>
        <trkpt lat="29.5829882" lon="103.3788209"><ele>981.9</ele><time>2025-09-13T01:48:29.000Z</time></trkpt>
        <trkpt lat="29.5829744" lon="103.378768"><ele>982.09</ele><time>2025-09-13T01:48:41.000Z</time></trkpt>
        <trkpt lat="29.5829618" lon="103.378716"><ele>981.85</ele><time>2025-09-13T01:48:57.000Z</time></trkpt>
        <trkpt lat="29.5829366" lon="103.3786716"><ele>982.95</ele><time>2025-09-13T01:49:11.000Z</time></trkpt>
        <trkpt lat="29.5828971" lon="103.3786371"><ele>984.72</ele><time>2025-09-13T01:49:21.000Z</time></trkpt>
        <trkpt lat="29.5828486" lon="103.3786132"><ele>986.65</ele><time>2025-09-13T01:49:33.000Z</time></trkpt>
        <trkpt lat="29.582801" lon="103.3785971"><ele>991.33</ele><time>2025-09-13T01:49:47.000Z</time></trkpt>
        <trkpt lat="29.582846" lon="103.3785688"><ele>993.77</ele><time>2025-09-13T01:49:51.000Z</time></trkpt>
        <trkpt lat="29.5828535" lon="103.3785237"><ele>995.53</ele><time>2025-09-13T01:50:13.000Z</time></trkpt>
        <trkpt lat="29.5828239" lon="103.3784699"><ele>996.62</ele><time>2025-09-13T01:50:45.000Z</time></trkpt>
        <trkpt lat="29.5827671" lon="103.3784427"><ele>997.54</ele><time>2025-09-13T01:50:47.000Z</time></trkpt>
        <trkpt lat="29.5827031" lon="103.3784252"><ele>998.15</ele><time>2025-09-13T01:50:51.000Z</time></trkpt>
        <trkpt lat="29.5826501" lon="103.378399"><ele>998.82</ele><time>2025-09-13T01:50:55.000Z</time></trkpt>
        <trkpt lat="29.5826086" lon="103.3783543"><ele>999.57</ele><time>2025-09-13T01:50:59.000Z</time></trkpt>
        <trkpt lat="29.5825925" lon="103.3782927"><ele>1003.06</ele><time>2025-09-13T01:51:05.000Z</time></trkpt>
        <trkpt lat="29.5825773" lon="103.3782346"><ele>1006.68</ele><time>2025-09-13T01:51:13.000Z</time></trkpt>
        <trkpt lat="29.5825366" lon="103.3782318"><ele>1012.49</ele><time>2025-09-13T01:51:19.000Z</time></trkpt>
        <trkpt lat="29.5824957" lon="103.3782601"><ele>1015.2</ele><time>2025-09-13T01:51:29.000Z</time></trkpt>
        <trkpt lat="29.5824759" lon="103.3782311"><ele>1020.9</ele><time>2025-09-13T01:51:39.000Z</time></trkpt>
        <trkpt lat="29.5824909" lon="103.3781782"><ele>1023.66</ele><time>2025-09-13T01:51:49.000Z</time></trkpt>
        <trkpt lat="29.5824941" lon="103.3781205"><ele>1024.55</ele><time>2025-09-13T01:51:59.000Z</time></trkpt>
        <trkpt lat="29.582471" lon="103.3780751"><ele>1024.52</ele><time>2025-09-13T01:52:13.000Z</time></trkpt>
        <trkpt lat="29.5824565" lon="103.3780203"><ele>1022.9</ele><time>2025-09-13T01:52:23.000Z</time></trkpt>
        <trkpt lat="29.5824389" lon="103.3779686"><ele>1023.88</ele><time>2025-09-13T01:52:35.000Z</time></trkpt>
        <trkpt lat="29.5824237" lon="103.3779095"><ele>1024.29</ele><time>2025-09-13T01:52:43.000Z</time></trkpt>
        <trkpt lat="29.5824215" lon="103.3778533"><ele>1025.19</ele><time>2025-09-13T01:52:49.000Z</time></trkpt>
        <trkpt lat="29.5824252" lon="103.3777974"><ele>1026.17</ele><time>2025-09-13T01:52:55.000Z</time></trkpt>
        <trkpt lat="29.5824333" lon="103.3777407"><ele>1026.47</ele><time>2025-09-13T01:53:01.000Z</time></trkpt>
        <trkpt lat="29.5824252" lon="103.3776895"><ele>1025.7</ele><time>2025-09-13T01:53:09.000Z</time></trkpt>
        <trkpt lat="29.582413" lon="103.3776335"><ele>1025.67</ele><time>2025-09-13T01:53:21.000Z</time></trkpt>
        <trkpt lat="29.5824119" lon="103.3775792"><ele>1026.44</ele><time>2025-09-13T01:53:31.000Z</time></trkpt>
        <trkpt lat="29.5824163" lon="103.3775258"><ele>1027.72</ele><time>2025-09-13T01:53:49.000Z</time></trkpt>
        <trkpt lat="29.5824246" lon="103.3774694"><ele>1030.6</ele><time>2025-09-13T01:54:01.000Z</time></trkpt>
        <trkpt lat="29.5824472" lon="103.377422"><ele>1032.43</ele><time>2025-09-13T01:54:13.000Z</time></trkpt>
        <trkpt lat="29.5824555" lon="103.3773681"><ele>1033.05</ele><time>2025-09-13T01:54:31.000Z</time></trkpt>
        <trkpt lat="29.5824204" lon="103.3773419"><ele>1035.43</ele><time>2025-09-13T01:54:45.000Z</time></trkpt>
        <trkpt lat="29.5823801" lon="103.377307"><ele>1037.92</ele><time>2025-09-13T01:55:03.000Z</time></trkpt>
        <trkpt lat="29.5823368" lon="103.3772771"><ele>1041.6</ele><time>2025-09-13T01:55:21.000Z</time></trkpt>
        <trkpt lat="29.5823037" lon="103.3772395"><ele>1045.72</ele><time>2025-09-13T01:55:31.000Z</time></trkpt>
        <trkpt lat="29.5822844" lon="103.3771885"><ele>1049.02</ele><time>2025-09-13T01:55:45.000Z</time></trkpt>
        <trkpt lat="29.582267" lon="103.3771353"><ele>1049.98</ele><time>2025-09-13T01:55:59.000Z</time></trkpt>
        <trkpt lat="29.5822258" lon="103.3771027"><ele>1051.12</ele><time>2025-09-13T01:56:19.000Z</time></trkpt>
        <trkpt lat="29.5821796" lon="103.3771067"><ele>1054.7</ele><time>2025-09-13T01:56:27.000Z</time></trkpt>
        <trkpt lat="29.582127" lon="103.3771152"><ele>1058.08</ele><time>2025-09-13T01:56:39.000Z</time></trkpt>
        <trkpt lat="29.5821231" lon="103.3770805"><ele>1060.81</ele><time>2025-09-13T01:57:01.000Z</time></trkpt>
        <trkpt lat="29.5821347" lon="103.3770293"><ele>1062.91</ele><time>2025-09-13T01:57:13.000Z</time></trkpt>
        <trkpt lat="29.5821356" lon="103.3769687"><ele>1063.78</ele><time>2025-09-13T01:57:27.000Z</time></trkpt>
        <trkpt lat="29.5821555" lon="103.3769135"><ele>1064.83</ele><time>2025-09-13T01:57:41.000Z</time></trkpt>
        <trkpt lat="29.5821666" lon="103.3768576"><ele>1068.04</ele><time>2025-09-13T01:57:53.000Z</time></trkpt>
        <trkpt lat="29.5821694" lon="103.3768018"><ele>1069.77</ele><time>2025-09-13T01:58:07.000Z</time></trkpt>
        <trkpt lat="29.5821689" lon="103.3767437"><ele>1071.91</ele><time>2025-09-13T01:58:29.000Z</time></trkpt>
        <trkpt lat="29.5821689" lon="103.3767437"><ele>1071.91</ele><time>2025-09-13T01:58:49.000Z</time></trkpt>
        <trkpt lat="29.5821319" lon="103.3767148"><ele>1073.93</ele><time>2025-09-13T01:58:53.000Z</time></trkpt>
        <trkpt lat="29.5821319" lon="103.3767148"><ele>1073.93</ele><time>2025-09-13T01:59:03.000Z</time></trkpt>
        <trkpt lat="29.5820883" lon="103.3766917"><ele>1076.5</ele><time>2025-09-13T01:59:11.000Z</time></trkpt>
        <trkpt lat="29.5820527" lon="103.376656"><ele>1078.76</ele><time>2025-09-13T01:59:43.000Z</time></trkpt>
        <trkpt lat="29.582037" lon="103.376607"><ele>1080.86</ele><time>2025-09-13T02:00:07.000Z</time></trkpt>
        <trkpt lat="29.5820527" lon="103.3765593"><ele>1084.57</ele><time>2025-09-13T02:00:23.000Z</time></trkpt>
        <trkpt lat="29.5820221" lon="103.3765224"><ele>1087.26</ele><time>2025-09-13T02:00:39.000Z</time></trkpt>
        <trkpt lat="29.5819718" lon="103.376529"><ele>1090.87</ele><time>2025-09-13T02:00:47.000Z</time></trkpt>
        <trkpt lat="29.58192" lon="103.3765187"><ele>1093.66</ele><time>2025-09-13T02:01:01.000Z</time></trkpt>
        <trkpt lat="29.581873" lon="103.3765024"><ele>1096.13</ele><time>2025-09-13T02:01:19.000Z</time></trkpt>
        <trkpt lat="29.5818212" lon="103.3764864"><ele>1100.57</ele><time>2025-09-13T02:01:45.000Z</time></trkpt>
        <trkpt lat="29.5817698" lon="103.3764855"><ele>1103.17</ele><time>2025-09-13T02:01:55.000Z</time></trkpt>
        <trkpt lat="29.5817407" lon="103.3764511"><ele>1105.61</ele><time>2025-09-13T02:02:33.000Z</time></trkpt>
        <trkpt lat="29.5817594" lon="103.3764069"><ele>1108.6</ele><time>2025-09-13T02:02:45.000Z</time></trkpt>
        <trkpt lat="29.5817859" lon="103.3763539"><ele>1111.66</ele><time>2025-09-13T02:03:01.000Z</time></trkpt>
        <trkpt lat="29.5818103" lon="103.376302"><ele>1114.36</ele><time>2025-09-13T02:03:13.000Z</time></trkpt>
        <trkpt lat="29.5818205" lon="103.3762466"><ele>1116.43</ele><time>2025-09-13T02:03:27.000Z</time></trkpt>
        <trkpt lat="29.5817762" lon="103.3762217"><ele>1118.1</ele><time>2025-09-13T02:03:55.000Z</time></trkpt>
        <trkpt lat="29.581714" lon="103.3762202"><ele>1120.49</ele><time>2025-09-13T02:04:07.000Z</time></trkpt>
        <trkpt lat="29.581656" lon="103.376227"><ele>1123.31</ele><time>2025-09-13T02:04:23.000Z</time></trkpt>
        <trkpt lat="29.581608" lon="103.3762537"><ele>1127.01</ele><time>2025-09-13T02:04:39.000Z</time></trkpt>
        <trkpt lat="29.5815616" lon="103.3762787"><ele>1129.43</ele><time>2025-09-13T02:04:57.000Z</time></trkpt>
        <trkpt lat="29.5815211" lon="103.3763113"><ele>1132.32</ele><time>2025-09-13T02:05:13.000Z</time></trkpt>
        <trkpt lat="29.5814678" lon="103.3763028"><ele>1132.91</ele><time>2025-09-13T02:05:31.000Z</time></trkpt>
        <trkpt lat="29.5814341" lon="103.3763398"><ele>1136.08</ele><time>2025-09-13T02:05:47.000Z</time></trkpt>
        <trkpt lat="29.5813909" lon="103.3763534"><ele>1140.24</ele><time>2025-09-13T02:06:01.000Z</time></trkpt>
        <trkpt lat="29.58134" lon="103.3763479"><ele>1143.16</ele><time>2025-09-13T02:06:27.000Z</time></trkpt>
        <trkpt lat="29.5812935" lon="103.3763609"><ele>1144.32</ele><time>2025-09-13T02:07:01.000Z</time></trkpt>
        <trkpt lat="29.5812449" lon="103.3763783"><ele>1147.96</ele><time>2025-09-13T02:07:25.000Z</time></trkpt>
        <trkpt lat="29.5812028" lon="103.3764138"><ele>1152.12</ele><time>2025-09-13T02:07:41.000Z</time></trkpt>
        <trkpt lat="29.5811824" lon="103.3764664"><ele>1155.53</ele><time>2025-09-13T02:07:55.000Z</time></trkpt>
        <trkpt lat="29.5811824" lon="103.3764664"><ele>1155.53</ele><time>2025-09-13T02:08:13.000Z</time></trkpt>
        <trkpt lat="29.5811548" lon="103.3764568"><ele>1155.85</ele><time>2025-09-13T02:08:17.000Z</time></trkpt>
        <trkpt lat="29.5811548" lon="103.3764568"><ele>1155.85</ele><time>2025-09-13T02:08:45.000Z</time></trkpt>
        <trkpt lat="29.5811147" lon="103.3764317"><ele>1156</ele><time>2025-09-13T02:09:01.000Z</time></trkpt>
        <trkpt lat="29.581116" lon="103.3764614"><ele>1158.7</ele><time>2025-09-13T02:09:15.000Z</time></trkpt>
        <trkpt lat="29.5810865" lon="103.3764865"><ele>1161.88</ele><time>2025-09-13T02:09:39.000Z</time></trkpt>
        <trkpt lat="29.5810575" lon="103.3764599"><ele>1166.23</ele><time>2025-09-13T02:09:53.000Z</time></trkpt>
        <trkpt lat="29.5810425" lon="103.3764078"><ele>1167.33</ele><time>2025-09-13T02:10:13.000Z</time></trkpt>
        <trkpt lat="29.5810038" lon="103.3763731"><ele>1169.36</ele><time>2025-09-13T02:10:37.000Z</time></trkpt>
        <trkpt lat="29.5809568" lon="103.3763544"><ele>1168.6</ele><time>2025-09-13T02:10:53.000Z</time></trkpt>
        <trkpt lat="29.5809169" lon="103.3763797"><ele>1171.27</ele><time>2025-09-13T02:11:03.000Z</time></trkpt>
        <trkpt lat="29.5809077" lon="103.3763455"><ele>1174.97</ele><time>2025-09-13T02:11:23.000Z</time></trkpt>
        <trkpt lat="29.5809378" lon="103.3763131"><ele>1175.82</ele><time>2025-09-13T02:11:37.000Z</time></trkpt>
        <trkpt lat="29.580972" lon="103.3762702"><ele>1178.3</ele><time>2025-09-13T02:12:05.000Z</time></trkpt>
        <trkpt lat="29.5809903" lon="103.3762109"><ele>1181.81</ele><time>2025-09-13T02:12:25.000Z</time></trkpt>
        <trkpt lat="29.5809872" lon="103.3761497"><ele>1185.17</ele><time>2025-09-13T02:12:37.000Z</time></trkpt>
        <trkpt lat="29.580953" lon="103.3761498"><ele>1186.47</ele><time>2025-09-13T02:12:45.000Z</time></trkpt>
        <trkpt lat="29.5809044" lon="103.3761473"><ele>1188.06</ele><time>2025-09-13T02:12:59.000Z</time></trkpt>
        <trkpt lat="29.5808521" lon="103.3761729"><ele>1190.23</ele><time>2025-09-13T02:13:07.000Z</time></trkpt>
        <trkpt lat="29.5808072" lon="103.3762153"><ele>1191.44</ele><time>2025-09-13T02:13:15.000Z</time></trkpt>
        <trkpt lat="29.5807564" lon="103.3762434"><ele>1194.09</ele><time>2025-09-13T02:13:27.000Z</time></trkpt>
        <trkpt lat="29.5807162" lon="103.3762786"><ele>1196.45</ele><time>2025-09-13T02:13:33.000Z</time></trkpt>
        <trkpt lat="29.5806748" lon="103.3763108"><ele>1198.33</ele><time>2025-09-13T02:13:39.000Z</time></trkpt>
        <trkpt lat="29.5806298" lon="103.3763422"><ele>1199.58</ele><time>2025-09-13T02:13:45.000Z</time></trkpt>
        <trkpt lat="29.5805773" lon="103.376363"><ele>1202.17</ele><time>2025-09-13T02:13:53.000Z</time></trkpt>
        <trkpt lat="29.5805278" lon="103.3763685"><ele>1204.32</ele><time>2025-09-13T02:13:59.000Z</time></trkpt>
        <trkpt lat="29.5804749" lon="103.3763573"><ele>1205.86</ele><time>2025-09-13T02:14:05.000Z</time></trkpt>
        <trkpt lat="29.5804155" lon="103.3763522"><ele>1207.04</ele><time>2025-09-13T02:14:11.000Z</time></trkpt>
        <trkpt lat="29.5803559" lon="103.3763548"><ele>1209.11</ele><time>2025-09-13T02:14:17.000Z</time></trkpt>
        <trkpt lat="29.580294" lon="103.3763398"><ele>1210.95</ele><time>2025-09-13T02:14:23.000Z</time></trkpt>
        <trkpt lat="29.5802377" lon="103.3763268"><ele>1212.53</ele><time>2025-09-13T02:14:29.000Z</time></trkpt>
        <trkpt lat="29.5801868" lon="103.3763163"><ele>1212.18</ele><time>2025-09-13T02:14:35.000Z</time></trkpt>
        <trkpt lat="29.580122" lon="103.3762978"><ele>1210.18</ele><time>2025-09-13T02:14:43.000Z</time></trkpt>
        <trkpt lat="29.5800606" lon="103.3762781"><ele>1208.39</ele><time>2025-09-13T02:14:48.000Z</time></trkpt>
        <trkpt lat="29.5800217" lon="103.3762417"><ele>1208.98</ele><time>2025-09-13T02:14:56.000Z</time></trkpt>
        <trkpt lat="29.5799944" lon="103.3761803"><ele>1209.85</ele><time>2025-09-13T02:15:04.000Z</time></trkpt>
        <trkpt lat="29.579974" lon="103.3761139"><ele>1209.44</ele><time>2025-09-13T02:15:10.000Z</time></trkpt>
        <trkpt lat="29.5799618" lon="103.376051"><ele>1209.25</ele><time>2025-09-13T02:15:16.000Z</time></trkpt>
        <trkpt lat="29.5799647" lon="103.3759944"><ele>1208.34</ele><time>2025-09-13T02:15:20.000Z</time></trkpt>
        <trkpt lat="29.5799621" lon="103.3759347"><ele>1207.18</ele><time>2025-09-13T02:15:26.000Z</time></trkpt>
        <trkpt lat="29.5799472" lon="103.3758777"><ele>1206.95</ele><time>2025-09-13T02:15:32.000Z</time></trkpt>
        <trkpt lat="29.5799266" lon="103.3758274"><ele>1207.48</ele><time>2025-09-13T02:15:36.000Z</time></trkpt>
        <trkpt lat="29.5798928" lon="103.3757913"><ele>1207.54</ele><time>2025-09-13T02:15:42.000Z</time></trkpt>
        <trkpt lat="29.5798689" lon="103.3757408"><ele>1208.72</ele><time>2025-09-13T02:15:48.000Z</time></trkpt>
        <trkpt lat="29.5798856" lon="103.3756859"><ele>1209.74</ele><time>2025-09-13T02:15:58.000Z</time></trkpt>
        <trkpt lat="29.5799126" lon="103.3756353"><ele>1210.07</ele><time>2025-09-13T02:16:06.000Z</time></trkpt>
        <trkpt lat="29.5799464" lon="103.3755848"><ele>1208.99</ele><time>2025-09-13T02:16:18.000Z</time></trkpt>
        <trkpt lat="29.5799943" lon="103.3755686"><ele>1208.22</ele><time>2025-09-13T02:16:52.000Z</time></trkpt>
        <trkpt lat="29.5800432" lon="103.3755405"><ele>1209.46</ele><time>2025-09-13T02:17:04.000Z</time></trkpt>
        <trkpt lat="29.5800744" lon="103.3754992"><ele>1210.03</ele><time>2025-09-13T02:17:28.000Z</time></trkpt>
        <trkpt lat="29.5800852" lon="103.3755226"><ele>1214.98</ele><time>2025-09-13T02:17:50.000Z</time></trkpt>
        <trkpt lat="29.5800996" lon="103.3755763"><ele>1224.92</ele><time>2025-09-13T02:18:08.000Z</time></trkpt>
        <trkpt lat="29.5801345" lon="103.3756085"><ele>1232.77</ele><time>2025-09-13T02:18:26.000Z</time></trkpt>
        <trkpt lat="29.58018" lon="103.3756216"><ele>1240.81</ele><time>2025-09-13T02:18:46.000Z</time></trkpt>
        <trkpt lat="29.5802103" lon="103.3755854"><ele>1245.25</ele><time>2025-09-13T02:19:02.000Z</time></trkpt>
        <trkpt lat="29.5802456" lon="103.3755927"><ele>1246.96</ele><time>2025-09-13T02:19:08.000Z</time></trkpt>
        <trkpt lat="29.5802969" lon="103.3755914"><ele>1248.14</ele><time>2025-09-13T02:19:22.000Z</time></trkpt>
        <trkpt lat="29.5803457" lon="103.3755858"><ele>1249.88</ele><time>2025-09-13T02:19:30.000Z</time></trkpt>
        <trkpt lat="29.5803835" lon="103.3755556"><ele>1249.77</ele><time>2025-09-13T02:19:42.000Z</time></trkpt>
        <trkpt lat="29.5804252" lon="103.3755181"><ele>1246.91</ele><time>2025-09-13T02:19:50.000Z</time></trkpt>
        <trkpt lat="29.5804778" lon="103.3754924"><ele>1243.61</ele><time>2025-09-13T02:20:06.000Z</time></trkpt>
        <trkpt lat="29.5805102" lon="103.3755206"><ele>1243.91</ele><time>2025-09-13T02:20:32.000Z</time></trkpt>
        <trkpt lat="29.5805522" lon="103.3755089"><ele>1249.46</ele><time>2025-09-13T02:20:48.000Z</time></trkpt>
        <trkpt lat="29.5805805" lon="103.3754709"><ele>1252.1</ele><time>2025-09-13T02:21:04.000Z</time></trkpt>
        <trkpt lat="29.5805805" lon="103.3754709"><ele>1252.1</ele><time>2025-09-13T02:21:21.000Z</time></trkpt>
        <trkpt lat="29.5806204" lon="103.3754543"><ele>1254.3</ele><time>2025-09-13T02:21:27.000Z</time></trkpt>
        <trkpt lat="29.5806204" lon="103.3754543"><ele>1254.3</ele><time>2025-09-13T02:21:54.000Z</time></trkpt>
        <trkpt lat="29.5806687" lon="103.3754278"><ele>1252.79</ele><time>2025-09-13T02:22:02.000Z</time></trkpt>
        <trkpt lat="29.5807079" lon="103.3753836"><ele>1251.29</ele><time>2025-09-13T02:22:10.000Z</time></trkpt>
        <trkpt lat="29.5807371" lon="103.3753342"><ele>1250.13</ele><time>2025-09-13T02:22:18.000Z</time></trkpt>
        <trkpt lat="29.5807519" lon="103.3752791"><ele>1249.31</ele><time>2025-09-13T02:22:28.000Z</time></trkpt>
        <trkpt lat="29.5807539" lon="103.3752243"><ele>1248.54</ele><time>2025-09-13T02:22:48.000Z</time></trkpt>
        <trkpt lat="29.5807449" lon="103.3751704"><ele>1247.26</ele><time>2025-09-13T02:23:18.000Z</time></trkpt>
        <trkpt lat="29.5807517" lon="103.3751202"><ele>1249.75</ele><time>2025-09-13T02:23:40.000Z</time></trkpt>
        <trkpt lat="29.5807645" lon="103.3750614"><ele>1252.81</ele><time>2025-09-13T02:24:08.000Z</time></trkpt>
        <trkpt lat="29.5807589" lon="103.3750366"><ele>1255.86</ele><time>2025-09-13T02:24:22.000Z</time></trkpt>
        <trkpt lat="29.5807761" lon="103.3749999"><ele>1258.31</ele><time>2025-09-13T02:24:38.000Z</time></trkpt>
        <trkpt lat="29.5807639" lon="103.3749546"><ele>1260.35</ele><time>2025-09-13T02:25:00.000Z</time></trkpt>
        <trkpt lat="29.5807808" lon="103.3749122"><ele>1262.31</ele><time>2025-09-13T02:25:10.000Z</time></trkpt>
        <trkpt lat="29.5807631" lon="103.3748735"><ele>1263.71</ele><time>2025-09-13T02:25:22.000Z</time></trkpt>
        <trkpt lat="29.5807223" lon="103.3748359"><ele>1266.9</ele><time>2025-09-13T02:25:46.000Z</time></trkpt>
        <trkpt lat="29.5807107" lon="103.3747807"><ele>1271.74</ele><time>2025-09-13T02:26:18.000Z</time></trkpt>
        <trkpt lat="29.5807064" lon="103.3747252"><ele>1274.99</ele><time>2025-09-13T02:26:34.000Z</time></trkpt>
        <trkpt lat="29.5806991" lon="103.3746726"><ele>1277.26</ele><time>2025-09-13T02:27:00.000Z</time></trkpt>
        <trkpt lat="29.5806975" lon="103.3746169"><ele>1279.99</ele><time>2025-09-13T02:27:14.000Z</time></trkpt>
        <trkpt lat="29.5807079" lon="103.3745624"><ele>1283.65</ele><time>2025-09-13T02:27:34.000Z</time></trkpt>
        <trkpt lat="29.5807122" lon="103.3744988"><ele>1285.61</ele><time>2025-09-13T02:27:52.000Z</time></trkpt>
        <trkpt lat="29.5807176" lon="103.3744417"><ele>1288.01</ele><time>2025-09-13T02:28:02.000Z</time></trkpt>
        <trkpt lat="29.5807185" lon="103.3743997"><ele>1291.68</ele><time>2025-09-13T02:28:14.000Z</time></trkpt>
        <trkpt lat="29.5806984" lon="103.3743558"><ele>1294.29</ele><time>2025-09-13T02:28:30.000Z</time></trkpt>
        <trkpt lat="29.5807155" lon="103.3743122"><ele>1295.31</ele><time>2025-09-13T02:28:48.000Z</time></trkpt>
        <trkpt lat="29.5807213" lon="103.3742528"><ele>1296.01</ele><time>2025-09-13T02:29:10.000Z</time></trkpt>
        <trkpt lat="29.5807297" lon="103.3741982"><ele>1299.59</ele><time>2025-09-13T02:29:24.000Z</time></trkpt>
        <trkpt lat="29.5807293" lon="103.3741446"><ele>1300.53</ele><time>2025-09-13T02:29:36.000Z</time></trkpt>
        <trkpt lat="29.5807237" lon="103.3740895"><ele>1303.16</ele><time>2025-09-13T02:29:48.000Z</time></trkpt>
        <trkpt lat="29.5806998" lon="103.374042"><ele>1306.08</ele><time>2025-09-13T02:30:04.000Z</time></trkpt>
        <trkpt lat="29.5806998" lon="103.374042"><ele>1306.08</ele><time>2025-09-13T02:30:25.000Z</time></trkpt>
        <trkpt lat="29.580694" lon="103.3739924"><ele>1306.1</ele><time>2025-09-13T02:30:29.000Z</time></trkpt>
        <trkpt lat="29.580694" lon="103.3739924"><ele>1306.1</ele><time>2025-09-13T02:30:38.000Z</time></trkpt>
        <trkpt lat="29.5806637" lon="103.3739604"><ele>1307.39</ele><time>2025-09-13T02:30:54.000Z</time></trkpt>
        <trkpt lat="29.5806484" lon="103.3739122"><ele>1307.86</ele><time>2025-09-13T02:31:06.000Z</time></trkpt>
        <trkpt lat="29.5806289" lon="103.373862"><ele>1307.82</ele><time>2025-09-13T02:31:16.000Z</time></trkpt>
        <trkpt lat="29.5806007" lon="103.3738189"><ele>1308.93</ele><time>2025-09-13T02:31:24.000Z</time></trkpt>
        <trkpt lat="29.5805556" lon="103.373796"><ele>1309.61</ele><time>2025-09-13T02:31:34.000Z</time></trkpt>
        <trkpt lat="29.5805046" lon="103.3737874"><ele>1311.87</ele><time>2025-09-13T02:31:42.000Z</time></trkpt>
        <trkpt lat="29.5804654" lon="103.373761"><ele>1313.52</ele><time>2025-09-13T02:31:54.000Z</time></trkpt>
        <trkpt lat="29.580441" lon="103.3737088"><ele>1314.09</ele><time>2025-09-13T02:32:02.000Z</time></trkpt>
        <trkpt lat="29.5804006" lon="103.3736566"><ele>1313.93</ele><time>2025-09-13T02:32:08.000Z</time></trkpt>
        <trkpt lat="29.5803559" lon="103.3736276"><ele>1314.27</ele><time>2025-09-13T02:32:14.000Z</time></trkpt>
        <trkpt lat="29.580312" lon="103.3735994"><ele>1315.99</ele><time>2025-09-13T02:32:24.000Z</time></trkpt>
        <trkpt lat="29.5802723" lon="103.3735661"><ele>1316.77</ele><time>2025-09-13T02:32:32.000Z</time></trkpt>
        <trkpt lat="29.5802351" lon="103.3735284"><ele>1316.55</ele><time>2025-09-13T02:32:42.000Z</time></trkpt>
        <trkpt lat="29.5802042" lon="103.3734853"><ele>1316.1</ele><time>2025-09-13T02:32:52.000Z</time></trkpt>
        <trkpt lat="29.5801771" lon="103.3734338"><ele>1316.83</ele><time>2025-09-13T02:33:04.000Z</time></trkpt>
        <trkpt lat="29.580145" lon="103.3733922"><ele>1316.61</ele><time>2025-09-13T02:33:14.000Z</time></trkpt>
        <trkpt lat="29.5801035" lon="103.3733529"><ele>1317.46</ele><time>2025-09-13T02:33:30.000Z</time></trkpt>
        <trkpt lat="29.5800702" lon="103.3733052"><ele>1319.02</ele><time>2025-09-13T02:33:44.000Z</time></trkpt>
        <trkpt lat="29.5800425" lon="103.37326"><ele>1321.04</ele><time>2025-09-13T02:33:56.000Z</time></trkpt>
        <trkpt lat="29.5800128" lon="103.3732196"><ele>1322.11</ele><time>2025-09-13T02:34:14.000Z</time></trkpt>
        <trkpt lat="29.5799749" lon="103.3731896"><ele>1323.65</ele><time>2025-09-13T02:34:34.000Z</time></trkpt>
        <trkpt lat="29.5799341" lon="103.3731653"><ele>1325.21</ele><time>2025-09-13T02:34:52.000Z</time></trkpt>
        <trkpt lat="29.5798978" lon="103.3731291"><ele>1325.94</ele><time>2025-09-13T02:35:10.000Z</time></trkpt>
        <trkpt lat="29.5798603" lon="103.3730966"><ele>1327.43</ele><time>2025-09-13T02:35:30.000Z</time></trkpt>
        <trkpt lat="29.5798183" lon="103.373069"><ele>1330.26</ele><time>2025-09-13T02:35:52.000Z</time></trkpt>
        <trkpt lat="29.5797988" lon="103.3730223"><ele>1335.09</ele><time>2025-09-13T02:36:20.000Z</time></trkpt>
        <trkpt lat="29.5797855" lon="103.3729694"><ele>1337.78</ele><time>2025-09-13T02:36:40.000Z</time></trkpt>
        <trkpt lat="29.5797552" lon="103.3729343"><ele>1339</ele><time>2025-09-13T02:36:56.000Z</time></trkpt>
        <trkpt lat="29.57972" lon="103.3728995"><ele>1339.68</ele><time>2025-09-13T02:37:08.000Z</time></trkpt>
        <trkpt lat="29.579686" lon="103.3728635"><ele>1341.71</ele><time>2025-09-13T02:37:20.000Z</time></trkpt>
        <trkpt lat="29.5796626" lon="103.3728178"><ele>1344.89</ele><time>2025-09-13T02:37:46.000Z</time></trkpt>
        <trkpt lat="29.5796319" lon="103.372771"><ele>1347.72</ele><time>2025-09-13T02:37:58.000Z</time></trkpt>
        <trkpt lat="29.5795884" lon="103.3727468"><ele>1351.45</ele><time>2025-09-13T02:38:06.000Z</time></trkpt>
        <trkpt lat="29.5795392" lon="103.3727515"><ele>1352.94</ele><time>2025-09-13T02:38:16.000Z</time></trkpt>
        <trkpt lat="29.5794913" lon="103.3727579"><ele>1356.42</ele><time>2025-09-13T02:38:26.000Z</time></trkpt>
        <trkpt lat="29.579457" lon="103.3727309"><ele>1359.93</ele><time>2025-09-13T02:38:36.000Z</time></trkpt>
        <trkpt lat="29.5794158" lon="103.3726946"><ele>1363.4</ele><time>2025-09-13T02:38:52.000Z</time></trkpt>
        <trkpt lat="29.5793928" lon="103.3726469"><ele>1363.33</ele><time>2025-09-13T02:39:00.000Z</time></trkpt>
        <trkpt lat="29.5793676" lon="103.3726002"><ele>1363.97</ele><time>2025-09-13T02:39:10.000Z</time></trkpt>
        <trkpt lat="29.5793336" lon="103.3725532"><ele>1364.08</ele><time>2025-09-13T02:39:22.000Z</time></trkpt>
        <trkpt lat="29.5792888" lon="103.3725301"><ele>1364.73</ele><time>2025-09-13T02:39:28.000Z</time></trkpt>
        <trkpt lat="29.5792466" lon="103.3725009"><ele>1364.49</ele><time>2025-09-13T02:39:36.000Z</time></trkpt>
        <trkpt lat="29.5792089" lon="103.3724647"><ele>1365.41</ele><time>2025-09-13T02:39:44.000Z</time></trkpt>
        <trkpt lat="29.5791651" lon="103.3724492"><ele>1368.04</ele><time>2025-09-13T02:39:50.000Z</time></trkpt>
        <trkpt lat="29.5791108" lon="103.3724588"><ele>1369.9</ele><time>2025-09-13T02:39:58.000Z</time></trkpt>
        <trkpt lat="29.5790582" lon="103.3724656"><ele>1372.24</ele><time>2025-09-13T02:40:04.000Z</time></trkpt>
        <trkpt lat="29.5790165" lon="103.3724386"><ele>1374.82</ele><time>2025-09-13T02:40:16.000Z</time></trkpt>
        <trkpt lat="29.5790112" lon="103.3723896"><ele>1375.72</ele><time>2025-09-13T02:40:28.000Z</time></trkpt>
        <trkpt lat="29.5789911" lon="103.3723449"><ele>1375.55</ele><time>2025-09-13T02:40:36.000Z</time></trkpt>
        <trkpt lat="29.5789603" lon="103.3723035"><ele>1375.15</ele><time>2025-09-13T02:40:46.000Z</time></trkpt>
        <trkpt lat="29.5789195" lon="103.3722662"><ele>1376.77</ele><time>2025-09-13T02:40:58.000Z</time></trkpt>
        <trkpt lat="29.5788699" lon="103.3722398"><ele>1380.05</ele><time>2025-09-13T02:41:10.000Z</time></trkpt>
        <trkpt lat="29.5788149" lon="103.3722249"><ele>1384.48</ele><time>2025-09-13T02:41:20.000Z</time></trkpt>
        <trkpt lat="29.5787599" lon="103.372208"><ele>1387.45</ele><time>2025-09-13T02:41:28.000Z</time></trkpt>
        <trkpt lat="29.5787189" lon="103.3721738"><ele>1388.99</ele><time>2025-09-13T02:41:34.000Z</time></trkpt>
        <trkpt lat="29.5786904" lon="103.3721312"><ele>1389</ele><time>2025-09-13T02:41:40.000Z</time></trkpt>
        <trkpt lat="29.5786528" lon="103.3720884"><ele>1388.97</ele><time>2025-09-13T02:41:50.000Z</time></trkpt>
        <trkpt lat="29.5786103" lon="103.3720412"><ele>1388.06</ele><time>2025-09-13T02:42:06.000Z</time></trkpt>
        <trkpt lat="29.5785756" lon="103.3719905"><ele>1386.52</ele><time>2025-09-13T02:42:22.000Z</time></trkpt>
        <trkpt lat="29.5785335" lon="103.3719677"><ele>1383.95</ele><time>2025-09-13T02:42:32.000Z</time></trkpt>
        <trkpt lat="29.5784911" lon="103.3719402"><ele>1382.61</ele><time>2025-09-13T02:42:52.000Z</time></trkpt>
        <trkpt lat="29.5784654" lon="103.3718946"><ele>1385.65</ele><time>2025-09-13T02:43:02.000Z</time></trkpt>
        <trkpt lat="29.5784394" lon="103.3718471"><ele>1389.42</ele><time>2025-09-13T02:43:12.000Z</time></trkpt>
        <trkpt lat="29.5784116" lon="103.3717951"><ele>1393.83</ele><time>2025-09-13T02:43:28.000Z</time></trkpt>
        <trkpt lat="29.5783859" lon="103.3717488"><ele>1396.43</ele><time>2025-09-13T02:43:36.000Z</time></trkpt>
        <trkpt lat="29.5783685" lon="103.3716901"><ele>1397.67</ele><time>2025-09-13T02:43:44.000Z</time></trkpt>
        <trkpt lat="29.5783399" lon="103.3716446"><ele>1398.25</ele><time>2025-09-13T02:43:52.000Z</time></trkpt>
        <trkpt lat="29.5783018" lon="103.3716072"><ele>1398.36</ele><time>2025-09-13T02:44:00.000Z</time></trkpt>
        <trkpt lat="29.5782625" lon="103.3715693"><ele>1398.42</ele><time>2025-09-13T02:44:10.000Z</time></trkpt>
        <trkpt lat="29.578219" lon="103.3715407"><ele>1396.43</ele><time>2025-09-13T02:44:20.000Z</time></trkpt>
        <trkpt lat="29.5781783" lon="103.371513"><ele>1393.34</ele><time>2025-09-13T02:44:26.000Z</time></trkpt>
        <trkpt lat="29.578134" lon="103.371515"><ele>1391.53</ele><time>2025-09-13T02:44:40.000Z</time></trkpt>
        <trkpt lat="29.5781025" lon="103.3714831"><ele>1394.06</ele><time>2025-09-13T02:45:08.000Z</time></trkpt>
        <trkpt lat="29.5781264" lon="103.3714555"><ele>1396.29</ele><time>2025-09-13T02:45:18.000Z</time></trkpt>
        <trkpt lat="29.5781156" lon="103.3714184"><ele>1397.48</ele><time>2025-09-13T02:45:36.000Z</time></trkpt>
        <trkpt lat="29.5780692" lon="103.3713903"><ele>1399.35</ele><time>2025-09-13T02:45:46.000Z</time></trkpt>
        <trkpt lat="29.5780175" lon="103.3713855"><ele>1400.51</ele><time>2025-09-13T02:45:56.000Z</time></trkpt>
        <trkpt lat="29.5779822" lon="103.3713543"><ele>1400.85</ele><time>2025-09-13T02:46:08.000Z</time></trkpt>
        <trkpt lat="29.5779381" lon="103.3713486"><ele>1403.42</ele><time>2025-09-13T02:46:24.000Z</time></trkpt>
        <trkpt lat="29.5778998" lon="103.3713221"><ele>1406.19</ele><time>2025-09-13T02:46:40.000Z</time></trkpt>
        <trkpt lat="29.5778685" lon="103.3712833"><ele>1409.36</ele><time>2025-09-13T02:46:50.000Z</time></trkpt>
        <trkpt lat="29.5778309" lon="103.3712495"><ele>1410.51</ele><time>2025-09-13T02:47:04.000Z</time></trkpt>
        <trkpt lat="29.5777854" lon="103.3712269"><ele>1413.51</ele><time>2025-09-13T02:47:28.000Z</time></trkpt>
        <trkpt lat="29.5777516" lon="103.3711883"><ele>1418.6</ele><time>2025-09-13T02:47:38.000Z</time></trkpt>
        <trkpt lat="29.5777219" lon="103.3711387"><ele>1422.94</ele><time>2025-09-13T02:47:50.000Z</time></trkpt>
        <trkpt lat="29.5776755" lon="103.3711192"><ele>1424.44</ele><time>2025-09-13T02:48:00.000Z</time></trkpt>
        <trkpt lat="29.5776249" lon="103.3711081"><ele>1425.95</ele><time>2025-09-13T02:48:10.000Z</time></trkpt>
        <trkpt lat="29.5776112" lon="103.3710668"><ele>1428.14</ele><time>2025-09-13T02:48:18.000Z</time></trkpt>
        <trkpt lat="29.5775785" lon="103.371038"><ele>1430.68</ele><time>2025-09-13T02:48:26.000Z</time></trkpt>
        <trkpt lat="29.5775336" lon="103.3710348"><ele>1432.73</ele><time>2025-09-13T02:48:34.000Z</time></trkpt>
        <trkpt lat="29.5774817" lon="103.371033"><ele>1432.75</ele><time>2025-09-13T02:48:44.000Z</time></trkpt>
        <trkpt lat="29.5774268" lon="103.3710142"><ele>1432.19</ele><time>2025-09-13T02:48:48.000Z</time></trkpt>
        <trkpt lat="29.5773738" lon="103.3710147"><ele>1430.59</ele><time>2025-09-13T02:48:54.000Z</time></trkpt>
        <trkpt lat="29.5773161" lon="103.3710136"><ele>1429.54</ele><time>2025-09-13T02:49:02.000Z</time></trkpt>
        <trkpt lat="29.5773161" lon="103.3710136"><ele>1429.54</ele><time>2025-09-13T02:49:09.000Z</time></trkpt>
        <trkpt lat="29.5773531" lon="103.3710143"><ele>1428.12</ele><time>2025-09-13T02:49:15.000Z</time></trkpt>
        <trkpt lat="29.5773531" lon="103.3710143"><ele>1428.12</ele><time>2025-09-13T02:49:18.000Z</time></trkpt>
        <trkpt lat="29.5773972" lon="103.3710478"><ele>1427.44</ele><time>2025-09-13T02:49:20.000Z</time></trkpt>
        <trkpt lat="29.5774241" lon="103.37107"><ele>1426.79</ele><time>2025-09-13T02:49:22.000Z</time></trkpt>
        <trkpt lat="29.5773965" lon="103.3710835"><ele>1427.67</ele><time>2025-09-13T02:49:44.000Z</time></trkpt>
        <trkpt lat="29.5773965" lon="103.3710835"><ele>1427.67</ele><time>2025-09-13T02:49:49.000Z</time></trkpt>
        <trkpt lat="29.5773965" lon="103.3710835"><ele>1427.67</ele><time>2025-09-13T02:49:55.000Z</time></trkpt>
        <trkpt lat="29.5773965" lon="103.3710835"><ele>1427.67</ele><time>2025-09-13T02:50:11.000Z</time></trkpt>
        <trkpt lat="29.5774097" lon="103.371034"><ele>1427.52</ele><time>2025-09-13T02:50:15.000Z</time></trkpt>
        <trkpt lat="29.5774097" lon="103.371034"><ele>1427.52</ele><time>2025-09-13T02:50:53.000Z</time></trkpt>
        <trkpt lat="29.5774097" lon="103.371034"><ele>1427.52</ele><time>2025-09-13T02:51:09.000Z</time></trkpt>
        <trkpt lat="29.5774089" lon="103.3710878"><ele>1427.68</ele><time>2025-09-13T02:51:15.000Z</time></trkpt>
        <trkpt lat="29.5774089" lon="103.3710878"><ele>1427.68</ele><time>2025-09-13T02:52:05.000Z</time></trkpt>
        <trkpt lat="29.5774089" lon="103.3710878"><ele>1427.68</ele><time>2025-09-13T02:52:51.000Z</time></trkpt>
        <trkpt lat="29.5774089" lon="103.3710878"><ele>1427.68</ele><time>2025-09-13T02:52:53.000Z</time></trkpt>
        <trkpt lat="29.5774089" lon="103.3710878"><ele>1427.68</ele><time>2025-09-13T02:53:17.000Z</time></trkpt>
        <trkpt lat="29.5773983" lon="103.3710355"><ele>1428.24</ele><time>2025-09-13T02:53:21.000Z</time></trkpt>
        <trkpt lat="29.5773983" lon="103.3710355"><ele>1428.24</ele><time>2025-09-13T02:54:07.000Z</time></trkpt>
        <trkpt lat="29.5773925" lon="103.3710348"><ele>1429.65</ele><time>2025-09-13T02:54:18.000Z</time></trkpt>
        <trkpt lat="29.5773925" lon="103.3710348"><ele>1429.65</ele><time>2025-09-13T02:54:51.000Z</time></trkpt>
        <trkpt lat="29.5773925" lon="103.3710348"><ele>1429.65</ele><time>2025-09-13T02:54:55.000Z</time></trkpt>
        <trkpt lat="29.5773925" lon="103.3710348"><ele>1429.65</ele><time>2025-09-13T02:55:21.000Z</time></trkpt>
        <trkpt lat="29.5773925" lon="103.3710348"><ele>1429.65</ele><time>2025-09-13T02:55:27.000Z</time></trkpt>
        <trkpt lat="29.5773925" lon="103.3710348"><ele>1429.65</ele><time>2025-09-13T02:56:33.000Z</time></trkpt>
        <trkpt lat="29.577448" lon="103.3710831"><ele>1430.37</ele><time>2025-09-13T02:56:37.000Z</time></trkpt>
        <trkpt lat="29.577448" lon="103.3710831"><ele>1430.37</ele><time>2025-09-13T02:58:34.000Z</time></trkpt>
        <trkpt lat="29.5774335" lon="103.3710801"><ele>1430.37</ele><time>2025-09-13T02:58:38.000Z</time></trkpt>
        <trkpt lat="29.5774335" lon="103.3710801"><ele>1430.37</ele><time>2025-09-13T02:59:23.000Z</time></trkpt>
        <trkpt lat="29.5773843" lon="103.3710748"><ele>1429.15</ele><time>2025-09-13T02:59:29.000Z</time></trkpt>
        <trkpt lat="29.5773843" lon="103.3710748"><ele>1429.15</ele><time>2025-09-13T03:00:02.000Z</time></trkpt>
        <trkpt lat="29.5773843" lon="103.3710748"><ele>1429.15</ele><time>2025-09-13T03:00:05.000Z</time></trkpt>
        <trkpt lat="29.5773353" lon="103.3710876"><ele>1429.08</ele><time>2025-09-13T03:00:11.000Z</time></trkpt>
        <trkpt lat="29.5773353" lon="103.3710876"><ele>1429.08</ele><time>2025-09-13T03:00:56.000Z</time></trkpt>
        <trkpt lat="29.5773353" lon="103.3710876"><ele>1429.08</ele><time>2025-09-13T03:03:11.000Z</time></trkpt>
        <trkpt lat="29.5773353" lon="103.3710876"><ele>1429.08</ele><time>2025-09-13T03:03:17.000Z</time></trkpt>
        <trkpt lat="29.5773353" lon="103.3710876"><ele>1429.08</ele><time>2025-09-13T03:05:57.000Z</time></trkpt>
        <trkpt lat="29.5773725" lon="103.3711235"><ele>1428.46</ele><time>2025-09-13T03:06:01.000Z</time></trkpt>
        <trkpt lat="29.5773725" lon="103.3711235"><ele>1428.46</ele><time>2025-09-13T03:06:05.000Z</time></trkpt>
        <trkpt lat="29.5773725" lon="103.3711235"><ele>1428.46</ele><time>2025-09-13T03:06:33.000Z</time></trkpt>
        <trkpt lat="29.5773515" lon="103.371076"><ele>1428.82</ele><time>2025-09-13T03:06:39.000Z</time></trkpt>
        <trkpt lat="29.5773515" lon="103.371076"><ele>1428.82</ele><time>2025-09-13T03:07:17.000Z</time></trkpt>
        <trkpt lat="29.5773515" lon="103.371076"><ele>1428.82</ele><time>2025-09-13T03:10:13.000Z</time></trkpt>
        <trkpt lat="29.5773515" lon="103.371076"><ele>1428.82</ele><time>2025-09-13T03:10:17.000Z</time></trkpt>
        <trkpt lat="29.5773515" lon="103.371076"><ele>1428.82</ele><time>2025-09-13T03:14:11.000Z</time></trkpt>
        <trkpt lat="29.5773515" lon="103.371076"><ele>1428.82</ele><time>2025-09-13T03:14:17.000Z</time></trkpt>
        <trkpt lat="29.5773515" lon="103.371076"><ele>1428.82</ele><time>2025-09-13T03:14:45.000Z</time></trkpt>
        <trkpt lat="29.5773515" lon="103.371076"><ele>1428.82</ele><time>2025-09-13T03:14:51.000Z</time></trkpt>
        <trkpt lat="29.5773515" lon="103.371076"><ele>1428.82</ele><time>2025-09-13T03:18:29.000Z</time></trkpt>
        <trkpt lat="29.5773515" lon="103.371076"><ele>1428.82</ele><time>2025-09-13T03:18:33.000Z</time></trkpt>
        <trkpt lat="29.5773515" lon="103.371076"><ele>1428.82</ele><time>2025-09-13T03:19:33.000Z</time></trkpt>
        <trkpt lat="29.5773515" lon="103.371076"><ele>1428.82</ele><time>2025-09-13T03:19:37.000Z</time></trkpt>
        <trkpt lat="29.5773515" lon="103.371076"><ele>1428.82</ele><time>2025-09-13T03:22:51.000Z</time></trkpt>
        <trkpt lat="29.5773515" lon="103.371076"><ele>1428.82</ele><time>2025-09-13T03:22:55.000Z</time></trkpt>
        <trkpt lat="29.5773515" lon="103.371076"><ele>1428.82</ele><time>2025-09-13T03:24:47.000Z</time></trkpt>
        <trkpt lat="29.5773515" lon="103.371076"><ele>1428.82</ele><time>2025-09-13T03:24:51.000Z</time></trkpt>
        <trkpt lat="29.5773515" lon="103.371076"><ele>1428.82</ele><time>2025-09-13T03:26:17.000Z</time></trkpt>
        <trkpt lat="29.5773515" lon="103.371076"><ele>1428.82</ele><time>2025-09-13T03:26:23.000Z</time></trkpt>
        <trkpt lat="29.5773515" lon="103.371076"><ele>1428.82</ele><time>2025-09-13T03:26:59.000Z</time></trkpt>
        <trkpt lat="29.5774094" lon="103.3710022"><ele>1427.45</ele><time>2025-09-13T03:27:03.000Z</time></trkpt>
        <trkpt lat="29.5774094" lon="103.3710022"><ele>1427.45</ele><time>2025-09-13T03:27:29.000Z</time></trkpt>
        <trkpt lat="29.5774258" lon="103.3709486"><ele>1427.94</ele><time>2025-09-13T03:27:33.000Z</time></trkpt>
        <trkpt lat="29.5774575" lon="103.3708865"><ele>1428</ele><time>2025-09-13T03:27:39.000Z</time></trkpt>
        <trkpt lat="29.5774637" lon="103.3708203"><ele>1428.21</ele><time>2025-09-13T03:27:45.000Z</time></trkpt>
        <trkpt lat="29.5774636" lon="103.3707562"><ele>1429.45</ele><time>2025-09-13T03:27:51.000Z</time></trkpt>
        <trkpt lat="29.5774541" lon="103.3706982"><ele>1430.57</ele><time>2025-09-13T03:27:57.000Z</time></trkpt>
        <trkpt lat="29.5774175" lon="103.3706674"><ele>1430.82</ele><time>2025-09-13T03:28:03.000Z</time></trkpt>
        <trkpt lat="29.5773745" lon="103.3706263"><ele>1430.11</ele><time>2025-09-13T03:28:09.000Z</time></trkpt>
        <trkpt lat="29.5773214" lon="103.370598"><ele>1429.64</ele><time>2025-09-13T03:28:15.000Z</time></trkpt>
        <trkpt lat="29.5772853" lon="103.3705503"><ele>1429.55</ele><time>2025-09-13T03:28:21.000Z</time></trkpt>
        <trkpt lat="29.5772644" lon="103.3704949"><ele>1428.46</ele><time>2025-09-13T03:28:27.000Z</time></trkpt>
        <trkpt lat="29.5772496" lon="103.3704375"><ele>1428.21</ele><time>2025-09-13T03:28:33.000Z</time></trkpt>
        <trkpt lat="29.5772198" lon="103.370391"><ele>1428.26</ele><time>2025-09-13T03:28:39.000Z</time></trkpt>
        <trkpt lat="29.5771844" lon="103.3703441"><ele>1426.88</ele><time>2025-09-13T03:28:47.000Z</time></trkpt>
        <trkpt lat="29.5771844" lon="103.3703441"><ele>1426.88</ele><time>2025-09-13T03:29:05.000Z</time></trkpt>
        <trkpt lat="29.5771434" lon="103.3703135"><ele>1426.21</ele><time>2025-09-13T03:29:09.000Z</time></trkpt>
        <trkpt lat="29.5771434" lon="103.3703135"><ele>1426.21</ele><time>2025-09-13T03:30:19.000Z</time></trkpt>
        <trkpt lat="29.577153" lon="103.3702506"><ele>1427.54</ele><time>2025-09-13T03:30:23.000Z</time></trkpt>
        <trkpt lat="29.5771261" lon="103.3702093"><ele>1428.61</ele><time>2025-09-13T03:30:29.000Z</time></trkpt>
        <trkpt lat="29.5770855" lon="103.3701764"><ele>1429.25</ele><time>2025-09-13T03:30:35.000Z</time></trkpt>
        <trkpt lat="29.5770455" lon="103.3701238"><ele>1430.16</ele><time>2025-09-13T03:30:41.000Z</time></trkpt>
        <trkpt lat="29.5769973" lon="103.3700697"><ele>1431.34</ele><time>2025-09-13T03:30:47.000Z</time></trkpt>
        <trkpt lat="29.5769742" lon="103.370009"><ele>1432.1</ele><time>2025-09-13T03:30:53.000Z</time></trkpt>
        <trkpt lat="29.5769901" lon="103.3699799"><ele>1432.35</ele><time>2025-09-13T03:30:57.000Z</time></trkpt>
        <trkpt lat="29.5769984" lon="103.369932"><ele>1433.47</ele><time>2025-09-13T03:31:03.000Z</time></trkpt>
        <trkpt lat="29.5769928" lon="103.3698701"><ele>1434.12</ele><time>2025-09-13T03:31:11.000Z</time></trkpt>
        <trkpt lat="29.5769833" lon="103.3698054"><ele>1434.15</ele><time>2025-09-13T03:31:19.000Z</time></trkpt>
        <trkpt lat="29.5769579" lon="103.3697576"><ele>1433.17</ele><time>2025-09-13T03:31:25.000Z</time></trkpt>
        <trkpt lat="29.576941" lon="103.369709"><ele>1432.75</ele><time>2025-09-13T03:31:31.000Z</time></trkpt>
        <trkpt lat="29.57695" lon="103.3696594"><ele>1431.83</ele><time>2025-09-13T03:31:37.000Z</time></trkpt>
        <trkpt lat="29.5769607" lon="103.3695972"><ele>1432.24</ele><time>2025-09-13T03:31:45.000Z</time></trkpt>
        <trkpt lat="29.5769621" lon="103.3695384"><ele>1432.82</ele><time>2025-09-13T03:31:51.000Z</time></trkpt>
        <trkpt lat="29.5769519" lon="103.3694752"><ele>1433.89</ele><time>2025-09-13T03:31:59.000Z</time></trkpt>
        <trkpt lat="29.5769455" lon="103.369411"><ele>1435.44</ele><time>2025-09-13T03:32:07.000Z</time></trkpt>
        <trkpt lat="29.5769312" lon="103.3693576"><ele>1435.59</ele><time>2025-09-13T03:32:13.000Z</time></trkpt>
        <trkpt lat="29.5769237" lon="103.3693019"><ele>1434.39</ele><time>2025-09-13T03:32:19.000Z</time></trkpt>
        <trkpt lat="29.5769238" lon="103.3692413"><ele>1433.79</ele><time>2025-09-13T03:32:27.000Z</time></trkpt>
        <trkpt lat="29.5769282" lon="103.3691828"><ele>1434.88</ele><time>2025-09-13T03:32:35.000Z</time></trkpt>
        <trkpt lat="29.5769385" lon="103.3691195"><ele>1436.19</ele><time>2025-09-13T03:32:43.000Z</time></trkpt>
        <trkpt lat="29.5769509" lon="103.3690623"><ele>1436.92</ele><time>2025-09-13T03:32:49.000Z</time></trkpt>
        <trkpt lat="29.5769651" lon="103.3690115"><ele>1438.44</ele><time>2025-09-13T03:32:55.000Z</time></trkpt>
        <trkpt lat="29.5769729" lon="103.3689452"><ele>1439.22</ele><time>2025-09-13T03:33:03.000Z</time></trkpt>
        <trkpt lat="29.5769801" lon="103.3688802"><ele>1439.36</ele><time>2025-09-13T03:33:09.000Z</time></trkpt>
        <trkpt lat="29.5769796" lon="103.3688136"><ele>1440.54</ele><time>2025-09-13T03:33:15.000Z</time></trkpt>
        <trkpt lat="29.5769803" lon="103.3687438"><ele>1441.45</ele><time>2025-09-13T03:33:21.000Z</time></trkpt>
        <trkpt lat="29.57698" lon="103.368679"><ele>1441.85</ele><time>2025-09-13T03:33:27.000Z</time></trkpt>
        <trkpt lat="29.5769844" lon="103.3686234"><ele>1442.35</ele><time>2025-09-13T03:33:33.000Z</time></trkpt>
        <trkpt lat="29.5769881" lon="103.3685621"><ele>1441.96</ele><time>2025-09-13T03:33:39.000Z</time></trkpt>
        <trkpt lat="29.5769958" lon="103.3685033"><ele>1441.86</ele><time>2025-09-13T03:33:45.000Z</time></trkpt>
        <trkpt lat="29.5770057" lon="103.3684442"><ele>1441.68</ele><time>2025-09-13T03:33:51.000Z</time></trkpt>
        <trkpt lat="29.5770227" lon="103.3683877"><ele>1441.41</ele><time>2025-09-13T03:33:57.000Z</time></trkpt>
        <trkpt lat="29.5770437" lon="103.3683343"><ele>1440.84</ele><time>2025-09-13T03:34:05.000Z</time></trkpt>
        <trkpt lat="29.5770523" lon="103.3682765"><ele>1440.49</ele><time>2025-09-13T03:34:13.000Z</time></trkpt>
        <trkpt lat="29.5770593" lon="103.3682204"><ele>1441.44</ele><time>2025-09-13T03:34:21.000Z</time></trkpt>
        <trkpt lat="29.5770606" lon="103.3681638"><ele>1441.66</ele><time>2025-09-13T03:34:29.000Z</time></trkpt>
        <trkpt lat="29.5770732" lon="103.3681127"><ele>1440.9</ele><time>2025-09-13T03:34:37.000Z</time></trkpt>
        <trkpt lat="29.5770707" lon="103.3680581"><ele>1441.65</ele><time>2025-09-13T03:34:49.000Z</time></trkpt>
        <trkpt lat="29.5770724" lon="103.3680007"><ele>1440.84</ele><time>2025-09-13T03:35:11.000Z</time></trkpt>
        <trkpt lat="29.5771101" lon="103.3679782"><ele>1440.6</ele><time>2025-09-13T03:35:47.000Z</time></trkpt>
        <trkpt lat="29.5771502" lon="103.3679443"><ele>1446.17</ele><time>2025-09-13T03:36:15.000Z</time></trkpt>
        <trkpt lat="29.5771502" lon="103.3679443"><ele>1446.17</ele><time>2025-09-13T03:36:37.000Z</time></trkpt>
        <trkpt lat="29.5771502" lon="103.3679443"><ele>1446.17</ele><time>2025-09-13T03:36:43.000Z</time></trkpt>
        <trkpt lat="29.5771502" lon="103.3679443"><ele>1446.17</ele><time>2025-09-13T03:37:27.000Z</time></trkpt>
        <trkpt lat="29.5772036" lon="103.3679158"><ele>1450.8</ele><time>2025-09-13T03:37:29.000Z</time></trkpt>
        <trkpt lat="29.5772036" lon="103.3679158"><ele>1450.8</ele><time>2025-09-13T03:37:33.000Z</time></trkpt>
        <trkpt lat="29.5772402" lon="103.3678681"><ele>1453.91</ele><time>2025-09-13T03:37:41.000Z</time></trkpt>
        <trkpt lat="29.5772841" lon="103.3678418"><ele>1456.95</ele><time>2025-09-13T03:37:51.000Z</time></trkpt>
        <trkpt lat="29.5772687" lon="103.3678054"><ele>1459.29</ele><time>2025-09-13T03:38:05.000Z</time></trkpt>
        <trkpt lat="29.5772707" lon="103.3677557"><ele>1461.38</ele><time>2025-09-13T03:38:21.000Z</time></trkpt>
        <trkpt lat="29.5772608" lon="103.3676934"><ele>1462.79</ele><time>2025-09-13T03:38:33.000Z</time></trkpt>
        <trkpt lat="29.5772183" lon="103.3676498"><ele>1465.64</ele><time>2025-09-13T03:38:41.000Z</time></trkpt>
        <trkpt lat="29.5771686" lon="103.3676101"><ele>1467.92</ele><time>2025-09-13T03:38:49.000Z</time></trkpt>
        <trkpt lat="29.5771277" lon="103.3675706"><ele>1469.48</ele><time>2025-09-13T03:38:55.000Z</time></trkpt>
        <trkpt lat="29.5770878" lon="103.3675374"><ele>1469.31</ele><time>2025-09-13T03:39:03.000Z</time></trkpt>
        <trkpt lat="29.5770541" lon="103.3674922"><ele>1469.5</ele><time>2025-09-13T03:39:09.000Z</time></trkpt>
        <trkpt lat="29.5770323" lon="103.3674444"><ele>1469.09</ele><time>2025-09-13T03:39:13.000Z</time></trkpt>
        <trkpt lat="29.5770049" lon="103.3673879"><ele>1468.91</ele><time>2025-09-13T03:39:19.000Z</time></trkpt>
        <trkpt lat="29.5769745" lon="103.3673317"><ele>1468.91</ele><time>2025-09-13T03:39:25.000Z</time></trkpt>
        <trkpt lat="29.5769396" lon="103.3672818"><ele>1468.74</ele><time>2025-09-13T03:39:31.000Z</time></trkpt>
        <trkpt lat="29.5768905" lon="103.367253"><ele>1468.44</ele><time>2025-09-13T03:39:37.000Z</time></trkpt>
        <trkpt lat="29.5768361" lon="103.3672186"><ele>1468.25</ele><time>2025-09-13T03:39:43.000Z</time></trkpt>
        <trkpt lat="29.576793" lon="103.3671735"><ele>1468.13</ele><time>2025-09-13T03:39:49.000Z</time></trkpt>
        <trkpt lat="29.5767587" lon="103.3671334"><ele>1466.92</ele><time>2025-09-13T03:39:53.000Z</time></trkpt>
        <trkpt lat="29.5767237" lon="103.367086"><ele>1466.79</ele><time>2025-09-13T03:39:59.000Z</time></trkpt>
        <trkpt lat="29.5766924" lon="103.367027"><ele>1466.43</ele><time>2025-09-13T03:40:05.000Z</time></trkpt>
        <trkpt lat="29.5766551" lon="103.3669729"><ele>1465.39</ele><time>2025-09-13T03:40:11.000Z</time></trkpt>
        <trkpt lat="29.5766258" lon="103.3669123"><ele>1464.38</ele><time>2025-09-13T03:40:17.000Z</time></trkpt>
        <trkpt lat="29.5765916" lon="103.3668637"><ele>1463.81</ele><time>2025-09-13T03:40:23.000Z</time></trkpt>
        <trkpt lat="29.5765484" lon="103.366828"><ele>1463.67</ele><time>2025-09-13T03:40:29.000Z</time></trkpt>
        <trkpt lat="29.5764952" lon="103.3667972"><ele>1463.76</ele><time>2025-09-13T03:40:35.000Z</time></trkpt>
        <trkpt lat="29.5764401" lon="103.3667559"><ele>1462.49</ele><time>2025-09-13T03:40:41.000Z</time></trkpt>
        <trkpt lat="29.5764215" lon="103.3666939"><ele>1461.17</ele><time>2025-09-13T03:40:45.000Z</time></trkpt>
        <trkpt lat="29.5764011" lon="103.3666373"><ele>1461.78</ele><time>2025-09-13T03:40:51.000Z</time></trkpt>
        <trkpt lat="29.576371" lon="103.3665955"><ele>1462.35</ele><time>2025-09-13T03:40:55.000Z</time></trkpt>
        <trkpt lat="29.5763357" lon="103.3665387"><ele>1463.45</ele><time>2025-09-13T03:41:01.000Z</time></trkpt>
        <trkpt lat="29.5763031" lon="103.3664865"><ele>1464.14</ele><time>2025-09-13T03:41:07.000Z</time></trkpt>
        <trkpt lat="29.5762783" lon="103.3664278"><ele>1463.97</ele><time>2025-09-13T03:41:15.000Z</time></trkpt>
        <trkpt lat="29.5762456" lon="103.3663864"><ele>1462.62</ele><time>2025-09-13T03:41:23.000Z</time></trkpt>
        <trkpt lat="29.5762237" lon="103.3663325"><ele>1461.16</ele><time>2025-09-13T03:41:29.000Z</time></trkpt>
        <trkpt lat="29.5762363" lon="103.3662782"><ele>1460.49</ele><time>2025-09-13T03:41:33.000Z</time></trkpt>
        <trkpt lat="29.5762594" lon="103.3662144"><ele>1461.32</ele><time>2025-09-13T03:41:39.000Z</time></trkpt>
        <trkpt lat="29.5762858" lon="103.3661518"><ele>1461.65</ele><time>2025-09-13T03:41:49.000Z</time></trkpt>
        <trkpt lat="29.5762741" lon="103.3660953"><ele>1459.52</ele><time>2025-09-13T03:41:55.000Z</time></trkpt>
        <trkpt lat="29.5762378" lon="103.3660534"><ele>1459.05</ele><time>2025-09-13T03:42:05.000Z</time></trkpt>
        <trkpt lat="29.5761942" lon="103.3660192"><ele>1456.63</ele><time>2025-09-13T03:42:13.000Z</time></trkpt>
        <trkpt lat="29.5761532" lon="103.3659774"><ele>1454.51</ele><time>2025-09-13T03:42:21.000Z</time></trkpt>
        <trkpt lat="29.5761182" lon="103.3659383"><ele>1452.12</ele><time>2025-09-13T03:42:29.000Z</time></trkpt>
        <trkpt lat="29.5760891" lon="103.3658884"><ele>1449.86</ele><time>2025-09-13T03:42:37.000Z</time></trkpt>
        <trkpt lat="29.5760489" lon="103.3658492"><ele>1447.74</ele><time>2025-09-13T03:42:43.000Z</time></trkpt>
        <trkpt lat="29.5759962" lon="103.3658234"><ele>1444.83</ele><time>2025-09-13T03:42:51.000Z</time></trkpt>
        <trkpt lat="29.5759435" lon="103.3658078"><ele>1442.22</ele><time>2025-09-13T03:42:59.000Z</time></trkpt>
        <trkpt lat="29.575889" lon="103.3657941"><ele>1438.9</ele><time>2025-09-13T03:43:07.000Z</time></trkpt>
        <trkpt lat="29.5758401" lon="103.3657882"><ele>1436.31</ele><time>2025-09-13T03:43:15.000Z</time></trkpt>
        <trkpt lat="29.5757983" lon="103.3657702"><ele>1434.79</ele><time>2025-09-13T03:43:21.000Z</time></trkpt>
        <trkpt lat="29.5757578" lon="103.3657352"><ele>1433.1</ele><time>2025-09-13T03:43:29.000Z</time></trkpt>
        <trkpt lat="29.5757156" lon="103.3657057"><ele>1431.18</ele><time>2025-09-13T03:43:35.000Z</time></trkpt>
        <trkpt lat="29.5756724" lon="103.365686"><ele>1429.5</ele><time>2025-09-13T03:43:41.000Z</time></trkpt>
        <trkpt lat="29.5756368" lon="103.3656556"><ele>1428.67</ele><time>2025-09-13T03:43:47.000Z</time></trkpt>
        <trkpt lat="29.5756029" lon="103.365612"><ele>1427.8</ele><time>2025-09-13T03:43:53.000Z</time></trkpt>
        <trkpt lat="29.575585" lon="103.3655561"><ele>1428.02</ele><time>2025-09-13T03:43:59.000Z</time></trkpt>
        <trkpt lat="29.5755467" lon="103.365513"><ele>1427.77</ele><time>2025-09-13T03:44:07.000Z</time></trkpt>
        <trkpt lat="29.5755007" lon="103.3655249"><ele>1428.34</ele><time>2025-09-13T03:44:13.000Z</time></trkpt>
        <trkpt lat="29.575451" lon="103.3655216"><ele>1428.69</ele><time>2025-09-13T03:44:33.000Z</time></trkpt>
        <trkpt lat="29.575403" lon="103.3655056"><ele>1431.15</ele><time>2025-09-13T03:44:45.000Z</time></trkpt>
        <trkpt lat="29.5753698" lon="103.365464"><ele>1434.39</ele><time>2025-09-13T03:45:15.000Z</time></trkpt>
        <trkpt lat="29.5753698" lon="103.365464"><ele>1434.39</ele><time>2025-09-13T03:45:41.000Z</time></trkpt>
        <trkpt lat="29.5753387" lon="103.365411"><ele>1436.09</ele><time>2025-09-13T03:45:45.000Z</time></trkpt>
        <trkpt lat="29.5753387" lon="103.365411"><ele>1436.09</ele><time>2025-09-13T03:45:59.000Z</time></trkpt>
        <trkpt lat="29.5752947" lon="103.3653845"><ele>1438.12</ele><time>2025-09-13T03:46:23.000Z</time></trkpt>
        <trkpt lat="29.5752503" lon="103.3653602"><ele>1441.77</ele><time>2025-09-13T03:46:35.000Z</time></trkpt>
        <trkpt lat="29.5752243" lon="103.3653101"><ele>1443.63</ele><time>2025-09-13T03:46:41.000Z</time></trkpt>
        <trkpt lat="29.5752021" lon="103.3653335"><ele>1444.21</ele><time>2025-09-13T03:46:57.000Z</time></trkpt>
        <trkpt lat="29.5751613" lon="103.3653284"><ele>1443.36</ele><time>2025-09-13T03:47:09.000Z</time></trkpt>
        <trkpt lat="29.5751323" lon="103.3652936"><ele>1445.53</ele><time>2025-09-13T03:47:33.000Z</time></trkpt>
        <trkpt lat="29.57514" lon="103.3652454"><ele>1448.8</ele><time>2025-09-13T03:47:43.000Z</time></trkpt>
        <trkpt lat="29.575122" lon="103.3652031"><ele>1451.58</ele><time>2025-09-13T03:48:03.000Z</time></trkpt>
        <trkpt lat="29.5750977" lon="103.3651541"><ele>1454.38</ele><time>2025-09-13T03:48:17.000Z</time></trkpt>
        <trkpt lat="29.5750695" lon="103.365107"><ele>1458</ele><time>2025-09-13T03:48:25.000Z</time></trkpt>
        <trkpt lat="29.5750322" lon="103.3650653"><ele>1459.84</ele><time>2025-09-13T03:48:33.000Z</time></trkpt>
        <trkpt lat="29.5750248" lon="103.3650152"><ele>1461.78</ele><time>2025-09-13T03:48:39.000Z</time></trkpt>
        <trkpt lat="29.5750285" lon="103.3649613"><ele>1463.41</ele><time>2025-09-13T03:48:45.000Z</time></trkpt>
        <trkpt lat="29.5750069" lon="103.3649154"><ele>1465.45</ele><time>2025-09-13T03:48:57.000Z</time></trkpt>
        <trkpt lat="29.574979" lon="103.364873"><ele>1467.27</ele><time>2025-09-13T03:49:13.000Z</time></trkpt>
        <trkpt lat="29.5749595" lon="103.3648193"><ele>1467.43</ele><time>2025-09-13T03:49:25.000Z</time></trkpt>
        <trkpt lat="29.5749261" lon="103.3647832"><ele>1467.47</ele><time>2025-09-13T03:49:37.000Z</time></trkpt>
        <trkpt lat="29.5748911" lon="103.3647426"><ele>1467.15</ele><time>2025-09-13T03:49:47.000Z</time></trkpt>
        <trkpt lat="29.574869" lon="103.3646922"><ele>1468.16</ele><time>2025-09-13T03:49:59.000Z</time></trkpt>
        <trkpt lat="29.5748352" lon="103.3646994"><ele>1469.03</ele><time>2025-09-13T03:50:13.000Z</time></trkpt>
        <trkpt lat="29.5748153" lon="103.364663"><ele>1471.69</ele><time>2025-09-13T03:50:29.000Z</time></trkpt>
        <trkpt lat="29.5748124" lon="103.3646122"><ele>1473.91</ele><time>2025-09-13T03:50:41.000Z</time></trkpt>
        <trkpt lat="29.5747825" lon="103.364583"><ele>1477.26</ele><time>2025-09-13T03:50:57.000Z</time></trkpt>
        <trkpt lat="29.5747412" lon="103.3645486"><ele>1480.24</ele><time>2025-09-13T03:51:27.000Z</time></trkpt>
        <trkpt lat="29.5747379" lon="103.3645026"><ele>1482.7</ele><time>2025-09-13T03:51:35.000Z</time></trkpt>
        <trkpt lat="29.5747067" lon="103.3644676"><ele>1484.89</ele><time>2025-09-13T03:51:47.000Z</time></trkpt>
        <trkpt lat="29.5746821" lon="103.3644222"><ele>1487.57</ele><time>2025-09-13T03:52:09.000Z</time></trkpt>
        <trkpt lat="29.5746832" lon="103.3643691"><ele>1489.6</ele><time>2025-09-13T03:52:29.000Z</time></trkpt>
        <trkpt lat="29.5746867" lon="103.3643148"><ele>1493.07</ele><time>2025-09-13T03:52:39.000Z</time></trkpt>
        <trkpt lat="29.5746595" lon="103.3642743"><ele>1495.52</ele><time>2025-09-13T03:52:47.000Z</time></trkpt>
        <trkpt lat="29.5746238" lon="103.3642391"><ele>1497.22</ele><time>2025-09-13T03:52:57.000Z</time></trkpt>
        <trkpt lat="29.5745773" lon="103.3642081"><ele>1497.94</ele><time>2025-09-13T03:53:07.000Z</time></trkpt>
        <trkpt lat="29.5745308" lon="103.3641751"><ele>1499.97</ele><time>2025-09-13T03:53:19.000Z</time></trkpt>
        <trkpt lat="29.5744864" lon="103.3641396"><ele>1500.78</ele><time>2025-09-13T03:53:29.000Z</time></trkpt>
        <trkpt lat="29.5744459" lon="103.364101"><ele>1502.58</ele><time>2025-09-13T03:53:39.000Z</time></trkpt>
        <trkpt lat="29.5744263" lon="103.3640426"><ele>1505.04</ele><time>2025-09-13T03:53:47.000Z</time></trkpt>
        <trkpt lat="29.5744276" lon="103.3639802"><ele>1505.44</ele><time>2025-09-13T03:53:55.000Z</time></trkpt>
        <trkpt lat="29.5744353" lon="103.3639229"><ele>1504.88</ele><time>2025-09-13T03:54:07.000Z</time></trkpt>
        <trkpt lat="29.574436" lon="103.3638691"><ele>1506.59</ele><time>2025-09-13T03:54:21.000Z</time></trkpt>
        <trkpt lat="29.5744376" lon="103.3638164"><ele>1507</ele><time>2025-09-13T03:54:31.000Z</time></trkpt>
        <trkpt lat="29.5744096" lon="103.3637742"><ele>1506.94</ele><time>2025-09-13T03:54:43.000Z</time></trkpt>
        <trkpt lat="29.5744083" lon="103.3637242"><ele>1505.68</ele><time>2025-09-13T03:55:03.000Z</time></trkpt>
        <trkpt lat="29.5744389" lon="103.3636892"><ele>1506.61</ele><time>2025-09-13T03:55:17.000Z</time></trkpt>
        <trkpt lat="29.5744812" lon="103.3636562"><ele>1507.06</ele><time>2025-09-13T03:55:35.000Z</time></trkpt>
        <trkpt lat="29.5745237" lon="103.3636184"><ele>1509.45</ele><time>2025-09-13T03:55:55.000Z</time></trkpt>
        <trkpt lat="29.5745716" lon="103.363616"><ele>1511.42</ele><time>2025-09-13T03:56:11.000Z</time></trkpt>
        <trkpt lat="29.5746218" lon="103.3636232"><ele>1513.15</ele><time>2025-09-13T03:56:23.000Z</time></trkpt>
        <trkpt lat="29.5746632" lon="103.3636031"><ele>1516.11</ele><time>2025-09-13T03:56:51.000Z</time></trkpt>
        <trkpt lat="29.5746753" lon="103.3635558"><ele>1520.68</ele><time>2025-09-13T03:56:59.000Z</time></trkpt>
        <trkpt lat="29.5746757" lon="103.3634989"><ele>1523.27</ele><time>2025-09-13T03:57:07.000Z</time></trkpt>
        <trkpt lat="29.5746516" lon="103.36344"><ele>1525.17</ele><time>2025-09-13T03:57:15.000Z</time></trkpt>
        <trkpt lat="29.5746328" lon="103.363381"><ele>1527.33</ele><time>2025-09-13T03:57:23.000Z</time></trkpt>
        <trkpt lat="29.57462" lon="103.3633213"><ele>1527.89</ele><time>2025-09-13T03:57:31.000Z</time></trkpt>
        <trkpt lat="29.5745958" lon="103.363267"><ele>1528.11</ele><time>2025-09-13T03:57:41.000Z</time></trkpt>
        <trkpt lat="29.574581" lon="103.363211"><ele>1527.66</ele><time>2025-09-13T03:57:53.000Z</time></trkpt>
        <trkpt lat="29.5745765" lon="103.3631536"><ele>1527.51</ele><time>2025-09-13T03:58:07.000Z</time></trkpt>
        <trkpt lat="29.5745751" lon="103.3630939"><ele>1525.6</ele><time>2025-09-13T03:58:23.000Z</time></trkpt>
        <trkpt lat="29.574576" lon="103.363039"><ele>1526.03</ele><time>2025-09-13T03:58:41.000Z</time></trkpt>
        <trkpt lat="29.5745528" lon="103.3629954"><ele>1527.33</ele><time>2025-09-13T03:58:59.000Z</time></trkpt>
        <trkpt lat="29.574537" lon="103.3629453"><ele>1529.71</ele><time>2025-09-13T03:59:09.000Z</time></trkpt>
        <trkpt lat="29.5745593" lon="103.3628928"><ele>1532.8</ele><time>2025-09-13T03:59:17.000Z</time></trkpt>
        <trkpt lat="29.5746009" lon="103.3628506"><ele>1535.73</ele><time>2025-09-13T03:59:25.000Z</time></trkpt>
        <trkpt lat="29.5746443" lon="103.362807"><ele>1536.91</ele><time>2025-09-13T03:59:33.000Z</time></trkpt>
        <trkpt lat="29.5746812" lon="103.3627664"><ele>1537.08</ele><time>2025-09-13T03:59:39.000Z</time></trkpt>
        <trkpt lat="29.5747295" lon="103.3627606"><ele>1537.8</ele><time>2025-09-13T03:59:53.000Z</time></trkpt>
        <trkpt lat="29.5747802" lon="103.3627618"><ele>1541.59</ele><time>2025-09-13T04:00:05.000Z</time></trkpt>
        <trkpt lat="29.5748221" lon="103.3627362"><ele>1544.79</ele><time>2025-09-13T04:00:25.000Z</time></trkpt>
        <trkpt lat="29.5748508" lon="103.3626919"><ele>1549.8</ele><time>2025-09-13T04:00:35.000Z</time></trkpt>
        <trkpt lat="29.5748775" lon="103.3626392"><ele>1553.32</ele><time>2025-09-13T04:00:47.000Z</time></trkpt>
        <trkpt lat="29.5748633" lon="103.3625904"><ele>1555.44</ele><time>2025-09-13T04:00:59.000Z</time></trkpt>
        <trkpt lat="29.5748668" lon="103.3625355"><ele>1557.43</ele><time>2025-09-13T04:01:17.000Z</time></trkpt>
        <trkpt lat="29.5748397" lon="103.3624872"><ele>1560.88</ele><time>2025-09-13T04:01:31.000Z</time></trkpt>
        <trkpt lat="29.5747927" lon="103.3624592"><ele>1563.92</ele><time>2025-09-13T04:01:43.000Z</time></trkpt>
        <trkpt lat="29.574744" lon="103.362468"><ele>1565.37</ele><time>2025-09-13T04:01:53.000Z</time></trkpt>
        <trkpt lat="29.5746959" lon="103.362482"><ele>1564.23</ele><time>2025-09-13T04:02:03.000Z</time></trkpt>
        <trkpt lat="29.5746475" lon="103.3624903"><ele>1563.43</ele><time>2025-09-13T04:02:09.000Z</time></trkpt>
        <trkpt lat="29.574601" lon="103.3625088"><ele>1563.59</ele><time>2025-09-13T04:02:15.000Z</time></trkpt>
        <trkpt lat="29.574558" lon="103.3625326"><ele>1564.65</ele><time>2025-09-13T04:02:21.000Z</time></trkpt>
        <trkpt lat="29.5745155" lon="103.3625598"><ele>1566.67</ele><time>2025-09-13T04:02:27.000Z</time></trkpt>
        <trkpt lat="29.5744752" lon="103.3625914"><ele>1567.74</ele><time>2025-09-13T04:02:33.000Z</time></trkpt>
        <trkpt lat="29.5744305" lon="103.3626171"><ele>1568.66</ele><time>2025-09-13T04:02:39.000Z</time></trkpt>
        <trkpt lat="29.5743778" lon="103.3626242"><ele>1568.36</ele><time>2025-09-13T04:02:45.000Z</time></trkpt>
        <trkpt lat="29.5743178" lon="103.3626238"><ele>1566.33</ele><time>2025-09-13T04:02:51.000Z</time></trkpt>
        <trkpt lat="29.5742591" lon="103.36263"><ele>1563.75</ele><time>2025-09-13T04:02:57.000Z</time></trkpt>
        <trkpt lat="29.5742058" lon="103.3626387"><ele>1561.91</ele><time>2025-09-13T04:03:03.000Z</time></trkpt>
        <trkpt lat="29.574152" lon="103.36265"><ele>1559.92</ele><time>2025-09-13T04:03:11.000Z</time></trkpt>
        <trkpt lat="29.5741022" lon="103.3626518"><ele>1558.33</ele><time>2025-09-13T04:03:17.000Z</time></trkpt>
        <trkpt lat="29.5740508" lon="103.3626407"><ele>1557.17</ele><time>2025-09-13T04:03:25.000Z</time></trkpt>
        <trkpt lat="29.5739958" lon="103.3626185"><ele>1555.28</ele><time>2025-09-13T04:03:33.000Z</time></trkpt>
        <trkpt lat="29.5739548" lon="103.3625804"><ele>1554.36</ele><time>2025-09-13T04:03:39.000Z</time></trkpt>
        <trkpt lat="29.5739216" lon="103.3625354"><ele>1553.35</ele><time>2025-09-13T04:03:45.000Z</time></trkpt>
        <trkpt lat="29.5738842" lon="103.3624916"><ele>1554.93</ele><time>2025-09-13T04:03:53.000Z</time></trkpt>
        <trkpt lat="29.5738493" lon="103.3624527"><ele>1556.54</ele><time>2025-09-13T04:03:59.000Z</time></trkpt>
        <trkpt lat="29.5738072" lon="103.362427"><ele>1558.3</ele><time>2025-09-13T04:04:07.000Z</time></trkpt>
        <trkpt lat="29.5737692" lon="103.3623929"><ele>1559.22</ele><time>2025-09-13T04:04:15.000Z</time></trkpt>
        <trkpt lat="29.5737313" lon="103.3623493"><ele>1560.53</ele><time>2025-09-13T04:04:23.000Z</time></trkpt>
        <trkpt lat="29.5736927" lon="103.3623012"><ele>1564.64</ele><time>2025-09-13T04:04:33.000Z</time></trkpt>
        <trkpt lat="29.5736628" lon="103.3622534"><ele>1567.14</ele><time>2025-09-13T04:04:41.000Z</time></trkpt>
        <trkpt lat="29.5736348" lon="103.3622078"><ele>1570.85</ele><time>2025-09-13T04:04:49.000Z</time></trkpt>
        <trkpt lat="29.5736085" lon="103.3621652"><ele>1574.21</ele><time>2025-09-13T04:05:43.000Z</time></trkpt>
        <trkpt lat="29.5736085" lon="103.3621652"><ele>1574.21</ele><time>2025-09-13T04:05:53.000Z</time></trkpt>
        <trkpt lat="29.5735735" lon="103.3621208"><ele>1580.04</ele><time>2025-09-13T04:05:55.000Z</time></trkpt>
        <trkpt lat="29.5735735" lon="103.3621208"><ele>1580.04</ele><time>2025-09-13T04:06:21.000Z</time></trkpt>
        <trkpt lat="29.5735316" lon="103.3620829"><ele>1583</ele><time>2025-09-13T04:06:25.000Z</time></trkpt>
        <trkpt lat="29.5735069" lon="103.3620342"><ele>1584.88</ele><time>2025-09-13T04:06:33.000Z</time></trkpt>
        <trkpt lat="29.5735027" lon="103.3619784"><ele>1586.94</ele><time>2025-09-13T04:06:43.000Z</time></trkpt>
        <trkpt lat="29.5734699" lon="103.3619497"><ele>1589.68</ele><time>2025-09-13T04:07:43.000Z</time></trkpt>
        <trkpt lat="29.573433" lon="103.3619204"><ele>1593.84</ele><time>2025-09-13T04:07:55.000Z</time></trkpt>
        <trkpt lat="29.5733843" lon="103.3618805"><ele>1596.16</ele><time>2025-09-13T04:08:17.000Z</time></trkpt>
        <trkpt lat="29.5733268" lon="103.3618478"><ele>1597.61</ele><time>2025-09-13T04:08:21.000Z</time></trkpt>
        <trkpt lat="29.573271" lon="103.3618344"><ele>1600</ele><time>2025-09-13T04:08:25.000Z</time></trkpt>
        <trkpt lat="29.5732315" lon="103.3618058"><ele>1602.4</ele><time>2025-09-13T04:08:29.000Z</time></trkpt>
        <trkpt lat="29.5732027" lon="103.3617548"><ele>1604.75</ele><time>2025-09-13T04:08:37.000Z</time></trkpt>
        <trkpt lat="29.573161" lon="103.3617277"><ele>1608.58</ele><time>2025-09-13T04:08:47.000Z</time></trkpt>
        <trkpt lat="29.5731155" lon="103.3617006"><ele>1610.8</ele><time>2025-09-13T04:08:55.000Z</time></trkpt>
        <trkpt lat="29.5730625" lon="103.361682"><ele>1612.55</ele><time>2025-09-13T04:09:03.000Z</time></trkpt>
        <trkpt lat="29.5730152" lon="103.36166"><ele>1613.11</ele><time>2025-09-13T04:09:11.000Z</time></trkpt>
        <trkpt lat="29.5729694" lon="103.3616473"><ele>1613.12</ele><time>2025-09-13T04:09:27.000Z</time></trkpt>
        <trkpt lat="29.5729194" lon="103.3616337"><ele>1611.54</ele><time>2025-09-13T04:09:33.000Z</time></trkpt>
        <trkpt lat="29.5728731" lon="103.3616445"><ele>1609.98</ele><time>2025-09-13T04:09:41.000Z</time></trkpt>
        <trkpt lat="29.5728198" lon="103.3616342"><ele>1608.55</ele><time>2025-09-13T04:09:49.000Z</time></trkpt>
        <trkpt lat="29.5727681" lon="103.3616361"><ele>1608.58</ele><time>2025-09-13T04:09:57.000Z</time></trkpt>
        <trkpt lat="29.572714" lon="103.3616485"><ele>1608.95</ele><time>2025-09-13T04:10:05.000Z</time></trkpt>
        <trkpt lat="29.5726639" lon="103.3616499"><ele>1608.21</ele><time>2025-09-13T04:10:13.000Z</time></trkpt>
        <trkpt lat="29.5726105" lon="103.3616629"><ele>1609.35</ele><time>2025-09-13T04:10:21.000Z</time></trkpt>
        <trkpt lat="29.5725611" lon="103.3616845"><ele>1610.25</ele><time>2025-09-13T04:10:29.000Z</time></trkpt>
        <trkpt lat="29.5725229" lon="103.3617171"><ele>1609.51</ele><time>2025-09-13T04:10:39.000Z</time></trkpt>
        <trkpt lat="29.5724873" lon="103.3617518"><ele>1607.96</ele><time>2025-09-13T04:10:51.000Z</time></trkpt>
        <trkpt lat="29.5724438" lon="103.3617691"><ele>1608.08</ele><time>2025-09-13T04:11:03.000Z</time></trkpt>
        <trkpt lat="29.5723987" lon="103.361778"><ele>1608.31</ele><time>2025-09-13T04:11:17.000Z</time></trkpt>
        <trkpt lat="29.5723523" lon="103.3617721"><ele>1607.35</ele><time>2025-09-13T04:11:29.000Z</time></trkpt>
        <trkpt lat="29.5723074" lon="103.3617588"><ele>1607.9</ele><time>2025-09-13T04:11:53.000Z</time></trkpt>
        <trkpt lat="29.5722612" lon="103.3617624"><ele>1611.16</ele><time>2025-09-13T04:12:07.000Z</time></trkpt>
        <trkpt lat="29.5722144" lon="103.3617785"><ele>1615.79</ele><time>2025-09-13T04:12:25.000Z</time></trkpt>
        <trkpt lat="29.5721709" lon="103.3618041"><ele>1620.25</ele><time>2025-09-13T04:12:43.000Z</time></trkpt>
        <trkpt lat="29.5721248" lon="103.3618281"><ele>1624.51</ele><time>2025-09-13T04:12:59.000Z</time></trkpt>
        <trkpt lat="29.572074" lon="103.3618201"><ele>1626.69</ele><time>2025-09-13T04:13:11.000Z</time></trkpt>
        <trkpt lat="29.5720216" lon="103.3618062"><ele>1628.27</ele><time>2025-09-13T04:13:21.000Z</time></trkpt>
        <trkpt lat="29.571972" lon="103.3617923"><ele>1629.56</ele><time>2025-09-13T04:13:41.000Z</time></trkpt>
        <trkpt lat="29.5719266" lon="103.3617976"><ele>1631.64</ele><time>2025-09-13T04:13:59.000Z</time></trkpt>
        <trkpt lat="29.5718797" lon="103.3618125"><ele>1634.34</ele><time>2025-09-13T04:14:15.000Z</time></trkpt>
        <trkpt lat="29.5718387" lon="103.3617952"><ele>1637.57</ele><time>2025-09-13T04:14:33.000Z</time></trkpt>
        <trkpt lat="29.5717934" lon="103.3617696"><ele>1641.62</ele><time>2025-09-13T04:14:53.000Z</time></trkpt>
        <trkpt lat="29.5717455" lon="103.3617699"><ele>1647.56</ele><time>2025-09-13T04:15:05.000Z</time></trkpt>
        <trkpt lat="29.5716988" lon="103.3617854"><ele>1651.26</ele><time>2025-09-13T04:15:15.000Z</time></trkpt>
        <trkpt lat="29.5716564" lon="103.3618168"><ele>1655.45</ele><time>2025-09-13T04:15:23.000Z</time></trkpt>
        <trkpt lat="29.5716077" lon="103.361824"><ele>1657.81</ele><time>2025-09-13T04:15:31.000Z</time></trkpt>
        <trkpt lat="29.5715574" lon="103.3618023"><ele>1659.59</ele><time>2025-09-13T04:15:39.000Z</time></trkpt>
        <trkpt lat="29.5715067" lon="103.3617731"><ele>1662.03</ele><time>2025-09-13T04:15:47.000Z</time></trkpt>
        <trkpt lat="29.5714582" lon="103.3617426"><ele>1663.88</ele><time>2025-09-13T04:15:55.000Z</time></trkpt>
        <trkpt lat="29.5714165" lon="103.3617074"><ele>1664.46</ele><time>2025-09-13T04:16:01.000Z</time></trkpt>
        <trkpt lat="29.5713759" lon="103.3616759"><ele>1662.94</ele><time>2025-09-13T04:16:07.000Z</time></trkpt>
        <trkpt lat="29.5713292" lon="103.3616704"><ele>1661.71</ele><time>2025-09-13T04:16:13.000Z</time></trkpt>
        <trkpt lat="29.5712824" lon="103.3616863"><ele>1660.99</ele><time>2025-09-13T04:16:19.000Z</time></trkpt>
        <trkpt lat="29.5712358" lon="103.3616952"><ele>1660.58</ele><time>2025-09-13T04:16:25.000Z</time></trkpt>
        <trkpt lat="29.5711869" lon="103.361697"><ele>1660.03</ele><time>2025-09-13T04:16:33.000Z</time></trkpt>
        <trkpt lat="29.5711525" lon="103.3616619"><ele>1659.22</ele><time>2025-09-13T04:16:41.000Z</time></trkpt>
        <trkpt lat="29.5711111" lon="103.3616272"><ele>1658.47</ele><time>2025-09-13T04:16:49.000Z</time></trkpt>
        <trkpt lat="29.5710693" lon="103.3615966"><ele>1658.43</ele><time>2025-09-13T04:16:59.000Z</time></trkpt>
        <trkpt lat="29.5710267" lon="103.361567"><ele>1658</ele><time>2025-09-13T04:17:09.000Z</time></trkpt>
        <trkpt lat="29.5709761" lon="103.3615508"><ele>1658.16</ele><time>2025-09-13T04:17:17.000Z</time></trkpt>
        <trkpt lat="29.5709294" lon="103.3615344"><ele>1658.77</ele><time>2025-09-13T04:17:25.000Z</time></trkpt>
        <trkpt lat="29.5708859" lon="103.3615145"><ele>1658.84</ele><time>2025-09-13T04:17:37.000Z</time></trkpt>
        <trkpt lat="29.5708502" lon="103.361478"><ele>1659.1</ele><time>2025-09-13T04:17:43.000Z</time></trkpt>
        <trkpt lat="29.5708215" lon="103.3614272"><ele>1659.78</ele><time>2025-09-13T04:17:51.000Z</time></trkpt>
        <trkpt lat="29.5707691" lon="103.3614026"><ele>1661.28</ele><time>2025-09-13T04:18:03.000Z</time></trkpt>
        <trkpt lat="29.5707184" lon="103.3613987"><ele>1662.03</ele><time>2025-09-13T04:18:11.000Z</time></trkpt>
        <trkpt lat="29.5706641" lon="103.3613884"><ele>1661.77</ele><time>2025-09-13T04:18:19.000Z</time></trkpt>
        <trkpt lat="29.57061" lon="103.3613832"><ele>1661.94</ele><time>2025-09-13T04:18:27.000Z</time></trkpt>
        <trkpt lat="29.5705586" lon="103.36137"><ele>1662.04</ele><time>2025-09-13T04:18:33.000Z</time></trkpt>
        <trkpt lat="29.5705144" lon="103.3613491"><ele>1662.65</ele><time>2025-09-13T04:18:37.000Z</time></trkpt>
        <trkpt lat="29.5704609" lon="103.3613389"><ele>1663.65</ele><time>2025-09-13T04:18:43.000Z</time></trkpt>
        <trkpt lat="29.5704117" lon="103.3613135"><ele>1664.02</ele><time>2025-09-13T04:18:49.000Z</time></trkpt>
        <trkpt lat="29.5703728" lon="103.3612795"><ele>1663.41</ele><time>2025-09-13T04:18:55.000Z</time></trkpt>
        <trkpt lat="29.5703254" lon="103.3612598"><ele>1662.83</ele><time>2025-09-13T04:19:01.000Z</time></trkpt>
        <trkpt lat="29.5702705" lon="103.3612332"><ele>1662.89</ele><time>2025-09-13T04:19:07.000Z</time></trkpt>
        <trkpt lat="29.5702192" lon="103.3612254"><ele>1663.38</ele><time>2025-09-13T04:19:13.000Z</time></trkpt>
        <trkpt lat="29.5701695" lon="103.3612191"><ele>1663.69</ele><time>2025-09-13T04:19:19.000Z</time></trkpt>
        <trkpt lat="29.570124" lon="103.361209"><ele>1663.67</ele><time>2025-09-13T04:19:25.000Z</time></trkpt>
        <trkpt lat="29.5700781" lon="103.3612092"><ele>1663.99</ele><time>2025-09-13T04:19:31.000Z</time></trkpt>
        <trkpt lat="29.5700318" lon="103.361198"><ele>1664.71</ele><time>2025-09-13T04:19:37.000Z</time></trkpt>
        <trkpt lat="29.569987" lon="103.3611812"><ele>1665.87</ele><time>2025-09-13T04:19:47.000Z</time></trkpt>
        <trkpt lat="29.5699641" lon="103.3611359"><ele>1666.03</ele><time>2025-09-13T04:19:57.000Z</time></trkpt>
        <trkpt lat="29.5699567" lon="103.3610817"><ele>1665.39</ele><time>2025-09-13T04:20:07.000Z</time></trkpt>
        <trkpt lat="29.5699283" lon="103.3610339"><ele>1666.19</ele><time>2025-09-13T04:20:17.000Z</time></trkpt>
        <trkpt lat="29.5698821" lon="103.3610072"><ele>1665.59</ele><time>2025-09-13T04:20:25.000Z</time></trkpt>
        <trkpt lat="29.5698252" lon="103.3610003"><ele>1665.97</ele><time>2025-09-13T04:20:33.000Z</time></trkpt>
        <trkpt lat="29.5697757" lon="103.36098"><ele>1668.05</ele><time>2025-09-13T04:20:41.000Z</time></trkpt>
        <trkpt lat="29.5697321" lon="103.360943"><ele>1671.38</ele><time>2025-09-13T04:20:51.000Z</time></trkpt>
        <trkpt lat="29.5696846" lon="103.3609099"><ele>1673.48</ele><time>2025-09-13T04:20:57.000Z</time></trkpt>
        <trkpt lat="29.5696443" lon="103.3608692"><ele>1675.64</ele><time>2025-09-13T04:21:03.000Z</time></trkpt>
        <trkpt lat="29.5696" lon="103.3608281"><ele>1676.91</ele><time>2025-09-13T04:21:09.000Z</time></trkpt>
        <trkpt lat="29.5695558" lon="103.3607932"><ele>1677.38</ele><time>2025-09-13T04:21:15.000Z</time></trkpt>
        <trkpt lat="29.5695078" lon="103.360768"><ele>1677.23</ele><time>2025-09-13T04:21:21.000Z</time></trkpt>
        <trkpt lat="29.5694607" lon="103.3607501"><ele>1676.87</ele><time>2025-09-13T04:21:27.000Z</time></trkpt>
        <trkpt lat="29.5694191" lon="103.3607274"><ele>1676.57</ele><time>2025-09-13T04:21:33.000Z</time></trkpt>
        <trkpt lat="29.5693864" lon="103.360692"><ele>1677.08</ele><time>2025-09-13T04:21:39.000Z</time></trkpt>
        <trkpt lat="29.5693483" lon="103.3606512"><ele>1676.36</ele><time>2025-09-13T04:21:47.000Z</time></trkpt>
        <trkpt lat="29.5693093" lon="103.3606033"><ele>1675.93</ele><time>2025-09-13T04:21:55.000Z</time></trkpt>
        <trkpt lat="29.5692685" lon="103.3605656"><ele>1675.89</ele><time>2025-09-13T04:22:03.000Z</time></trkpt>
        <trkpt lat="29.5692269" lon="103.3605339"><ele>1676.21</ele><time>2025-09-13T04:22:11.000Z</time></trkpt>
        <trkpt lat="29.5691897" lon="103.3604962"><ele>1675.97</ele><time>2025-09-13T04:22:19.000Z</time></trkpt>
        <trkpt lat="29.5691503" lon="103.3604532"><ele>1676.18</ele><time>2025-09-13T04:22:29.000Z</time></trkpt>
        <trkpt lat="29.5691179" lon="103.3604083"><ele>1677.34</ele><time>2025-09-13T04:22:41.000Z</time></trkpt>
        <trkpt lat="29.569078" lon="103.360374"><ele>1679.84</ele><time>2025-09-13T04:22:51.000Z</time></trkpt>
        <trkpt lat="29.5690319" lon="103.3603401"><ele>1680.91</ele><time>2025-09-13T04:23:01.000Z</time></trkpt>
        <trkpt lat="29.5689831" lon="103.3603095"><ele>1681.59</ele><time>2025-09-13T04:23:09.000Z</time></trkpt>
        <trkpt lat="29.5689347" lon="103.3602875"><ele>1683.15</ele><time>2025-09-13T04:23:19.000Z</time></trkpt>
        <trkpt lat="29.5688929" lon="103.3602583"><ele>1683.3</ele><time>2025-09-13T04:23:29.000Z</time></trkpt>
        <trkpt lat="29.5688549" lon="103.3602166"><ele>1683.71</ele><time>2025-09-13T04:23:39.000Z</time></trkpt>
        <trkpt lat="29.56883" lon="103.360169"><ele>1684.66</ele><time>2025-09-13T04:23:47.000Z</time></trkpt>
        <trkpt lat="29.5688103" lon="103.3601145"><ele>1685.62</ele><time>2025-09-13T04:23:57.000Z</time></trkpt>
        <trkpt lat="29.5687984" lon="103.3600529"><ele>1686.37</ele><time>2025-09-13T04:24:07.000Z</time></trkpt>
        <trkpt lat="29.5687911" lon="103.3599943"><ele>1686.39</ele><time>2025-09-13T04:24:15.000Z</time></trkpt>
        <trkpt lat="29.5688002" lon="103.3599339"><ele>1687.78</ele><time>2025-09-13T04:24:23.000Z</time></trkpt>
        <trkpt lat="29.5688124" lon="103.3598694"><ele>1689.58</ele><time>2025-09-13T04:24:31.000Z</time></trkpt>
        <trkpt lat="29.5688181" lon="103.3598092"><ele>1690.56</ele><time>2025-09-13T04:24:37.000Z</time></trkpt>
        <trkpt lat="29.5688082" lon="103.3597535"><ele>1691.71</ele><time>2025-09-13T04:24:43.000Z</time></trkpt>
        <trkpt lat="29.5687854" lon="103.3597027"><ele>1692.07</ele><time>2025-09-13T04:24:51.000Z</time></trkpt>
        <trkpt lat="29.5687458" lon="103.3596685"><ele>1692.93</ele><time>2025-09-13T04:24:57.000Z</time></trkpt>
        <trkpt lat="29.5686885" lon="103.3596643"><ele>1692.94</ele><time>2025-09-13T04:25:05.000Z</time></trkpt>
        <trkpt lat="29.5686279" lon="103.359662"><ele>1693.58</ele><time>2025-09-13T04:25:13.000Z</time></trkpt>
        <trkpt lat="29.5685715" lon="103.3596744"><ele>1693.24</ele><time>2025-09-13T04:25:19.000Z</time></trkpt>
        <trkpt lat="29.5685213" lon="103.3596761"><ele>1693.62</ele><time>2025-09-13T04:25:25.000Z</time></trkpt>
        <trkpt lat="29.5684777" lon="103.3596302"><ele>1694.14</ele><time>2025-09-13T04:25:31.000Z</time></trkpt>
        <trkpt lat="29.5684214" lon="103.3596296"><ele>1694.16</ele><time>2025-09-13T04:25:37.000Z</time></trkpt>
        <trkpt lat="29.5683811" lon="103.3596677"><ele>1695.11</ele><time>2025-09-13T04:25:43.000Z</time></trkpt>
        <trkpt lat="29.5683386" lon="103.3596877"><ele>1695.69</ele><time>2025-09-13T04:25:49.000Z</time></trkpt>
        <trkpt lat="29.5682908" lon="103.3596976"><ele>1696.75</ele><time>2025-09-13T04:25:55.000Z</time></trkpt>
        <trkpt lat="29.5682436" lon="103.3597043"><ele>1697.54</ele><time>2025-09-13T04:26:01.000Z</time></trkpt>
        <trkpt lat="29.5682125" lon="103.3596667"><ele>1697.52</ele><time>2025-09-13T04:26:09.000Z</time></trkpt>
        <trkpt lat="29.5681936" lon="103.3596113"><ele>1698.06</ele><time>2025-09-13T04:26:15.000Z</time></trkpt>
        <trkpt lat="29.5681786" lon="103.359548"><ele>1698.85</ele><time>2025-09-13T04:26:23.000Z</time></trkpt>
        <trkpt lat="29.5681358" lon="103.3595125"><ele>1698.43</ele><time>2025-09-13T04:26:29.000Z</time></trkpt>
        <trkpt lat="29.5680897" lon="103.3595205"><ele>1698.28</ele><time>2025-09-13T04:26:35.000Z</time></trkpt>
        <trkpt lat="29.5680371" lon="103.3595468"><ele>1698.18</ele><time>2025-09-13T04:26:41.000Z</time></trkpt>
        <trkpt lat="29.5679855" lon="103.3595698"><ele>1697.66</ele><time>2025-09-13T04:26:47.000Z</time></trkpt>
        <trkpt lat="29.5679338" lon="103.359584"><ele>1698.52</ele><time>2025-09-13T04:26:53.000Z</time></trkpt>
        <trkpt lat="29.5678819" lon="103.3595847"><ele>1699.31</ele><time>2025-09-13T04:26:59.000Z</time></trkpt>
        <trkpt lat="29.5678336" lon="103.3595875"><ele>1699.53</ele><time>2025-09-13T04:27:05.000Z</time></trkpt>
        <trkpt lat="29.5677903" lon="103.3595641"><ele>1698.41</ele><time>2025-09-13T04:27:11.000Z</time></trkpt>
        <trkpt lat="29.5677574" lon="103.3595204"><ele>1697.64</ele><time>2025-09-13T04:27:17.000Z</time></trkpt>
        <trkpt lat="29.5677206" lon="103.3594878"><ele>1697.35</ele><time>2025-09-13T04:27:23.000Z</time></trkpt>
        <trkpt lat="29.5676786" lon="103.3594688"><ele>1696.91</ele><time>2025-09-13T04:27:29.000Z</time></trkpt>
        <trkpt lat="29.567624" lon="103.3594559"><ele>1698.49</ele><time>2025-09-13T04:27:37.000Z</time></trkpt>
        <trkpt lat="29.5675687" lon="103.3594367"><ele>1699.37</ele><time>2025-09-13T04:27:45.000Z</time></trkpt>
        <trkpt lat="29.5675242" lon="103.3594088"><ele>1700.08</ele><time>2025-09-13T04:27:55.000Z</time></trkpt>
        <trkpt lat="29.5674784" lon="103.3593833"><ele>1701.31</ele><time>2025-09-13T04:28:03.000Z</time></trkpt>
        <trkpt lat="29.5674334" lon="103.3593962"><ele>1703.29</ele><time>2025-09-13T04:28:13.000Z</time></trkpt>
        <trkpt lat="29.5673891" lon="103.3594285"><ele>1704.18</ele><time>2025-09-13T04:28:25.000Z</time></trkpt>
        <trkpt lat="29.5673415" lon="103.3594585"><ele>1705.07</ele><time>2025-09-13T04:28:37.000Z</time></trkpt>
        <trkpt lat="29.5672936" lon="103.3594709"><ele>1705.07</ele><time>2025-09-13T04:28:47.000Z</time></trkpt>
        <trkpt lat="29.5672475" lon="103.3594748"><ele>1705.44</ele><time>2025-09-13T04:28:57.000Z</time></trkpt>
        <trkpt lat="29.5671998" lon="103.3594708"><ele>1705.69</ele><time>2025-09-13T04:29:07.000Z</time></trkpt>
        <trkpt lat="29.5671519" lon="103.3594666"><ele>1706.34</ele><time>2025-09-13T04:29:23.000Z</time></trkpt>
        <trkpt lat="29.5671028" lon="103.3594612"><ele>1704.17</ele><time>2025-09-13T04:29:35.000Z</time></trkpt>
        <trkpt lat="29.5670562" lon="103.3594396"><ele>1703.84</ele><time>2025-09-13T04:29:49.000Z</time></trkpt>
        <trkpt lat="29.567014" lon="103.3594051"><ele>1706.45</ele><time>2025-09-13T04:30:05.000Z</time></trkpt>
        <trkpt lat="29.566969" lon="103.3593812"><ele>1709.6</ele><time>2025-09-13T04:30:23.000Z</time></trkpt>
        <trkpt lat="29.5669215" lon="103.3593624"><ele>1712.37</ele><time>2025-09-13T04:30:35.000Z</time></trkpt>
        <trkpt lat="29.5668734" lon="103.3593419"><ele>1715.12</ele><time>2025-09-13T04:30:47.000Z</time></trkpt>
        <trkpt lat="29.5668289" lon="103.3593104"><ele>1717.92</ele><time>2025-09-13T04:30:57.000Z</time></trkpt>
        <trkpt lat="29.566788" lon="103.3592715"><ele>1719.18</ele><time>2025-09-13T04:31:19.000Z</time></trkpt>
        <trkpt lat="29.5667549" lon="103.3592251"><ele>1720.1</ele><time>2025-09-13T04:31:27.000Z</time></trkpt>
        <trkpt lat="29.566718" lon="103.3591924"><ele>1720.82</ele><time>2025-09-13T04:31:35.000Z</time></trkpt>
        <trkpt lat="29.5666777" lon="103.3591665"><ele>1720.87</ele><time>2025-09-13T04:31:43.000Z</time></trkpt>
        <trkpt lat="29.5666374" lon="103.3591345"><ele>1721.76</ele><time>2025-09-13T04:31:51.000Z</time></trkpt>
        <trkpt lat="29.566594" lon="103.359106"><ele>1721.41</ele><time>2025-09-13T04:31:59.000Z</time></trkpt>
        <trkpt lat="29.5665502" lon="103.359084"><ele>1720.53</ele><time>2025-09-13T04:32:07.000Z</time></trkpt>
        <trkpt lat="29.5665134" lon="103.3590466"><ele>1721.03</ele><time>2025-09-13T04:32:15.000Z</time></trkpt>
        <trkpt lat="29.5664729" lon="103.3590056"><ele>1722.48</ele><time>2025-09-13T04:32:25.000Z</time></trkpt>
        <trkpt lat="29.5664393" lon="103.3589654"><ele>1724.22</ele><time>2025-09-13T04:32:35.000Z</time></trkpt>
        <trkpt lat="29.5664015" lon="103.3589348"><ele>1724.65</ele><time>2025-09-13T04:32:47.000Z</time></trkpt>
        <trkpt lat="29.5663686" lon="103.3588996"><ele>1724.5</ele><time>2025-09-13T04:32:57.000Z</time></trkpt>
        <trkpt lat="29.5663321" lon="103.3588646"><ele>1726.42</ele><time>2025-09-13T04:33:07.000Z</time></trkpt>
        <trkpt lat="29.5663044" lon="103.3588223"><ele>1728.45</ele><time>2025-09-13T04:33:17.000Z</time></trkpt>
        <trkpt lat="29.5662735" lon="103.3587778"><ele>1730.37</ele><time>2025-09-13T04:33:27.000Z</time></trkpt>
        <trkpt lat="29.5662442" lon="103.3587361"><ele>1731.91</ele><time>2025-09-13T04:33:37.000Z</time></trkpt>
        <trkpt lat="29.5662194" lon="103.3586858"><ele>1733.57</ele><time>2025-09-13T04:33:49.000Z</time></trkpt>
        <trkpt lat="29.5661961" lon="103.3586331"><ele>1733.77</ele><time>2025-09-13T04:34:03.000Z</time></trkpt>
        <trkpt lat="29.56618" lon="103.358582"><ele>1736.79</ele><time>2025-09-13T04:34:15.000Z</time></trkpt>
        <trkpt lat="29.5661834" lon="103.3585237"><ele>1740.39</ele><time>2025-09-13T04:34:27.000Z</time></trkpt>
        <trkpt lat="29.5661853" lon="103.358465"><ele>1743.33</ele><time>2025-09-13T04:34:39.000Z</time></trkpt>
        <trkpt lat="29.5661991" lon="103.358413"><ele>1746.61</ele><time>2025-09-13T04:34:49.000Z</time></trkpt>
        <trkpt lat="29.5662069" lon="103.3583612"><ele>1749.01</ele><time>2025-09-13T04:35:01.000Z</time></trkpt>
        <trkpt lat="29.566222" lon="103.3583085"><ele>1752.5</ele><time>2025-09-13T04:35:13.000Z</time></trkpt>
        <trkpt lat="29.566205" lon="103.3582458"><ele>1755.65</ele><time>2025-09-13T04:35:27.000Z</time></trkpt>
        <trkpt lat="29.5661848" lon="103.3581889"><ele>1757.06</ele><time>2025-09-13T04:35:35.000Z</time></trkpt>
        <trkpt lat="29.5661946" lon="103.3581357"><ele>1757.5</ele><time>2025-09-13T04:35:41.000Z</time></trkpt>
        <trkpt lat="29.5661717" lon="103.3581005"><ele>1758.26</ele><time>2025-09-13T04:36:07.000Z</time></trkpt>
        <trkpt lat="29.5661475" lon="103.3580562"><ele>1760.62</ele><time>2025-09-13T04:36:23.000Z</time></trkpt>
        <trkpt lat="29.5661288" lon="103.3580039"><ele>1762.79</ele><time>2025-09-13T04:36:37.000Z</time></trkpt>
        <trkpt lat="29.5660979" lon="103.3579568"><ele>1765.12</ele><time>2025-09-13T04:36:51.000Z</time></trkpt>
        <trkpt lat="29.566065" lon="103.3579061"><ele>1767.32</ele><time>2025-09-13T04:37:05.000Z</time></trkpt>
        <trkpt lat="29.5660361" lon="103.3578575"><ele>1769.22</ele><time>2025-09-13T04:37:19.000Z</time></trkpt>
        <trkpt lat="29.5660193" lon="103.3578029"><ele>1771.35</ele><time>2025-09-13T04:37:31.000Z</time></trkpt>
        <trkpt lat="29.5660025" lon="103.3577488"><ele>1773.61</ele><time>2025-09-13T04:37:41.000Z</time></trkpt>
        <trkpt lat="29.5659934" lon="103.3576907"><ele>1774.91</ele><time>2025-09-13T04:37:53.000Z</time></trkpt>
        <trkpt lat="29.5659831" lon="103.3576383"><ele>1775.48</ele><time>2025-09-13T04:38:03.000Z</time></trkpt>
        <trkpt lat="29.5659821" lon="103.3575837"><ele>1775.39</ele><time>2025-09-13T04:38:15.000Z</time></trkpt>
        <trkpt lat="29.5659642" lon="103.3575339"><ele>1777.08</ele><time>2025-09-13T04:38:29.000Z</time></trkpt>
        <trkpt lat="29.5659278" lon="103.3575023"><ele>1776.81</ele><time>2025-09-13T04:38:41.000Z</time></trkpt>
        <trkpt lat="29.5658845" lon="103.357472"><ele>1778.35</ele><time>2025-09-13T04:38:55.000Z</time></trkpt>
        <trkpt lat="29.5658366" lon="103.3574457"><ele>1781.6</ele><time>2025-09-13T04:39:09.000Z</time></trkpt>
        <trkpt lat="29.5657873" lon="103.3574201"><ele>1783.91</ele><time>2025-09-13T04:39:21.000Z</time></trkpt>
        <trkpt lat="29.5657455" lon="103.3573884"><ele>1786.58</ele><time>2025-09-13T04:39:31.000Z</time></trkpt>
        <trkpt lat="29.5657051" lon="103.3573619"><ele>1788.71</ele><time>2025-09-13T04:39:39.000Z</time></trkpt>
        <trkpt lat="29.565667" lon="103.3573221"><ele>1790.57</ele><time>2025-09-13T04:39:47.000Z</time></trkpt>
        <trkpt lat="29.5656301" lon="103.357275"><ele>1793.07</ele><time>2025-09-13T04:39:55.000Z</time></trkpt>
        <trkpt lat="29.565599" lon="103.3572298"><ele>1794.54</ele><time>2025-09-13T04:40:03.000Z</time></trkpt>
        <trkpt lat="29.5655705" lon="103.3571868"><ele>1794.61</ele><time>2025-09-13T04:40:11.000Z</time></trkpt>
        <trkpt lat="29.565549" lon="103.357137"><ele>1795.79</ele><time>2025-09-13T04:40:23.000Z</time></trkpt>
        <trkpt lat="29.5655192" lon="103.3570903"><ele>1796.17</ele><time>2025-09-13T04:40:35.000Z</time></trkpt>
        <trkpt lat="29.5654912" lon="103.3570418"><ele>1797.31</ele><time>2025-09-13T04:40:47.000Z</time></trkpt>
        <trkpt lat="29.5654635" lon="103.3569911"><ele>1798.58</ele><time>2025-09-13T04:41:03.000Z</time></trkpt>
        <trkpt lat="29.5654327" lon="103.3569506"><ele>1799.74</ele><time>2025-09-13T04:41:15.000Z</time></trkpt>
        <trkpt lat="29.5654085" lon="103.3569022"><ele>1800.42</ele><time>2025-09-13T04:41:33.000Z</time></trkpt>
        <trkpt lat="29.5653955" lon="103.3568506"><ele>1801.59</ele><time>2025-09-13T04:41:49.000Z</time></trkpt>
        <trkpt lat="29.5653647" lon="103.3568066"><ele>1803.34</ele><time>2025-09-13T04:42:07.000Z</time></trkpt>
        <trkpt lat="29.5653215" lon="103.3567906"><ele>1806.72</ele><time>2025-09-13T04:42:23.000Z</time></trkpt>
        <trkpt lat="29.5652709" lon="103.356772"><ele>1809.61</ele><time>2025-09-13T04:42:33.000Z</time></trkpt>
        <trkpt lat="29.565225" lon="103.356752"><ele>1811.82</ele><time>2025-09-13T04:42:57.000Z</time></trkpt>
        <trkpt lat="29.5651863" lon="103.3567099"><ele>1813.41</ele><time>2025-09-13T04:43:13.000Z</time></trkpt>
        <trkpt lat="29.56514" lon="103.3566853"><ele>1814.2</ele><time>2025-09-13T04:43:35.000Z</time></trkpt>
        <trkpt lat="29.5650961" lon="103.3566595"><ele>1814.51</ele><time>2025-09-13T04:43:45.000Z</time></trkpt>
        <trkpt lat="29.565054" lon="103.3566305"><ele>1815.64</ele><time>2025-09-13T04:43:55.000Z</time></trkpt>
        <trkpt lat="29.56501" lon="103.3565986"><ele>1817.35</ele><time>2025-09-13T04:44:03.000Z</time></trkpt>
        <trkpt lat="29.5649642" lon="103.3565919"><ele>1818.18</ele><time>2025-09-13T04:44:11.000Z</time></trkpt>
        <trkpt lat="29.5649166" lon="103.3565804"><ele>1819.75</ele><time>2025-09-13T04:44:21.000Z</time></trkpt>
        <trkpt lat="29.5648699" lon="103.3565632"><ele>1821.41</ele><time>2025-09-13T04:44:33.000Z</time></trkpt>
        <trkpt lat="29.5648374" lon="103.3565185"><ele>1821.14</ele><time>2025-09-13T04:44:41.000Z</time></trkpt>
        <trkpt lat="29.5648041" lon="103.3564804"><ele>1821.3</ele><time>2025-09-13T04:44:47.000Z</time></trkpt>
        <trkpt lat="29.56478" lon="103.3564308"><ele>1821.2</ele><time>2025-09-13T04:44:55.000Z</time></trkpt>
        <trkpt lat="29.5647424" lon="103.3563841"><ele>1822.27</ele><time>2025-09-13T04:45:09.000Z</time></trkpt>
        <trkpt lat="29.5647389" lon="103.356332"><ele>1821.92</ele><time>2025-09-13T04:45:17.000Z</time></trkpt>
        <trkpt lat="29.5647217" lon="103.3562737"><ele>1822.62</ele><time>2025-09-13T04:45:27.000Z</time></trkpt>
        <trkpt lat="29.5646802" lon="103.356232"><ele>1824.1</ele><time>2025-09-13T04:45:35.000Z</time></trkpt>
        <trkpt lat="29.5646323" lon="103.3561933"><ele>1825.53</ele><time>2025-09-13T04:45:43.000Z</time></trkpt>
        <trkpt lat="29.5646283" lon="103.3561359"><ele>1826.33</ele><time>2025-09-13T04:45:51.000Z</time></trkpt>
        <trkpt lat="29.5646138" lon="103.3560762"><ele>1828.09</ele><time>2025-09-13T04:45:59.000Z</time></trkpt>
        <trkpt lat="29.5645821" lon="103.3560384"><ele>1830.57</ele><time>2025-09-13T04:46:09.000Z</time></trkpt>
        <trkpt lat="29.5645333" lon="103.3560352"><ele>1832.72</ele><time>2025-09-13T04:46:19.000Z</time></trkpt>
        <trkpt lat="29.5644956" lon="103.356072"><ele>1835.13</ele><time>2025-09-13T04:46:35.000Z</time></trkpt>
        <trkpt lat="29.5644722" lon="103.3561251"><ele>1835.5</ele><time>2025-09-13T04:46:53.000Z</time></trkpt>
        <trkpt lat="29.5644605" lon="103.3561831"><ele>1838.21</ele><time>2025-09-13T04:47:09.000Z</time></trkpt>
        <trkpt lat="29.5644224" lon="103.3562048"><ele>1841.66</ele><time>2025-09-13T04:47:19.000Z</time></trkpt>
        <trkpt lat="29.5643781" lon="103.3561853"><ele>1842.39</ele><time>2025-09-13T04:47:29.000Z</time></trkpt>
        <trkpt lat="29.5643352" lon="103.3561513"><ele>1844.73</ele><time>2025-09-13T04:47:39.000Z</time></trkpt>
        <trkpt lat="29.5643212" lon="103.3561776"><ele>1847.45</ele><time>2025-09-13T04:47:51.000Z</time></trkpt>
        <trkpt lat="29.5643474" lon="103.3562205"><ele>1849.76</ele><time>2025-09-13T04:47:59.000Z</time></trkpt>
        <trkpt lat="29.5643812" lon="103.3562722"><ele>1852.16</ele><time>2025-09-13T04:48:09.000Z</time></trkpt>
        <trkpt lat="29.5643829" lon="103.3563259"><ele>1853.68</ele><time>2025-09-13T04:48:25.000Z</time></trkpt>
        <trkpt lat="29.5643528" lon="103.3563629"><ele>1854.39</ele><time>2025-09-13T04:48:39.000Z</time></trkpt>
        <trkpt lat="29.5643201" lon="103.3564042"><ele>1855.55</ele><time>2025-09-13T04:48:51.000Z</time></trkpt>
        <trkpt lat="29.5642772" lon="103.3564315"><ele>1856.41</ele><time>2025-09-13T04:49:03.000Z</time></trkpt>
        <trkpt lat="29.5642292" lon="103.3564462"><ele>1859.17</ele><time>2025-09-13T04:49:19.000Z</time></trkpt>
        <trkpt lat="29.5641774" lon="103.3564539"><ele>1861.87</ele><time>2025-09-13T04:49:35.000Z</time></trkpt>
        <trkpt lat="29.5641347" lon="103.3564795"><ele>1863.86</ele><time>2025-09-13T04:49:53.000Z</time></trkpt>
        <trkpt lat="29.5640919" lon="103.3565008"><ele>1866.76</ele><time>2025-09-13T04:50:07.000Z</time></trkpt>
        <trkpt lat="29.5640435" lon="103.3565048"><ele>1869.23</ele><time>2025-09-13T04:50:17.000Z</time></trkpt>
        <trkpt lat="29.5640435" lon="103.3565048"><ele>1869.23</ele><time>2025-09-13T04:50:35.000Z</time></trkpt>
        <trkpt lat="29.5640435" lon="103.3565048"><ele>1869.23</ele><time>2025-09-13T04:50:39.000Z</time></trkpt>
        <trkpt lat="29.5640435" lon="103.3565048"><ele>1869.23</ele><time>2025-09-13T04:52:09.000Z</time></trkpt>
        <trkpt lat="29.5640435" lon="103.3565048"><ele>1869.23</ele><time>2025-09-13T04:52:15.000Z</time></trkpt>
        <trkpt lat="29.5640435" lon="103.3565048"><ele>1869.23</ele><time>2025-09-13T04:53:29.000Z</time></trkpt>
        <trkpt lat="29.5640435" lon="103.3565048"><ele>1869.23</ele><time>2025-09-13T04:53:33.000Z</time></trkpt>
        <trkpt lat="29.5640435" lon="103.3565048"><ele>1869.23</ele><time>2025-09-13T05:07:01.000Z</time></trkpt>
        <trkpt lat="29.5640868" lon="103.3564848"><ele>1871.59</ele><time>2025-09-13T05:07:05.000Z</time></trkpt>
        <trkpt lat="29.5640868" lon="103.3564848"><ele>1871.59</ele><time>2025-09-13T05:07:47.000Z</time></trkpt>
        <trkpt lat="29.5641327" lon="103.3564815"><ele>1872.54</ele><time>2025-09-13T05:08:15.000Z</time></trkpt>
        <trkpt lat="29.5641778" lon="103.356487"><ele>1872.44</ele><time>2025-09-13T05:08:27.000Z</time></trkpt>
        <trkpt lat="29.5642165" lon="103.3564644"><ele>1871.72</ele><time>2025-09-13T05:08:37.000Z</time></trkpt>
        <trkpt lat="29.5641916" lon="103.3564305"><ele>1870.79</ele><time>2025-09-13T05:08:47.000Z</time></trkpt>
        <trkpt lat="29.5641681" lon="103.356377"><ele>1870.09</ele><time>2025-09-13T05:08:55.000Z</time></trkpt>
        <trkpt lat="29.5641463" lon="103.3563226"><ele>1870.16</ele><time>2025-09-13T05:09:03.000Z</time></trkpt>
        <trkpt lat="29.5641516" lon="103.3562701"><ele>1870.21</ele><time>2025-09-13T05:09:11.000Z</time></trkpt>
        <trkpt lat="29.5641344" lon="103.3562132"><ele>1869.56</ele><time>2025-09-13T05:09:23.000Z</time></trkpt>
        <trkpt lat="29.564113" lon="103.3561566"><ele>1869.02</ele><time>2025-09-13T05:09:33.000Z</time></trkpt>
        <trkpt lat="29.5640836" lon="103.3561132"><ele>1868.02</ele><time>2025-09-13T05:09:41.000Z</time></trkpt>
        <trkpt lat="29.5640618" lon="103.356061"><ele>1867.32</ele><time>2025-09-13T05:09:51.000Z</time></trkpt>
        <trkpt lat="29.5640481" lon="103.3560061"><ele>1867.75</ele><time>2025-09-13T05:09:59.000Z</time></trkpt>
        <trkpt lat="29.5640436" lon="103.3559528"><ele>1868.15</ele><time>2025-09-13T05:10:07.000Z</time></trkpt>
        <trkpt lat="29.5640282" lon="103.3558958"><ele>1867.96</ele><time>2025-09-13T05:10:15.000Z</time></trkpt>
        <trkpt lat="29.5640259" lon="103.3558392"><ele>1866.56</ele><time>2025-09-13T05:10:23.000Z</time></trkpt>
        <trkpt lat="29.564034" lon="103.355786"><ele>1864.83</ele><time>2025-09-13T05:10:29.000Z</time></trkpt>
        <trkpt lat="29.5640406" lon="103.355722"><ele>1863.42</ele><time>2025-09-13T05:10:37.000Z</time></trkpt>
        <trkpt lat="29.5640548" lon="103.3556651"><ele>1860.44</ele><time>2025-09-13T05:10:43.000Z</time></trkpt>
        <trkpt lat="29.5640394" lon="103.3556158"><ele>1857.64</ele><time>2025-09-13T05:10:49.000Z</time></trkpt>
        <trkpt lat="29.5640315" lon="103.3555589"><ele>1855.87</ele><time>2025-09-13T05:10:57.000Z</time></trkpt>
        <trkpt lat="29.5639976" lon="103.3555085"><ele>1855.16</ele><time>2025-09-13T05:11:07.000Z</time></trkpt>
        <trkpt lat="29.5639705" lon="103.3554506"><ele>1854.09</ele><time>2025-09-13T05:11:15.000Z</time></trkpt>
        <trkpt lat="29.5639569" lon="103.3553871"><ele>1852.24</ele><time>2025-09-13T05:11:23.000Z</time></trkpt>
        <trkpt lat="29.5639356" lon="103.3553341"><ele>1850.48</ele><time>2025-09-13T05:11:29.000Z</time></trkpt>
        <trkpt lat="29.563931" lon="103.3552774"><ele>1848.24</ele><time>2025-09-13T05:11:37.000Z</time></trkpt>
        <trkpt lat="29.5639109" lon="103.3552223"><ele>1846.68</ele><time>2025-09-13T05:11:45.000Z</time></trkpt>
        <trkpt lat="29.5638892" lon="103.3551742"><ele>1845.02</ele><time>2025-09-13T05:11:51.000Z</time></trkpt>
        <trkpt lat="29.5638572" lon="103.3551348"><ele>1843.88</ele><time>2025-09-13T05:11:57.000Z</time></trkpt>
        <trkpt lat="29.5638276" lon="103.3550908"><ele>1842.79</ele><time>2025-09-13T05:12:03.000Z</time></trkpt>
        <trkpt lat="29.5637991" lon="103.3550465"><ele>1842.34</ele><time>2025-09-13T05:12:09.000Z</time></trkpt>
        <trkpt lat="29.563761" lon="103.3549993"><ele>1841.79</ele><time>2025-09-13T05:12:17.000Z</time></trkpt>
        <trkpt lat="29.5637231" lon="103.354959"><ele>1841.45</ele><time>2025-09-13T05:12:23.000Z</time></trkpt>
        <trkpt lat="29.5636862" lon="103.3549261"><ele>1841.35</ele><time>2025-09-13T05:12:29.000Z</time></trkpt>
        <trkpt lat="29.5636431" lon="103.3548953"><ele>1840.76</ele><time>2025-09-13T05:12:35.000Z</time></trkpt>
        <trkpt lat="29.5636036" lon="103.354864"><ele>1840.87</ele><time>2025-09-13T05:12:41.000Z</time></trkpt>
        <trkpt lat="29.563568" lon="103.3548179"><ele>1840.59</ele><time>2025-09-13T05:12:47.000Z</time></trkpt>
        <trkpt lat="29.5635348" lon="103.3547716"><ele>1840.56</ele><time>2025-09-13T05:12:53.000Z</time></trkpt>
        <trkpt lat="29.5635104" lon="103.3547193"><ele>1840.6</ele><time>2025-09-13T05:12:59.000Z</time></trkpt>
        <trkpt lat="29.5634935" lon="103.3546593"><ele>1840.31</ele><time>2025-09-13T05:13:05.000Z</time></trkpt>
        <trkpt lat="29.563462" lon="103.3546045"><ele>1839.91</ele><time>2025-09-13T05:13:11.000Z</time></trkpt>
        <trkpt lat="29.5634157" lon="103.3545673"><ele>1839.31</ele><time>2025-09-13T05:13:17.000Z</time></trkpt>
        <trkpt lat="29.5633673" lon="103.3545255"><ele>1840.34</ele><time>2025-09-13T05:13:23.000Z</time></trkpt>
        <trkpt lat="29.5633288" lon="103.3544776"><ele>1841.6</ele><time>2025-09-13T05:13:29.000Z</time></trkpt>
        <trkpt lat="29.5633034" lon="103.3544123"><ele>1841.99</ele><time>2025-09-13T05:13:35.000Z</time></trkpt>
        <trkpt lat="29.5632876" lon="103.3543465"><ele>1841.79</ele><time>2025-09-13T05:13:39.000Z</time></trkpt>
        <trkpt lat="29.5632723" lon="103.3542764"><ele>1842.08</ele><time>2025-09-13T05:13:45.000Z</time></trkpt>
        <trkpt lat="29.5632541" lon="103.3542079"><ele>1841.37</ele><time>2025-09-13T05:13:51.000Z</time></trkpt>
        <trkpt lat="29.5632435" lon="103.3541502"><ele>1840.86</ele><time>2025-09-13T05:13:55.000Z</time></trkpt>
        <trkpt lat="29.5632265" lon="103.354087"><ele>1840.1</ele><time>2025-09-13T05:14:01.000Z</time></trkpt>
        <trkpt lat="29.5632008" lon="103.3540326"><ele>1840.46</ele><time>2025-09-13T05:14:07.000Z</time></trkpt>
        <trkpt lat="29.5631738" lon="103.3539797"><ele>1840.53</ele><time>2025-09-13T05:14:13.000Z</time></trkpt>
        <trkpt lat="29.5631577" lon="103.3539242"><ele>1839.41</ele><time>2025-09-13T05:14:19.000Z</time></trkpt>
        <trkpt lat="29.5631504" lon="103.3538611"><ele>1839.33</ele><time>2025-09-13T05:14:25.000Z</time></trkpt>
        <trkpt lat="29.5631466" lon="103.3537941"><ele>1838.82</ele><time>2025-09-13T05:14:31.000Z</time></trkpt>
        <trkpt lat="29.5631253" lon="103.3537309"><ele>1838.76</ele><time>2025-09-13T05:14:37.000Z</time></trkpt>
        <trkpt lat="29.5630981" lon="103.3536687"><ele>1838.93</ele><time>2025-09-13T05:14:43.000Z</time></trkpt>
        <trkpt lat="29.5630869" lon="103.35361"><ele>1839.03</ele><time>2025-09-13T05:14:49.000Z</time></trkpt>
        <trkpt lat="29.5630873" lon="103.3535543"><ele>1839.12</ele><time>2025-09-13T05:14:55.000Z</time></trkpt>
        <trkpt lat="29.5630995" lon="103.3534979"><ele>1838.68</ele><time>2025-09-13T05:15:01.000Z</time></trkpt>
        <trkpt lat="29.5631219" lon="103.3534491"><ele>1838.15</ele><time>2025-09-13T05:15:05.000Z</time></trkpt>
        <trkpt lat="29.5631304" lon="103.3533826"><ele>1838.02</ele><time>2025-09-13T05:15:11.000Z</time></trkpt>
        <trkpt lat="29.5631088" lon="103.3533167"><ele>1838.99</ele><time>2025-09-13T05:15:17.000Z</time></trkpt>
        <trkpt lat="29.5630869" lon="103.353251"><ele>1840.11</ele><time>2025-09-13T05:15:23.000Z</time></trkpt>
        <trkpt lat="29.5630654" lon="103.3531967"><ele>1840.28</ele><time>2025-09-13T05:15:29.000Z</time></trkpt>
        <trkpt lat="29.5630426" lon="103.3531335"><ele>1840.08</ele><time>2025-09-13T05:15:35.000Z</time></trkpt>
        <trkpt lat="29.5630248" lon="103.3530693"><ele>1838.97</ele><time>2025-09-13T05:15:45.000Z</time></trkpt>
        <trkpt lat="29.5630044" lon="103.3530058"><ele>1837.36</ele><time>2025-09-13T05:15:53.000Z</time></trkpt>
        <trkpt lat="29.5629738" lon="103.3529519"><ele>1836.13</ele><time>2025-09-13T05:15:59.000Z</time></trkpt>
        <trkpt lat="29.5629522" lon="103.3528919"><ele>1835.09</ele><time>2025-09-13T05:16:07.000Z</time></trkpt>
        <trkpt lat="29.5629357" lon="103.3528333"><ele>1834.21</ele><time>2025-09-13T05:16:13.000Z</time></trkpt>
        <trkpt lat="29.5629096" lon="103.3527801"><ele>1834.1</ele><time>2025-09-13T05:16:21.000Z</time></trkpt>
        <trkpt lat="29.5629158" lon="103.3527189"><ele>1833.92</ele><time>2025-09-13T05:16:27.000Z</time></trkpt>
        <trkpt lat="29.5629464" lon="103.3526678"><ele>1833.12</ele><time>2025-09-13T05:16:35.000Z</time></trkpt>
        <trkpt lat="29.5629825" lon="103.3526243"><ele>1832.38</ele><time>2025-09-13T05:16:45.000Z</time></trkpt>
        <trkpt lat="29.5630205" lon="103.3525726"><ele>1830.07</ele><time>2025-09-13T05:16:55.000Z</time></trkpt>
        <trkpt lat="29.5630528" lon="103.3525192"><ele>1827.79</ele><time>2025-09-13T05:17:07.000Z</time></trkpt>
        <trkpt lat="29.5630848" lon="103.3524668"><ele>1824.93</ele><time>2025-09-13T05:17:15.000Z</time></trkpt>
        <trkpt lat="29.5631142" lon="103.3524209"><ele>1822.66</ele><time>2025-09-13T05:17:21.000Z</time></trkpt>
        <trkpt lat="29.5631449" lon="103.3523779"><ele>1821.32</ele><time>2025-09-13T05:17:29.000Z</time></trkpt>
        <trkpt lat="29.563171" lon="103.3523315"><ele>1818.13</ele><time>2025-09-13T05:17:35.000Z</time></trkpt>
        <trkpt lat="29.5631677" lon="103.3522712"><ele>1815.51</ele><time>2025-09-13T05:17:41.000Z</time></trkpt>
        <trkpt lat="29.563146" lon="103.3522197"><ele>1814.09</ele><time>2025-09-13T05:17:45.000Z</time></trkpt>
        <trkpt lat="29.5631134" lon="103.3521629"><ele>1813.63</ele><time>2025-09-13T05:17:51.000Z</time></trkpt>
        <trkpt lat="29.5630862" lon="103.3520969"><ele>1813.38</ele><time>2025-09-13T05:17:57.000Z</time></trkpt>
        <trkpt lat="29.563062" lon="103.3520319"><ele>1812.89</ele><time>2025-09-13T05:18:03.000Z</time></trkpt>
        <trkpt lat="29.5630433" lon="103.3519597"><ele>1813.24</ele><time>2025-09-13T05:18:09.000Z</time></trkpt>
        <trkpt lat="29.5630229" lon="103.3518898"><ele>1813.56</ele><time>2025-09-13T05:18:15.000Z</time></trkpt>
        <trkpt lat="29.5630074" lon="103.3518258"><ele>1813.82</ele><time>2025-09-13T05:18:21.000Z</time></trkpt>
        <trkpt lat="29.5630033" lon="103.3517634"><ele>1813.66</ele><time>2025-09-13T05:18:27.000Z</time></trkpt>
        <trkpt lat="29.562996" lon="103.3517022"><ele>1813.41</ele><time>2025-09-13T05:18:33.000Z</time></trkpt>
        <trkpt lat="29.5629984" lon="103.3516366"><ele>1813.41</ele><time>2025-09-13T05:18:39.000Z</time></trkpt>
        <trkpt lat="29.5629928" lon="103.3515681"><ele>1813.62</ele><time>2025-09-13T05:18:45.000Z</time></trkpt>
        <trkpt lat="29.5629755" lon="103.3515131"><ele>1813.74</ele><time>2025-09-13T05:18:51.000Z</time></trkpt>
        <trkpt lat="29.562956" lon="103.3514623"><ele>1814.23</ele><time>2025-09-13T05:18:57.000Z</time></trkpt>
        <trkpt lat="29.5629284" lon="103.3514142"><ele>1814.8</ele><time>2025-09-13T05:19:05.000Z</time></trkpt>
        <trkpt lat="29.5629196" lon="103.3513607"><ele>1812.79</ele><time>2025-09-13T05:19:11.000Z</time></trkpt>
        <trkpt lat="29.5629467" lon="103.3513135"><ele>1810.93</ele><time>2025-09-13T05:19:17.000Z</time></trkpt>
        <trkpt lat="29.5629862" lon="103.3512743"><ele>1808.86</ele><time>2025-09-13T05:19:23.000Z</time></trkpt>
        <trkpt lat="29.5630219" lon="103.3512344"><ele>1806.62</ele><time>2025-09-13T05:19:29.000Z</time></trkpt>
        <trkpt lat="29.5630379" lon="103.351182"><ele>1806.19</ele><time>2025-09-13T05:19:35.000Z</time></trkpt>
        <trkpt lat="29.5630334" lon="103.3511231"><ele>1806.25</ele><time>2025-09-13T05:19:45.000Z</time></trkpt>
        <trkpt lat="29.5630167" lon="103.3510679"><ele>1805.58</ele><time>2025-09-13T05:19:55.000Z</time></trkpt>
        <trkpt lat="29.5629882" lon="103.3510189"><ele>1804.32</ele><time>2025-09-13T05:20:03.000Z</time></trkpt>
        <trkpt lat="29.5629565" lon="103.3509677"><ele>1801.34</ele><time>2025-09-13T05:20:11.000Z</time></trkpt>
        <trkpt lat="29.5629324" lon="103.3509096"><ele>1798.77</ele><time>2025-09-13T05:20:17.000Z</time></trkpt>
        <trkpt lat="29.5629144" lon="103.3508544"><ele>1796.87</ele><time>2025-09-13T05:20:23.000Z</time></trkpt>
        <trkpt lat="29.5628971" lon="103.3507947"><ele>1795.56</ele><time>2025-09-13T05:20:31.000Z</time></trkpt>
        <trkpt lat="29.5628682" lon="103.3507521"><ele>1794.94</ele><time>2025-09-13T05:20:37.000Z</time></trkpt>
        <trkpt lat="29.5628255" lon="103.3507236"><ele>1794.39</ele><time>2025-09-13T05:20:45.000Z</time></trkpt>
        <trkpt lat="29.5627913" lon="103.3506815"><ele>1793.84</ele><time>2025-09-13T05:20:57.000Z</time></trkpt>
        <trkpt lat="29.5627913" lon="103.3506815"><ele>1793.84</ele><time>2025-09-13T05:21:07.000Z</time></trkpt>
        <trkpt lat="29.5627913" lon="103.3506815"><ele>1793.84</ele><time>2025-09-13T05:21:09.000Z</time></trkpt>
        <trkpt lat="29.5627913" lon="103.3506815"><ele>1793.84</ele><time>2025-09-13T05:21:23.000Z</time></trkpt>
        <trkpt lat="29.5628156" lon="103.3506573"><ele>1792.96</ele><time>2025-09-13T05:21:29.000Z</time></trkpt>
        <trkpt lat="29.5628156" lon="103.3506573"><ele>1792.96</ele><time>2025-09-13T05:21:45.000Z</time></trkpt>
        <trkpt lat="29.5628156" lon="103.3506573"><ele>1792.96</ele><time>2025-09-13T05:21:59.000Z</time></trkpt>
        <trkpt lat="29.5628156" lon="103.3506573"><ele>1792.96</ele><time>2025-09-13T05:22:05.000Z</time></trkpt>
        <trkpt lat="29.5628156" lon="103.3506573"><ele>1792.96</ele><time>2025-09-13T05:23:11.000Z</time></trkpt>
        <trkpt lat="29.5628156" lon="103.3506573"><ele>1792.96</ele><time>2025-09-13T05:23:15.000Z</time></trkpt>
        <trkpt lat="29.5628156" lon="103.3506573"><ele>1792.96</ele><time>2025-09-13T05:24:17.000Z</time></trkpt>
        <trkpt lat="29.5628156" lon="103.3506573"><ele>1792.96</ele><time>2025-09-13T05:24:23.000Z</time></trkpt>
        <trkpt lat="29.5628156" lon="103.3506573"><ele>1792.96</ele><time>2025-09-13T05:26:41.000Z</time></trkpt>
        <trkpt lat="29.5628055" lon="103.3506213"><ele>1792.37</ele><time>2025-09-13T05:26:47.000Z</time></trkpt>
        <trkpt lat="29.5628055" lon="103.3506213"><ele>1792.37</ele><time>2025-09-13T05:31:43.000Z</time></trkpt>
        <trkpt lat="29.5627826" lon="103.3505744"><ele>1790.88</ele><time>2025-09-13T05:31:49.000Z</time></trkpt>
        <trkpt lat="29.5627999" lon="103.3505241"><ele>1789.5</ele><time>2025-09-13T05:31:55.000Z</time></trkpt>
        <trkpt lat="29.5628203" lon="103.3504734"><ele>1788.8</ele><time>2025-09-13T05:32:01.000Z</time></trkpt>
        <trkpt lat="29.5628367" lon="103.3504164"><ele>1787.86</ele><time>2025-09-13T05:32:07.000Z</time></trkpt>
        <trkpt lat="29.5628463" lon="103.3503588"><ele>1787.1</ele><time>2025-09-13T05:32:13.000Z</time></trkpt>
        <trkpt lat="29.5628544" lon="103.3503033"><ele>1786.35</ele><time>2025-09-13T05:32:19.000Z</time></trkpt>
        <trkpt lat="29.5628584" lon="103.3502418"><ele>1785.54</ele><time>2025-09-13T05:32:25.000Z</time></trkpt>
        <trkpt lat="29.5628709" lon="103.3501783"><ele>1785.74</ele><time>2025-09-13T05:32:31.000Z</time></trkpt>
        <trkpt lat="29.5628808" lon="103.3501227"><ele>1785.76</ele><time>2025-09-13T05:32:37.000Z</time></trkpt>
        <trkpt lat="29.5628779" lon="103.3500648"><ele>1785.44</ele><time>2025-09-13T05:32:43.000Z</time></trkpt>
        <trkpt lat="29.5628832" lon="103.3500033"><ele>1785.33</ele><time>2025-09-13T05:32:49.000Z</time></trkpt>
        <trkpt lat="29.5628839" lon="103.3499477"><ele>1784.78</ele><time>2025-09-13T05:32:55.000Z</time></trkpt>
        <trkpt lat="29.5628832" lon="103.3498926"><ele>1784.04</ele><time>2025-09-13T05:33:01.000Z</time></trkpt>
        <trkpt lat="29.5628882" lon="103.3498332"><ele>1783.23</ele><time>2025-09-13T05:33:07.000Z</time></trkpt>
        <trkpt lat="29.562911" lon="103.3497743"><ele>1783.17</ele><time>2025-09-13T05:33:13.000Z</time></trkpt>
        <trkpt lat="29.5629351" lon="103.3497144"><ele>1782.88</ele><time>2025-09-13T05:33:19.000Z</time></trkpt>
        <trkpt lat="29.5629554" lon="103.3496541"><ele>1783</ele><time>2025-09-13T05:33:25.000Z</time></trkpt>
        <trkpt lat="29.5629808" lon="103.3495947"><ele>1782.48</ele><time>2025-09-13T05:33:31.000Z</time></trkpt>
        <trkpt lat="29.5630117" lon="103.3495486"><ele>1781.57</ele><time>2025-09-13T05:33:35.000Z</time></trkpt>
        <trkpt lat="29.5630466" lon="103.3495125"><ele>1781.68</ele><time>2025-09-13T05:33:39.000Z</time></trkpt>
        <trkpt lat="29.5630807" lon="103.3494755"><ele>1781.37</ele><time>2025-09-13T05:33:43.000Z</time></trkpt>
        <trkpt lat="29.5631082" lon="103.3494255"><ele>1781.48</ele><time>2025-09-13T05:33:49.000Z</time></trkpt>
        <trkpt lat="29.5631194" lon="103.3493722"><ele>1780.83</ele><time>2025-09-13T05:33:53.000Z</time></trkpt>
        <trkpt lat="29.5631365" lon="103.3493032"><ele>1780.5</ele><time>2025-09-13T05:33:59.000Z</time></trkpt>
        <trkpt lat="29.5631677" lon="103.3492435"><ele>1780.67</ele><time>2025-09-13T05:34:05.000Z</time></trkpt>
        <trkpt lat="29.5632031" lon="103.3491898"><ele>1780.85</ele><time>2025-09-13T05:34:09.000Z</time></trkpt>
        <trkpt lat="29.5632311" lon="103.3491406"><ele>1781.01</ele><time>2025-09-13T05:34:13.000Z</time></trkpt>
        <trkpt lat="29.5632359" lon="103.3490886"><ele>1781.26</ele><time>2025-09-13T05:34:17.000Z</time></trkpt>
        <trkpt lat="29.5632229" lon="103.3490275"><ele>1781.95</ele><time>2025-09-13T05:34:25.000Z</time></trkpt>
        <trkpt lat="29.5632183" lon="103.3489694"><ele>1783.81</ele><time>2025-09-13T05:34:31.000Z</time></trkpt>
        <trkpt lat="29.5632278" lon="103.3489084"><ele>1785.1</ele><time>2025-09-13T05:34:37.000Z</time></trkpt>
        <trkpt lat="29.5632348" lon="103.3488455"><ele>1785.3</ele><time>2025-09-13T05:34:43.000Z</time></trkpt>
        <trkpt lat="29.5632225" lon="103.3487766"><ele>1786.14</ele><time>2025-09-13T05:34:49.000Z</time></trkpt>
        <trkpt lat="29.5632093" lon="103.3487023"><ele>1786.26</ele><time>2025-09-13T05:34:55.000Z</time></trkpt>
        <trkpt lat="29.5632047" lon="103.3486264"><ele>1786.82</ele><time>2025-09-13T05:35:01.000Z</time></trkpt>
        <trkpt lat="29.5632104" lon="103.3485492"><ele>1787.29</ele><time>2025-09-13T05:35:07.000Z</time></trkpt>
        <trkpt lat="29.5632232" lon="103.3484754"><ele>1786.8</ele><time>2025-09-13T05:35:13.000Z</time></trkpt>
        <trkpt lat="29.5632394" lon="103.3484037"><ele>1786.72</ele><time>2025-09-13T05:35:19.000Z</time></trkpt>
        <trkpt lat="29.563268" lon="103.3483376"><ele>1787.04</ele><time>2025-09-13T05:35:25.000Z</time></trkpt>
        <trkpt lat="29.5633059" lon="103.348282"><ele>1787.5</ele><time>2025-09-13T05:35:31.000Z</time></trkpt>
        <trkpt lat="29.5633572" lon="103.3482372"><ele>1788.73</ele><time>2025-09-13T05:35:37.000Z</time></trkpt>
        <trkpt lat="29.563396" lon="103.3481943"><ele>1790.44</ele><time>2025-09-13T05:35:43.000Z</time></trkpt>
        <trkpt lat="29.5634228" lon="103.3481387"><ele>1791.77</ele><time>2025-09-13T05:35:49.000Z</time></trkpt>
        <trkpt lat="29.5634381" lon="103.3480863"><ele>1792.31</ele><time>2025-09-13T05:35:53.000Z</time></trkpt>
        <trkpt lat="29.5634565" lon="103.3480372"><ele>1792.42</ele><time>2025-09-13T05:35:57.000Z</time></trkpt>
        <trkpt lat="29.5634835" lon="103.3479912"><ele>1792.24</ele><time>2025-09-13T05:36:01.000Z</time></trkpt>
        <trkpt lat="29.5635164" lon="103.3479469"><ele>1792.25</ele><time>2025-09-13T05:36:05.000Z</time></trkpt>
        <trkpt lat="29.5635465" lon="103.3479043"><ele>1791.67</ele><time>2025-09-13T05:36:09.000Z</time></trkpt>
        <trkpt lat="29.5635589" lon="103.3478436"><ele>1791.59</ele><time>2025-09-13T05:36:15.000Z</time></trkpt>
        <trkpt lat="29.5635678" lon="103.3477697"><ele>1791.12</ele><time>2025-09-13T05:36:21.000Z</time></trkpt>
        <trkpt lat="29.5635676" lon="103.3476996"><ele>1791.26</ele><time>2025-09-13T05:36:27.000Z</time></trkpt>
        <trkpt lat="29.5635557" lon="103.3476292"><ele>1791.55</ele><time>2025-09-13T05:36:33.000Z</time></trkpt>
        <trkpt lat="29.5635511" lon="103.3475528"><ele>1792.48</ele><time>2025-09-13T05:36:39.000Z</time></trkpt>
        <trkpt lat="29.5635713" lon="103.3474917"><ele>1791.72</ele><time>2025-09-13T05:36:45.000Z</time></trkpt>
        <trkpt lat="29.5635974" lon="103.3474329"><ele>1791.16</ele><time>2025-09-13T05:36:51.000Z</time></trkpt>
        <trkpt lat="29.5635917" lon="103.3473747"><ele>1790.9</ele><time>2025-09-13T05:36:57.000Z</time></trkpt>
        <trkpt lat="29.5635543" lon="103.347325"><ele>1790.63</ele><time>2025-09-13T05:37:03.000Z</time></trkpt>
        <trkpt lat="29.5635123" lon="103.3472735"><ele>1790.84</ele><time>2025-09-13T05:37:09.000Z</time></trkpt>
        <trkpt lat="29.5634632" lon="103.3472302"><ele>1790.87</ele><time>2025-09-13T05:37:15.000Z</time></trkpt>
        <trkpt lat="29.5634159" lon="103.3471918"><ele>1790.89</ele><time>2025-09-13T05:37:21.000Z</time></trkpt>
        <trkpt lat="29.5633687" lon="103.3471564"><ele>1790.61</ele><time>2025-09-13T05:37:27.000Z</time></trkpt>
        <trkpt lat="29.5633166" lon="103.3471256"><ele>1790.16</ele><time>2025-09-13T05:37:33.000Z</time></trkpt>
        <trkpt lat="29.5632633" lon="103.3470988"><ele>1790.1</ele><time>2025-09-13T05:37:39.000Z</time></trkpt>
        <trkpt lat="29.5632145" lon="103.3470665"><ele>1790.01</ele><time>2025-09-13T05:37:45.000Z</time></trkpt>
        <trkpt lat="29.563179" lon="103.3470196"><ele>1789.9</ele><time>2025-09-13T05:37:51.000Z</time></trkpt>
        <trkpt lat="29.5631447" lon="103.3469707"><ele>1789.59</ele><time>2025-09-13T05:37:57.000Z</time></trkpt>
        <trkpt lat="29.5631112" lon="103.3469249"><ele>1789.22</ele><time>2025-09-13T05:38:03.000Z</time></trkpt>
        <trkpt lat="29.5630775" lon="103.3468763"><ele>1789.04</ele><time>2025-09-13T05:38:09.000Z</time></trkpt>
        <trkpt lat="29.5630421" lon="103.3468389"><ele>1788.78</ele><time>2025-09-13T05:38:15.000Z</time></trkpt>
        <trkpt lat="29.5630066" lon="103.3467979"><ele>1788.05</ele><time>2025-09-13T05:38:25.000Z</time></trkpt>
        <trkpt lat="29.5629747" lon="103.3467494"><ele>1784.57</ele><time>2025-09-13T05:38:31.000Z</time></trkpt>
        <trkpt lat="29.5629326" lon="103.3467167"><ele>1783.02</ele><time>2025-09-13T05:38:37.000Z</time></trkpt>
        <trkpt lat="29.5629041" lon="103.3466753"><ele>1782.84</ele><time>2025-09-13T05:38:43.000Z</time></trkpt>
        <trkpt lat="29.5628818" lon="103.3466283"><ele>1783.3</ele><time>2025-09-13T05:38:49.000Z</time></trkpt>
        <trkpt lat="29.5628574" lon="103.3465707"><ele>1783.39</ele><time>2025-09-13T05:38:55.000Z</time></trkpt>
        <trkpt lat="29.5628266" lon="103.346515"><ele>1783.94</ele><time>2025-09-13T05:39:01.000Z</time></trkpt>
        <trkpt lat="29.5627751" lon="103.3464823"><ele>1784.23</ele><time>2025-09-13T05:39:07.000Z</time></trkpt>
        <trkpt lat="29.5627161" lon="103.3464685"><ele>1784</ele><time>2025-09-13T05:39:13.000Z</time></trkpt>
        <trkpt lat="29.5626563" lon="103.3464535"><ele>1783.5</ele><time>2025-09-13T05:39:19.000Z</time></trkpt>
        <trkpt lat="29.5625997" lon="103.3464189"><ele>1783.17</ele><time>2025-09-13T05:39:25.000Z</time></trkpt>
        <trkpt lat="29.5625525" lon="103.3463769"><ele>1782.91</ele><time>2025-09-13T05:39:31.000Z</time></trkpt>
        <trkpt lat="29.5625067" lon="103.3463332"><ele>1782.8</ele><time>2025-09-13T05:39:37.000Z</time></trkpt>
        <trkpt lat="29.5624604" lon="103.3462897"><ele>1782.61</ele><time>2025-09-13T05:39:43.000Z</time></trkpt>
        <trkpt lat="29.5624254" lon="103.3462366"><ele>1782.66</ele><time>2025-09-13T05:39:49.000Z</time></trkpt>
        <trkpt lat="29.5623864" lon="103.3461848"><ele>1781.32</ele><time>2025-09-13T05:39:55.000Z</time></trkpt>
        <trkpt lat="29.5623437" lon="103.3461371"><ele>1780.33</ele><time>2025-09-13T05:40:01.000Z</time></trkpt>
        <trkpt lat="29.5623057" lon="103.346092"><ele>1779.98</ele><time>2025-09-13T05:40:07.000Z</time></trkpt>
        <trkpt lat="29.5622725" lon="103.3460373"><ele>1779.45</ele><time>2025-09-13T05:40:13.000Z</time></trkpt>
        <trkpt lat="29.5622525" lon="103.3459795"><ele>1778.97</ele><time>2025-09-13T05:40:19.000Z</time></trkpt>
        <trkpt lat="29.5622346" lon="103.3459223"><ele>1778.81</ele><time>2025-09-13T05:40:25.000Z</time></trkpt>
        <trkpt lat="29.5622063" lon="103.3458668"><ele>1778.11</ele><time>2025-09-13T05:40:33.000Z</time></trkpt>
        <trkpt lat="29.5621689" lon="103.3458112"><ele>1776.04</ele><time>2025-09-13T05:40:39.000Z</time></trkpt>
        <trkpt lat="29.5621409" lon="103.3457608"><ele>1774.05</ele><time>2025-09-13T05:40:43.000Z</time></trkpt>
        <trkpt lat="29.5620969" lon="103.3457125"><ele>1773.68</ele><time>2025-09-13T05:40:49.000Z</time></trkpt>
        <trkpt lat="29.5620515" lon="103.345681"><ele>1772.74</ele><time>2025-09-13T05:40:55.000Z</time></trkpt>
        <trkpt lat="29.5620276" lon="103.3456337"><ele>1773.1</ele><time>2025-09-13T05:41:01.000Z</time></trkpt>
        <trkpt lat="29.5619872" lon="103.3456039"><ele>1773.75</ele><time>2025-09-13T05:41:07.000Z</time></trkpt>
        <trkpt lat="29.5619356" lon="103.3455908"><ele>1774.41</ele><time>2025-09-13T05:41:13.000Z</time></trkpt>
        <trkpt lat="29.5618761" lon="103.3455846"><ele>1774.78</ele><time>2025-09-13T05:41:21.000Z</time></trkpt>
        <trkpt lat="29.5618209" lon="103.3455871"><ele>1775.48</ele><time>2025-09-13T05:41:27.000Z</time></trkpt>
        <trkpt lat="29.5617642" lon="103.3455888"><ele>1776.19</ele><time>2025-09-13T05:41:33.000Z</time></trkpt>
        <trkpt lat="29.5617142" lon="103.3455896"><ele>1776.08</ele><time>2025-09-13T05:41:39.000Z</time></trkpt>
        <trkpt lat="29.561661" lon="103.3455775"><ele>1777.19</ele><time>2025-09-13T05:41:47.000Z</time></trkpt>
        <trkpt lat="29.5616116" lon="103.3455527"><ele>1777.65</ele><time>2025-09-13T05:41:53.000Z</time></trkpt>
        <trkpt lat="29.5615612" lon="103.3455227"><ele>1777.47</ele><time>2025-09-13T05:41:59.000Z</time></trkpt>
        <trkpt lat="29.5615138" lon="103.3454846"><ele>1777.23</ele><time>2025-09-13T05:42:05.000Z</time></trkpt>
        <trkpt lat="29.561473" lon="103.34543"><ele>1776.37</ele><time>2025-09-13T05:42:11.000Z</time></trkpt>
        <trkpt lat="29.5614414" lon="103.3453779"><ele>1775.72</ele><time>2025-09-13T05:42:15.000Z</time></trkpt>
        <trkpt lat="29.5614075" lon="103.3453223"><ele>1775.96</ele><time>2025-09-13T05:42:21.000Z</time></trkpt>
        <trkpt lat="29.5613759" lon="103.3452752"><ele>1776.1</ele><time>2025-09-13T05:42:27.000Z</time></trkpt>
        <trkpt lat="29.5613412" lon="103.3452365"><ele>1776.26</ele><time>2025-09-13T05:42:37.000Z</time></trkpt>
        <trkpt lat="29.5613275" lon="103.3451873"><ele>1777.02</ele><time>2025-09-13T05:42:49.000Z</time></trkpt>
        <trkpt lat="29.5612909" lon="103.3451539"><ele>1776.78</ele><time>2025-09-13T05:42:57.000Z</time></trkpt>
        <trkpt lat="29.5612461" lon="103.3451497"><ele>1777.25</ele><time>2025-09-13T05:43:07.000Z</time></trkpt>
        <trkpt lat="29.56124" lon="103.3451154"><ele>1779.07</ele><time>2025-09-13T05:43:27.000Z</time></trkpt>
        <trkpt lat="29.5612107" lon="103.3450789"><ele>1780.11</ele><time>2025-09-13T05:43:39.000Z</time></trkpt>
        <trkpt lat="29.561214" lon="103.3450273"><ele>1782.29</ele><time>2025-09-13T05:44:13.000Z</time></trkpt>
        <trkpt lat="29.5611903" lon="103.3449874"><ele>1787.4</ele><time>2025-09-13T05:44:21.000Z</time></trkpt>
        <trkpt lat="29.561145" lon="103.3449805"><ele>1790.68</ele><time>2025-09-13T05:44:27.000Z</time></trkpt>
        <trkpt lat="29.5610926" lon="103.3450125"><ele>1793.48</ele><time>2025-09-13T05:44:35.000Z</time></trkpt>
        <trkpt lat="29.5610477" lon="103.3449946"><ele>1794.59</ele><time>2025-09-13T05:44:53.000Z</time></trkpt>
        <trkpt lat="29.5610279" lon="103.3449498"><ele>1797.73</ele><time>2025-09-13T05:45:07.000Z</time></trkpt>
        <trkpt lat="29.5609968" lon="103.3449589"><ele>1799.83</ele><time>2025-09-13T05:45:19.000Z</time></trkpt>
        <trkpt lat="29.5609651" lon="103.3449996"><ele>1801.32</ele><time>2025-09-13T05:45:33.000Z</time></trkpt>
        <trkpt lat="29.5609272" lon="103.3450345"><ele>1803.1</ele><time>2025-09-13T05:45:53.000Z</time></trkpt>
        <trkpt lat="29.5608813" lon="103.3450467"><ele>1805.33</ele><time>2025-09-13T05:46:09.000Z</time></trkpt>
        <trkpt lat="29.560865" lon="103.3450087"><ele>1807.63</ele><time>2025-09-13T05:46:29.000Z</time></trkpt>
        <trkpt lat="29.5608615" lon="103.3449539"><ele>1808.95</ele><time>2025-09-13T05:46:49.000Z</time></trkpt>
        <trkpt lat="29.560857" lon="103.3448938"><ele>1812.31</ele><time>2025-09-13T05:47:05.000Z</time></trkpt>
        <trkpt lat="29.5608214" lon="103.3448654"><ele>1814.9</ele><time>2025-09-13T05:47:19.000Z</time></trkpt>
        <trkpt lat="29.5607897" lon="103.3448967"><ele>1817.66</ele><time>2025-09-13T05:47:41.000Z</time></trkpt>
        <trkpt lat="29.56076" lon="103.3448799"><ele>1823.8</ele><time>2025-09-13T05:47:51.000Z</time></trkpt>
        <trkpt lat="29.5607196" lon="103.3448541"><ele>1826.6</ele><time>2025-09-13T05:48:03.000Z</time></trkpt>
        <trkpt lat="29.5607207" lon="103.3448074"><ele>1828.46</ele><time>2025-09-13T05:48:23.000Z</time></trkpt>
        <trkpt lat="29.5607129" lon="103.3447531"><ele>1830.17</ele><time>2025-09-13T05:48:35.000Z</time></trkpt>
        <trkpt lat="29.5607203" lon="103.3446954"><ele>1831.44</ele><time>2025-09-13T05:48:47.000Z</time></trkpt>
        <trkpt lat="29.5606873" lon="103.3446631"><ele>1833.21</ele><time>2025-09-13T05:48:57.000Z</time></trkpt>
        <trkpt lat="29.560641" lon="103.3446394"><ele>1835.69</ele><time>2025-09-13T05:49:09.000Z</time></trkpt>
        <trkpt lat="29.5605922" lon="103.3446084"><ele>1838.31</ele><time>2025-09-13T05:49:29.000Z</time></trkpt>
        <trkpt lat="29.5605487" lon="103.3445711"><ele>1841.32</ele><time>2025-09-13T05:49:41.000Z</time></trkpt>
        <trkpt lat="29.5604976" lon="103.3445689"><ele>1844</ele><time>2025-09-13T05:49:51.000Z</time></trkpt>
        <trkpt lat="29.5604501" lon="103.3445492"><ele>1844.7</ele><time>2025-09-13T05:50:09.000Z</time></trkpt>
        <trkpt lat="29.5604204" lon="103.344507"><ele>1848.44</ele><time>2025-09-13T05:50:31.000Z</time></trkpt>
        <trkpt lat="29.5603821" lon="103.3445037"><ele>1850.47</ele><time>2025-09-13T05:50:43.000Z</time></trkpt>
        <trkpt lat="29.5603542" lon="103.3444698"><ele>1854.82</ele><time>2025-09-13T05:50:57.000Z</time></trkpt>
        <trkpt lat="29.560317" lon="103.3444754"><ele>1856.37</ele><time>2025-09-13T05:51:11.000Z</time></trkpt>
        <trkpt lat="29.5602843" lon="103.3444469"><ele>1859.91</ele><time>2025-09-13T05:51:21.000Z</time></trkpt>
        <trkpt lat="29.5602497" lon="103.3444133"><ele>1862.39</ele><time>2025-09-13T05:51:31.000Z</time></trkpt>
        <trkpt lat="29.5602399" lon="103.3443563"><ele>1864.43</ele><time>2025-09-13T05:52:03.000Z</time></trkpt>
        <trkpt lat="29.5602137" lon="103.3443113"><ele>1866.91</ele><time>2025-09-13T05:52:13.000Z</time></trkpt>
        <trkpt lat="29.5601725" lon="103.3442886"><ele>1868.55</ele><time>2025-09-13T05:52:23.000Z</time></trkpt>
        <trkpt lat="29.5601622" lon="103.3442453"><ele>1870.32</ele><time>2025-09-13T05:52:47.000Z</time></trkpt>
        <trkpt lat="29.5601894" lon="103.3442057"><ele>1873.85</ele><time>2025-09-13T05:53:01.000Z</time></trkpt>
        <trkpt lat="29.5601791" lon="103.3441649"><ele>1877.14</ele><time>2025-09-13T05:53:09.000Z</time></trkpt>
        <trkpt lat="29.5601356" lon="103.3441497"><ele>1879.29</ele><time>2025-09-13T05:53:17.000Z</time></trkpt>
        <trkpt lat="29.5600922" lon="103.3441735"><ele>1881.98</ele><time>2025-09-13T05:53:25.000Z</time></trkpt>
        <trkpt lat="29.5600554" lon="103.3441566"><ele>1882.43</ele><time>2025-09-13T05:53:39.000Z</time></trkpt>
        <trkpt lat="29.5600733" lon="103.3441132"><ele>1882.55</ele><time>2025-09-13T05:54:09.000Z</time></trkpt>
        <trkpt lat="29.560094" lon="103.3440557"><ele>1886.19</ele><time>2025-09-13T05:54:37.000Z</time></trkpt>
        <trkpt lat="29.5601019" lon="103.3439985"><ele>1889.63</ele><time>2025-09-13T05:54:51.000Z</time></trkpt>
        <trkpt lat="29.5600847" lon="103.343947"><ele>1892.95</ele><time>2025-09-13T05:55:03.000Z</time></trkpt>
        <trkpt lat="29.5601155" lon="103.3439389"><ele>1895.57</ele><time>2025-09-13T05:55:23.000Z</time></trkpt>
        <trkpt lat="29.5601231" lon="103.3439032"><ele>1898.58</ele><time>2025-09-13T05:55:45.000Z</time></trkpt>
        <trkpt lat="29.5601067" lon="103.3438605"><ele>1901.25</ele><time>2025-09-13T05:55:59.000Z</time></trkpt>
        <trkpt lat="29.5600711" lon="103.3438274"><ele>1905.23</ele><time>2025-09-13T05:56:11.000Z</time></trkpt>
        <trkpt lat="29.5600212" lon="103.3438125"><ele>1907.55</ele><time>2025-09-13T05:56:25.000Z</time></trkpt>
        <trkpt lat="29.5599956" lon="103.3437738"><ele>1909.61</ele><time>2025-09-13T05:56:47.000Z</time></trkpt>
        <trkpt lat="29.5599582" lon="103.3437369"><ele>1912.04</ele><time>2025-09-13T05:57:01.000Z</time></trkpt>
        <trkpt lat="29.5599149" lon="103.3437193"><ele>1914.04</ele><time>2025-09-13T05:57:23.000Z</time></trkpt>
        <trkpt lat="29.5598732" lon="103.3436887"><ele>1919.24</ele><time>2025-09-13T05:57:43.000Z</time></trkpt>
        <trkpt lat="29.5598307" lon="103.343663"><ele>1923.48</ele><time>2025-09-13T05:57:55.000Z</time></trkpt>
        <trkpt lat="29.5597926" lon="103.3436309"><ele>1926.1</ele><time>2025-09-13T05:58:11.000Z</time></trkpt>
        <trkpt lat="29.559777" lon="103.343577"><ele>1929.14</ele><time>2025-09-13T05:58:25.000Z</time></trkpt>
        <trkpt lat="29.559764" lon="103.3435216"><ele>1932.56</ele><time>2025-09-13T05:58:41.000Z</time></trkpt>
        <trkpt lat="29.5597282" lon="103.3434979"><ele>1934.89</ele><time>2025-09-13T05:58:51.000Z</time></trkpt>
        <trkpt lat="29.5596833" lon="103.3434744"><ele>1936.8</ele><time>2025-09-13T05:59:07.000Z</time></trkpt>
        <trkpt lat="29.5596833" lon="103.3434744"><ele>1936.8</ele><time>2025-09-13T05:59:31.000Z</time></trkpt>
        <trkpt lat="29.5596449" lon="103.3435333"><ele>1937.11</ele><time>2025-09-13T05:59:33.000Z</time></trkpt>
        <trkpt lat="29.5596449" lon="103.3435333"><ele>1937.11</ele><time>2025-09-13T06:00:11.000Z</time></trkpt>
        <trkpt lat="29.5596173" lon="103.3435784"><ele>1938.26</ele><time>2025-09-13T06:00:23.000Z</time></trkpt>
        <trkpt lat="29.5595866" lon="103.3435533"><ele>1939.73</ele><time>2025-09-13T06:00:43.000Z</time></trkpt>
        <trkpt lat="29.5595504" lon="103.3435162"><ele>1943.58</ele><time>2025-09-13T06:00:59.000Z</time></trkpt>
        <trkpt lat="29.559508" lon="103.3434921"><ele>1947.63</ele><time>2025-09-13T06:01:09.000Z</time></trkpt>
        <trkpt lat="29.5594638" lon="103.3435044"><ele>1950.08</ele><time>2025-09-13T06:01:31.000Z</time></trkpt>
        <trkpt lat="29.559452" lon="103.3435506"><ele>1952.14</ele><time>2025-09-13T06:01:41.000Z</time></trkpt>
        <trkpt lat="29.5594124" lon="103.3435669"><ele>1954.97</ele><time>2025-09-13T06:01:55.000Z</time></trkpt>
        <trkpt lat="29.5593732" lon="103.343541"><ele>1957.35</ele><time>2025-09-13T06:02:17.000Z</time></trkpt>
        <trkpt lat="29.5593302" lon="103.3435423"><ele>1960.86</ele><time>2025-09-13T06:02:29.000Z</time></trkpt>
        <trkpt lat="29.5592833" lon="103.343548"><ele>1962.67</ele><time>2025-09-13T06:02:43.000Z</time></trkpt>
        <trkpt lat="29.5592833" lon="103.343548"><ele>1962.67</ele><time>2025-09-13T06:03:03.000Z</time></trkpt>
        <trkpt lat="29.5592833" lon="103.343548"><ele>1962.67</ele><time>2025-09-13T06:03:07.000Z</time></trkpt>
        <trkpt lat="29.5592833" lon="103.343548"><ele>1962.67</ele><time>2025-09-13T06:03:43.000Z</time></trkpt>
        <trkpt lat="29.5592833" lon="103.343548"><ele>1962.67</ele><time>2025-09-13T06:03:47.000Z</time></trkpt>
        <trkpt lat="29.5592833" lon="103.343548"><ele>1962.67</ele><time>2025-09-13T06:04:41.000Z</time></trkpt>
        <trkpt lat="29.5593362" lon="103.343554"><ele>1964.18</ele><time>2025-09-13T06:04:45.000Z</time></trkpt>
        <trkpt lat="29.5593362" lon="103.343554"><ele>1964.18</ele><time>2025-09-13T06:07:07.000Z</time></trkpt>
        <trkpt lat="29.5593153" lon="103.3436031"><ele>1965.96</ele><time>2025-09-13T06:07:37.000Z</time></trkpt>
        <trkpt lat="29.5592961" lon="103.3436513"><ele>1968.08</ele><time>2025-09-13T06:07:49.000Z</time></trkpt>
        <trkpt lat="29.5592651" lon="103.3436969"><ele>1968.7</ele><time>2025-09-13T06:08:01.000Z</time></trkpt>
        <trkpt lat="29.5592508" lon="103.3437479"><ele>1970.09</ele><time>2025-09-13T06:08:17.000Z</time></trkpt>
        <trkpt lat="29.5592273" lon="103.343794"><ele>1971.39</ele><time>2025-09-13T06:08:31.000Z</time></trkpt>
        <trkpt lat="29.5591879" lon="103.34382"><ele>1972.96</ele><time>2025-09-13T06:08:49.000Z</time></trkpt>
        <trkpt lat="29.5591688" lon="103.3437841"><ele>1974.99</ele><time>2025-09-13T06:08:59.000Z</time></trkpt>
        <trkpt lat="29.559155" lon="103.3437267"><ele>1977.3</ele><time>2025-09-13T06:09:19.000Z</time></trkpt>
        <trkpt lat="29.559123" lon="103.3436871"><ele>1980.66</ele><time>2025-09-13T06:09:35.000Z</time></trkpt>
        <trkpt lat="29.5590821" lon="103.3436553"><ele>1983.45</ele><time>2025-09-13T06:09:55.000Z</time></trkpt>
        <trkpt lat="29.5590386" lon="103.3436263"><ele>1986.28</ele><time>2025-09-13T06:10:17.000Z</time></trkpt>
        <trkpt lat="29.5590005" lon="103.3436551"><ele>1989.74</ele><time>2025-09-13T06:10:37.000Z</time></trkpt>
        <trkpt lat="29.5589773" lon="103.3437089"><ele>1993.07</ele><time>2025-09-13T06:10:49.000Z</time></trkpt>
        <trkpt lat="29.5589353" lon="103.3437273"><ele>1995.67</ele><time>2025-09-13T06:11:09.000Z</time></trkpt>
        <trkpt lat="29.5588917" lon="103.3437495"><ele>1997.24</ele><time>2025-09-13T06:11:24.000Z</time></trkpt>
        <trkpt lat="29.5588823" lon="103.3437988"><ele>1999.12</ele><time>2025-09-13T06:11:33.000Z</time></trkpt>
        <trkpt lat="29.5588743" lon="103.3438553"><ele>2001.26</ele><time>2025-09-13T06:11:39.000Z</time></trkpt>
        <trkpt lat="29.5588773" lon="103.3439238"><ele>2002.5</ele><time>2025-09-13T06:11:45.000Z</time></trkpt>
        <trkpt lat="29.5588952" lon="103.3439861"><ele>2003.06</ele><time>2025-09-13T06:11:51.000Z</time></trkpt>
        <trkpt lat="29.558917" lon="103.3440495"><ele>2003.36</ele><time>2025-09-13T06:11:57.000Z</time></trkpt>
        <trkpt lat="29.5589398" lon="103.3441071"><ele>2004.62</ele><time>2025-09-13T06:12:03.000Z</time></trkpt>
        <trkpt lat="29.5589105" lon="103.3441162"><ele>2005</ele><time>2025-09-13T06:12:17.000Z</time></trkpt>
        <trkpt lat="29.5588931" lon="103.3440728"><ele>2005.96</ele><time>2025-09-13T06:12:25.000Z</time></trkpt>
        <trkpt lat="29.5588806" lon="103.3440921"><ele>2006.95</ele><time>2025-09-13T06:12:41.000Z</time></trkpt>
        <trkpt lat="29.5588824" lon="103.3441409"><ele>2008.76</ele><time>2025-09-13T06:12:53.000Z</time></trkpt>
        <trkpt lat="29.5588804" lon="103.3441971"><ele>2010.49</ele><time>2025-09-13T06:13:05.000Z</time></trkpt>
        <trkpt lat="29.5588759" lon="103.3442562"><ele>2012.65</ele><time>2025-09-13T06:13:21.000Z</time></trkpt>
        <trkpt lat="29.5588681" lon="103.3443197"><ele>2014.41</ele><time>2025-09-13T06:13:35.000Z</time></trkpt>
        <trkpt lat="29.5588337" lon="103.3443194"><ele>2016.34</ele><time>2025-09-13T06:13:49.000Z</time></trkpt>
        <trkpt lat="29.5588129" lon="103.3442663"><ele>2018.26</ele><time>2025-09-13T06:13:57.000Z</time></trkpt>
        <trkpt lat="29.5587826" lon="103.3442156"><ele>2018.64</ele><time>2025-09-13T06:14:11.000Z</time></trkpt>
        <trkpt lat="29.5587826" lon="103.3442156"><ele>2018.64</ele><time>2025-09-13T06:14:29.000Z</time></trkpt>
        <trkpt lat="29.5587826" lon="103.3442156"><ele>2018.64</ele><time>2025-09-13T06:14:35.000Z</time></trkpt>
        <trkpt lat="29.5587826" lon="103.3442156"><ele>2018.64</ele><time>2025-09-13T06:14:57.000Z</time></trkpt>
        <trkpt lat="29.5587826" lon="103.3442156"><ele>2018.64</ele><time>2025-09-13T06:15:01.000Z</time></trkpt>
        <trkpt lat="29.5587826" lon="103.3442156"><ele>2018.64</ele><time>2025-09-13T06:15:19.000Z</time></trkpt>
        <trkpt lat="29.5587311" lon="103.3442039"><ele>2019.44</ele><time>2025-09-13T06:15:25.000Z</time></trkpt>
        <trkpt lat="29.5587311" lon="103.3442039"><ele>2019.44</ele><time>2025-09-13T06:17:21.000Z</time></trkpt>
        <trkpt lat="29.5587311" lon="103.3442039"><ele>2019.44</ele><time>2025-09-13T06:17:39.000Z</time></trkpt>
        <trkpt lat="29.5587224" lon="103.3441514"><ele>2020.81</ele><time>2025-09-13T06:17:43.000Z</time></trkpt>
        <trkpt lat="29.5587224" lon="103.3441514"><ele>2020.81</ele><time>2025-09-13T06:17:55.000Z</time></trkpt>
        <trkpt lat="29.5586766" lon="103.3441378"><ele>2023.41</ele><time>2025-09-13T06:18:03.000Z</time></trkpt>
        <trkpt lat="29.5586289" lon="103.3441697"><ele>2024.45</ele><time>2025-09-13T06:18:09.000Z</time></trkpt>
        <trkpt lat="29.5585798" lon="103.3441733"><ele>2025.76</ele><time>2025-09-13T06:18:19.000Z</time></trkpt>
        <trkpt lat="29.5585319" lon="103.3441537"><ele>2026.25</ele><time>2025-09-13T06:18:33.000Z</time></trkpt>
        <trkpt lat="29.5584881" lon="103.34412"><ele>2027.25</ele><time>2025-09-13T06:18:47.000Z</time></trkpt>
        <trkpt lat="29.5584402" lon="103.3440976"><ele>2029.01</ele><time>2025-09-13T06:19:07.000Z</time></trkpt>
        <trkpt lat="29.5583965" lon="103.344077"><ele>2031.13</ele><time>2025-09-13T06:19:17.000Z</time></trkpt>
        <trkpt lat="29.5583485" lon="103.3440671"><ele>2034.15</ele><time>2025-09-13T06:19:33.000Z</time></trkpt>
        <trkpt lat="29.5583027" lon="103.3440433"><ele>2034.79</ele><time>2025-09-13T06:19:43.000Z</time></trkpt>
        <trkpt lat="29.5582681" lon="103.344066"><ele>2035.4</ele><time>2025-09-13T06:19:51.000Z</time></trkpt>
        <trkpt lat="29.5583158" lon="103.3441185"><ele>2035.92</ele><time>2025-09-13T06:20:04.000Z</time></trkpt>
        <trkpt lat="29.5583158" lon="103.3441185"><ele>2035.92</ele><time>2025-09-13T06:20:07.000Z</time></trkpt>
        <trkpt lat="29.5582417" lon="103.3441388"><ele>2035.98</ele><time>2025-09-13T06:20:13.000Z</time></trkpt>
        <trkpt lat="29.5582417" lon="103.3441388"><ele>2035.98</ele><time>2025-09-13T06:20:17.000Z</time></trkpt>
        <trkpt lat="29.5581889" lon="103.3441064"><ele>2034.95</ele><time>2025-09-13T06:20:21.000Z</time></trkpt>
        <trkpt lat="29.5581725" lon="103.3441472"><ele>2037.31</ele><time>2025-09-13T06:20:34.000Z</time></trkpt>
        <trkpt lat="29.5581415" lon="103.3441329"><ele>2037.79</ele><time>2025-09-13T06:20:39.000Z</time></trkpt>
        <trkpt lat="29.5578595" lon="103.3439847"><ele>2032.83</ele><time>2025-09-13T06:21:37.000Z</time></trkpt>
        <trkpt lat="29.5577243" lon="103.3439334"><ele>2033.69</ele><time>2025-09-13T06:21:40.000Z</time></trkpt>
        <trkpt lat="29.5577299" lon="103.3439089"><ele>2032.62</ele><time>2025-09-13T06:21:44.000Z</time></trkpt>
        <trkpt lat="29.5577922" lon="103.3438812"><ele>2030.09</ele><time>2025-09-13T06:21:50.000Z</time></trkpt>
        <trkpt lat="29.5578375" lon="103.3438366"><ele>2027.17</ele><time>2025-09-13T06:21:54.000Z</time></trkpt>
        <trkpt lat="29.5578694" lon="103.343784"><ele>2027.56</ele><time>2025-09-13T06:21:58.000Z</time></trkpt>
        <trkpt lat="29.5578694" lon="103.343784"><ele>2027.56</ele><time>2025-09-13T06:22:39.000Z</time></trkpt>
        <trkpt lat="29.5578694" lon="103.343784"><ele>2027.56</ele><time>2025-09-13T06:22:43.000Z</time></trkpt>
        <trkpt lat="29.5578694" lon="103.343784"><ele>2027.56</ele><time>2025-09-13T06:23:15.000Z</time></trkpt>
        <trkpt lat="29.5578301" lon="103.343817"><ele>2027.91</ele><time>2025-09-13T06:23:21.000Z</time></trkpt>
        <trkpt lat="29.5578301" lon="103.343817"><ele>2027.91</ele><time>2025-09-13T06:23:59.000Z</time></trkpt>
        <trkpt lat="29.5578453" lon="103.3439201"><ele>2028.38</ele><time>2025-09-13T06:24:15.000Z</time></trkpt>
        <trkpt lat="29.5578667" lon="103.3439777"><ele>2029.07</ele><time>2025-09-13T06:24:17.000Z</time></trkpt>
        <trkpt lat="29.5578249" lon="103.3439836"><ele>2028.98</ele><time>2025-09-13T06:24:31.000Z</time></trkpt>
        <trkpt lat="29.557771" lon="103.3439728"><ele>2030.55</ele><time>2025-09-13T06:24:33.000Z</time></trkpt>
        <trkpt lat="29.5577043" lon="103.3439804"><ele>2031.13</ele><time>2025-09-13T06:24:37.000Z</time></trkpt>
        <trkpt lat="29.5576915" lon="103.3440454"><ele>2031.39</ele><time>2025-09-13T06:24:40.000Z</time></trkpt>
        <trkpt lat="29.5577307" lon="103.3441028"><ele>2031.42</ele><time>2025-09-13T06:24:44.000Z</time></trkpt>
        <trkpt lat="29.5577307" lon="103.3441028"><ele>2031.42</ele><time>2025-09-13T06:24:57.000Z</time></trkpt>
        <trkpt lat="29.5577307" lon="103.3441028"><ele>2031.42</ele><time>2025-09-13T06:25:01.000Z</time></trkpt>
        <trkpt lat="29.5577307" lon="103.3441028"><ele>2031.42</ele><time>2025-09-13T06:25:33.000Z</time></trkpt>
        <trkpt lat="29.5576955" lon="103.3439036"><ele>2031.73</ele><time>2025-09-13T06:25:39.000Z</time></trkpt>
        <trkpt lat="29.5576955" lon="103.3439036"><ele>2031.73</ele><time>2025-09-13T06:26:31.000Z</time></trkpt>
        <trkpt lat="29.5577275" lon="103.3439618"><ele>2033.23</ele><time>2025-09-13T06:26:34.000Z</time></trkpt>
        <trkpt lat="29.5577565" lon="103.344014"><ele>2035.97</ele><time>2025-09-13T06:26:36.000Z</time></trkpt>
        <trkpt lat="29.5577565" lon="103.344014"><ele>2035.97</ele><time>2025-09-13T06:26:41.000Z</time></trkpt>
        <trkpt lat="29.5577898" lon="103.3439934"><ele>2038.65</ele><time>2025-09-13T06:26:45.000Z</time></trkpt>
        <trkpt lat="29.5577898" lon="103.3439934"><ele>2038.65</ele><time>2025-09-13T06:26:46.000Z</time></trkpt>
        <trkpt lat="29.5577576" lon="103.3440121"><ele>2040.38</ele><time>2025-09-13T06:26:50.000Z</time></trkpt>
        <trkpt lat="29.5577218" lon="103.3440494"><ele>2042.61</ele><time>2025-09-13T06:26:54.000Z</time></trkpt>
        <trkpt lat="29.5577218" lon="103.3440494"><ele>2042.61</ele><time>2025-09-13T06:28:03.000Z</time></trkpt>
        <trkpt lat="29.5576429" lon="103.3441004"><ele>2044.5</ele><time>2025-09-13T06:28:07.000Z</time></trkpt>
        <trkpt lat="29.5576429" lon="103.3441004"><ele>2044.5</ele><time>2025-09-13T06:28:07.000Z</time></trkpt>
        <trkpt lat="29.5577056" lon="103.3439712"><ele>2045.27</ele><time>2025-09-13T06:28:11.000Z</time></trkpt>
        <trkpt lat="29.5576997" lon="103.3439018"><ele>2044.45</ele><time>2025-09-13T06:28:16.000Z</time></trkpt>
        <trkpt lat="29.5576574" lon="103.3439103"><ele>2042.93</ele><time>2025-09-13T06:28:23.000Z</time></trkpt>
        <trkpt lat="29.5576059" lon="103.3439032"><ele>2039.21</ele><time>2025-09-13T06:28:31.000Z</time></trkpt>
        <trkpt lat="29.5576059" lon="103.3439032"><ele>2039.21</ele><time>2025-09-13T06:28:43.000Z</time></trkpt>
        <trkpt lat="29.5576059" lon="103.3439032"><ele>2039.21</ele><time>2025-09-13T06:28:49.000Z</time></trkpt>
        <trkpt lat="29.5576059" lon="103.3439032"><ele>2039.21</ele><time>2025-09-13T06:29:29.000Z</time></trkpt>
        <trkpt lat="29.5576059" lon="103.3439032"><ele>2039.21</ele><time>2025-09-13T06:29:33.000Z</time></trkpt>
        <trkpt lat="29.5576059" lon="103.3439032"><ele>2039.21</ele><time>2025-09-13T06:30:07.000Z</time></trkpt>
        <trkpt lat="29.5576059" lon="103.3439032"><ele>2039.21</ele><time>2025-09-13T06:30:11.000Z</time></trkpt>
        <trkpt lat="29.5576059" lon="103.3439032"><ele>2039.21</ele><time>2025-09-13T06:30:59.000Z</time></trkpt>
        <trkpt lat="29.5575441" lon="103.3439212"><ele>2037.91</ele><time>2025-09-13T06:31:03.000Z</time></trkpt>
        <trkpt lat="29.5575441" lon="103.3439212"><ele>2037.91</ele><time>2025-09-13T06:31:43.000Z</time></trkpt>
        <trkpt lat="29.5575349" lon="103.3438648"><ele>2039.17</ele><time>2025-09-13T06:31:49.000Z</time></trkpt>
        <trkpt lat="29.5575137" lon="103.3438073"><ele>2038.63</ele><time>2025-09-13T06:31:55.000Z</time></trkpt>
        <trkpt lat="29.5574938" lon="103.3437464"><ele>2037.92</ele><time>2025-09-13T06:32:01.000Z</time></trkpt>
        <trkpt lat="29.5574938" lon="103.3437464"><ele>2037.92</ele><time>2025-09-13T06:32:05.000Z</time></trkpt>
        <trkpt lat="29.5574179" lon="103.3436574"><ele>2036.8</ele><time>2025-09-13T06:32:09.000Z</time></trkpt>
        <trkpt lat="29.5574179" lon="103.3436574"><ele>2036.8</ele><time>2025-09-13T06:32:13.000Z</time></trkpt>
        <trkpt lat="29.5573697" lon="103.3436537"><ele>2034.34</ele><time>2025-09-13T06:32:17.000Z</time></trkpt>
        <trkpt lat="29.5573188" lon="103.3436466"><ele>2033.33</ele><time>2025-09-13T06:32:27.000Z</time></trkpt>
        <trkpt lat="29.5572667" lon="103.3436403"><ele>2032.35</ele><time>2025-09-13T06:32:49.000Z</time></trkpt>
        <trkpt lat="29.5572339" lon="103.3436034"><ele>2034.49</ele><time>2025-09-13T06:33:03.000Z</time></trkpt>
        <trkpt lat="29.5571886" lon="103.3435994"><ele>2036.74</ele><time>2025-09-13T06:33:24.000Z</time></trkpt>
        <trkpt lat="29.5571502" lon="103.343574"><ele>2038.13</ele><time>2025-09-13T06:33:41.000Z</time></trkpt>
        <trkpt lat="29.5571102" lon="103.3435819"><ele>2041.06</ele><time>2025-09-13T06:33:51.000Z</time></trkpt>
        <trkpt lat="29.5570725" lon="103.3436108"><ele>2042.96</ele><time>2025-09-13T06:34:07.000Z</time></trkpt>
        <trkpt lat="29.5570262" lon="103.343637"><ele>2045.18</ele><time>2025-09-13T06:34:27.000Z</time></trkpt>
        <trkpt lat="29.5569916" lon="103.3436791"><ele>2047.86</ele><time>2025-09-13T06:34:47.000Z</time></trkpt>
        <trkpt lat="29.5569452" lon="103.3437088"><ele>2049.58</ele><time>2025-09-13T06:34:59.000Z</time></trkpt>
        <trkpt lat="29.5568902" lon="103.3437239"><ele>2052.05</ele><time>2025-09-13T06:35:07.000Z</time></trkpt>
        <trkpt lat="29.5568387" lon="103.3437423"><ele>2053.75</ele><time>2025-09-13T06:35:23.000Z</time></trkpt>
        <trkpt lat="29.5567921" lon="103.3437381"><ele>2054.65</ele><time>2025-09-13T06:35:37.000Z</time></trkpt>
        <trkpt lat="29.5567555" lon="103.3437056"><ele>2055.7</ele><time>2025-09-13T06:35:47.000Z</time></trkpt>
        <trkpt lat="29.5567208" lon="103.3436671"><ele>2057.56</ele><time>2025-09-13T06:35:57.000Z</time></trkpt>
        <trkpt lat="29.5566771" lon="103.3436653"><ele>2060.49</ele><time>2025-09-13T06:36:09.000Z</time></trkpt>
        <trkpt lat="29.5566446" lon="103.343701"><ele>2063.19</ele><time>2025-09-13T06:36:19.000Z</time></trkpt>
        <trkpt lat="29.5566078" lon="103.3437393"><ele>2064.93</ele><time>2025-09-13T06:36:37.000Z</time></trkpt>
        <trkpt lat="29.5565783" lon="103.3437853"><ele>2067.15</ele><time>2025-09-13T06:36:53.000Z</time></trkpt>
        <trkpt lat="29.5565566" lon="103.343834"><ele>2067.65</ele><time>2025-09-13T06:37:05.000Z</time></trkpt>
        <trkpt lat="29.5565281" lon="103.3438777"><ele>2067.26</ele><time>2025-09-13T06:37:25.000Z</time></trkpt>
        <trkpt lat="29.5565415" lon="103.3439251"><ele>2070.15</ele><time>2025-09-13T06:37:35.000Z</time></trkpt>
        <trkpt lat="29.5565328" lon="103.3439798"><ele>2072.97</ele><time>2025-09-13T06:37:59.000Z</time></trkpt>
        <trkpt lat="29.5565159" lon="103.3440304"><ele>2074.87</ele><time>2025-09-13T06:38:25.000Z</time></trkpt>
        <trkpt lat="29.5565025" lon="103.3440861"><ele>2078.9</ele><time>2025-09-13T06:38:49.000Z</time></trkpt>
        <trkpt lat="29.5564712" lon="103.3441247"><ele>2082.85</ele><time>2025-09-13T06:38:59.000Z</time></trkpt>
        <trkpt lat="29.5564311" lon="103.3441625"><ele>2085.02</ele><time>2025-09-13T06:39:19.000Z</time></trkpt>
        <trkpt lat="29.556386" lon="103.3441825"><ele>2088.44</ele><time>2025-09-13T06:39:31.000Z</time></trkpt>
        <trkpt lat="29.5563345" lon="103.3441911"><ele>2090.63</ele><time>2025-09-13T06:39:45.000Z</time></trkpt>
        <trkpt lat="29.5562858" lon="103.3441913"><ele>2094.39</ele><time>2025-09-13T06:39:57.000Z</time></trkpt>
        <trkpt lat="29.5562537" lon="103.3442215"><ele>2097.2</ele><time>2025-09-13T06:40:05.000Z</time></trkpt>
        <trkpt lat="29.5562237" lon="103.3442648"><ele>2099.45</ele><time>2025-09-13T06:40:17.000Z</time></trkpt>
        <trkpt lat="29.5561969" lon="103.3443162"><ele>2099.49</ele><time>2025-09-13T06:40:31.000Z</time></trkpt>
        <trkpt lat="29.5561653" lon="103.3443631"><ele>2100.91</ele><time>2025-09-13T06:40:41.000Z</time></trkpt>
        <trkpt lat="29.5561413" lon="103.3444101"><ele>2101.61</ele><time>2025-09-13T06:40:53.000Z</time></trkpt>
        <trkpt lat="29.556126" lon="103.3444615"><ele>2103.79</ele><time>2025-09-13T06:41:13.000Z</time></trkpt>
        <trkpt lat="29.556126" lon="103.3444615"><ele>2103.79</ele><time>2025-09-13T06:41:37.000Z</time></trkpt>
        <trkpt lat="29.556126" lon="103.3444615"><ele>2103.79</ele><time>2025-09-13T06:41:41.000Z</time></trkpt>
        <trkpt lat="29.556126" lon="103.3444615"><ele>2103.79</ele><time>2025-09-13T06:41:55.000Z</time></trkpt>
        <trkpt lat="29.556126" lon="103.3444615"><ele>2103.79</ele><time>2025-09-13T06:42:01.000Z</time></trkpt>
        <trkpt lat="29.556126" lon="103.3444615"><ele>2103.79</ele><time>2025-09-13T06:42:57.000Z</time></trkpt>
        <trkpt lat="29.556126" lon="103.3444615"><ele>2103.79</ele><time>2025-09-13T06:43:03.000Z</time></trkpt>
        <trkpt lat="29.556126" lon="103.3444615"><ele>2103.79</ele><time>2025-09-13T06:45:41.000Z</time></trkpt>
        <trkpt lat="29.556126" lon="103.3444615"><ele>2103.79</ele><time>2025-09-13T06:45:45.000Z</time></trkpt>
        <trkpt lat="29.556126" lon="103.3444615"><ele>2103.79</ele><time>2025-09-13T06:46:05.000Z</time></trkpt>
        <trkpt lat="29.556126" lon="103.3444615"><ele>2103.79</ele><time>2025-09-13T06:46:11.000Z</time></trkpt>
        <trkpt lat="29.556126" lon="103.3444615"><ele>2103.79</ele><time>2025-09-13T06:47:33.000Z</time></trkpt>
        <trkpt lat="29.556126" lon="103.3444615"><ele>2103.79</ele><time>2025-09-13T06:47:39.000Z</time></trkpt>
        <trkpt lat="29.556126" lon="103.3444615"><ele>2103.79</ele><time>2025-09-13T06:51:51.000Z</time></trkpt>
        <trkpt lat="29.556126" lon="103.3444615"><ele>2103.79</ele><time>2025-09-13T06:51:55.000Z</time></trkpt>
        <trkpt lat="29.556126" lon="103.3444615"><ele>2103.79</ele><time>2025-09-13T06:52:55.000Z</time></trkpt>
        <trkpt lat="29.5561155" lon="103.3445132"><ele>2105.39</ele><time>2025-09-13T06:52:59.000Z</time></trkpt>
        <trkpt lat="29.5561155" lon="103.3445132"><ele>2105.39</ele><time>2025-09-13T06:53:37.000Z</time></trkpt>
        <trkpt lat="29.5561155" lon="103.3445132"><ele>2105.39</ele><time>2025-09-13T06:53:51.000Z</time></trkpt>
        <trkpt lat="29.5560597" lon="103.3445362"><ele>2106.93</ele><time>2025-09-13T06:53:55.000Z</time></trkpt>
        <trkpt lat="29.5560597" lon="103.3445362"><ele>2106.93</ele><time>2025-09-13T06:54:25.000Z</time></trkpt>
        <trkpt lat="29.5560157" lon="103.3445839"><ele>2108.14</ele><time>2025-09-13T06:54:29.000Z</time></trkpt>
        <trkpt lat="29.5559704" lon="103.3446235"><ele>2109.41</ele><time>2025-09-13T06:54:35.000Z</time></trkpt>
        <trkpt lat="29.5559682" lon="103.3446765"><ele>2111.78</ele><time>2025-09-13T06:54:43.000Z</time></trkpt>
        <trkpt lat="29.5559472" lon="103.3447218"><ele>2112.55</ele><time>2025-09-13T06:54:53.000Z</time></trkpt>
        <trkpt lat="29.5559179" lon="103.3447665"><ele>2113.63</ele><time>2025-09-13T06:55:07.000Z</time></trkpt>
        <trkpt lat="29.55588" lon="103.344797"><ele>2116.7</ele><time>2025-09-13T06:55:23.000Z</time></trkpt>
        <trkpt lat="29.5558599" lon="103.344846"><ele>2119.09</ele><time>2025-09-13T06:55:35.000Z</time></trkpt>
        <trkpt lat="29.5558378" lon="103.3448956"><ele>2120.27</ele><time>2025-09-13T06:55:45.000Z</time></trkpt>
        <trkpt lat="29.5558199" lon="103.3449514"><ele>2120.94</ele><time>2025-09-13T06:55:55.000Z</time></trkpt>
        <trkpt lat="29.5557825" lon="103.3449631"><ele>2122.79</ele><time>2025-09-13T06:56:09.000Z</time></trkpt>
        <trkpt lat="29.5557355" lon="103.3449449"><ele>2125.71</ele><time>2025-09-13T06:56:25.000Z</time></trkpt>
        <trkpt lat="29.5556856" lon="103.3449247"><ele>2129.85</ele><time>2025-09-13T06:56:37.000Z</time></trkpt>
        <trkpt lat="29.5556484" lon="103.3448867"><ele>2133.24</ele><time>2025-09-13T06:57:01.000Z</time></trkpt>
        <trkpt lat="29.5555963" lon="103.3448783"><ele>2136.33</ele><time>2025-09-13T06:57:15.000Z</time></trkpt>
        <trkpt lat="29.5555526" lon="103.344903"><ele>2137.73</ele><time>2025-09-13T06:57:27.000Z</time></trkpt>
        <trkpt lat="29.5555219" lon="103.3449486"><ele>2139.03</ele><time>2025-09-13T06:57:43.000Z</time></trkpt>
        <trkpt lat="29.5555351" lon="103.3449999"><ele>2140.16</ele><time>2025-09-13T06:57:53.000Z</time></trkpt>
        <trkpt lat="29.5555104" lon="103.3450177"><ele>2141.82</ele><time>2025-09-13T06:57:59.000Z</time></trkpt>
        <trkpt lat="29.5554752" lon="103.3450449"><ele>2142.22</ele><time>2025-09-13T06:58:13.000Z</time></trkpt>
        <trkpt lat="29.5554561" lon="103.3450905"><ele>2142.65</ele><time>2025-09-13T06:58:39.000Z</time></trkpt>
        <trkpt lat="29.5554224" lon="103.3451284"><ele>2145.3</ele><time>2025-09-13T06:58:55.000Z</time></trkpt>
        <trkpt lat="29.5553815" lon="103.3451182"><ele>2148.68</ele><time>2025-09-13T06:59:09.000Z</time></trkpt>
        <trkpt lat="29.5553633" lon="103.3450645"><ele>2149.64</ele><time>2025-09-13T06:59:23.000Z</time></trkpt>
        <trkpt lat="29.5553252" lon="103.3450302"><ele>2151.96</ele><time>2025-09-13T06:59:49.000Z</time></trkpt>
        <trkpt lat="29.5552876" lon="103.3449921"><ele>2154.78</ele><time>2025-09-13T07:00:07.000Z</time></trkpt>
        <trkpt lat="29.5552414" lon="103.3449687"><ele>2156.96</ele><time>2025-09-13T07:00:15.000Z</time></trkpt>
        <trkpt lat="29.5552119" lon="103.3450058"><ele>2158.87</ele><time>2025-09-13T07:00:27.000Z</time></trkpt>
        <trkpt lat="29.5551809" lon="103.3450628"><ele>2161.61</ele><time>2025-09-13T07:00:37.000Z</time></trkpt>
        <trkpt lat="29.5551351" lon="103.3450933"><ele>2163.62</ele><time>2025-09-13T07:00:47.000Z</time></trkpt>
        <trkpt lat="29.5550875" lon="103.3451083"><ele>2163.84</ele><time>2025-09-13T07:00:55.000Z</time></trkpt>
        <trkpt lat="29.5550427" lon="103.3451285"><ele>2163.36</ele><time>2025-09-13T07:01:01.000Z</time></trkpt>
        <trkpt lat="29.5549975" lon="103.3451436"><ele>2163.18</ele><time>2025-09-13T07:01:09.000Z</time></trkpt>
        <trkpt lat="29.554952" lon="103.3451411"><ele>2163.73</ele><time>2025-09-13T07:01:19.000Z</time></trkpt>
        <trkpt lat="29.5549065" lon="103.3451423"><ele>2165.16</ele><time>2025-09-13T07:01:33.000Z</time></trkpt>
        <trkpt lat="29.5548572" lon="103.345153"><ele>2166.36</ele><time>2025-09-13T07:01:45.000Z</time></trkpt>
        <trkpt lat="29.5548233" lon="103.3451937"><ele>2166.76</ele><time>2025-09-13T07:01:57.000Z</time></trkpt>
        <trkpt lat="29.5547927" lon="103.3452375"><ele>2167.35</ele><time>2025-09-13T07:02:11.000Z</time></trkpt>
        <trkpt lat="29.5547556" lon="103.3452706"><ele>2166.31</ele><time>2025-09-13T07:02:25.000Z</time></trkpt>
        <trkpt lat="29.5547196" lon="103.345303"><ele>2167.15</ele><time>2025-09-13T07:02:39.000Z</time></trkpt>
        <trkpt lat="29.5546822" lon="103.3453369"><ele>2168.66</ele><time>2025-09-13T07:02:57.000Z</time></trkpt>
        <trkpt lat="29.5546324" lon="103.3453522"><ele>2170.71</ele><time>2025-09-13T07:03:13.000Z</time></trkpt>
        <trkpt lat="29.5545803" lon="103.3453597"><ele>2173.04</ele><time>2025-09-13T07:03:29.000Z</time></trkpt>
        <trkpt lat="29.5545276" lon="103.3453635"><ele>2176.65</ele><time>2025-09-13T07:03:43.000Z</time></trkpt>
        <trkpt lat="29.5544737" lon="103.345373"><ele>2178.94</ele><time>2025-09-13T07:04:05.000Z</time></trkpt>
        <trkpt lat="29.5544225" lon="103.3453824"><ele>2183.7</ele><time>2025-09-13T07:04:21.000Z</time></trkpt>
        <trkpt lat="29.5543961" lon="103.345382"><ele>2185.86</ele><time>2025-09-13T07:04:31.000Z</time></trkpt>
        <trkpt lat="29.5543625" lon="103.3454016"><ele>2188.13</ele><time>2025-09-13T07:04:47.000Z</time></trkpt>
        <trkpt lat="29.5543196" lon="103.3454178"><ele>2189.57</ele><time>2025-09-13T07:05:03.000Z</time></trkpt>
        <trkpt lat="29.554268" lon="103.3454356"><ele>2192.57</ele><time>2025-09-13T07:05:11.000Z</time></trkpt>
        <trkpt lat="29.5542186" lon="103.3454325"><ele>2192.45</ele><time>2025-09-13T07:05:35.000Z</time></trkpt>
        <trkpt lat="29.5541793" lon="103.3454552"><ele>2195.27</ele><time>2025-09-13T07:05:53.000Z</time></trkpt>
        <trkpt lat="29.5541353" lon="103.3454619"><ele>2199.07</ele><time>2025-09-13T07:06:07.000Z</time></trkpt>
        <trkpt lat="29.5540889" lon="103.3454644"><ele>2201.91</ele><time>2025-09-13T07:06:17.000Z</time></trkpt>
        <trkpt lat="29.5540431" lon="103.3454561"><ele>2205.2</ele><time>2025-09-13T07:06:31.000Z</time></trkpt>
        <trkpt lat="29.5540039" lon="103.3454254"><ele>2209.71</ele><time>2025-09-13T07:06:39.000Z</time></trkpt>
        <trkpt lat="29.5539623" lon="103.3453972"><ele>2212.91</ele><time>2025-09-13T07:06:51.000Z</time></trkpt>
        <trkpt lat="29.5539218" lon="103.3453644"><ele>2214.36</ele><time>2025-09-13T07:07:03.000Z</time></trkpt>
        <trkpt lat="29.5538833" lon="103.3453265"><ele>2216.65</ele><time>2025-09-13T07:07:13.000Z</time></trkpt>
        <trkpt lat="29.553844" lon="103.3452965"><ele>2218.85</ele><time>2025-09-13T07:07:21.000Z</time></trkpt>
        <trkpt lat="29.5537931" lon="103.3452894"><ele>2220.65</ele><time>2025-09-13T07:07:31.000Z</time></trkpt>
        <trkpt lat="29.5537416" lon="103.3452876"><ele>2220.84</ele><time>2025-09-13T07:07:39.000Z</time></trkpt>
        <trkpt lat="29.5536933" lon="103.3452811"><ele>2220.77</ele><time>2025-09-13T07:07:47.000Z</time></trkpt>
        <trkpt lat="29.5536478" lon="103.345269"><ele>2221.35</ele><time>2025-09-13T07:07:55.000Z</time></trkpt>
        <trkpt lat="29.5535951" lon="103.3452801"><ele>2222.04</ele><time>2025-09-13T07:08:03.000Z</time></trkpt>
        <trkpt lat="29.5535424" lon="103.3452992"><ele>2222.52</ele><time>2025-09-13T07:08:11.000Z</time></trkpt>
        <trkpt lat="29.553491" lon="103.345295"><ele>2223.19</ele><time>2025-09-13T07:08:21.000Z</time></trkpt>
        <trkpt lat="29.5534387" lon="103.3453088"><ele>2226.11</ele><time>2025-09-13T07:08:29.000Z</time></trkpt>
        <trkpt lat="29.5533884" lon="103.3453166"><ele>2227.02</ele><time>2025-09-13T07:08:37.000Z</time></trkpt>
        <trkpt lat="29.5533431" lon="103.3453313"><ele>2228.05</ele><time>2025-09-13T07:08:45.000Z</time></trkpt>
        <trkpt lat="29.5532899" lon="103.3453488"><ele>2228.75</ele><time>2025-09-13T07:08:53.000Z</time></trkpt>
        <trkpt lat="29.55324" lon="103.3453544"><ele>2230.73</ele><time>2025-09-13T07:09:01.000Z</time></trkpt>
        <trkpt lat="29.5531898" lon="103.3453466"><ele>2233.01</ele><time>2025-09-13T07:09:09.000Z</time></trkpt>
        <trkpt lat="29.5531381" lon="103.3453416"><ele>2234.91</ele><time>2025-09-13T07:09:17.000Z</time></trkpt>
        <trkpt lat="29.553087" lon="103.3453414"><ele>2236.41</ele><time>2025-09-13T07:09:23.000Z</time></trkpt>
        <trkpt lat="29.5530387" lon="103.345354"><ele>2236.17</ele><time>2025-09-13T07:09:29.000Z</time></trkpt>
        <trkpt lat="29.5529843" lon="103.3453708"><ele>2236.97</ele><time>2025-09-13T07:09:37.000Z</time></trkpt>
        <trkpt lat="29.5529351" lon="103.3453863"><ele>2237.92</ele><time>2025-09-13T07:09:43.000Z</time></trkpt>
        <trkpt lat="29.5528901" lon="103.345401"><ele>2237.95</ele><time>2025-09-13T07:09:49.000Z</time></trkpt>
        <trkpt lat="29.5528432" lon="103.3454101"><ele>2238</ele><time>2025-09-13T07:09:55.000Z</time></trkpt>
        <trkpt lat="29.5527888" lon="103.3454075"><ele>2238.36</ele><time>2025-09-13T07:10:01.000Z</time></trkpt>
        <trkpt lat="29.5527333" lon="103.3454076"><ele>2238.25</ele><time>2025-09-13T07:10:07.000Z</time></trkpt>
        <trkpt lat="29.5526819" lon="103.3453982"><ele>2238.23</ele><time>2025-09-13T07:10:11.000Z</time></trkpt>
        <trkpt lat="29.5526251" lon="103.3453992"><ele>2237.63</ele><time>2025-09-13T07:10:17.000Z</time></trkpt>
        <trkpt lat="29.5525751" lon="103.345423"><ele>2237.54</ele><time>2025-09-13T07:10:23.000Z</time></trkpt>
        <trkpt lat="29.5525218" lon="103.3454407"><ele>2236.7</ele><time>2025-09-13T07:10:29.000Z</time></trkpt>
        <trkpt lat="29.5524726" lon="103.3454413"><ele>2236.79</ele><time>2025-09-13T07:10:35.000Z</time></trkpt>
        <trkpt lat="29.5524218" lon="103.3454483"><ele>2237.16</ele><time>2025-09-13T07:10:43.000Z</time></trkpt>
        <trkpt lat="29.5523895" lon="103.3454096"><ele>2236.57</ele><time>2025-09-13T07:10:49.000Z</time></trkpt>
        <trkpt lat="29.5523851" lon="103.3453451"><ele>2236.13</ele><time>2025-09-13T07:10:55.000Z</time></trkpt>
        <trkpt lat="29.5523733" lon="103.3452798"><ele>2235.49</ele><time>2025-09-13T07:11:01.000Z</time></trkpt>
        <trkpt lat="29.5523578" lon="103.3452233"><ele>2236.65</ele><time>2025-09-13T07:11:09.000Z</time></trkpt>
        <trkpt lat="29.5523243" lon="103.3451891"><ele>2238.13</ele><time>2025-09-13T07:11:21.000Z</time></trkpt>
        <trkpt lat="29.5522839" lon="103.3451523"><ele>2238.48</ele><time>2025-09-13T07:11:27.000Z</time></trkpt>
        <trkpt lat="29.5522349" lon="103.3451312"><ele>2237.63</ele><time>2025-09-13T07:11:33.000Z</time></trkpt>
        <trkpt lat="29.5521804" lon="103.3451273"><ele>2237.77</ele><time>2025-09-13T07:11:39.000Z</time></trkpt>
        <trkpt lat="29.5521263" lon="103.3451192"><ele>2237.71</ele><time>2025-09-13T07:11:45.000Z</time></trkpt>
        <trkpt lat="29.5520763" lon="103.3450963"><ele>2237.85</ele><time>2025-09-13T07:11:51.000Z</time></trkpt>
        <trkpt lat="29.5520255" lon="103.3450751"><ele>2237.22</ele><time>2025-09-13T07:11:57.000Z</time></trkpt>
        <trkpt lat="29.5519842" lon="103.3450345"><ele>2237.61</ele><time>2025-09-13T07:12:03.000Z</time></trkpt>
        <trkpt lat="29.5519759" lon="103.3449816"><ele>2237.43</ele><time>2025-09-13T07:12:07.000Z</time></trkpt>
        <trkpt lat="29.5519732" lon="103.3449223"><ele>2236.97</ele><time>2025-09-13T07:12:13.000Z</time></trkpt>
        <trkpt lat="29.5519605" lon="103.3448605"><ele>2236.06</ele><time>2025-09-13T07:12:19.000Z</time></trkpt>
        <trkpt lat="29.5519326" lon="103.3448071"><ele>2235.97</ele><time>2025-09-13T07:12:25.000Z</time></trkpt>
        <trkpt lat="29.5519038" lon="103.344756"><ele>2235.83</ele><time>2025-09-13T07:12:31.000Z</time></trkpt>
        <trkpt lat="29.5518701" lon="103.3447099"><ele>2235.89</ele><time>2025-09-13T07:12:37.000Z</time></trkpt>
        <trkpt lat="29.5518369" lon="103.3446639"><ele>2235.44</ele><time>2025-09-13T07:12:43.000Z</time></trkpt>
        <trkpt lat="29.5517986" lon="103.3446154"><ele>2235.34</ele><time>2025-09-13T07:12:51.000Z</time></trkpt>
        <trkpt lat="29.5517609" lon="103.3445635"><ele>2234.19</ele><time>2025-09-13T07:12:59.000Z</time></trkpt>
        <trkpt lat="29.5517313" lon="103.3445163"><ele>2233.66</ele><time>2025-09-13T07:13:05.000Z</time></trkpt>
        <trkpt lat="29.5517013" lon="103.3444746"><ele>2233.61</ele><time>2025-09-13T07:13:11.000Z</time></trkpt>
        <trkpt lat="29.5516688" lon="103.3444299"><ele>2233.8</ele><time>2025-09-13T07:13:19.000Z</time></trkpt>
        <trkpt lat="29.5516385" lon="103.3443821"><ele>2233.42</ele><time>2025-09-13T07:13:27.000Z</time></trkpt>
        <trkpt lat="29.5516026" lon="103.3443371"><ele>2232.77</ele><time>2025-09-13T07:13:35.000Z</time></trkpt>
        <trkpt lat="29.5515649" lon="103.3442943"><ele>2231.42</ele><time>2025-09-13T07:13:41.000Z</time></trkpt>
        <trkpt lat="29.5515194" lon="103.3442654"><ele>2229.69</ele><time>2025-09-13T07:13:47.000Z</time></trkpt>
        <trkpt lat="29.551477" lon="103.3442399"><ele>2228.93</ele><time>2025-09-13T07:13:53.000Z</time></trkpt>
        <trkpt lat="29.5514284" lon="103.3442237"><ele>2228.22</ele><time>2025-09-13T07:14:01.000Z</time></trkpt>
        <trkpt lat="29.551381" lon="103.344205"><ele>2227.31</ele><time>2025-09-13T07:14:07.000Z</time></trkpt>
        <trkpt lat="29.5513301" lon="103.3441879"><ele>2226.46</ele><time>2025-09-13T07:14:13.000Z</time></trkpt>
        <trkpt lat="29.5512762" lon="103.3441805"><ele>2227.1</ele><time>2025-09-13T07:14:19.000Z</time></trkpt>
        <trkpt lat="29.5512252" lon="103.3441727"><ele>2227.48</ele><time>2025-09-13T07:14:25.000Z</time></trkpt>
        <trkpt lat="29.5511735" lon="103.3441743"><ele>2228.05</ele><time>2025-09-13T07:14:31.000Z</time></trkpt>
        <trkpt lat="29.5511268" lon="103.3441866"><ele>2228.33</ele><time>2025-09-13T07:14:37.000Z</time></trkpt>
        <trkpt lat="29.5510707" lon="103.344193"><ele>2227.4</ele><time>2025-09-13T07:14:45.000Z</time></trkpt>
        <trkpt lat="29.5510205" lon="103.3441628"><ele>2225.53</ele><time>2025-09-13T07:14:53.000Z</time></trkpt>
        <trkpt lat="29.5509738" lon="103.3441284"><ele>2226.07</ele><time>2025-09-13T07:15:01.000Z</time></trkpt>
        <trkpt lat="29.5509182" lon="103.3441198"><ele>2227.15</ele><time>2025-09-13T07:15:11.000Z</time></trkpt>
        <trkpt lat="29.5508558" lon="103.344115"><ele>2227.55</ele><time>2025-09-13T07:15:19.000Z</time></trkpt>
        <trkpt lat="29.5508043" lon="103.3441162"><ele>2227.98</ele><time>2025-09-13T07:15:25.000Z</time></trkpt>
        <trkpt lat="29.5507612" lon="103.3440918"><ele>2227.74</ele><time>2025-09-13T07:15:33.000Z</time></trkpt>
        <trkpt lat="29.5507159" lon="103.3440617"><ele>2228.11</ele><time>2025-09-13T07:15:39.000Z</time></trkpt>
        <trkpt lat="29.5507093" lon="103.3440099"><ele>2227.96</ele><time>2025-09-13T07:15:47.000Z</time></trkpt>
        <trkpt lat="29.5507204" lon="103.3439462"><ele>2227.09</ele><time>2025-09-13T07:15:53.000Z</time></trkpt>
        <trkpt lat="29.5506949" lon="103.3439044"><ele>2226.86</ele><time>2025-09-13T07:16:01.000Z</time></trkpt>
        <trkpt lat="29.5506465" lon="103.3438894"><ele>2227.68</ele><time>2025-09-13T07:16:07.000Z</time></trkpt>
        <trkpt lat="29.5505963" lon="103.3438976"><ele>2227.81</ele><time>2025-09-13T07:16:15.000Z</time></trkpt>
        <trkpt lat="29.5505481" lon="103.3438777"><ele>2227.29</ele><time>2025-09-13T07:16:25.000Z</time></trkpt>
        <trkpt lat="29.5505105" lon="103.3438378"><ele>2226.58</ele><time>2025-09-13T07:16:33.000Z</time></trkpt>
        <trkpt lat="29.550482" lon="103.3437858"><ele>2225.56</ele><time>2025-09-13T07:16:41.000Z</time></trkpt>
        <trkpt lat="29.5504483" lon="103.3437396"><ele>2224.94</ele><time>2025-09-13T07:16:47.000Z</time></trkpt>
        <trkpt lat="29.5504188" lon="103.3436947"><ele>2225.21</ele><time>2025-09-13T07:16:53.000Z</time></trkpt>
        <trkpt lat="29.5503826" lon="103.3436446"><ele>2225.62</ele><time>2025-09-13T07:16:59.000Z</time></trkpt>
        <trkpt lat="29.5503467" lon="103.3436025"><ele>2226.55</ele><time>2025-09-13T07:17:05.000Z</time></trkpt>
        <trkpt lat="29.5503143" lon="103.3435586"><ele>2227.07</ele><time>2025-09-13T07:17:13.000Z</time></trkpt>
        <trkpt lat="29.550284" lon="103.343508"><ele>2227.03</ele><time>2025-09-13T07:17:21.000Z</time></trkpt>
        <trkpt lat="29.5502648" lon="103.3434579"><ele>2227.49</ele><time>2025-09-13T07:17:27.000Z</time></trkpt>
        <trkpt lat="29.5502408" lon="103.3434112"><ele>2227.31</ele><time>2025-09-13T07:17:33.000Z</time></trkpt>
        <trkpt lat="29.5502076" lon="103.3433612"><ele>2225.69</ele><time>2025-09-13T07:17:41.000Z</time></trkpt>
        <trkpt lat="29.5501773" lon="103.343314"><ele>2226.6</ele><time>2025-09-13T07:17:47.000Z</time></trkpt>
        <trkpt lat="29.5501421" lon="103.3432667"><ele>2226.89</ele><time>2025-09-13T07:17:53.000Z</time></trkpt>
        <trkpt lat="29.5501047" lon="103.3432271"><ele>2227.28</ele><time>2025-09-13T07:17:59.000Z</time></trkpt>
        <trkpt lat="29.5500625" lon="103.3431962"><ele>2228.02</ele><time>2025-09-13T07:18:05.000Z</time></trkpt>
        <trkpt lat="29.5500186" lon="103.3431738"><ele>2229.34</ele><time>2025-09-13T07:18:11.000Z</time></trkpt>
        <trkpt lat="29.5500186" lon="103.3431738"><ele>2229.34</ele><time>2025-09-13T07:18:25.000Z</time></trkpt>
        <trkpt lat="29.5499998" lon="103.3431224"><ele>2230.03</ele><time>2025-09-13T07:18:29.000Z</time></trkpt>
        <trkpt lat="29.5499998" lon="103.3431224"><ele>2230.03</ele><time>2025-09-13T07:18:49.000Z</time></trkpt>
        <trkpt lat="29.5500045" lon="103.3430622"><ele>2230.62</ele><time>2025-09-13T07:18:55.000Z</time></trkpt>
        <trkpt lat="29.5499648" lon="103.3430172"><ele>2231.36</ele><time>2025-09-13T07:19:01.000Z</time></trkpt>
        <trkpt lat="29.5499313" lon="103.3429757"><ele>2231.77</ele><time>2025-09-13T07:19:05.000Z</time></trkpt>
        <trkpt lat="29.5498999" lon="103.3429272"><ele>2232.73</ele><time>2025-09-13T07:19:11.000Z</time></trkpt>
        <trkpt lat="29.5498741" lon="103.3428691"><ele>2233.69</ele><time>2025-09-13T07:19:19.000Z</time></trkpt>
        <trkpt lat="29.5498481" lon="103.3428118"><ele>2234.04</ele><time>2025-09-13T07:19:25.000Z</time></trkpt>
        <trkpt lat="29.5498148" lon="103.3427615"><ele>2233.43</ele><time>2025-09-13T07:19:31.000Z</time></trkpt>
        <trkpt lat="29.5497791" lon="103.3427051"><ele>2233.53</ele><time>2025-09-13T07:19:37.000Z</time></trkpt>
        <trkpt lat="29.5497446" lon="103.3426489"><ele>2233.97</ele><time>2025-09-13T07:19:43.000Z</time></trkpt>
        <trkpt lat="29.5497071" lon="103.3425962"><ele>2234.5</ele><time>2025-09-13T07:19:49.000Z</time></trkpt>
        <trkpt lat="29.5496677" lon="103.3425435"><ele>2235.02</ele><time>2025-09-13T07:19:55.000Z</time></trkpt>
        <trkpt lat="29.5496285" lon="103.3424903"><ele>2234.17</ele><time>2025-09-13T07:20:01.000Z</time></trkpt>
        <trkpt lat="29.5495832" lon="103.3424482"><ele>2233.61</ele><time>2025-09-13T07:20:07.000Z</time></trkpt>
        <trkpt lat="29.5495412" lon="103.3424112"><ele>2233.72</ele><time>2025-09-13T07:20:13.000Z</time></trkpt>
        <trkpt lat="29.549503" lon="103.3423589"><ele>2234.83</ele><time>2025-09-13T07:20:19.000Z</time></trkpt>
        <trkpt lat="29.5494641" lon="103.342309"><ele>2235.63</ele><time>2025-09-13T07:20:25.000Z</time></trkpt>
        <trkpt lat="29.5494188" lon="103.3422628"><ele>2236.41</ele><time>2025-09-13T07:20:31.000Z</time></trkpt>
        <trkpt lat="29.5493778" lon="103.3422058"><ele>2236.67</ele><time>2025-09-13T07:20:37.000Z</time></trkpt>
        <trkpt lat="29.5493499" lon="103.3421435"><ele>2236.37</ele><time>2025-09-13T07:20:43.000Z</time></trkpt>
        <trkpt lat="29.5493431" lon="103.3420856"><ele>2235.5</ele><time>2025-09-13T07:20:47.000Z</time></trkpt>
        <trkpt lat="29.5493371" lon="103.3420205"><ele>2235.31</ele><time>2025-09-13T07:20:53.000Z</time></trkpt>
        <trkpt lat="29.5493299" lon="103.3419504"><ele>2235.32</ele><time>2025-09-13T07:20:59.000Z</time></trkpt>
        <trkpt lat="29.5493098" lon="103.3418853"><ele>2236.42</ele><time>2025-09-13T07:21:05.000Z</time></trkpt>
        <trkpt lat="29.5492646" lon="103.3418384"><ele>2237.3</ele><time>2025-09-13T07:21:13.000Z</time></trkpt>
        <trkpt lat="29.5492888" lon="103.3418304"><ele>2238.28</ele><time>2025-09-13T07:21:21.000Z</time></trkpt>
        <trkpt lat="29.549345" lon="103.341801"><ele>2238.16</ele><time>2025-09-13T07:21:27.000Z</time></trkpt>
        <trkpt lat="29.5493865" lon="103.341754"><ele>2238.16</ele><time>2025-09-13T07:21:29.000Z</time></trkpt>
        <trkpt lat="29.549353" lon="103.341737"><ele>2238.23</ele><time>2025-09-13T07:21:31.000Z</time></trkpt>
        <trkpt lat="29.5493204" lon="103.3418021"><ele>2238.15</ele><time>2025-09-13T07:21:41.000Z</time></trkpt>
        <trkpt lat="29.5493232" lon="103.3418341"><ele>2238.11</ele><time>2025-09-13T07:21:44.000Z</time></trkpt>
        <trkpt lat="29.5493232" lon="103.3418341"><ele>2238.11</ele><time>2025-09-13T07:21:47.000Z</time></trkpt>
        <trkpt lat="29.5493235" lon="103.3417775"><ele>2237.98</ele><time>2025-09-13T07:21:51.000Z</time></trkpt>
        <trkpt lat="29.5493235" lon="103.3417775"><ele>2237.98</ele><time>2025-09-13T07:22:01.000Z</time></trkpt>
        <trkpt lat="29.5492934" lon="103.3417794"><ele>2235.62</ele><time>2025-09-13T07:22:05.000Z</time></trkpt>
        <trkpt lat="29.5492634" lon="103.3418012"><ele>2234.13</ele><time>2025-09-13T07:22:11.000Z</time></trkpt>
        <trkpt lat="29.5492848" lon="103.3418333"><ele>2231.3</ele><time>2025-09-13T07:22:23.000Z</time></trkpt>
        <trkpt lat="29.5493067" lon="103.3417974"><ele>2227.95</ele><time>2025-09-13T07:22:27.000Z</time></trkpt>
        <trkpt lat="29.5492945" lon="103.3417536"><ele>2227.08</ele><time>2025-09-13T07:22:33.000Z</time></trkpt>
        <trkpt lat="29.5492945" lon="103.3417536"><ele>2227.08</ele><time>2025-09-13T07:22:57.000Z</time></trkpt>
        <trkpt lat="29.54931" lon="103.341788"><ele>2226.63</ele><time>2025-09-13T07:23:03.000Z</time></trkpt>
        <trkpt lat="29.54931" lon="103.341788"><ele>2226.63</ele><time>2025-09-13T07:23:46.000Z</time></trkpt>
        <trkpt lat="29.54931" lon="103.341788"><ele>2226.63</ele><time>2025-09-13T07:24:05.000Z</time></trkpt>
        <trkpt lat="29.54931" lon="103.341788"><ele>2226.63</ele><time>2025-09-13T07:24:07.000Z</time></trkpt>
        <trkpt lat="29.54931" lon="103.341788"><ele>2226.63</ele><time>2025-09-13T07:24:23.000Z</time></trkpt>
        <trkpt lat="29.54931" lon="103.341788"><ele>2226.63</ele><time>2025-09-13T07:24:29.000Z</time></trkpt>
        <trkpt lat="29.54931" lon="103.341788"><ele>2226.63</ele><time>2025-09-13T07:24:53.000Z</time></trkpt>
        <trkpt lat="29.54931" lon="103.341788"><ele>2226.63</ele><time>2025-09-13T07:24:59.000Z</time></trkpt>
        <trkpt lat="29.54931" lon="103.341788"><ele>2226.63</ele><time>2025-09-13T07:27:03.000Z</time></trkpt>
        <trkpt lat="29.5493636" lon="103.3417936"><ele>2228.98</ele><time>2025-09-13T07:27:07.000Z</time></trkpt>
        <trkpt lat="29.5493636" lon="103.3417936"><ele>2228.98</ele><time>2025-09-13T07:27:09.000Z</time></trkpt>
        <trkpt lat="29.5493636" lon="103.3417936"><ele>2228.98</ele><time>2025-09-13T07:27:27.000Z</time></trkpt>
        <trkpt lat="29.5493252" lon="103.3418213"><ele>2230.6</ele><time>2025-09-13T07:27:33.000Z</time></trkpt>
        <trkpt lat="29.5493252" lon="103.3418213"><ele>2230.6</ele><time>2025-09-13T07:33:49.000Z</time></trkpt>
        <trkpt lat="29.5493252" lon="103.3418213"><ele>2230.6</ele><time>2025-09-13T07:33:57.000Z</time></trkpt>
        <trkpt lat="29.5493459" lon="103.3418714"><ele>2230.02</ele><time>2025-09-13T07:34:03.000Z</time></trkpt>
        <trkpt lat="29.5493459" lon="103.3418714"><ele>2230.02</ele><time>2025-09-13T07:36:14.000Z</time></trkpt>
        <trkpt lat="29.5493337" lon="103.3418684"><ele>2229.88</ele><time>2025-09-13T07:36:16.000Z</time></trkpt>
        <trkpt lat="29.5493337" lon="103.3418684"><ele>2229.88</ele><time>2025-09-13T07:36:21.000Z</time></trkpt>
        <trkpt lat="29.5493337" lon="103.3418684"><ele>2229.88</ele><time>2025-09-13T07:36:25.000Z</time></trkpt>
        <trkpt lat="29.5493337" lon="103.3418684"><ele>2229.88</ele><time>2025-09-13T07:37:09.000Z</time></trkpt>
        <trkpt lat="29.5493337" lon="103.3418684"><ele>2229.88</ele><time>2025-09-13T07:37:13.000Z</time></trkpt>
        <trkpt lat="29.5493337" lon="103.3418684"><ele>2229.88</ele><time>2025-09-13T07:40:45.000Z</time></trkpt>
        <trkpt lat="29.5493337" lon="103.3418684"><ele>2229.88</ele><time>2025-09-13T07:40:51.000Z</time></trkpt>
        <trkpt lat="29.5493337" lon="103.3418684"><ele>2229.88</ele><time>2025-09-13T07:45:15.000Z</time></trkpt>
        <trkpt lat="29.5493337" lon="103.3418684"><ele>2229.88</ele><time>2025-09-13T07:45:21.000Z</time></trkpt>
        <trkpt lat="29.5493337" lon="103.3418684"><ele>2229.88</ele><time>2025-09-13T07:45:49.000Z</time></trkpt>
        <trkpt lat="29.5492768" lon="103.3418911"><ele>2230.07</ele><time>2025-09-13T07:45:53.000Z</time></trkpt>
        <trkpt lat="29.5492768" lon="103.3418911"><ele>2230.07</ele><time>2025-09-13T07:46:14.000Z</time></trkpt>
        <trkpt lat="29.5492897" lon="103.3418388"><ele>2234.61</ele><time>2025-09-13T07:46:42.000Z</time></trkpt>
        <trkpt lat="29.5492897" lon="103.3418388"><ele>2234.61</ele><time>2025-09-13T07:47:01.000Z</time></trkpt>
        <trkpt lat="29.5492897" lon="103.3418388"><ele>2234.61</ele><time>2025-09-13T07:47:05.000Z</time></trkpt>
        <trkpt lat="29.5492897" lon="103.3418388"><ele>2234.61</ele><time>2025-09-13T07:54:37.000Z</time></trkpt>
        <trkpt lat="29.5494453" lon="103.3418767"><ele>2235.93</ele><time>2025-09-13T07:54:43.000Z</time></trkpt>
        <trkpt lat="29.5494453" lon="103.3418767"><ele>2235.93</ele><time>2025-09-13T07:54:48.000Z</time></trkpt>
        <trkpt lat="29.5493978" lon="103.3418703"><ele>2222.02</ele><time>2025-09-13T07:54:50.000Z</time></trkpt>
        <trkpt lat="29.5493658" lon="103.341893"><ele>2215.58</ele><time>2025-09-13T07:54:54.000Z</time></trkpt>
        <trkpt lat="29.5493991" lon="103.3419502"><ele>2212.48</ele><time>2025-09-13T07:55:00.000Z</time></trkpt>
        <trkpt lat="29.5493562" lon="103.3419226"><ele>2210.8</ele><time>2025-09-13T07:55:08.000Z</time></trkpt>
        <trkpt lat="29.549333" lon="103.3418713"><ele>2220.62</ele><time>2025-09-13T07:55:32.000Z</time></trkpt>
        <trkpt lat="29.5493108" lon="103.3418102"><ele>2228.05</ele><time>2025-09-13T07:55:40.000Z</time></trkpt>
        <trkpt lat="29.549277" lon="103.3417292"><ele>2231.47</ele><time>2025-09-13T07:55:44.000Z</time></trkpt>
        <trkpt lat="29.5492406" lon="103.3416489"><ele>2233.04</ele><time>2025-09-13T07:55:48.000Z</time></trkpt>
        <trkpt lat="29.5492385" lon="103.3415721"><ele>2235.21</ele><time>2025-09-13T07:55:52.000Z</time></trkpt>
        <trkpt lat="29.5492397" lon="103.3415032"><ele>2236.33</ele><time>2025-09-13T07:55:58.000Z</time></trkpt>
        <trkpt lat="29.5492474" lon="103.3414455"><ele>2236.42</ele><time>2025-09-13T07:56:04.000Z</time></trkpt>
        <trkpt lat="29.5492413" lon="103.3413884"><ele>2236.74</ele><time>2025-09-13T07:56:12.000Z</time></trkpt>
        <trkpt lat="29.5492101" lon="103.3413477"><ele>2237.51</ele><time>2025-09-13T07:56:20.000Z</time></trkpt>
        <trkpt lat="29.5491668" lon="103.3413227"><ele>2239.23</ele><time>2025-09-13T07:56:30.000Z</time></trkpt>
        <trkpt lat="29.549132" lon="103.3412824"><ele>2240.56</ele><time>2025-09-13T07:56:51.000Z</time></trkpt>
        <trkpt lat="29.5491012" lon="103.3412415"><ele>2243.92</ele><time>2025-09-13T07:57:02.000Z</time></trkpt>
        <trkpt lat="29.5490816" lon="103.3411903"><ele>2245.86</ele><time>2025-09-13T07:57:14.000Z</time></trkpt>
        <trkpt lat="29.549041" lon="103.3411729"><ele>2247.41</ele><time>2025-09-13T07:57:22.000Z</time></trkpt>
        <trkpt lat="29.5489944" lon="103.3411694"><ele>2248.26</ele><time>2025-09-13T07:57:28.000Z</time></trkpt>
        <trkpt lat="29.5489395" lon="103.3411575"><ele>2249.26</ele><time>2025-09-13T07:57:36.000Z</time></trkpt>
        <trkpt lat="29.548891" lon="103.3411462"><ele>2250.41</ele><time>2025-09-13T07:57:42.000Z</time></trkpt>
        <trkpt lat="29.548842" lon="103.3411511"><ele>2251.17</ele><time>2025-09-13T07:57:50.000Z</time></trkpt>
        <trkpt lat="29.5487955" lon="103.3411649"><ele>2251.56</ele><time>2025-09-13T07:58:04.000Z</time></trkpt>
        <trkpt lat="29.5487502" lon="103.3411686"><ele>2251.54</ele><time>2025-09-13T07:58:16.000Z</time></trkpt>
        <trkpt lat="29.5486986" lon="103.3411664"><ele>2253.59</ele><time>2025-09-13T07:58:32.000Z</time></trkpt>
        <trkpt lat="29.5486466" lon="103.3411616"><ele>2255.89</ele><time>2025-09-13T07:58:42.000Z</time></trkpt>
        <trkpt lat="29.5485948" lon="103.341164"><ele>2257.08</ele><time>2025-09-13T07:58:54.000Z</time></trkpt>
        <trkpt lat="29.5485442" lon="103.3411767"><ele>2258.55</ele><time>2025-09-13T07:59:04.000Z</time></trkpt>
        <trkpt lat="29.5484977" lon="103.3411923"><ele>2259.73</ele><time>2025-09-13T07:59:18.000Z</time></trkpt>
        <trkpt lat="29.5484511" lon="103.3412105"><ele>2263.28</ele><time>2025-09-13T07:59:30.000Z</time></trkpt>
        <trkpt lat="29.5484038" lon="103.3412202"><ele>2265.98</ele><time>2025-09-13T07:59:44.000Z</time></trkpt>
        <trkpt lat="29.548354" lon="103.3412254"><ele>2267.61</ele><time>2025-09-13T07:59:58.000Z</time></trkpt>
        <trkpt lat="29.5483124" lon="103.3412011"><ele>2269.84</ele><time>2025-09-13T08:00:14.000Z</time></trkpt>
        <trkpt lat="29.5482684" lon="103.3411779"><ele>2271.87</ele><time>2025-09-13T08:00:28.000Z</time></trkpt>
        <trkpt lat="29.5482191" lon="103.341166"><ele>2274.07</ele><time>2025-09-13T08:00:38.000Z</time></trkpt>
        <trkpt lat="29.5481692" lon="103.3411524"><ele>2275.74</ele><time>2025-09-13T08:00:46.000Z</time></trkpt>
        <trkpt lat="29.548117" lon="103.3411376"><ele>2277.47</ele><time>2025-09-13T08:00:56.000Z</time></trkpt>
        <trkpt lat="29.5480671" lon="103.3411211"><ele>2278.24</ele><time>2025-09-13T08:01:04.000Z</time></trkpt>
        <trkpt lat="29.5480186" lon="103.3411225"><ele>2278.19</ele><time>2025-09-13T08:01:12.000Z</time></trkpt>
        <trkpt lat="29.5479734" lon="103.341136"><ele>2278.08</ele><time>2025-09-13T08:01:18.000Z</time></trkpt>
        <trkpt lat="29.5479219" lon="103.3411429"><ele>2277.08</ele><time>2025-09-13T08:01:24.000Z</time></trkpt>
        <trkpt lat="29.5478728" lon="103.3411227"><ele>2278.07</ele><time>2025-09-13T08:01:32.000Z</time></trkpt>
        <trkpt lat="29.5478254" lon="103.3410945"><ele>2280.16</ele><time>2025-09-13T08:01:40.000Z</time></trkpt>
        <trkpt lat="29.5477782" lon="103.3410761"><ele>2281.81</ele><time>2025-09-13T08:01:46.000Z</time></trkpt>
        <trkpt lat="29.5477276" lon="103.3410603"><ele>2283.18</ele><time>2025-09-13T08:01:52.000Z</time></trkpt>
        <trkpt lat="29.54768" lon="103.3410501"><ele>2285.09</ele><time>2025-09-13T08:01:56.000Z</time></trkpt>
        <trkpt lat="29.5476272" lon="103.3410353"><ele>2286.58</ele><time>2025-09-13T08:02:02.000Z</time></trkpt>
        <trkpt lat="29.5475793" lon="103.3410243"><ele>2287.49</ele><time>2025-09-13T08:02:08.000Z</time></trkpt>
        <trkpt lat="29.5475239" lon="103.3410248"><ele>2288.57</ele><time>2025-09-13T08:02:18.000Z</time></trkpt>
        <trkpt lat="29.5474804" lon="103.341005"><ele>2288.43</ele><time>2025-09-13T08:02:26.000Z</time></trkpt>
        <trkpt lat="29.5474369" lon="103.3409807"><ele>2289.6</ele><time>2025-09-13T08:02:34.000Z</time></trkpt>
        <trkpt lat="29.5473923" lon="103.3409635"><ele>2291.28</ele><time>2025-09-13T08:02:42.000Z</time></trkpt>
        <trkpt lat="29.5473461" lon="103.340948"><ele>2291.68</ele><time>2025-09-13T08:03:00.000Z</time></trkpt>
        <trkpt lat="29.5473269" lon="103.340904"><ele>2293.11</ele><time>2025-09-13T08:03:14.000Z</time></trkpt>
        <trkpt lat="29.5473213" lon="103.3408507"><ele>2293.97</ele><time>2025-09-13T08:03:22.000Z</time></trkpt>
        <trkpt lat="29.5473068" lon="103.3407896"><ele>2295.6</ele><time>2025-09-13T08:03:30.000Z</time></trkpt>
        <trkpt lat="29.5472912" lon="103.3407249"><ele>2297.7</ele><time>2025-09-13T08:03:38.000Z</time></trkpt>
        <trkpt lat="29.5472668" lon="103.3406658"><ele>2297.95</ele><time>2025-09-13T08:03:46.000Z</time></trkpt>
        <trkpt lat="29.547239" lon="103.3406119"><ele>2299.86</ele><time>2025-09-13T08:03:54.000Z</time></trkpt>
        <trkpt lat="29.547216" lon="103.3405597"><ele>2300.8</ele><time>2025-09-13T08:04:02.000Z</time></trkpt>
        <trkpt lat="29.5472014" lon="103.3405074"><ele>2301</ele><time>2025-09-13T08:04:10.000Z</time></trkpt>
        <trkpt lat="29.5471862" lon="103.3404571"><ele>2300.38</ele><time>2025-09-13T08:04:20.000Z</time></trkpt>
        <trkpt lat="29.5471699" lon="103.3404019"><ele>2301.49</ele><time>2025-09-13T08:04:32.000Z</time></trkpt>
        <trkpt lat="29.5471669" lon="103.3403483"><ele>2304.94</ele><time>2025-09-13T08:04:42.000Z</time></trkpt>
        <trkpt lat="29.5471641" lon="103.3402906"><ele>2309.06</ele><time>2025-09-13T08:04:56.000Z</time></trkpt>
        <trkpt lat="29.5471774" lon="103.3402367"><ele>2312.74</ele><time>2025-09-13T08:05:12.000Z</time></trkpt>
        <trkpt lat="29.5471661" lon="103.3401853"><ele>2316.04</ele><time>2025-09-13T08:05:24.000Z</time></trkpt>
        <trkpt lat="29.5471391" lon="103.3401384"><ele>2318.05</ele><time>2025-09-13T08:05:42.000Z</time></trkpt>
        <trkpt lat="29.5471325" lon="103.3400861"><ele>2319.98</ele><time>2025-09-13T08:06:04.000Z</time></trkpt>
        <trkpt lat="29.5471142" lon="103.3400359"><ele>2323.18</ele><time>2025-09-13T08:06:16.000Z</time></trkpt>
        <trkpt lat="29.5470957" lon="103.3399872"><ele>2326.06</ele><time>2025-09-13T08:06:28.000Z</time></trkpt>
        <trkpt lat="29.5470805" lon="103.3399358"><ele>2329.13</ele><time>2025-09-13T08:06:42.000Z</time></trkpt>
        <trkpt lat="29.5470724" lon="103.3398813"><ele>2331.37</ele><time>2025-09-13T08:07:02.000Z</time></trkpt>
        <trkpt lat="29.5470889" lon="103.3398303"><ele>2333.71</ele><time>2025-09-13T08:07:14.000Z</time></trkpt>
        <trkpt lat="29.5470817" lon="103.3397736"><ele>2337.22</ele><time>2025-09-13T08:07:24.000Z</time></trkpt>
        <trkpt lat="29.5470628" lon="103.3397247"><ele>2339.64</ele><time>2025-09-13T08:07:34.000Z</time></trkpt>
        <trkpt lat="29.5470372" lon="103.3396763"><ele>2341.36</ele><time>2025-09-13T08:07:46.000Z</time></trkpt>
        <trkpt lat="29.5470048" lon="103.3396341"><ele>2342.69</ele><time>2025-09-13T08:07:58.000Z</time></trkpt>
        <trkpt lat="29.5469624" lon="103.3396106"><ele>2345.34</ele><time>2025-09-13T08:08:10.000Z</time></trkpt>
        <trkpt lat="29.5469263" lon="103.3395766"><ele>2347.08</ele><time>2025-09-13T08:08:24.000Z</time></trkpt>
        <trkpt lat="29.5468888" lon="103.3395454"><ele>2347.5</ele><time>2025-09-13T08:08:36.000Z</time></trkpt>
        <trkpt lat="29.5468532" lon="103.3395088"><ele>2348.02</ele><time>2025-09-13T08:08:48.000Z</time></trkpt>
        <trkpt lat="29.5468513" lon="103.3394588"><ele>2349.63</ele><time>2025-09-13T08:09:08.000Z</time></trkpt>
        <trkpt lat="29.5468663" lon="103.3394078"><ele>2351.55</ele><time>2025-09-13T08:09:24.000Z</time></trkpt>
        <trkpt lat="29.5468505" lon="103.3393589"><ele>2355.15</ele><time>2025-09-13T08:09:36.000Z</time></trkpt>
        <trkpt lat="29.5468143" lon="103.3393243"><ele>2358.12</ele><time>2025-09-13T08:09:50.000Z</time></trkpt>
        <trkpt lat="29.5467711" lon="103.3392909"><ele>2360.79</ele><time>2025-09-13T08:10:06.000Z</time></trkpt>
        <trkpt lat="29.5467711" lon="103.3392909"><ele>2360.79</ele><time>2025-09-13T08:10:39.000Z</time></trkpt>
        <trkpt lat="29.5467711" lon="103.3392909"><ele>2360.79</ele><time>2025-09-13T08:10:45.000Z</time></trkpt>
        <trkpt lat="29.5467711" lon="103.3392909"><ele>2360.79</ele><time>2025-09-13T08:12:21.000Z</time></trkpt>
        <trkpt lat="29.5467711" lon="103.3392909"><ele>2360.79</ele><time>2025-09-13T08:12:25.000Z</time></trkpt>
        <trkpt lat="29.5467711" lon="103.3392909"><ele>2360.79</ele><time>2025-09-13T08:14:05.000Z</time></trkpt>
        <trkpt lat="29.5468068" lon="103.339319"><ele>2363.73</ele><time>2025-09-13T08:14:09.000Z</time></trkpt>
        <trkpt lat="29.5468068" lon="103.339319"><ele>2363.73</ele><time>2025-09-13T08:14:12.000Z</time></trkpt>
        <trkpt lat="29.5468068" lon="103.339319"><ele>2363.73</ele><time>2025-09-13T08:14:29.000Z</time></trkpt>
        <trkpt lat="29.54676" lon="103.3392961"><ele>2366.7</ele><time>2025-09-13T08:14:33.000Z</time></trkpt>
        <trkpt lat="29.54676" lon="103.3392961"><ele>2366.7</ele><time>2025-09-13T08:16:10.000Z</time></trkpt>
        <trkpt lat="29.5467162" lon="103.3392721"><ele>2368.24</ele><time>2025-09-13T08:16:22.000Z</time></trkpt>
        <trkpt lat="29.5467038" lon="103.3392247"><ele>2367.12</ele><time>2025-09-13T08:16:32.000Z</time></trkpt>
        <trkpt lat="29.546673" lon="103.3391846"><ele>2367.3</ele><time>2025-09-13T08:16:46.000Z</time></trkpt>
        <trkpt lat="29.5466371" lon="103.3391517"><ele>2367.86</ele><time>2025-09-13T08:17:06.000Z</time></trkpt>
        <trkpt lat="29.5465983" lon="103.3391218"><ele>2370.38</ele><time>2025-09-13T08:17:18.000Z</time></trkpt>
        <trkpt lat="29.5465885" lon="103.339075"><ele>2373.04</ele><time>2025-09-13T08:17:28.000Z</time></trkpt>
        <trkpt lat="29.546581" lon="103.3390211"><ele>2376.08</ele><time>2025-09-13T08:17:38.000Z</time></trkpt>
        <trkpt lat="29.5465488" lon="103.3389798"><ele>2378.85</ele><time>2025-09-13T08:17:48.000Z</time></trkpt>
        <trkpt lat="29.5465235" lon="103.3389336"><ele>2380.9</ele><time>2025-09-13T08:17:58.000Z</time></trkpt>
        <trkpt lat="29.546487" lon="103.3388957"><ele>2381.63</ele><time>2025-09-13T08:18:10.000Z</time></trkpt>
        <trkpt lat="29.5464538" lon="103.3388497"><ele>2382.79</ele><time>2025-09-13T08:18:22.000Z</time></trkpt>
        <trkpt lat="29.5464274" lon="103.3388027"><ele>2384.95</ele><time>2025-09-13T08:18:34.000Z</time></trkpt>
        <trkpt lat="29.5463884" lon="103.3387793"><ele>2386.63</ele><time>2025-09-13T08:18:48.000Z</time></trkpt>
        <trkpt lat="29.5463472" lon="103.3387518"><ele>2388.89</ele><time>2025-09-13T08:19:00.000Z</time></trkpt>
        <trkpt lat="29.5463014" lon="103.338724"><ele>2392.07</ele><time>2025-09-13T08:19:16.000Z</time></trkpt>
        <trkpt lat="29.546263" lon="103.338687"><ele>2394.62</ele><time>2025-09-13T08:19:30.000Z</time></trkpt>
        <trkpt lat="29.5462382" lon="103.3386409"><ele>2397.31</ele><time>2025-09-13T08:19:40.000Z</time></trkpt>
        <trkpt lat="29.5462315" lon="103.3385846"><ele>2398.24</ele><time>2025-09-13T08:19:54.000Z</time></trkpt>
        <trkpt lat="29.5462186" lon="103.3385259"><ele>2401.28</ele><time>2025-09-13T08:20:04.000Z</time></trkpt>
        <trkpt lat="29.5462011" lon="103.3384729"><ele>2403.4</ele><time>2025-09-13T08:20:12.000Z</time></trkpt>
        <trkpt lat="29.5461858" lon="103.3384186"><ele>2404.56</ele><time>2025-09-13T08:20:22.000Z</time></trkpt>
        <trkpt lat="29.5461749" lon="103.3383657"><ele>2405.98</ele><time>2025-09-13T08:20:32.000Z</time></trkpt>
        <trkpt lat="29.5461701" lon="103.3383119"><ele>2407.13</ele><time>2025-09-13T08:20:40.000Z</time></trkpt>
        <trkpt lat="29.5461591" lon="103.3382583"><ele>2407.88</ele><time>2025-09-13T08:20:54.000Z</time></trkpt>
        <trkpt lat="29.5461569" lon="103.338204"><ele>2409.41</ele><time>2025-09-13T08:21:08.000Z</time></trkpt>
        <trkpt lat="29.5461643" lon="103.3381485"><ele>2411.58</ele><time>2025-09-13T08:21:20.000Z</time></trkpt>
        <trkpt lat="29.5461787" lon="103.3380966"><ele>2413.6</ele><time>2025-09-13T08:21:32.000Z</time></trkpt>
        <trkpt lat="29.5461948" lon="103.338047"><ele>2415.61</ele><time>2025-09-13T08:21:40.000Z</time></trkpt>
        <trkpt lat="29.546229" lon="103.3380028"><ele>2416.95</ele><time>2025-09-13T08:21:46.000Z</time></trkpt>
        <trkpt lat="29.5462606" lon="103.3379533"><ele>2418.69</ele><time>2025-09-13T08:21:52.000Z</time></trkpt>
        <trkpt lat="29.5462987" lon="103.3379044"><ele>2419.89</ele><time>2025-09-13T08:22:00.000Z</time></trkpt>
        <trkpt lat="29.5463209" lon="103.3378552"><ele>2420.26</ele><time>2025-09-13T08:22:06.000Z</time></trkpt>
        <trkpt lat="29.5463435" lon="103.3378034"><ele>2419.74</ele><time>2025-09-13T08:22:12.000Z</time></trkpt>
        <trkpt lat="29.5463601" lon="103.337749"><ele>2419.75</ele><time>2025-09-13T08:22:18.000Z</time></trkpt>
        <trkpt lat="29.5463738" lon="103.3376928"><ele>2419.19</ele><time>2025-09-13T08:22:24.000Z</time></trkpt>
        <trkpt lat="29.5463832" lon="103.3376281"><ele>2419.33</ele><time>2025-09-13T08:22:32.000Z</time></trkpt>
        <trkpt lat="29.5464128" lon="103.3375697"><ele>2419.6</ele><time>2025-09-13T08:22:40.000Z</time></trkpt>
        <trkpt lat="29.5464462" lon="103.3375185"><ele>2419.45</ele><time>2025-09-13T08:22:46.000Z</time></trkpt>
        <trkpt lat="29.5464921" lon="103.337475"><ele>2419.32</ele><time>2025-09-13T08:22:52.000Z</time></trkpt>
        <trkpt lat="29.5465269" lon="103.3374165"><ele>2419.39</ele><time>2025-09-13T08:22:58.000Z</time></trkpt>
        <trkpt lat="29.546553" lon="103.3373577"><ele>2419.9</ele><time>2025-09-13T08:23:04.000Z</time></trkpt>
        <trkpt lat="29.5465747" lon="103.3373029"><ele>2420.1</ele><time>2025-09-13T08:23:10.000Z</time></trkpt>
        <trkpt lat="29.546584" lon="103.337246"><ele>2421.07</ele><time>2025-09-13T08:23:16.000Z</time></trkpt>
        <trkpt lat="29.5465936" lon="103.3371906"><ele>2421.62</ele><time>2025-09-13T08:23:22.000Z</time></trkpt>
        <trkpt lat="29.5465983" lon="103.3371308"><ele>2422.46</ele><time>2025-09-13T08:23:28.000Z</time></trkpt>
        <trkpt lat="29.5465973" lon="103.3370742"><ele>2424.04</ele><time>2025-09-13T08:23:34.000Z</time></trkpt>
        <trkpt lat="29.5465694" lon="103.3370323"><ele>2425.67</ele><time>2025-09-13T08:23:40.000Z</time></trkpt>
        <trkpt lat="29.5465198" lon="103.3370101"><ele>2426.27</ele><time>2025-09-13T08:23:46.000Z</time></trkpt>
        <trkpt lat="29.5464788" lon="103.3369784"><ele>2427.31</ele><time>2025-09-13T08:23:52.000Z</time></trkpt>
        <trkpt lat="29.5464485" lon="103.3369363"><ele>2427.8</ele><time>2025-09-13T08:24:00.000Z</time></trkpt>
        <trkpt lat="29.546434" lon="103.3368849"><ele>2427.86</ele><time>2025-09-13T08:24:06.000Z</time></trkpt>
        <trkpt lat="29.5464172" lon="103.3368247"><ele>2428.6</ele><time>2025-09-13T08:24:14.000Z</time></trkpt>
        <trkpt lat="29.5464155" lon="103.3367588"><ele>2428.37</ele><time>2025-09-13T08:24:22.000Z</time></trkpt>
        <trkpt lat="29.5464202" lon="103.3366964"><ele>2427.27</ele><time>2025-09-13T08:24:28.000Z</time></trkpt>
        <trkpt lat="29.5464291" lon="103.3366349"><ele>2426.9</ele><time>2025-09-13T08:24:36.000Z</time></trkpt>
        <trkpt lat="29.5464374" lon="103.3365713"><ele>2426.09</ele><time>2025-09-13T08:24:44.000Z</time></trkpt>
        <trkpt lat="29.5464581" lon="103.3365105"><ele>2425.61</ele><time>2025-09-13T08:24:52.000Z</time></trkpt>
        <trkpt lat="29.5464811" lon="103.3364535"><ele>2425.1</ele><time>2025-09-13T08:25:00.000Z</time></trkpt>
        <trkpt lat="29.5465074" lon="103.3363952"><ele>2424.78</ele><time>2025-09-13T08:25:10.000Z</time></trkpt>
        <trkpt lat="29.5465188" lon="103.3363382"><ele>2424.88</ele><time>2025-09-13T08:25:18.000Z</time></trkpt>
        <trkpt lat="29.5465107" lon="103.3362712"><ele>2424.51</ele><time>2025-09-13T08:25:26.000Z</time></trkpt>
        <trkpt lat="29.5464897" lon="103.3362173"><ele>2423.29</ele><time>2025-09-13T08:25:34.000Z</time></trkpt>
        <trkpt lat="29.5464895" lon="103.3361582"><ele>2421.35</ele><time>2025-09-13T08:25:42.000Z</time></trkpt>
        <trkpt lat="29.5465117" lon="103.3361081"><ele>2418.09</ele><time>2025-09-13T08:25:48.000Z</time></trkpt>
        <trkpt lat="29.5465439" lon="103.3360664"><ele>2415.16</ele><time>2025-09-13T08:25:54.000Z</time></trkpt>
        <trkpt lat="29.5465735" lon="103.3360212"><ele>2412.68</ele><time>2025-09-13T08:26:00.000Z</time></trkpt>
        <trkpt lat="29.5465925" lon="103.335973"><ele>2411.02</ele><time>2025-09-13T08:26:06.000Z</time></trkpt>
        <trkpt lat="29.5466092" lon="103.3359181"><ele>2409.44</ele><time>2025-09-13T08:26:12.000Z</time></trkpt>
        <trkpt lat="29.5466275" lon="103.3358612"><ele>2408.29</ele><time>2025-09-13T08:26:18.000Z</time></trkpt>
        <trkpt lat="29.5466354" lon="103.3357994"><ele>2407.68</ele><time>2025-09-13T08:26:24.000Z</time></trkpt>
        <trkpt lat="29.5466503" lon="103.335742"><ele>2406.95</ele><time>2025-09-13T08:26:30.000Z</time></trkpt>
        <trkpt lat="29.5466516" lon="103.3356889"><ele>2406.08</ele><time>2025-09-13T08:26:36.000Z</time></trkpt>
        <trkpt lat="29.5466551" lon="103.3356366"><ele>2405.39</ele><time>2025-09-13T08:26:42.000Z</time></trkpt>
        <trkpt lat="29.5466723" lon="103.3355853"><ele>2404.45</ele><time>2025-09-13T08:26:48.000Z</time></trkpt>
        <trkpt lat="29.5466855" lon="103.3355263"><ele>2403.1</ele><time>2025-09-13T08:26:54.000Z</time></trkpt>
        <trkpt lat="29.5467022" lon="103.3354618"><ele>2403.12</ele><time>2025-09-13T08:27:00.000Z</time></trkpt>
        <trkpt lat="29.5467172" lon="103.3354015"><ele>2403.38</ele><time>2025-09-13T08:27:06.000Z</time></trkpt>
        <trkpt lat="29.5467354" lon="103.3353399"><ele>2402.83</ele><time>2025-09-13T08:27:14.000Z</time></trkpt>
        <trkpt lat="29.5467472" lon="103.3352855"><ele>2402.19</ele><time>2025-09-13T08:27:20.000Z</time></trkpt>
        <trkpt lat="29.5467544" lon="103.3352264"><ele>2401.77</ele><time>2025-09-13T08:27:26.000Z</time></trkpt>
        <trkpt lat="29.5467674" lon="103.3351671"><ele>2400.85</ele><time>2025-09-13T08:27:32.000Z</time></trkpt>
        <trkpt lat="29.5467642" lon="103.3351126"><ele>2400.31</ele><time>2025-09-13T08:27:38.000Z</time></trkpt>
        <trkpt lat="29.5467496" lon="103.3350612"><ele>2399.25</ele><time>2025-09-13T08:27:44.000Z</time></trkpt>
        <trkpt lat="29.5467234" lon="103.3350109"><ele>2398.67</ele><time>2025-09-13T08:27:50.000Z</time></trkpt>
        <trkpt lat="29.546686" lon="103.334968"><ele>2398.89</ele><time>2025-09-13T08:27:56.000Z</time></trkpt>
        <trkpt lat="29.5466368" lon="103.3349363"><ele>2400.07</ele><time>2025-09-13T08:28:04.000Z</time></trkpt>
        <trkpt lat="29.5465914" lon="103.3349031"><ele>2400.16</ele><time>2025-09-13T08:28:10.000Z</time></trkpt>
        <trkpt lat="29.5465417" lon="103.3348768"><ele>2399.19</ele><time>2025-09-13T08:28:18.000Z</time></trkpt>
        <trkpt lat="29.5464939" lon="103.3348518"><ele>2397.99</ele><time>2025-09-13T08:28:24.000Z</time></trkpt>
        <trkpt lat="29.5464472" lon="103.3348354"><ele>2396.84</ele><time>2025-09-13T08:28:30.000Z</time></trkpt>
        <trkpt lat="29.5463954" lon="103.3348105"><ele>2394.78</ele><time>2025-09-13T08:28:36.000Z</time></trkpt>
        <trkpt lat="29.5463474" lon="103.3347909"><ele>2394.39</ele><time>2025-09-13T08:28:42.000Z</time></trkpt>
        <trkpt lat="29.5462999" lon="103.3347728"><ele>2394.22</ele><time>2025-09-13T08:28:52.000Z</time></trkpt>
        <trkpt lat="29.5462557" lon="103.3347555"><ele>2396.54</ele><time>2025-09-13T08:29:06.000Z</time></trkpt>
        <trkpt lat="29.5462092" lon="103.3347552"><ele>2398.19</ele><time>2025-09-13T08:29:16.000Z</time></trkpt>
        <trkpt lat="29.5461629" lon="103.3347656"><ele>2399.66</ele><time>2025-09-13T08:29:26.000Z</time></trkpt>
        <trkpt lat="29.5461141" lon="103.3347651"><ele>2400.32</ele><time>2025-09-13T08:29:32.000Z</time></trkpt>
        <trkpt lat="29.5460604" lon="103.334762"><ele>2400.89</ele><time>2025-09-13T08:29:38.000Z</time></trkpt>
        <trkpt lat="29.5460054" lon="103.3347491"><ele>2400.96</ele><time>2025-09-13T08:29:46.000Z</time></trkpt>
        <trkpt lat="29.5459514" lon="103.3347409"><ele>2400.91</ele><time>2025-09-13T08:29:54.000Z</time></trkpt>
        <trkpt lat="29.5459002" lon="103.3347273"><ele>2400.52</ele><time>2025-09-13T08:30:00.000Z</time></trkpt>
        <trkpt lat="29.5458537" lon="103.3346976"><ele>2401.76</ele><time>2025-09-13T08:30:08.000Z</time></trkpt>
        <trkpt lat="29.545841" lon="103.3346459"><ele>2402.34</ele><time>2025-09-13T08:30:16.000Z</time></trkpt>
        <trkpt lat="29.5458321" lon="103.3345903"><ele>2401.18</ele><time>2025-09-13T08:30:22.000Z</time></trkpt>
        <trkpt lat="29.5457966" lon="103.334544"><ele>2399.92</ele><time>2025-09-13T08:30:30.000Z</time></trkpt>
        <trkpt lat="29.5457539" lon="103.3345187"><ele>2398.34</ele><time>2025-09-13T08:30:36.000Z</time></trkpt>
        <trkpt lat="29.5457137" lon="103.334492"><ele>2397.13</ele><time>2025-09-13T08:30:42.000Z</time></trkpt>
        <trkpt lat="29.54567" lon="103.3344712"><ele>2395.84</ele><time>2025-09-13T08:30:48.000Z</time></trkpt>
        <trkpt lat="29.5456281" lon="103.3344451"><ele>2394.86</ele><time>2025-09-13T08:30:54.000Z</time></trkpt>
        <trkpt lat="29.5455853" lon="103.3344166"><ele>2394.51</ele><time>2025-09-13T08:31:00.000Z</time></trkpt>
        <trkpt lat="29.5455408" lon="103.3343949"><ele>2395.15</ele><time>2025-09-13T08:31:06.000Z</time></trkpt>
        <trkpt lat="29.5454983" lon="103.3343699"><ele>2394.81</ele><time>2025-09-13T08:31:12.000Z</time></trkpt>
        <trkpt lat="29.5454505" lon="103.3343567"><ele>2394.58</ele><time>2025-09-13T08:31:24.000Z</time></trkpt>
        <trkpt lat="29.5454064" lon="103.3343258"><ele>2394.66</ele><time>2025-09-13T08:31:34.000Z</time></trkpt>
        <trkpt lat="29.5453648" lon="103.3342961"><ele>2393.54</ele><time>2025-09-13T08:31:42.000Z</time></trkpt>
        <trkpt lat="29.5453254" lon="103.3342631"><ele>2393.96</ele><time>2025-09-13T08:31:50.000Z</time></trkpt>
        <trkpt lat="29.5452902" lon="103.3342245"><ele>2394.65</ele><time>2025-09-13T08:31:58.000Z</time></trkpt>
        <trkpt lat="29.5452533" lon="103.3341892"><ele>2395.43</ele><time>2025-09-13T08:32:04.000Z</time></trkpt>
        <trkpt lat="29.5452125" lon="103.3341469"><ele>2394.6</ele><time>2025-09-13T08:32:12.000Z</time></trkpt>
        <trkpt lat="29.5451738" lon="103.3341133"><ele>2393.85</ele><time>2025-09-13T08:32:20.000Z</time></trkpt>
        <trkpt lat="29.5451236" lon="103.3340987"><ele>2394.8</ele><time>2025-09-13T08:32:28.000Z</time></trkpt>
        <trkpt lat="29.5450724" lon="103.3340756"><ele>2395.39</ele><time>2025-09-13T08:32:34.000Z</time></trkpt>
        <trkpt lat="29.545015" lon="103.3340682"><ele>2396.57</ele><time>2025-09-13T08:32:42.000Z</time></trkpt>
        <trkpt lat="29.5449666" lon="103.3340593"><ele>2397.49</ele><time>2025-09-13T08:32:48.000Z</time></trkpt>
        <trkpt lat="29.5449201" lon="103.3340518"><ele>2398</ele><time>2025-09-13T08:32:54.000Z</time></trkpt>
        <trkpt lat="29.5448731" lon="103.3340444"><ele>2397.21</ele><time>2025-09-13T08:33:00.000Z</time></trkpt>
        <trkpt lat="29.54483" lon="103.3340691"><ele>2397.11</ele><time>2025-09-13T08:33:06.000Z</time></trkpt>
        <trkpt lat="29.5448006" lon="103.3341191"><ele>2396.08</ele><time>2025-09-13T08:33:12.000Z</time></trkpt>
        <trkpt lat="29.5447676" lon="103.3341731"><ele>2395.2</ele><time>2025-09-13T08:33:18.000Z</time></trkpt>
        <trkpt lat="29.5447259" lon="103.3342058"><ele>2394.51</ele><time>2025-09-13T08:33:24.000Z</time></trkpt>
        <trkpt lat="29.5446785" lon="103.3342314"><ele>2393.61</ele><time>2025-09-13T08:33:30.000Z</time></trkpt>
        <trkpt lat="29.5446292" lon="103.3342466"><ele>2393.42</ele><time>2025-09-13T08:33:36.000Z</time></trkpt>
        <trkpt lat="29.5445804" lon="103.334235"><ele>2393.56</ele><time>2025-09-13T08:33:42.000Z</time></trkpt>
        <trkpt lat="29.5445293" lon="103.3342135"><ele>2393</ele><time>2025-09-13T08:33:56.000Z</time></trkpt>
        <trkpt lat="29.5444786" lon="103.3341895"><ele>2394.47</ele><time>2025-09-13T08:34:02.000Z</time></trkpt>
        <trkpt lat="29.5444251" lon="103.3341713"><ele>2395.95</ele><time>2025-09-13T08:34:08.000Z</time></trkpt>
        <trkpt lat="29.5443774" lon="103.3341523"><ele>2396.26</ele><time>2025-09-13T08:34:14.000Z</time></trkpt>
        <trkpt lat="29.5443214" lon="103.3341397"><ele>2397.24</ele><time>2025-09-13T08:34:20.000Z</time></trkpt>
        <trkpt lat="29.54427" lon="103.3341411"><ele>2397.31</ele><time>2025-09-13T08:34:26.000Z</time></trkpt>
        <trkpt lat="29.5442201" lon="103.3341358"><ele>2396.44</ele><time>2025-09-13T08:34:32.000Z</time></trkpt>
        <trkpt lat="29.5441718" lon="103.3341321"><ele>2396.93</ele><time>2025-09-13T08:34:38.000Z</time></trkpt>
        <trkpt lat="29.544122" lon="103.3341199"><ele>2397.47</ele><time>2025-09-13T08:34:44.000Z</time></trkpt>
        <trkpt lat="29.5440711" lon="103.3341059"><ele>2397.5</ele><time>2025-09-13T08:34:50.000Z</time></trkpt>
        <trkpt lat="29.5440243" lon="103.3340774"><ele>2397.45</ele><time>2025-09-13T08:34:56.000Z</time></trkpt>
        <trkpt lat="29.5439761" lon="103.3340477"><ele>2398.19</ele><time>2025-09-13T08:35:02.000Z</time></trkpt>
        <trkpt lat="29.5439381" lon="103.3340122"><ele>2398.99</ele><time>2025-09-13T08:35:08.000Z</time></trkpt>
        <trkpt lat="29.5439108" lon="103.3339701"><ele>2399.07</ele><time>2025-09-13T08:35:14.000Z</time></trkpt>
        <trkpt lat="29.5438851" lon="103.3339249"><ele>2398.98</ele><time>2025-09-13T08:35:20.000Z</time></trkpt>
        <trkpt lat="29.5438422" lon="103.3339003"><ele>2399.01</ele><time>2025-09-13T08:35:26.000Z</time></trkpt>
        <trkpt lat="29.5437878" lon="103.3338946"><ele>2398.9</ele><time>2025-09-13T08:35:32.000Z</time></trkpt>
        <trkpt lat="29.5437282" lon="103.3339017"><ele>2398.86</ele><time>2025-09-13T08:35:38.000Z</time></trkpt>
        <trkpt lat="29.5436724" lon="103.3339036"><ele>2398.47</ele><time>2025-09-13T08:35:44.000Z</time></trkpt>
        <trkpt lat="29.5436269" lon="103.3338867"><ele>2397.47</ele><time>2025-09-13T08:35:50.000Z</time></trkpt>
        <trkpt lat="29.5435886" lon="103.3338535"><ele>2397.18</ele><time>2025-09-13T08:35:56.000Z</time></trkpt>
        <trkpt lat="29.5435636" lon="103.3338068"><ele>2397.01</ele><time>2025-09-13T08:36:02.000Z</time></trkpt>
        <trkpt lat="29.5435384" lon="103.3337537"><ele>2396.75</ele><time>2025-09-13T08:36:08.000Z</time></trkpt>
        <trkpt lat="29.5435096" lon="103.3337061"><ele>2396.71</ele><time>2025-09-13T08:36:14.000Z</time></trkpt>
        <trkpt lat="29.5434726" lon="103.3336624"><ele>2396.4</ele><time>2025-09-13T08:36:20.000Z</time></trkpt>
        <trkpt lat="29.5434322" lon="103.3336208"><ele>2397.39</ele><time>2025-09-13T08:36:26.000Z</time></trkpt>
        <trkpt lat="29.5433956" lon="103.3335818"><ele>2397.96</ele><time>2025-09-13T08:36:36.000Z</time></trkpt>
        <trkpt lat="29.5433856" lon="103.3335234"><ele>2396.1</ele><time>2025-09-13T08:36:44.000Z</time></trkpt>
        <trkpt lat="29.5433703" lon="103.333462"><ele>2394.31</ele><time>2025-09-13T08:36:50.000Z</time></trkpt>
        <trkpt lat="29.5433649" lon="103.3334021"><ele>2393.45</ele><time>2025-09-13T08:36:56.000Z</time></trkpt>
        <trkpt lat="29.5433613" lon="103.3333424"><ele>2391.49</ele><time>2025-09-13T08:37:02.000Z</time></trkpt>
        <trkpt lat="29.5433422" lon="103.3332901"><ele>2391.77</ele><time>2025-09-13T08:37:08.000Z</time></trkpt>
        <trkpt lat="29.5433315" lon="103.333236"><ele>2391.45</ele><time>2025-09-13T08:37:14.000Z</time></trkpt>
        <trkpt lat="29.5433053" lon="103.3331802"><ele>2391.19</ele><time>2025-09-13T08:37:20.000Z</time></trkpt>
        <trkpt lat="29.5432719" lon="103.3331335"><ele>2391.3</ele><time>2025-09-13T08:37:26.000Z</time></trkpt>
        <trkpt lat="29.5432358" lon="103.3330939"><ele>2390.46</ele><time>2025-09-13T08:37:32.000Z</time></trkpt>
        <trkpt lat="29.5432143" lon="103.3330424"><ele>2388.23</ele><time>2025-09-13T08:37:40.000Z</time></trkpt>
        <trkpt lat="29.5431837" lon="103.332989"><ele>2387.26</ele><time>2025-09-13T08:37:50.000Z</time></trkpt>
        <trkpt lat="29.5431311" lon="103.3329632"><ele>2387.49</ele><time>2025-09-13T08:37:56.000Z</time></trkpt>
        <trkpt lat="29.5430697" lon="103.3329643"><ele>2387.88</ele><time>2025-09-13T08:38:02.000Z</time></trkpt>
        <trkpt lat="29.5430111" lon="103.3329675"><ele>2387.97</ele><time>2025-09-13T08:38:08.000Z</time></trkpt>
        <trkpt lat="29.5429596" lon="103.3329581"><ele>2387.77</ele><time>2025-09-13T08:38:14.000Z</time></trkpt>
        <trkpt lat="29.5429107" lon="103.3329234"><ele>2387.99</ele><time>2025-09-13T08:38:22.000Z</time></trkpt>
        <trkpt lat="29.5428697" lon="103.3328898"><ele>2388.27</ele><time>2025-09-13T08:38:28.000Z</time></trkpt>
        <trkpt lat="29.5428402" lon="103.332845"><ele>2388.84</ele><time>2025-09-13T08:38:34.000Z</time></trkpt>
        <trkpt lat="29.5428063" lon="103.3327972"><ele>2389.14</ele><time>2025-09-13T08:38:40.000Z</time></trkpt>
        <trkpt lat="29.5427813" lon="103.3327461"><ele>2389.31</ele><time>2025-09-13T08:38:46.000Z</time></trkpt>
        <trkpt lat="29.542755" lon="103.3327017"><ele>2389.27</ele><time>2025-09-13T08:38:52.000Z</time></trkpt>
        <trkpt lat="29.5427247" lon="103.3326597"><ele>2389.34</ele><time>2025-09-13T08:38:58.000Z</time></trkpt>
        <trkpt lat="29.5426688" lon="103.3326428"><ele>2389.18</ele><time>2025-09-13T08:39:04.000Z</time></trkpt>
        <trkpt lat="29.542608" lon="103.3326189"><ele>2387.68</ele><time>2025-09-13T08:39:10.000Z</time></trkpt>
        <trkpt lat="29.5425637" lon="103.3325702"><ele>2387.76</ele><time>2025-09-13T08:39:16.000Z</time></trkpt>
        <trkpt lat="29.542545" lon="103.3325086"><ele>2388.45</ele><time>2025-09-13T08:39:22.000Z</time></trkpt>
        <trkpt lat="29.5425422" lon="103.3324394"><ele>2388.33</ele><time>2025-09-13T08:39:30.000Z</time></trkpt>
        <trkpt lat="29.5425199" lon="103.3323811"><ele>2389.27</ele><time>2025-09-13T08:39:36.000Z</time></trkpt>
        <trkpt lat="29.5424908" lon="103.3323286"><ele>2389.91</ele><time>2025-09-13T08:39:42.000Z</time></trkpt>
        <trkpt lat="29.5424533" lon="103.3322775"><ele>2389.51</ele><time>2025-09-13T08:39:48.000Z</time></trkpt>
        <trkpt lat="29.542433" lon="103.3322278"><ele>2389.35</ele><time>2025-09-13T08:39:52.000Z</time></trkpt>
        <trkpt lat="29.5424149" lon="103.3321782"><ele>2388.99</ele><time>2025-09-13T08:39:56.000Z</time></trkpt>
        <trkpt lat="29.5423901" lon="103.3321329"><ele>2389.24</ele><time>2025-09-13T08:40:00.000Z</time></trkpt>
        <trkpt lat="29.542353" lon="103.3321043"><ele>2389.99</ele><time>2025-09-13T08:40:04.000Z</time></trkpt>
        <trkpt lat="29.5423057" lon="103.3320602"><ele>2390.91</ele><time>2025-09-13T08:40:10.000Z</time></trkpt>
        <trkpt lat="29.5422674" lon="103.3320205"><ele>2391.56</ele><time>2025-09-13T08:40:14.000Z</time></trkpt>
        <trkpt lat="29.5422234" lon="103.3319833"><ele>2393.06</ele><time>2025-09-13T08:40:22.000Z</time></trkpt>
        <trkpt lat="29.5421711" lon="103.3319847"><ele>2393.27</ele><time>2025-09-13T08:40:28.000Z</time></trkpt>
        <trkpt lat="29.5421234" lon="103.3319986"><ele>2393.55</ele><time>2025-09-13T08:40:34.000Z</time></trkpt>
        <trkpt lat="29.5420665" lon="103.3319954"><ele>2393.13</ele><time>2025-09-13T08:40:42.000Z</time></trkpt>
        <trkpt lat="29.542015" lon="103.3319855"><ele>2392.02</ele><time>2025-09-13T08:40:48.000Z</time></trkpt>
        <trkpt lat="29.5419573" lon="103.3319809"><ele>2391.9</ele><time>2025-09-13T08:40:54.000Z</time></trkpt>
        <trkpt lat="29.5419085" lon="103.3319808"><ele>2392.21</ele><time>2025-09-13T08:40:58.000Z</time></trkpt>
        <trkpt lat="29.5418527" lon="103.3319818"><ele>2392.49</ele><time>2025-09-13T08:41:04.000Z</time></trkpt>
        <trkpt lat="29.5417896" lon="103.3319783"><ele>2391.96</ele><time>2025-09-13T08:41:10.000Z</time></trkpt>
        <trkpt lat="29.5417321" lon="103.3319579"><ele>2391.22</ele><time>2025-09-13T08:41:16.000Z</time></trkpt>
        <trkpt lat="29.5417402" lon="103.3319039"><ele>2390.35</ele><time>2025-09-13T08:41:22.000Z</time></trkpt>
        <trkpt lat="29.541773" lon="103.3318558"><ele>2388.32</ele><time>2025-09-13T08:41:26.000Z</time></trkpt>
        <trkpt lat="29.5418114" lon="103.3317933"><ele>2387.07</ele><time>2025-09-13T08:41:32.000Z</time></trkpt>
        <trkpt lat="29.5418297" lon="103.3317342"><ele>2386.6</ele><time>2025-09-13T08:41:36.000Z</time></trkpt>
        <trkpt lat="29.5418294" lon="103.3316617"><ele>2386.03</ele><time>2025-09-13T08:41:42.000Z</time></trkpt>
        <trkpt lat="29.5418026" lon="103.3316132"><ele>2386.59</ele><time>2025-09-13T08:41:48.000Z</time></trkpt>
        <trkpt lat="29.5417567" lon="103.3316139"><ele>2387.57</ele><time>2025-09-13T08:41:54.000Z</time></trkpt>
        <trkpt lat="29.5417105" lon="103.3316497"><ele>2387.93</ele><time>2025-09-13T08:42:00.000Z</time></trkpt>
        <trkpt lat="29.5416486" lon="103.33167"><ele>2387.86</ele><time>2025-09-13T08:42:06.000Z</time></trkpt>
        <trkpt lat="29.5415812" lon="103.3316843"><ele>2387.95</ele><time>2025-09-13T08:42:12.000Z</time></trkpt>
        <trkpt lat="29.5415146" lon="103.3316941"><ele>2389.05</ele><time>2025-09-13T08:42:18.000Z</time></trkpt>
        <trkpt lat="29.541463" lon="103.3316971"><ele>2389.74</ele><time>2025-09-13T08:42:22.000Z</time></trkpt>
        <trkpt lat="29.5414171" lon="103.3317026"><ele>2390.62</ele><time>2025-09-13T08:42:26.000Z</time></trkpt>
        <trkpt lat="29.5413619" lon="103.331711"><ele>2391.05</ele><time>2025-09-13T08:42:32.000Z</time></trkpt>
        <trkpt lat="29.5413004" lon="103.331715"><ele>2391.26</ele><time>2025-09-13T08:42:38.000Z</time></trkpt>
        <trkpt lat="29.5412365" lon="103.3317262"><ele>2391.15</ele><time>2025-09-13T08:42:44.000Z</time></trkpt>
        <trkpt lat="29.5411858" lon="103.3317471"><ele>2391.57</ele><time>2025-09-13T08:42:50.000Z</time></trkpt>
        <trkpt lat="29.5411407" lon="103.3317476"><ele>2391.62</ele><time>2025-09-13T08:43:00.000Z</time></trkpt>
        <trkpt lat="29.5411407" lon="103.3317476"><ele>2391.62</ele><time>2025-09-13T08:43:33.000Z</time></trkpt>
        <trkpt lat="29.5411051" lon="103.3317884"><ele>2391.08</ele><time>2025-09-13T08:43:37.000Z</time></trkpt>
        <trkpt lat="29.5411051" lon="103.3317884"><ele>2391.08</ele><time>2025-09-13T08:43:46.000Z</time></trkpt>
        <trkpt lat="29.5410553" lon="103.3317995"><ele>2391.15</ele><time>2025-09-13T08:43:52.000Z</time></trkpt>
        <trkpt lat="29.5410507" lon="103.331831"><ele>2391.84</ele><time>2025-09-13T08:43:58.000Z</time></trkpt>
        <trkpt lat="29.5410507" lon="103.331831"><ele>2391.84</ele><time>2025-09-13T08:44:29.000Z</time></trkpt>
        <trkpt lat="29.5410507" lon="103.331831"><ele>2391.84</ele><time>2025-09-13T08:44:31.000Z</time></trkpt>
        <trkpt lat="29.5410507" lon="103.331831"><ele>2391.84</ele><time>2025-09-13T08:44:47.000Z</time></trkpt>
        <trkpt lat="29.5411107" lon="103.3318175"><ele>2391.18</ele><time>2025-09-13T08:44:49.000Z</time></trkpt>
        <trkpt lat="29.5411107" lon="103.3318175"><ele>2391.18</ele><time>2025-09-13T08:44:50.000Z</time></trkpt>
        <trkpt lat="29.5411651" lon="103.331775"><ele>2390.21</ele><time>2025-09-13T08:44:54.000Z</time></trkpt>
        <trkpt lat="29.5412261" lon="103.3317463"><ele>2389.9</ele><time>2025-09-13T08:44:58.000Z</time></trkpt>
        <trkpt lat="29.541285" lon="103.3317457"><ele>2389.64</ele><time>2025-09-13T08:45:02.000Z</time></trkpt>
        <trkpt lat="29.5413391" lon="103.3317405"><ele>2389.93</ele><time>2025-09-13T08:45:06.000Z</time></trkpt>
        <trkpt lat="29.5413918" lon="103.3317342"><ele>2390.62</ele><time>2025-09-13T08:45:10.000Z</time></trkpt>
        <trkpt lat="29.5414408" lon="103.3317264"><ele>2391.46</ele><time>2025-09-13T08:45:14.000Z</time></trkpt>
        <trkpt lat="29.5414903" lon="103.3317084"><ele>2391.83</ele><time>2025-09-13T08:45:18.000Z</time></trkpt>
        <trkpt lat="29.5415276" lon="103.3316752"><ele>2392.24</ele><time>2025-09-13T08:45:22.000Z</time></trkpt>
        <trkpt lat="29.5415762" lon="103.3316544"><ele>2391.5</ele><time>2025-09-13T08:45:28.000Z</time></trkpt>
        <trkpt lat="29.5416128" lon="103.3316436"><ele>2391.35</ele><time>2025-09-13T08:45:34.000Z</time></trkpt>
        <trkpt lat="29.5416319" lon="103.3315984"><ele>2391.41</ele><time>2025-09-13T08:45:52.000Z</time></trkpt>
        <trkpt lat="29.5416349" lon="103.3315412"><ele>2390.83</ele><time>2025-09-13T08:45:56.000Z</time></trkpt>
        <trkpt lat="29.5416156" lon="103.3314851"><ele>2390.35</ele><time>2025-09-13T08:46:04.000Z</time></trkpt>
        <trkpt lat="29.5415834" lon="103.3314271"><ele>2389.93</ele><time>2025-09-13T08:46:10.000Z</time></trkpt>
        <trkpt lat="29.5415683" lon="103.3313709"><ele>2389.16</ele><time>2025-09-13T08:46:16.000Z</time></trkpt>
        <trkpt lat="29.541588" lon="103.331327"><ele>2388.66</ele><time>2025-09-13T08:46:22.000Z</time></trkpt>
        <trkpt lat="29.5416087" lon="103.3313638"><ele>2388.18</ele><time>2025-09-13T08:46:28.000Z</time></trkpt>
        <trkpt lat="29.5416613" lon="103.3313872"><ele>2388.22</ele><time>2025-09-13T08:46:36.000Z</time></trkpt>
        <trkpt lat="29.5417164" lon="103.3313813"><ele>2388.17</ele><time>2025-09-13T08:46:42.000Z</time></trkpt>
        <trkpt lat="29.5417621" lon="103.3313561"><ele>2387.74</ele><time>2025-09-13T08:46:48.000Z</time></trkpt>
        <trkpt lat="29.5418023" lon="103.3313242"><ele>2386.93</ele><time>2025-09-13T08:46:54.000Z</time></trkpt>
        <trkpt lat="29.5417896" lon="103.3312795"><ele>2386.53</ele><time>2025-09-13T08:47:00.000Z</time></trkpt>
        <trkpt lat="29.5417896" lon="103.3312795"><ele>2386.53</ele><time>2025-09-13T08:47:13.000Z</time></trkpt>
        <trkpt lat="29.5417896" lon="103.3312795"><ele>2386.53</ele><time>2025-09-13T08:47:15.000Z</time></trkpt>
        <trkpt lat="29.5417896" lon="103.3312795"><ele>2386.53</ele><time>2025-09-13T08:47:39.000Z</time></trkpt>
        <trkpt lat="29.5417896" lon="103.3312795"><ele>2386.53</ele><time>2025-09-13T08:47:41.000Z</time></trkpt>
        <trkpt lat="29.5417896" lon="103.3312795"><ele>2386.53</ele><time>2025-09-13T08:47:57.000Z</time></trkpt>
        <trkpt lat="29.5417896" lon="103.3312795"><ele>2386.53</ele><time>2025-09-13T08:48:01.000Z</time></trkpt>
        <trkpt lat="29.5417896" lon="103.3312795"><ele>2386.53</ele><time>2025-09-13T08:48:45.000Z</time></trkpt>
        <trkpt lat="29.5417598" lon="103.3312191"><ele>2384.79</ele><time>2025-09-13T08:48:49.000Z</time></trkpt>
        <trkpt lat="29.5417598" lon="103.3312191"><ele>2384.79</ele><time>2025-09-13T08:49:10.000Z</time></trkpt>
        <trkpt lat="29.5417598" lon="103.3312191"><ele>2384.79</ele><time>2025-09-13T08:49:23.000Z</time></trkpt>
        <trkpt lat="29.5417598" lon="103.3312191"><ele>2384.79</ele><time>2025-09-13T08:49:29.000Z</time></trkpt>
        <trkpt lat="29.5417598" lon="103.3312191"><ele>2384.79</ele><time>2025-09-13T08:49:59.000Z</time></trkpt>
        <trkpt lat="29.5417533" lon="103.3312747"><ele>2382.81</ele><time>2025-09-13T08:50:03.000Z</time></trkpt>
        <trkpt lat="29.5417533" lon="103.3312747"><ele>2382.81</ele><time>2025-09-13T08:50:46.000Z</time></trkpt>
        <trkpt lat="29.5417533" lon="103.3312747"><ele>2382.81</ele><time>2025-09-13T08:53:17.000Z</time></trkpt>
        <trkpt lat="29.5417533" lon="103.3312747"><ele>2382.81</ele><time>2025-09-13T08:53:19.000Z</time></trkpt>
        <trkpt lat="29.5417533" lon="103.3312747"><ele>2382.81</ele><time>2025-09-13T08:53:35.000Z</time></trkpt>
        <trkpt lat="29.5417637" lon="103.3313336"><ele>2382.9</ele><time>2025-09-13T08:53:39.000Z</time></trkpt>
        <trkpt lat="29.5417637" lon="103.3313336"><ele>2382.9</ele><time>2025-09-13T08:54:00.000Z</time></trkpt>
        <trkpt lat="29.5417858" lon="103.3313896"><ele>2382.72</ele><time>2025-09-13T08:54:08.000Z</time></trkpt>
        <trkpt lat="29.5417858" lon="103.3313896"><ele>2382.72</ele><time>2025-09-13T08:54:27.000Z</time></trkpt>
        <trkpt lat="29.5417522" lon="103.3313798"><ele>2382.56</ele><time>2025-09-13T08:54:33.000Z</time></trkpt>
        <trkpt lat="29.5417522" lon="103.3313798"><ele>2382.56</ele><time>2025-09-13T08:54:52.000Z</time></trkpt>
        <trkpt lat="29.541781" lon="103.3313522"><ele>2382.21</ele><time>2025-09-13T08:55:00.000Z</time></trkpt>
        <trkpt lat="29.5417936" lon="103.3313321"><ele>2381.8</ele><time>2025-09-13T08:55:02.000Z</time></trkpt>
        <trkpt lat="29.5417814" lon="103.3312841"><ele>2382.31</ele><time>2025-09-13T08:55:04.000Z</time></trkpt>
        <trkpt lat="29.54177" lon="103.3312916"><ele>2381.83</ele><time>2025-09-13T08:55:06.000Z</time></trkpt>
        <trkpt lat="29.54177" lon="103.3312916"><ele>2381.83</ele><time>2025-09-13T08:55:49.000Z</time></trkpt>
        <trkpt lat="29.5417478" lon="103.3313641"><ele>2381.96</ele><time>2025-09-13T08:55:55.000Z</time></trkpt>
        <trkpt lat="29.5417478" lon="103.3313641"><ele>2381.96</ele><time>2025-09-13T08:56:14.000Z</time></trkpt>
        <trkpt lat="29.5417478" lon="103.3313641"><ele>2381.96</ele><time>2025-09-13T08:56:29.000Z</time></trkpt>
        <trkpt lat="29.5417671" lon="103.3314195"><ele>2382.27</ele><time>2025-09-13T08:56:33.000Z</time></trkpt>
        <trkpt lat="29.5417671" lon="103.3314195"><ele>2382.27</ele><time>2025-09-13T08:56:36.000Z</time></trkpt>
        <trkpt lat="29.5417628" lon="103.3314149"><ele>2384.23</ele><time>2025-09-13T08:56:38.000Z</time></trkpt>
        <trkpt lat="29.5417355" lon="103.3313835"><ele>2385.09</ele><time>2025-09-13T08:56:44.000Z</time></trkpt>
        <trkpt lat="29.5417355" lon="103.3313835"><ele>2385.09</ele><time>2025-09-13T08:57:01.000Z</time></trkpt>
        <trkpt lat="29.5417355" lon="103.3313835"><ele>2385.09</ele><time>2025-09-13T08:57:07.000Z</time></trkpt>
        <trkpt lat="29.5417355" lon="103.3313835"><ele>2385.09</ele><time>2025-09-13T08:58:15.000Z</time></trkpt>
        <trkpt lat="29.5417802" lon="103.3313712"><ele>2385.55</ele><time>2025-09-13T08:58:19.000Z</time></trkpt>
        <trkpt lat="29.5417802" lon="103.3313712"><ele>2385.55</ele><time>2025-09-13T08:59:54.000Z</time></trkpt>
        <trkpt lat="29.5417727" lon="103.3314054"><ele>2386.9</ele><time>2025-09-13T08:59:58.000Z</time></trkpt>
        <trkpt lat="29.5417727" lon="103.3314054"><ele>2386.9</ele><time>2025-09-13T09:00:09.000Z</time></trkpt>
        <trkpt lat="29.5417727" lon="103.3314054"><ele>2386.9</ele><time>2025-09-13T09:00:13.000Z</time></trkpt>
        <trkpt lat="29.5417727" lon="103.3314054"><ele>2386.9</ele><time>2025-09-13T09:11:35.000Z</time></trkpt>
        <trkpt lat="29.5417575" lon="103.331454"><ele>2387.62</ele><time>2025-09-13T09:11:41.000Z</time></trkpt>
        <trkpt lat="29.5417575" lon="103.331454"><ele>2387.62</ele><time>2025-09-13T09:14:08.000Z</time></trkpt>
        <trkpt lat="29.5417575" lon="103.331454"><ele>2387.62</ele><time>2025-09-13T09:16:11.000Z</time></trkpt>
        <trkpt lat="29.5417575" lon="103.331454"><ele>2387.62</ele><time>2025-09-13T09:16:15.000Z</time></trkpt>
        <trkpt lat="29.5417575" lon="103.331454"><ele>2387.62</ele><time>2025-09-13T09:17:01.000Z</time></trkpt>
        <trkpt lat="29.5417575" lon="103.331454"><ele>2387.62</ele><time>2025-09-13T09:17:07.000Z</time></trkpt>
        <trkpt lat="29.5417575" lon="103.331454"><ele>2387.62</ele><time>2025-09-13T09:21:03.000Z</time></trkpt>
      </trkseg>
      <trkseg>
        <trkpt lat="29.5417504" lon="103.3314055"><ele>2389.42</ele><time>2025-09-13T09:40:13.000Z</time></trkpt>
        <trkpt lat="29.5417504" lon="103.3314055"><ele>2389.42</ele><time>2025-09-13T09:40:30.000Z</time></trkpt>
        <trkpt lat="29.5417648" lon="103.3314641"><ele>2391.54</ele><time>2025-09-13T09:40:48.000Z</time></trkpt>
        <trkpt lat="29.5417954" lon="103.3315024"><ele>2392.93</ele><time>2025-09-13T09:40:56.000Z</time></trkpt>
        <trkpt lat="29.5418217" lon="103.3315506"><ele>2390.85</ele><time>2025-09-13T09:41:06.000Z</time></trkpt>
        <trkpt lat="29.5418195" lon="103.3316127"><ele>2389.97</ele><time>2025-09-13T09:41:12.000Z</time></trkpt>
        <trkpt lat="29.5417817" lon="103.3316493"><ele>2390.13</ele><time>2025-09-13T09:41:18.000Z</time></trkpt>
        <trkpt lat="29.5417284" lon="103.3316702"><ele>2389.86</ele><time>2025-09-13T09:41:24.000Z</time></trkpt>
        <trkpt lat="29.5416777" lon="103.3316848"><ele>2389.87</ele><time>2025-09-13T09:41:28.000Z</time></trkpt>
        <trkpt lat="29.5416166" lon="103.3316899"><ele>2389.83</ele><time>2025-09-13T09:41:34.000Z</time></trkpt>
        <trkpt lat="29.5415545" lon="103.3316759"><ele>2390.08</ele><time>2025-09-13T09:41:40.000Z</time></trkpt>
        <trkpt lat="29.5414924" lon="103.3316702"><ele>2389.99</ele><time>2025-09-13T09:41:46.000Z</time></trkpt>
        <trkpt lat="29.5414268" lon="103.3316738"><ele>2389.66</ele><time>2025-09-13T09:41:52.000Z</time></trkpt>
        <trkpt lat="29.541377" lon="103.331686"><ele>2389.71</ele><time>2025-09-13T09:41:56.000Z</time></trkpt>
        <trkpt lat="29.5413201" lon="103.3316983"><ele>2389.89</ele><time>2025-09-13T09:42:02.000Z</time></trkpt>
        <trkpt lat="29.5412594" lon="103.331708"><ele>2390.21</ele><time>2025-09-13T09:42:08.000Z</time></trkpt>
        <trkpt lat="29.5412029" lon="103.3317094"><ele>2390.57</ele><time>2025-09-13T09:42:14.000Z</time></trkpt>
        <trkpt lat="29.5411765" lon="103.3316678"><ele>2391.07</ele><time>2025-09-13T09:42:26.000Z</time></trkpt>
        <trkpt lat="29.541131" lon="103.3316547"><ele>2392.16</ele><time>2025-09-13T09:42:34.000Z</time></trkpt>
        <trkpt lat="29.5410834" lon="103.3316298"><ele>2392.42</ele><time>2025-09-13T09:42:40.000Z</time></trkpt>
        <trkpt lat="29.5410369" lon="103.3315893"><ele>2392.37</ele><time>2025-09-13T09:42:46.000Z</time></trkpt>
        <trkpt lat="29.5409863" lon="103.3315499"><ele>2392.12</ele><time>2025-09-13T09:42:52.000Z</time></trkpt>
        <trkpt lat="29.5409372" lon="103.3315099"><ele>2391.6</ele><time>2025-09-13T09:42:58.000Z</time></trkpt>
        <trkpt lat="29.5408885" lon="103.331467"><ele>2391.19</ele><time>2025-09-13T09:43:04.000Z</time></trkpt>
        <trkpt lat="29.5408356" lon="103.3314349"><ele>2390.73</ele><time>2025-09-13T09:43:10.000Z</time></trkpt>
        <trkpt lat="29.5407834" lon="103.3313976"><ele>2390.58</ele><time>2025-09-13T09:43:16.000Z</time></trkpt>
        <trkpt lat="29.5407443" lon="103.3313598"><ele>2390.49</ele><time>2025-09-13T09:43:20.000Z</time></trkpt>
        <trkpt lat="29.5407053" lon="103.3313326"><ele>2390.45</ele><time>2025-09-13T09:43:24.000Z</time></trkpt>
        <trkpt lat="29.5406696" lon="103.3312988"><ele>2390.78</ele><time>2025-09-13T09:43:28.000Z</time></trkpt>
        <trkpt lat="29.5406334" lon="103.3312652"><ele>2390.65</ele><time>2025-09-13T09:43:32.000Z</time></trkpt>
        <trkpt lat="29.5405904" lon="103.3312453"><ele>2391</ele><time>2025-09-13T09:43:36.000Z</time></trkpt>
        <trkpt lat="29.5405306" lon="103.3312288"><ele>2390.86</ele><time>2025-09-13T09:43:42.000Z</time></trkpt>
        <trkpt lat="29.5404802" lon="103.3312127"><ele>2389.73</ele><time>2025-09-13T09:43:46.000Z</time></trkpt>
        <trkpt lat="29.5404317" lon="103.3311894"><ele>2389.26</ele><time>2025-09-13T09:43:50.000Z</time></trkpt>
        <trkpt lat="29.5403782" lon="103.3311678"><ele>2390.01</ele><time>2025-09-13T09:43:54.000Z</time></trkpt>
        <trkpt lat="29.5403388" lon="103.3311707"><ele>2390.82</ele><time>2025-09-13T09:43:58.000Z</time></trkpt>
        <trkpt lat="29.5403356" lon="103.3312201"><ele>2391.89</ele><time>2025-09-13T09:44:04.000Z</time></trkpt>
        <trkpt lat="29.5403407" lon="103.3312816"><ele>2391.96</ele><time>2025-09-13T09:44:14.000Z</time></trkpt>
        <trkpt lat="29.5403567" lon="103.3313418"><ele>2393.06</ele><time>2025-09-13T09:44:18.000Z</time></trkpt>
        <trkpt lat="29.5403734" lon="103.3314068"><ele>2394.9</ele><time>2025-09-13T09:44:22.000Z</time></trkpt>
        <trkpt lat="29.5403757" lon="103.3314812"><ele>2395.44</ele><time>2025-09-13T09:44:28.000Z</time></trkpt>
        <trkpt lat="29.5403473" lon="103.3315254"><ele>2394.72</ele><time>2025-09-13T09:44:34.000Z</time></trkpt>
        <trkpt lat="29.540292" lon="103.3315462"><ele>2394.44</ele><time>2025-09-13T09:44:40.000Z</time></trkpt>
        <trkpt lat="29.5402486" lon="103.3315758"><ele>2394.68</ele><time>2025-09-13T09:44:46.000Z</time></trkpt>
        <trkpt lat="29.5402059" lon="103.3316037"><ele>2394.63</ele><time>2025-09-13T09:45:02.000Z</time></trkpt>
        <trkpt lat="29.5401779" lon="103.3316474"><ele>2395.69</ele><time>2025-09-13T09:45:08.000Z</time></trkpt>
        <trkpt lat="29.5401455" lon="103.331695"><ele>2395.49</ele><time>2025-09-13T09:45:16.000Z</time></trkpt>
        <trkpt lat="29.5400974" lon="103.3317143"><ele>2395.15</ele><time>2025-09-13T09:45:22.000Z</time></trkpt>
        <trkpt lat="29.5400469" lon="103.3317263"><ele>2394.89</ele><time>2025-09-13T09:45:26.000Z</time></trkpt>
        <trkpt lat="29.5399988" lon="103.3317418"><ele>2394.73</ele><time>2025-09-13T09:45:30.000Z</time></trkpt>
        <trkpt lat="29.5399538" lon="103.3317611"><ele>2395.03</ele><time>2025-09-13T09:45:34.000Z</time></trkpt>
        <trkpt lat="29.5399106" lon="103.331788"><ele>2394.78</ele><time>2025-09-13T09:45:38.000Z</time></trkpt>
        <trkpt lat="29.539868" lon="103.331823"><ele>2394.76</ele><time>2025-09-13T09:45:42.000Z</time></trkpt>
        <trkpt lat="29.5398276" lon="103.3318545"><ele>2394.64</ele><time>2025-09-13T09:45:46.000Z</time></trkpt>
        <trkpt lat="29.5397775" lon="103.3318637"><ele>2394.33</ele><time>2025-09-13T09:45:50.000Z</time></trkpt>
        <trkpt lat="29.5397293" lon="103.3318868"><ele>2394.21</ele><time>2025-09-13T09:45:54.000Z</time></trkpt>
        <trkpt lat="29.5397059" lon="103.3319391"><ele>2393.89</ele><time>2025-09-13T09:45:58.000Z</time></trkpt>
        <trkpt lat="29.5397236" lon="103.3319988"><ele>2393.39</ele><time>2025-09-13T09:46:02.000Z</time></trkpt>
        <trkpt lat="29.539762" lon="103.3320522"><ele>2393.17</ele><time>2025-09-13T09:46:06.000Z</time></trkpt>
        <trkpt lat="29.5398052" lon="103.3320972"><ele>2392.61</ele><time>2025-09-13T09:46:10.000Z</time></trkpt>
        <trkpt lat="29.5398541" lon="103.3321248"><ele>2392.38</ele><time>2025-09-13T09:46:14.000Z</time></trkpt>
        <trkpt lat="29.5399099" lon="103.3321316"><ele>2392.34</ele><time>2025-09-13T09:46:20.000Z</time></trkpt>
        <trkpt lat="29.5399455" lon="103.332162"><ele>2390.97</ele><time>2025-09-13T09:46:24.000Z</time></trkpt>
        <trkpt lat="29.5399956" lon="103.3321703"><ele>2390.09</ele><time>2025-09-13T09:46:30.000Z</time></trkpt>
        <trkpt lat="29.5400472" lon="103.3321505"><ele>2389.42</ele><time>2025-09-13T09:46:36.000Z</time></trkpt>
        <trkpt lat="29.5400973" lon="103.3321169"><ele>2388.68</ele><time>2025-09-13T09:46:42.000Z</time></trkpt>
        <trkpt lat="29.540144" lon="103.3320803"><ele>2387.86</ele><time>2025-09-13T09:46:48.000Z</time></trkpt>
        <trkpt lat="29.5401884" lon="103.3320603"><ele>2386.73</ele><time>2025-09-13T09:46:58.000Z</time></trkpt>
        <trkpt lat="29.5402306" lon="103.332076"><ele>2384.47</ele><time>2025-09-13T09:47:00.000Z</time></trkpt>
        <trkpt lat="29.5402299" lon="103.3321318"><ele>2383.23</ele><time>2025-09-13T09:47:06.000Z</time></trkpt>
        <trkpt lat="29.5402077" lon="103.3321588"><ele>2382.09</ele><time>2025-09-13T09:47:08.000Z</time></trkpt>
        <trkpt lat="29.540152" lon="103.3321703"><ele>2381.24</ele><time>2025-09-13T09:47:20.000Z</time></trkpt>
        <trkpt lat="29.5401283" lon="103.3321769"><ele>2380.95</ele><time>2025-09-13T09:47:24.000Z</time></trkpt>
        <trkpt lat="29.5401283" lon="103.3321769"><ele>2380.95</ele><time>2025-09-13T09:47:27.000Z</time></trkpt>
        <trkpt lat="29.5400919" lon="103.3321564"><ele>2380.15</ele><time>2025-09-13T09:47:33.000Z</time></trkpt>
        <trkpt lat="29.5400919" lon="103.3321564"><ele>2380.15</ele><time>2025-09-13T09:48:16.000Z</time></trkpt>
        <trkpt lat="29.5400592" lon="103.3321143"><ele>2380.44</ele><time>2025-09-13T09:48:20.000Z</time></trkpt>
        <trkpt lat="29.540015" lon="103.3320966"><ele>2378.8</ele><time>2025-09-13T09:48:24.000Z</time></trkpt>
        <trkpt lat="29.5399955" lon="103.3319917"><ele>2377.61</ele><time>2025-09-13T09:48:32.000Z</time></trkpt>
        <trkpt lat="29.540003" lon="103.3319133"><ele>2376.47</ele><time>2025-09-13T09:48:40.000Z</time></trkpt>
        <trkpt lat="29.5400488" lon="103.3318834"><ele>2377.05</ele><time>2025-09-13T09:48:44.000Z</time></trkpt>
        <trkpt lat="29.5401031" lon="103.331871"><ele>2377.73</ele><time>2025-09-13T09:48:48.000Z</time></trkpt>
        <trkpt lat="29.5401586" lon="103.3318514"><ele>2377.67</ele><time>2025-09-13T09:48:52.000Z</time></trkpt>
        <trkpt lat="29.540207" lon="103.3318296"><ele>2378.28</ele><time>2025-09-13T09:48:56.000Z</time></trkpt>
        <trkpt lat="29.5402561" lon="103.3318392"><ele>2379.27</ele><time>2025-09-13T09:49:00.000Z</time></trkpt>
        <trkpt lat="29.5402924" lon="103.3318189"><ele>2380.7</ele><time>2025-09-13T09:49:08.000Z</time></trkpt>
        <trkpt lat="29.5402841" lon="103.3317545"><ele>2381.29</ele><time>2025-09-13T09:49:26.000Z</time></trkpt>
        <trkpt lat="29.5402496" lon="103.3317049"><ele>2380.09</ele><time>2025-09-13T09:49:36.000Z</time></trkpt>
        <trkpt lat="29.5402238" lon="103.3316474"><ele>2375.59</ele><time>2025-09-13T09:49:48.000Z</time></trkpt>
        <trkpt lat="29.540198" lon="103.3315862"><ele>2372.58</ele><time>2025-09-13T09:50:02.000Z</time></trkpt>
        <trkpt lat="29.540198" lon="103.3315862"><ele>2372.58</ele><time>2025-09-13T09:50:05.000Z</time></trkpt>
        <trkpt lat="29.5401386" lon="103.331607"><ele>2372.05</ele><time>2025-09-13T09:50:09.000Z</time></trkpt>
        <trkpt lat="29.5401386" lon="103.331607"><ele>2372.05</ele><time>2025-09-13T09:50:40.000Z</time></trkpt>
        <trkpt lat="29.5400589" lon="103.3316456"><ele>2371.74</ele><time>2025-09-13T09:50:42.000Z</time></trkpt>
        <trkpt lat="29.5400589" lon="103.3316456"><ele>2371.74</ele><time>2025-09-13T09:50:43.000Z</time></trkpt>
        <trkpt lat="29.5400589" lon="103.3316456"><ele>2371.74</ele><time>2025-09-13T11:38:54.000Z</time></trkpt>
        <trkpt lat="29.5400589" lon="103.3316456"><ele>2371.74</ele><time>2025-09-13T11:38:55.000Z</time></trkpt>
        <trkpt lat="29.5400589" lon="103.3316456"><ele>2371.74</ele><time>2025-09-13T11:38:57.000Z</time></trkpt>
        <trkpt lat="29.5400589" lon="103.3316456"><ele>2371.74</ele><time>2025-09-13T11:39:13.000Z</time></trkpt>
        <trkpt lat="29.5399603" lon="103.3318588"><ele>2370.05</ele><time>2025-09-13T11:39:19.000Z</time></trkpt>
        <trkpt lat="29.5399603" lon="103.3318588"><ele>2370.05</ele><time>2025-09-13T11:40:00.000Z</time></trkpt>
        <trkpt lat="29.539912" lon="103.331869"><ele>2371.03</ele><time>2025-09-13T11:40:16.000Z</time></trkpt>
        <trkpt lat="29.5399518" lon="103.3319296"><ele>2370.67</ele><time>2025-09-13T11:40:18.000Z</time></trkpt>
        <trkpt lat="29.5399351" lon="103.3319146"><ele>2371.31</ele><time>2025-09-13T11:40:36.000Z</time></trkpt>
        <trkpt lat="29.5398827" lon="103.3318926"><ele>2371.76</ele><time>2025-09-13T11:40:40.000Z</time></trkpt>
        <trkpt lat="29.5398302" lon="103.3319021"><ele>2371.88</ele><time>2025-09-13T11:40:46.000Z</time></trkpt>
        <trkpt lat="29.5398538" lon="103.3319173"><ele>2371.82</ele><time>2025-09-13T11:40:48.000Z</time></trkpt>
        <trkpt lat="29.5399805" lon="103.3319853"><ele>2371.57</ele><time>2025-09-13T11:40:52.000Z</time></trkpt>
        <trkpt lat="29.5400316" lon="103.3320504"><ele>2372.57</ele><time>2025-09-13T11:40:58.000Z</time></trkpt>
        <trkpt lat="29.5401034" lon="103.3321229"><ele>2373.44</ele><time>2025-09-13T11:41:02.000Z</time></trkpt>
        <trkpt lat="29.5401693" lon="103.3321682"><ele>2375.15</ele><time>2025-09-13T11:41:06.000Z</time></trkpt>
        <trkpt lat="29.5401458" lon="103.3321967"><ele>2377</ele><time>2025-09-13T11:41:14.000Z</time></trkpt>
        <trkpt lat="29.5400996" lon="103.332179"><ele>2382.68</ele><time>2025-09-13T11:41:22.000Z</time></trkpt>
        <trkpt lat="29.5400552" lon="103.3321993"><ele>2387.92</ele><time>2025-09-13T11:41:30.000Z</time></trkpt>
        <trkpt lat="29.5400068" lon="103.3322146"><ele>2393.3</ele><time>2025-09-13T11:41:36.000Z</time></trkpt>
        <trkpt lat="29.5399638" lon="103.3322491"><ele>2396.34</ele><time>2025-09-13T11:41:42.000Z</time></trkpt>
        <trkpt lat="29.5399141" lon="103.3322667"><ele>2396.65</ele><time>2025-09-13T11:41:48.000Z</time></trkpt>
        <trkpt lat="29.5398632" lon="103.3322803"><ele>2397.84</ele><time>2025-09-13T11:41:54.000Z</time></trkpt>
        <trkpt lat="29.5398211" lon="103.3323036"><ele>2398.32</ele><time>2025-09-13T11:42:00.000Z</time></trkpt>
        <trkpt lat="29.5397783" lon="103.3323281"><ele>2397.67</ele><time>2025-09-13T11:42:06.000Z</time></trkpt>
        <trkpt lat="29.5397311" lon="103.3323563"><ele>2397.71</ele><time>2025-09-13T11:42:12.000Z</time></trkpt>
        <trkpt lat="29.5396806" lon="103.3323656"><ele>2398.02</ele><time>2025-09-13T11:42:20.000Z</time></trkpt>
        <trkpt lat="29.5396351" lon="103.3323795"><ele>2398.04</ele><time>2025-09-13T11:42:28.000Z</time></trkpt>
        <trkpt lat="29.5395924" lon="103.3324053"><ele>2398.07</ele><time>2025-09-13T11:42:36.000Z</time></trkpt>
        <trkpt lat="29.5395543" lon="103.3324386"><ele>2398.98</ele><time>2025-09-13T11:42:44.000Z</time></trkpt>
        <trkpt lat="29.5395148" lon="103.3324644"><ele>2399.25</ele><time>2025-09-13T11:42:54.000Z</time></trkpt>
        <trkpt lat="29.5394807" lon="103.3324977"><ele>2399.22</ele><time>2025-09-13T11:43:04.000Z</time></trkpt>
        <trkpt lat="29.5394425" lon="103.3325298"><ele>2401.24</ele><time>2025-09-13T11:43:18.000Z</time></trkpt>
        <trkpt lat="29.5394081" lon="103.3325711"><ele>2402.92</ele><time>2025-09-13T11:43:30.000Z</time></trkpt>
        <trkpt lat="29.539378" lon="103.3326267"><ele>2404.65</ele><time>2025-09-13T11:43:40.000Z</time></trkpt>
        <trkpt lat="29.5393478" lon="103.3326722"><ele>2406.58</ele><time>2025-09-13T11:43:46.000Z</time></trkpt>
        <trkpt lat="29.5393111" lon="103.3327137"><ele>2408.3</ele><time>2025-09-13T11:43:54.000Z</time></trkpt>
        <trkpt lat="29.539279" lon="103.3327553"><ele>2409.83</ele><time>2025-09-13T11:44:02.000Z</time></trkpt>
        <trkpt lat="29.5392496" lon="103.3327954"><ele>2410.16</ele><time>2025-09-13T11:44:10.000Z</time></trkpt>
        <trkpt lat="29.539202" lon="103.3328424"><ele>2411.01</ele><time>2025-09-13T11:44:16.000Z</time></trkpt>
        <trkpt lat="29.5391506" lon="103.332875"><ele>2412.17</ele><time>2025-09-13T11:44:26.000Z</time></trkpt>
        <trkpt lat="29.5390959" lon="103.3328972"><ele>2412.03</ele><time>2025-09-13T11:44:34.000Z</time></trkpt>
        <trkpt lat="29.5390457" lon="103.332927"><ele>2412.88</ele><time>2025-09-13T11:44:42.000Z</time></trkpt>
        <trkpt lat="29.5390026" lon="103.3329613"><ele>2413.27</ele><time>2025-09-13T11:44:50.000Z</time></trkpt>
        <trkpt lat="29.5389604" lon="103.3330033"><ele>2414.24</ele><time>2025-09-13T11:44:58.000Z</time></trkpt>
        <trkpt lat="29.5389168" lon="103.3330349"><ele>2414.13</ele><time>2025-09-13T11:45:04.000Z</time></trkpt>
        <trkpt lat="29.5388691" lon="103.3330634"><ele>2414.23</ele><time>2025-09-13T11:45:10.000Z</time></trkpt>
        <trkpt lat="29.5388255" lon="103.333093"><ele>2414.88</ele><time>2025-09-13T11:45:16.000Z</time></trkpt>
        <trkpt lat="29.5387817" lon="103.3331164"><ele>2414.99</ele><time>2025-09-13T11:45:22.000Z</time></trkpt>
        <trkpt lat="29.5387235" lon="103.333136"><ele>2415.76</ele><time>2025-09-13T11:45:28.000Z</time></trkpt>
        <trkpt lat="29.5386687" lon="103.3331489"><ele>2417.07</ele><time>2025-09-13T11:45:34.000Z</time></trkpt>
        <trkpt lat="29.5386188" lon="103.333157"><ele>2418.18</ele><time>2025-09-13T11:45:40.000Z</time></trkpt>
        <trkpt lat="29.5385724" lon="103.3331673"><ele>2418.99</ele><time>2025-09-13T11:45:46.000Z</time></trkpt>
        <trkpt lat="29.5385265" lon="103.3331752"><ele>2420.02</ele><time>2025-09-13T11:45:52.000Z</time></trkpt>
        <trkpt lat="29.5384802" lon="103.3331758"><ele>2420.74</ele><time>2025-09-13T11:45:58.000Z</time></trkpt>
        <trkpt lat="29.5384258" lon="103.3331796"><ele>2421.19</ele><time>2025-09-13T11:46:06.000Z</time></trkpt>
        <trkpt lat="29.5383725" lon="103.3331879"><ele>2421.67</ele><time>2025-09-13T11:46:14.000Z</time></trkpt>
        <trkpt lat="29.53832" lon="103.3331914"><ele>2421.62</ele><time>2025-09-13T11:46:20.000Z</time></trkpt>
        <trkpt lat="29.5382786" lon="103.3332184"><ele>2421.68</ele><time>2025-09-13T11:46:28.000Z</time></trkpt>
        <trkpt lat="29.5382379" lon="103.3332624"><ele>2421.63</ele><time>2025-09-13T11:46:36.000Z</time></trkpt>
        <trkpt lat="29.5381986" lon="103.3333079"><ele>2420.81</ele><time>2025-09-13T11:46:42.000Z</time></trkpt>
        <trkpt lat="29.5381569" lon="103.333343"><ele>2420.8</ele><time>2025-09-13T11:46:48.000Z</time></trkpt>
        <trkpt lat="29.5381101" lon="103.3333703"><ele>2421.44</ele><time>2025-09-13T11:46:54.000Z</time></trkpt>
        <trkpt lat="29.5380672" lon="103.3334061"><ele>2422.01</ele><time>2025-09-13T11:47:00.000Z</time></trkpt>
        <trkpt lat="29.5380192" lon="103.3334315"><ele>2422.68</ele><time>2025-09-13T11:47:06.000Z</time></trkpt>
        <trkpt lat="29.5379675" lon="103.3334592"><ele>2422.56</ele><time>2025-09-13T11:47:12.000Z</time></trkpt>
        <trkpt lat="29.5379126" lon="103.3334863"><ele>2422.64</ele><time>2025-09-13T11:47:18.000Z</time></trkpt>
        <trkpt lat="29.5378699" lon="103.3335144"><ele>2422.84</ele><time>2025-09-13T11:47:24.000Z</time></trkpt>
        <trkpt lat="29.5378276" lon="103.3335433"><ele>2422.78</ele><time>2025-09-13T11:47:30.000Z</time></trkpt>
        <trkpt lat="29.5377802" lon="103.3335698"><ele>2423.26</ele><time>2025-09-13T11:47:36.000Z</time></trkpt>
        <trkpt lat="29.5377413" lon="103.3336024"><ele>2423.43</ele><time>2025-09-13T11:47:42.000Z</time></trkpt>
        <trkpt lat="29.5376975" lon="103.3336432"><ele>2423.2</ele><time>2025-09-13T11:47:50.000Z</time></trkpt>
        <trkpt lat="29.5376578" lon="103.3336882"><ele>2423.05</ele><time>2025-09-13T11:47:58.000Z</time></trkpt>
        <trkpt lat="29.5376125" lon="103.3337254"><ele>2424.61</ele><time>2025-09-13T11:48:08.000Z</time></trkpt>
        <trkpt lat="29.5375634" lon="103.333749"><ele>2424.92</ele><time>2025-09-13T11:48:18.000Z</time></trkpt>
        <trkpt lat="29.5375106" lon="103.3337609"><ele>2425.73</ele><time>2025-09-13T11:48:28.000Z</time></trkpt>
        <trkpt lat="29.5374621" lon="103.3337562"><ele>2426.05</ele><time>2025-09-13T11:48:36.000Z</time></trkpt>
        <trkpt lat="29.5374142" lon="103.3337457"><ele>2426.92</ele><time>2025-09-13T11:48:44.000Z</time></trkpt>
        <trkpt lat="29.5373673" lon="103.3337461"><ele>2428.22</ele><time>2025-09-13T11:48:50.000Z</time></trkpt>
        <trkpt lat="29.5373125" lon="103.3337592"><ele>2429.91</ele><time>2025-09-13T11:48:58.000Z</time></trkpt>
        <trkpt lat="29.5372705" lon="103.3337982"><ele>2432.01</ele><time>2025-09-13T11:49:04.000Z</time></trkpt>
        <trkpt lat="29.5372415" lon="103.3338523"><ele>2434.01</ele><time>2025-09-13T11:49:08.000Z</time></trkpt>
        <trkpt lat="29.5372225" lon="103.3339092"><ele>2434.86</ele><time>2025-09-13T11:49:12.000Z</time></trkpt>
        <trkpt lat="29.537206" lon="103.3339663"><ele>2436.99</ele><time>2025-09-13T11:49:28.000Z</time></trkpt>
        <trkpt lat="29.5371934" lon="103.3340192"><ele>2438.08</ele><time>2025-09-13T11:49:40.000Z</time></trkpt>
        <trkpt lat="29.5371872" lon="103.3340711"><ele>2439.66</ele><time>2025-09-13T11:49:50.000Z</time></trkpt>
        <trkpt lat="29.5371603" lon="103.3341177"><ele>2439.55</ele><time>2025-09-13T11:50:00.000Z</time></trkpt>
        <trkpt lat="29.5371165" lon="103.3341402"><ele>2439.35</ele><time>2025-09-13T11:50:10.000Z</time></trkpt>
        <trkpt lat="29.5370663" lon="103.3341575"><ele>2439.85</ele><time>2025-09-13T11:50:18.000Z</time></trkpt>
        <trkpt lat="29.5370231" lon="103.3341851"><ele>2441.12</ele><time>2025-09-13T11:50:26.000Z</time></trkpt>
        <trkpt lat="29.5369779" lon="103.3342077"><ele>2442.92</ele><time>2025-09-13T11:50:36.000Z</time></trkpt>
        <trkpt lat="29.536928" lon="103.3342205"><ele>2443.69</ele><time>2025-09-13T11:50:46.000Z</time></trkpt>
        <trkpt lat="29.5368814" lon="103.3342366"><ele>2443.64</ele><time>2025-09-13T11:50:54.000Z</time></trkpt>
        <trkpt lat="29.5368328" lon="103.3342435"><ele>2444.05</ele><time>2025-09-13T11:51:04.000Z</time></trkpt>
        <trkpt lat="29.5367852" lon="103.3342592"><ele>2443.79</ele><time>2025-09-13T11:51:16.000Z</time></trkpt>
        <trkpt lat="29.5367422" lon="103.3342784"><ele>2444.74</ele><time>2025-09-13T11:51:26.000Z</time></trkpt>
        <trkpt lat="29.536693" lon="103.3343006"><ele>2446.6</ele><time>2025-09-13T11:51:38.000Z</time></trkpt>
        <trkpt lat="29.5366446" lon="103.33433"><ele>2447.83</ele><time>2025-09-13T11:51:46.000Z</time></trkpt>
        <trkpt lat="29.5365882" lon="103.3343447"><ele>2448.06</ele><time>2025-09-13T11:51:54.000Z</time></trkpt>
        <trkpt lat="29.5365371" lon="103.3343438"><ele>2448.39</ele><time>2025-09-13T11:52:00.000Z</time></trkpt>
        <trkpt lat="29.5364896" lon="103.334332"><ele>2449.13</ele><time>2025-09-13T11:52:06.000Z</time></trkpt>
        <trkpt lat="29.5364345" lon="103.3343228"><ele>2450.02</ele><time>2025-09-13T11:52:14.000Z</time></trkpt>
        <trkpt lat="29.5363846" lon="103.3343322"><ele>2449.94</ele><time>2025-09-13T11:52:22.000Z</time></trkpt>
        <trkpt lat="29.5363346" lon="103.3343432"><ele>2449.59</ele><time>2025-09-13T11:52:32.000Z</time></trkpt>
        <trkpt lat="29.5362838" lon="103.3343467"><ele>2451.36</ele><time>2025-09-13T11:52:44.000Z</time></trkpt>
        <trkpt lat="29.5362348" lon="103.3343428"><ele>2453.32</ele><time>2025-09-13T11:52:58.000Z</time></trkpt>
        <trkpt lat="29.5361936" lon="103.3343173"><ele>2454.82</ele><time>2025-09-13T11:53:08.000Z</time></trkpt>
        <trkpt lat="29.5361526" lon="103.3342921"><ele>2455.53</ele><time>2025-09-13T11:53:16.000Z</time></trkpt>
        <trkpt lat="29.5361042" lon="103.334267"><ele>2456.03</ele><time>2025-09-13T11:53:26.000Z</time></trkpt>
        <trkpt lat="29.5360607" lon="103.3342439"><ele>2457.82</ele><time>2025-09-13T11:53:36.000Z</time></trkpt>
        <trkpt lat="29.5360211" lon="103.3342157"><ele>2459.94</ele><time>2025-09-13T11:53:48.000Z</time></trkpt>
        <trkpt lat="29.5359824" lon="103.334184"><ele>2461.78</ele><time>2025-09-13T11:53:58.000Z</time></trkpt>
        <trkpt lat="29.5359427" lon="103.3341537"><ele>2463.29</ele><time>2025-09-13T11:54:12.000Z</time></trkpt>
        <trkpt lat="29.5359043" lon="103.3341191"><ele>2464.69</ele><time>2025-09-13T11:54:26.000Z</time></trkpt>
        <trkpt lat="29.5358577" lon="103.3341029"><ele>2465.29</ele><time>2025-09-13T11:54:36.000Z</time></trkpt>
        <trkpt lat="29.5358039" lon="103.3340884"><ele>2465.89</ele><time>2025-09-13T11:54:46.000Z</time></trkpt>
        <trkpt lat="29.5357438" lon="103.334067"><ele>2466.4</ele><time>2025-09-13T11:54:52.000Z</time></trkpt>
        <trkpt lat="29.5356952" lon="103.334032"><ele>2468.57</ele><time>2025-09-13T11:55:02.000Z</time></trkpt>
        <trkpt lat="29.5356501" lon="103.3340114"><ele>2470.01</ele><time>2025-09-13T11:55:08.000Z</time></trkpt>
        <trkpt lat="29.535604" lon="103.3339808"><ele>2471.08</ele><time>2025-09-13T11:55:14.000Z</time></trkpt>
        <trkpt lat="29.5355677" lon="103.3339654"><ele>2472.17</ele><time>2025-09-13T11:55:20.000Z</time></trkpt>
        <trkpt lat="29.535558" lon="103.3339207"><ele>2472.45</ele><time>2025-09-13T11:55:28.000Z</time></trkpt>
        <trkpt lat="29.535542" lon="103.3338735"><ele>2473.19</ele><time>2025-09-13T11:55:44.000Z</time></trkpt>
        <trkpt lat="29.5355257" lon="103.3338169"><ele>2473.73</ele><time>2025-09-13T11:55:58.000Z</time></trkpt>
        <trkpt lat="29.535506" lon="103.3337654"><ele>2476.07</ele><time>2025-09-13T11:56:14.000Z</time></trkpt>
        <trkpt lat="29.5354761" lon="103.3337198"><ele>2476.48</ele><time>2025-09-13T11:56:20.000Z</time></trkpt>
        <trkpt lat="29.5354419" lon="103.3336821"><ele>2475.87</ele><time>2025-09-13T11:56:26.000Z</time></trkpt>
        <trkpt lat="29.5354059" lon="103.3336428"><ele>2474.94</ele><time>2025-09-13T11:56:32.000Z</time></trkpt>
        <trkpt lat="29.5353856" lon="103.3335885"><ele>2474.56</ele><time>2025-09-13T11:56:38.000Z</time></trkpt>
        <trkpt lat="29.5353588" lon="103.3335292"><ele>2473.36</ele><time>2025-09-13T11:56:44.000Z</time></trkpt>
        <trkpt lat="29.5353293" lon="103.3334774"><ele>2472.93</ele><time>2025-09-13T11:56:52.000Z</time></trkpt>
        <trkpt lat="29.5352961" lon="103.3334367"><ele>2472.83</ele><time>2025-09-13T11:57:06.000Z</time></trkpt>
        <trkpt lat="29.5352776" lon="103.3333896"><ele>2474.12</ele><time>2025-09-13T11:57:14.000Z</time></trkpt>
        <trkpt lat="29.5352701" lon="103.3333326"><ele>2475.47</ele><time>2025-09-13T11:57:26.000Z</time></trkpt>
        <trkpt lat="29.535256" lon="103.3332772"><ele>2479.08</ele><time>2025-09-13T11:57:36.000Z</time></trkpt>
        <trkpt lat="29.5352369" lon="103.3332226"><ele>2481.73</ele><time>2025-09-13T11:57:48.000Z</time></trkpt>
        <trkpt lat="29.5352214" lon="103.3331687"><ele>2484.61</ele><time>2025-09-13T11:58:04.000Z</time></trkpt>
        <trkpt lat="29.5351999" lon="103.3331156"><ele>2486.01</ele><time>2025-09-13T11:58:22.000Z</time></trkpt>
        <trkpt lat="29.5351757" lon="103.3330667"><ele>2487.5</ele><time>2025-09-13T11:58:34.000Z</time></trkpt>
        <trkpt lat="29.5351459" lon="103.3330146"><ele>2489.1</ele><time>2025-09-13T11:58:46.000Z</time></trkpt>
        <trkpt lat="29.5351183" lon="103.332969"><ele>2491.05</ele><time>2025-09-13T11:58:58.000Z</time></trkpt>
        <trkpt lat="29.5350901" lon="103.3329184"><ele>2493.5</ele><time>2025-09-13T11:59:08.000Z</time></trkpt>
        <trkpt lat="29.5350527" lon="103.3328697"><ele>2495.27</ele><time>2025-09-13T11:59:16.000Z</time></trkpt>
        <trkpt lat="29.535004" lon="103.3328311"><ele>2496.77</ele><time>2025-09-13T11:59:24.000Z</time></trkpt>
        <trkpt lat="29.5349571" lon="103.3328072"><ele>2498</ele><time>2025-09-13T11:59:32.000Z</time></trkpt>
        <trkpt lat="29.5349101" lon="103.3328211"><ele>2498.71</ele><time>2025-09-13T11:59:40.000Z</time></trkpt>
        <trkpt lat="29.5348716" lon="103.3328545"><ele>2499.57</ele><time>2025-09-13T11:59:50.000Z</time></trkpt>
        <trkpt lat="29.5348408" lon="103.3328977"><ele>2500.28</ele><time>2025-09-13T11:59:58.000Z</time></trkpt>
        <trkpt lat="29.5348494" lon="103.3329483"><ele>2501.34</ele><time>2025-09-13T12:00:06.000Z</time></trkpt>
        <trkpt lat="29.5348637" lon="103.3330079"><ele>2501.33</ele><time>2025-09-13T12:00:14.000Z</time></trkpt>
        <trkpt lat="29.5348751" lon="103.3330701"><ele>2501.43</ele><time>2025-09-13T12:00:22.000Z</time></trkpt>
        <trkpt lat="29.5348636" lon="103.3331279"><ele>2501.51</ele><time>2025-09-13T12:00:32.000Z</time></trkpt>
        <trkpt lat="29.5348346" lon="103.3331771"><ele>2501.16</ele><time>2025-09-13T12:00:40.000Z</time></trkpt>
        <trkpt lat="29.5348346" lon="103.3331771"><ele>2501.16</ele><time>2025-09-13T12:01:09.000Z</time></trkpt>
        <trkpt lat="29.5348346" lon="103.3331771"><ele>2501.16</ele><time>2025-09-13T12:01:15.000Z</time></trkpt>
        <trkpt lat="29.5348346" lon="103.3331771"><ele>2501.16</ele><time>2025-09-13T12:03:11.000Z</time></trkpt>
        <trkpt lat="29.5348587" lon="103.3331364"><ele>2499.54</ele><time>2025-09-13T12:03:15.000Z</time></trkpt>
        <trkpt lat="29.5348587" lon="103.3331364"><ele>2499.54</ele><time>2025-09-13T12:03:54.000Z</time></trkpt>
        <trkpt lat="29.5348757" lon="103.3330806"><ele>2496.48</ele><time>2025-09-13T12:04:00.000Z</time></trkpt>
        <trkpt lat="29.5348839" lon="103.3330268"><ele>2494.29</ele><time>2025-09-13T12:04:06.000Z</time></trkpt>
        <trkpt lat="29.5348803" lon="103.332971"><ele>2493.4</ele><time>2025-09-13T12:04:10.000Z</time></trkpt>
        <trkpt lat="29.5348473" lon="103.3329364"><ele>2494.9</ele><time>2025-09-13T12:04:14.000Z</time></trkpt>
        <trkpt lat="29.5347922" lon="103.3329358"><ele>2493.95</ele><time>2025-09-13T12:04:20.000Z</time></trkpt>
        <trkpt lat="29.5347402" lon="103.3329544"><ele>2493.89</ele><time>2025-09-13T12:04:26.000Z</time></trkpt>
        <trkpt lat="29.5346881" lon="103.3329742"><ele>2494.49</ele><time>2025-09-13T12:04:34.000Z</time></trkpt>
        <trkpt lat="29.5346451" lon="103.3330036"><ele>2495.4</ele><time>2025-09-13T12:04:44.000Z</time></trkpt>
        <trkpt lat="29.5345951" lon="103.3330214"><ele>2497.52</ele><time>2025-09-13T12:04:52.000Z</time></trkpt>
        <trkpt lat="29.5345452" lon="103.3330214"><ele>2497.88</ele><time>2025-09-13T12:05:02.000Z</time></trkpt>
        <trkpt lat="29.5344993" lon="103.333029"><ele>2500.03</ele><time>2025-09-13T12:05:10.000Z</time></trkpt>
        <trkpt lat="29.5344542" lon="103.3330309"><ele>2501.83</ele><time>2025-09-13T12:05:18.000Z</time></trkpt>
        <trkpt lat="29.5344158" lon="103.333058"><ele>2504.42</ele><time>2025-09-13T12:05:26.000Z</time></trkpt>
        <trkpt lat="29.5343752" lon="103.3330861"><ele>2504.88</ele><time>2025-09-13T12:05:36.000Z</time></trkpt>
        <trkpt lat="29.5343333" lon="103.3331075"><ele>2504.72</ele><time>2025-09-13T12:05:46.000Z</time></trkpt>
        <trkpt lat="29.5342895" lon="103.333123"><ele>2506.02</ele><time>2025-09-13T12:05:58.000Z</time></trkpt>
        <trkpt lat="29.5342634" lon="103.3330828"><ele>2506.84</ele><time>2025-09-13T12:06:08.000Z</time></trkpt>
        <trkpt lat="29.534221" lon="103.3330727"><ele>2509.35</ele><time>2025-09-13T12:06:18.000Z</time></trkpt>
        <trkpt lat="29.5341802" lon="103.3330897"><ele>2511.24</ele><time>2025-09-13T12:06:28.000Z</time></trkpt>
        <trkpt lat="29.5341366" lon="103.3331196"><ele>2512.65</ele><time>2025-09-13T12:06:38.000Z</time></trkpt>
        <trkpt lat="29.5340953" lon="103.333151"><ele>2515.19</ele><time>2025-09-13T12:06:48.000Z</time></trkpt>
        <trkpt lat="29.5340478" lon="103.3331716"><ele>2516.53</ele><time>2025-09-13T12:07:02.000Z</time></trkpt>
        <trkpt lat="29.5339974" lon="103.3331714"><ele>2518.97</ele><time>2025-09-13T12:07:10.000Z</time></trkpt>
        <trkpt lat="29.5339463" lon="103.3331572"><ele>2520.32</ele><time>2025-09-13T12:07:20.000Z</time></trkpt>
        <trkpt lat="29.533895" lon="103.3331512"><ele>2522.21</ele><time>2025-09-13T12:07:32.000Z</time></trkpt>
        <trkpt lat="29.5338541" lon="103.3331243"><ele>2523.29</ele><time>2025-09-13T12:07:56.000Z</time></trkpt>
        <trkpt lat="29.5338199" lon="103.3330866"><ele>2525.69</ele><time>2025-09-13T12:08:10.000Z</time></trkpt>
        <trkpt lat="29.5337765" lon="103.3330687"><ele>2527.2</ele><time>2025-09-13T12:08:26.000Z</time></trkpt>
        <trkpt lat="29.5337319" lon="103.3330381"><ele>2527.97</ele><time>2025-09-13T12:08:46.000Z</time></trkpt>
        <trkpt lat="29.5336888" lon="103.3330058"><ele>2529.04</ele><time>2025-09-13T12:08:58.000Z</time></trkpt>
        <trkpt lat="29.5336539" lon="103.3329604"><ele>2532.94</ele><time>2025-09-13T12:09:14.000Z</time></trkpt>
        <trkpt lat="29.5336231" lon="103.332915"><ele>2538.38</ele><time>2025-09-13T12:09:28.000Z</time></trkpt>
        <trkpt lat="29.5335825" lon="103.3328823"><ele>2541.03</ele><time>2025-09-13T12:09:42.000Z</time></trkpt>
        <trkpt lat="29.533541" lon="103.3328538"><ele>2541.45</ele><time>2025-09-13T12:09:52.000Z</time></trkpt>
        <trkpt lat="29.5334966" lon="103.3328271"><ele>2542.08</ele><time>2025-09-13T12:10:04.000Z</time></trkpt>
        <trkpt lat="29.5334536" lon="103.3327946"><ele>2543.65</ele><time>2025-09-13T12:10:18.000Z</time></trkpt>
        <trkpt lat="29.533418" lon="103.3327566"><ele>2545.45</ele><time>2025-09-13T12:10:30.000Z</time></trkpt>
        <trkpt lat="29.5333835" lon="103.3327218"><ele>2546.92</ele><time>2025-09-13T12:10:42.000Z</time></trkpt>
        <trkpt lat="29.5333429" lon="103.332693"><ele>2549.18</ele><time>2025-09-13T12:10:54.000Z</time></trkpt>
        <trkpt lat="29.5333045" lon="103.3326582"><ele>2552.35</ele><time>2025-09-13T12:11:08.000Z</time></trkpt>
        <trkpt lat="29.5332606" lon="103.3326432"><ele>2556</ele><time>2025-09-13T12:11:20.000Z</time></trkpt>
        <trkpt lat="29.5332205" lon="103.3326131"><ele>2557.71</ele><time>2025-09-13T12:11:36.000Z</time></trkpt>
        <trkpt lat="29.533185" lon="103.3325759"><ele>2559.78</ele><time>2025-09-13T12:11:46.000Z</time></trkpt>
        <trkpt lat="29.5331485" lon="103.3325408"><ele>2562.06</ele><time>2025-09-13T12:12:00.000Z</time></trkpt>
        <trkpt lat="29.5331121" lon="103.3325045"><ele>2564.93</ele><time>2025-09-13T12:12:12.000Z</time></trkpt>
        <trkpt lat="29.533077" lon="103.3324666"><ele>2565.72</ele><time>2025-09-13T12:12:24.000Z</time></trkpt>
        <trkpt lat="29.533031" lon="103.3324248"><ele>2567.63</ele><time>2025-09-13T12:12:38.000Z</time></trkpt>
        <trkpt lat="29.532996" lon="103.3323779"><ele>2570.3</ele><time>2025-09-13T12:12:48.000Z</time></trkpt>
        <trkpt lat="29.532961" lon="103.3323411"><ele>2571.94</ele><time>2025-09-13T12:12:58.000Z</time></trkpt>
        <trkpt lat="29.5329296" lon="103.3322998"><ele>2572.92</ele><time>2025-09-13T12:13:08.000Z</time></trkpt>
        <trkpt lat="29.532893" lon="103.3322609"><ele>2574.77</ele><time>2025-09-13T12:13:18.000Z</time></trkpt>
        <trkpt lat="29.5328537" lon="103.3322182"><ele>2577.32</ele><time>2025-09-13T12:13:34.000Z</time></trkpt>
        <trkpt lat="29.5328159" lon="103.3321721"><ele>2579.05</ele><time>2025-09-13T12:13:48.000Z</time></trkpt>
        <trkpt lat="29.5327893" lon="103.3321238"><ele>2580.65</ele><time>2025-09-13T12:13:58.000Z</time></trkpt>
        <trkpt lat="29.5327611" lon="103.3320726"><ele>2582.8</ele><time>2025-09-13T12:14:12.000Z</time></trkpt>
        <trkpt lat="29.5327329" lon="103.3320264"><ele>2584.26</ele><time>2025-09-13T12:14:24.000Z</time></trkpt>
        <trkpt lat="29.5326917" lon="103.3320041"><ele>2586.28</ele><time>2025-09-13T12:15:14.000Z</time></trkpt>
        <trkpt lat="29.5326454" lon="103.3320169"><ele>2587.74</ele><time>2025-09-13T12:15:26.000Z</time></trkpt>
        <trkpt lat="29.5326253" lon="103.3320665"><ele>2584.78</ele><time>2025-09-13T12:15:34.000Z</time></trkpt>
        <trkpt lat="29.5326253" lon="103.3320665"><ele>2584.78</ele><time>2025-09-13T12:15:49.000Z</time></trkpt>
        <trkpt lat="29.5326253" lon="103.3320665"><ele>2584.78</ele><time>2025-09-13T12:15:53.000Z</time></trkpt>
        <trkpt lat="29.5326253" lon="103.3320665"><ele>2584.78</ele><time>2025-09-13T12:16:13.000Z</time></trkpt>
        <trkpt lat="29.5326253" lon="103.3320665"><ele>2584.78</ele><time>2025-09-13T12:16:19.000Z</time></trkpt>
        <trkpt lat="29.5326253" lon="103.3320665"><ele>2584.78</ele><time>2025-09-13T12:19:09.000Z</time></trkpt>
        <trkpt lat="29.5326253" lon="103.3320665"><ele>2584.78</ele><time>2025-09-13T12:19:13.000Z</time></trkpt>
        <trkpt lat="29.5326253" lon="103.3320665"><ele>2584.78</ele><time>2025-09-13T12:19:31.000Z</time></trkpt>
        <trkpt lat="29.5327263" lon="103.3320857"><ele>2582.75</ele><time>2025-09-13T12:19:37.000Z</time></trkpt>
        <trkpt lat="29.5327263" lon="103.3320857"><ele>2582.75</ele><time>2025-09-13T12:19:52.000Z</time></trkpt>
        <trkpt lat="29.5326807" lon="103.3320449"><ele>2588.12</ele><time>2025-09-13T12:20:11.000Z</time></trkpt>
        <trkpt lat="29.5326612" lon="103.3319971"><ele>2588.06</ele><time>2025-09-13T12:20:35.000Z</time></trkpt>
        <trkpt lat="29.5326248" lon="103.3319608"><ele>2588.61</ele><time>2025-09-13T12:20:49.000Z</time></trkpt>
        <trkpt lat="29.5326073" lon="103.3319113"><ele>2589.13</ele><time>2025-09-13T12:20:59.000Z</time></trkpt>
        <trkpt lat="29.532571" lon="103.3318593"><ele>2590.48</ele><time>2025-09-13T12:21:07.000Z</time></trkpt>
        <trkpt lat="29.5325431" lon="103.3318121"><ele>2592.49</ele><time>2025-09-13T12:21:23.000Z</time></trkpt>
        <trkpt lat="29.5325199" lon="103.3317639"><ele>2593.71</ele><time>2025-09-13T12:21:41.000Z</time></trkpt>
        <trkpt lat="29.5325136" lon="103.3317128"><ele>2595.25</ele><time>2025-09-13T12:21:53.000Z</time></trkpt>
        <trkpt lat="29.5324955" lon="103.3316634"><ele>2595.84</ele><time>2025-09-13T12:22:09.000Z</time></trkpt>
        <trkpt lat="29.53246" lon="103.3316247"><ele>2596.72</ele><time>2025-09-13T12:22:25.000Z</time></trkpt>
        <trkpt lat="29.532438" lon="103.3315756"><ele>2598.4</ele><time>2025-09-13T12:22:37.000Z</time></trkpt>
        <trkpt lat="29.5324091" lon="103.3315207"><ele>2601.65</ele><time>2025-09-13T12:22:51.000Z</time></trkpt>
        <trkpt lat="29.5324062" lon="103.3314594"><ele>2604.15</ele><time>2025-09-13T12:23:03.000Z</time></trkpt>
        <trkpt lat="29.532395" lon="103.3314063"><ele>2606.41</ele><time>2025-09-13T12:23:18.000Z</time></trkpt>
        <trkpt lat="29.5323811" lon="103.3313506"><ele>2608.6</ele><time>2025-09-13T12:23:32.000Z</time></trkpt>
        <trkpt lat="29.5323546" lon="103.3313068"><ele>2610.04</ele><time>2025-09-13T12:23:41.000Z</time></trkpt>
        <trkpt lat="29.5323315" lon="103.3312554"><ele>2611.87</ele><time>2025-09-13T12:23:57.000Z</time></trkpt>
        <trkpt lat="29.532299" lon="103.3312064"><ele>2614.55</ele><time>2025-09-13T12:24:11.000Z</time></trkpt>
        <trkpt lat="29.5322612" lon="103.331218"><ele>2615.85</ele><time>2025-09-13T12:24:29.000Z</time></trkpt>
        <trkpt lat="29.5322255" lon="103.3312554"><ele>2619.11</ele><time>2025-09-13T12:24:41.000Z</time></trkpt>
        <trkpt lat="29.5321999" lon="103.331307"><ele>2621.02</ele><time>2025-09-13T12:24:51.000Z</time></trkpt>
        <trkpt lat="29.5321714" lon="103.3313539"><ele>2623</ele><time>2025-09-13T12:24:59.000Z</time></trkpt>
        <trkpt lat="29.5321511" lon="103.3314054"><ele>2624.8</ele><time>2025-09-13T12:25:11.000Z</time></trkpt>
        <trkpt lat="29.5321342" lon="103.3313803"><ele>2626.29</ele><time>2025-09-13T12:25:21.000Z</time></trkpt>
        <trkpt lat="29.5321471" lon="103.3313202"><ele>2626.88</ele><time>2025-09-13T12:25:30.000Z</time></trkpt>
        <trkpt lat="29.5321505" lon="103.3312543"><ele>2627.55</ele><time>2025-09-13T12:25:41.000Z</time></trkpt>
        <trkpt lat="29.5321625" lon="103.3311916"><ele>2628.6</ele><time>2025-09-13T12:25:51.000Z</time></trkpt>
        <trkpt lat="29.5321696" lon="103.331131"><ele>2630.3</ele><time>2025-09-13T12:26:03.000Z</time></trkpt>
        <trkpt lat="29.5321629" lon="103.3310744"><ele>2633.1</ele><time>2025-09-13T12:26:13.000Z</time></trkpt>
        <trkpt lat="29.5321515" lon="103.331016"><ele>2635.04</ele><time>2025-09-13T12:26:23.000Z</time></trkpt>
        <trkpt lat="29.5321569" lon="103.3309639"><ele>2635.72</ele><time>2025-09-13T12:26:33.000Z</time></trkpt>
        <trkpt lat="29.5321612" lon="103.3309055"><ele>2635.99</ele><time>2025-09-13T12:26:43.000Z</time></trkpt>
        <trkpt lat="29.5321574" lon="103.3308324"><ele>2636.41</ele><time>2025-09-13T12:26:53.000Z</time></trkpt>
        <trkpt lat="29.5321462" lon="103.3307689"><ele>2636.6</ele><time>2025-09-13T12:26:59.000Z</time></trkpt>
        <trkpt lat="29.5321368" lon="103.3307106"><ele>2636.51</ele><time>2025-09-13T12:27:05.000Z</time></trkpt>
        <trkpt lat="29.5321282" lon="103.3306533"><ele>2636.45</ele><time>2025-09-13T12:27:11.000Z</time></trkpt>
        <trkpt lat="29.5321346" lon="103.3305883"><ele>2635.58</ele><time>2025-09-13T12:27:19.000Z</time></trkpt>
        <trkpt lat="29.5321567" lon="103.3305366"><ele>2636.6</ele><time>2025-09-13T12:27:25.000Z</time></trkpt>
        <trkpt lat="29.5321751" lon="103.3304847"><ele>2638.21</ele><time>2025-09-13T12:27:35.000Z</time></trkpt>
        <trkpt lat="29.5321815" lon="103.3304315"><ele>2638.96</ele><time>2025-09-13T12:27:49.000Z</time></trkpt>
        <trkpt lat="29.5321583" lon="103.3303873"><ele>2639.4</ele><time>2025-09-13T12:28:01.000Z</time></trkpt>
        <trkpt lat="29.5321139" lon="103.3303798"><ele>2640.54</ele><time>2025-09-13T12:28:09.000Z</time></trkpt>
        <trkpt lat="29.5321071" lon="103.3303415"><ele>2643.63</ele><time>2025-09-13T12:28:33.000Z</time></trkpt>
        <trkpt lat="29.5321345" lon="103.3302971"><ele>2648.05</ele><time>2025-09-13T12:28:49.000Z</time></trkpt>
        <trkpt lat="29.5321528" lon="103.3302257"><ele>2651.38</ele><time>2025-09-13T12:29:21.000Z</time></trkpt>
        <trkpt lat="29.5321181" lon="103.3302095"><ele>2653.83</ele><time>2025-09-13T12:29:35.000Z</time></trkpt>
        <trkpt lat="29.5320604" lon="103.330211"><ele>2656.14</ele><time>2025-09-13T12:29:47.000Z</time></trkpt>
        <trkpt lat="29.5320011" lon="103.3302157"><ele>2658.41</ele><time>2025-09-13T12:30:03.000Z</time></trkpt>
        <trkpt lat="29.5319491" lon="103.3302224"><ele>2660.84</ele><time>2025-09-13T12:30:22.000Z</time></trkpt>
        <trkpt lat="29.5319012" lon="103.3302246"><ele>2664.03</ele><time>2025-09-13T12:30:33.000Z</time></trkpt>
        <trkpt lat="29.531855" lon="103.330205"><ele>2667.04</ele><time>2025-09-13T12:30:57.000Z</time></trkpt>
        <trkpt lat="29.5318134" lon="103.33017"><ele>2671.84</ele><time>2025-09-13T12:31:11.000Z</time></trkpt>
        <trkpt lat="29.5317793" lon="103.330123"><ele>2675.25</ele><time>2025-09-13T12:31:27.000Z</time></trkpt>
        <trkpt lat="29.5317556" lon="103.3300699"><ele>2678.65</ele><time>2025-09-13T12:31:37.000Z</time></trkpt>
        <trkpt lat="29.5317289" lon="103.3300198"><ele>2681.47</ele><time>2025-09-13T12:31:46.000Z</time></trkpt>
        <trkpt lat="29.5316843" lon="103.3300072"><ele>2683.67</ele><time>2025-09-13T12:31:59.000Z</time></trkpt>
        <trkpt lat="29.5316384" lon="103.329995"><ele>2683.64</ele><time>2025-09-13T12:32:08.000Z</time></trkpt>
        <trkpt lat="29.5315907" lon="103.3299716"><ele>2684.57</ele><time>2025-09-13T12:32:21.000Z</time></trkpt>
        <trkpt lat="29.5315505" lon="103.3299341"><ele>2685.47</ele><time>2025-09-13T12:32:37.000Z</time></trkpt>
        <trkpt lat="29.531511" lon="103.3299048"><ele>2689.31</ele><time>2025-09-13T12:32:51.000Z</time></trkpt>
        <trkpt lat="29.5314729" lon="103.3298716"><ele>2693.58</ele><time>2025-09-13T12:33:13.000Z</time></trkpt>
        <trkpt lat="29.5314342" lon="103.3298334"><ele>2697.71</ele><time>2025-09-13T12:33:31.000Z</time></trkpt>
        <trkpt lat="29.5313937" lon="103.329799"><ele>2700.67</ele><time>2025-09-13T12:34:07.000Z</time></trkpt>
        <trkpt lat="29.5313496" lon="103.3297685"><ele>2704.4</ele><time>2025-09-13T12:34:25.000Z</time></trkpt>
        <trkpt lat="29.5313127" lon="103.3297296"><ele>2706.91</ele><time>2025-09-13T12:34:44.000Z</time></trkpt>
        <trkpt lat="29.5312863" lon="103.3296821"><ele>2710.27</ele><time>2025-09-13T12:34:59.000Z</time></trkpt>
        <trkpt lat="29.5312579" lon="103.3296396"><ele>2713.24</ele><time>2025-09-13T12:35:21.000Z</time></trkpt>
        <trkpt lat="29.5312319" lon="103.3295917"><ele>2715.92</ele><time>2025-09-13T12:35:35.000Z</time></trkpt>
        <trkpt lat="29.5312055" lon="103.3295448"><ele>2718.32</ele><time>2025-09-13T12:35:53.000Z</time></trkpt>
        <trkpt lat="29.5311803" lon="103.329497"><ele>2720.78</ele><time>2025-09-13T12:36:07.000Z</time></trkpt>
        <trkpt lat="29.531153" lon="103.3294427"><ele>2724.21</ele><time>2025-09-13T12:36:23.000Z</time></trkpt>
        <trkpt lat="29.5311352" lon="103.3293882"><ele>2726.58</ele><time>2025-09-13T12:36:33.000Z</time></trkpt>
        <trkpt lat="29.5311291" lon="103.32933"><ele>2728.21</ele><time>2025-09-13T12:36:43.000Z</time></trkpt>
        <trkpt lat="29.5311204" lon="103.3292664"><ele>2729.29</ele><time>2025-09-13T12:36:53.000Z</time></trkpt>
        <trkpt lat="29.5311141" lon="103.3292027"><ele>2729.68</ele><time>2025-09-13T12:37:01.000Z</time></trkpt>
        <trkpt lat="29.5311146" lon="103.3291336"><ele>2730.1</ele><time>2025-09-13T12:37:11.000Z</time></trkpt>
        <trkpt lat="29.5311085" lon="103.3290663"><ele>2731.33</ele><time>2025-09-13T12:37:19.000Z</time></trkpt>
        <trkpt lat="29.5311042" lon="103.3290071"><ele>2732.29</ele><time>2025-09-13T12:37:27.000Z</time></trkpt>
        <trkpt lat="29.5311123" lon="103.3289549"><ele>2732.92</ele><time>2025-09-13T12:37:35.000Z</time></trkpt>
        <trkpt lat="29.5311119" lon="103.3288935"><ele>2734.31</ele><time>2025-09-13T12:37:47.000Z</time></trkpt>
        <trkpt lat="29.5311108" lon="103.3288337"><ele>2735.67</ele><time>2025-09-13T12:37:57.000Z</time></trkpt>
        <trkpt lat="29.531116" lon="103.3287724"><ele>2735.31</ele><time>2025-09-13T12:38:05.000Z</time></trkpt>
        <trkpt lat="29.5311471" lon="103.3287216"><ele>2734.86</ele><time>2025-09-13T12:38:15.000Z</time></trkpt>
        <trkpt lat="29.5311588" lon="103.3286713"><ele>2735.14</ele><time>2025-09-13T12:38:29.000Z</time></trkpt>
        <trkpt lat="29.5311655" lon="103.3286185"><ele>2736.09</ele><time>2025-09-13T12:38:39.000Z</time></trkpt>
        <trkpt lat="29.5311639" lon="103.328562"><ele>2737.21</ele><time>2025-09-13T12:38:49.000Z</time></trkpt>
        <trkpt lat="29.5311766" lon="103.3285047"><ele>2738.71</ele><time>2025-09-13T12:38:59.000Z</time></trkpt>
        <trkpt lat="29.5311927" lon="103.3284488"><ele>2740.17</ele><time>2025-09-13T12:39:09.000Z</time></trkpt>
        <trkpt lat="29.5312199" lon="103.3283834"><ele>2742.02</ele><time>2025-09-13T12:39:17.000Z</time></trkpt>
        <trkpt lat="29.5312333" lon="103.328316"><ele>2745.08</ele><time>2025-09-13T12:39:25.000Z</time></trkpt>
        <trkpt lat="29.531243" lon="103.3282597"><ele>2746.23</ele><time>2025-09-13T12:39:31.000Z</time></trkpt>
        <trkpt lat="29.5312577" lon="103.3282095"><ele>2746.62</ele><time>2025-09-13T12:39:37.000Z</time></trkpt>
        <trkpt lat="29.531259" lon="103.3281468"><ele>2745.94</ele><time>2025-09-13T12:39:45.000Z</time></trkpt>
        <trkpt lat="29.5312562" lon="103.3280899"><ele>2745.77</ele><time>2025-09-13T12:39:52.000Z</time></trkpt>
        <trkpt lat="29.5312561" lon="103.3280285"><ele>2746.81</ele><time>2025-09-13T12:40:01.000Z</time></trkpt>
        <trkpt lat="29.5312633" lon="103.3279628"><ele>2747.81</ele><time>2025-09-13T12:40:09.000Z</time></trkpt>
        <trkpt lat="29.5312495" lon="103.3278856"><ele>2748.52</ele><time>2025-09-13T12:40:17.000Z</time></trkpt>
        <trkpt lat="29.5312304" lon="103.3278268"><ele>2750.21</ele><time>2025-09-13T12:40:23.000Z</time></trkpt>
        <trkpt lat="29.5312182" lon="103.3277731"><ele>2752.09</ele><time>2025-09-13T12:40:31.000Z</time></trkpt>
        <trkpt lat="29.5312172" lon="103.3277157"><ele>2753.88</ele><time>2025-09-13T12:40:41.000Z</time></trkpt>
        <trkpt lat="29.5312262" lon="103.3276589"><ele>2755.57</ele><time>2025-09-13T12:40:51.000Z</time></trkpt>
        <trkpt lat="29.5312331" lon="103.3276017"><ele>2757.59</ele><time>2025-09-13T12:41:01.000Z</time></trkpt>
        <trkpt lat="29.5312348" lon="103.3275423"><ele>2759.98</ele><time>2025-09-13T12:41:13.000Z</time></trkpt>
        <trkpt lat="29.5312474" lon="103.3274842"><ele>2761.82</ele><time>2025-09-13T12:41:23.000Z</time></trkpt>
        <trkpt lat="29.531238" lon="103.3274314"><ele>2763.32</ele><time>2025-09-13T12:41:33.000Z</time></trkpt>
        <trkpt lat="29.5312265" lon="103.3273755"><ele>2763.43</ele><time>2025-09-13T12:41:45.000Z</time></trkpt>
        <trkpt lat="29.5312225" lon="103.3273219"><ele>2764.55</ele><time>2025-09-13T12:41:57.000Z</time></trkpt>
        <trkpt lat="29.5312248" lon="103.327267"><ele>2764.78</ele><time>2025-09-13T12:42:09.000Z</time></trkpt>
        <trkpt lat="29.5312189" lon="103.327211"><ele>2766.2</ele><time>2025-09-13T12:42:21.000Z</time></trkpt>
        <trkpt lat="29.5312016" lon="103.3271622"><ele>2768.67</ele><time>2025-09-13T12:42:33.000Z</time></trkpt>
        <trkpt lat="29.5311757" lon="103.3271119"><ele>2771.11</ele><time>2025-09-13T12:42:47.000Z</time></trkpt>
        <trkpt lat="29.5311318" lon="103.327062"><ele>2773.44</ele><time>2025-09-13T12:42:58.000Z</time></trkpt>
        <trkpt lat="29.5310812" lon="103.3270342"><ele>2776.07</ele><time>2025-09-13T12:43:09.000Z</time></trkpt>
        <trkpt lat="29.5310241" lon="103.3269997"><ele>2778.1</ele><time>2025-09-13T12:43:19.000Z</time></trkpt>
        <trkpt lat="29.5309733" lon="103.3269732"><ele>2779.31</ele><time>2025-09-13T12:43:29.000Z</time></trkpt>
        <trkpt lat="29.5309231" lon="103.326962"><ele>2780.14</ele><time>2025-09-13T12:43:59.000Z</time></trkpt>
        <trkpt lat="29.5308748" lon="103.3269389"><ele>2780.94</ele><time>2025-09-13T12:44:09.000Z</time></trkpt>
        <trkpt lat="29.5308307" lon="103.3269098"><ele>2781.64</ele><time>2025-09-13T12:44:19.000Z</time></trkpt>
        <trkpt lat="29.5308047" lon="103.3268609"><ele>2783.44</ele><time>2025-09-13T12:44:41.000Z</time></trkpt>
        <trkpt lat="29.5307862" lon="103.3268037"><ele>2785.83</ele><time>2025-09-13T12:44:55.000Z</time></trkpt>
        <trkpt lat="29.5307428" lon="103.3267937"><ele>2788.33</ele><time>2025-09-13T12:45:05.000Z</time></trkpt>
        <trkpt lat="29.5306937" lon="103.3267953"><ele>2790.38</ele><time>2025-09-13T12:45:15.000Z</time></trkpt>
        <trkpt lat="29.530646" lon="103.3268185"><ele>2791.87</ele><time>2025-09-13T12:45:29.000Z</time></trkpt>
        <trkpt lat="29.5305924" lon="103.3268378"><ele>2793.1</ele><time>2025-09-13T12:45:37.000Z</time></trkpt>
        <trkpt lat="29.5305429" lon="103.3268605"><ele>2793.89</ele><time>2025-09-13T12:45:47.000Z</time></trkpt>
        <trkpt lat="29.5304936" lon="103.3268782"><ele>2794.39</ele><time>2025-09-13T12:45:59.000Z</time></trkpt>
        <trkpt lat="29.5304451" lon="103.3269032"><ele>2796.14</ele><time>2025-09-13T12:46:11.000Z</time></trkpt>
        <trkpt lat="29.5303931" lon="103.3269141"><ele>2798.46</ele><time>2025-09-13T12:46:21.000Z</time></trkpt>
        <trkpt lat="29.5303395" lon="103.3269272"><ele>2802.03</ele><time>2025-09-13T12:46:33.000Z</time></trkpt>
        <trkpt lat="29.5302908" lon="103.3269556"><ele>2804.61</ele><time>2025-09-13T12:46:45.000Z</time></trkpt>
        <trkpt lat="29.5302488" lon="103.3269823"><ele>2806.8</ele><time>2025-09-13T12:46:53.000Z</time></trkpt>
        <trkpt lat="29.5302034" lon="103.3270035"><ele>2808.58</ele><time>2025-09-13T12:47:03.000Z</time></trkpt>
        <trkpt lat="29.530161" lon="103.3270379"><ele>2811.23</ele><time>2025-09-13T12:47:11.000Z</time></trkpt>
        <trkpt lat="29.5301301" lon="103.3270819"><ele>2813.03</ele><time>2025-09-13T12:47:19.000Z</time></trkpt>
        <trkpt lat="29.5300821" lon="103.3271441"><ele>2813.63</ele><time>2025-09-13T12:47:25.000Z</time></trkpt>
        <trkpt lat="29.5300251" lon="103.3271792"><ele>2813.86</ele><time>2025-09-13T12:47:31.000Z</time></trkpt>
        <trkpt lat="29.5299775" lon="103.3272243"><ele>2814.46</ele><time>2025-09-13T12:47:39.000Z</time></trkpt>
        <trkpt lat="29.5299413" lon="103.3272726"><ele>2814.95</ele><time>2025-09-13T12:47:47.000Z</time></trkpt>
        <trkpt lat="29.5299089" lon="103.3273143"><ele>2815.53</ele><time>2025-09-13T12:47:55.000Z</time></trkpt>
        <trkpt lat="29.5299098" lon="103.3273623"><ele>2815.94</ele><time>2025-09-13T12:48:43.000Z</time></trkpt>
        <trkpt lat="29.5299406" lon="103.3274"><ele>2813.26</ele><time>2025-09-13T12:48:59.000Z</time></trkpt>
        <trkpt lat="29.5299406" lon="103.3274"><ele>2813.26</ele><time>2025-09-13T12:49:15.000Z</time></trkpt>
        <trkpt lat="29.5299406" lon="103.3274"><ele>2813.26</ele><time>2025-09-13T12:49:21.000Z</time></trkpt>
        <trkpt lat="29.5299406" lon="103.3274"><ele>2813.26</ele><time>2025-09-13T12:52:05.000Z</time></trkpt>
        <trkpt lat="29.5299406" lon="103.3274"><ele>2813.26</ele><time>2025-09-13T12:52:09.000Z</time></trkpt>
        <trkpt lat="29.5299406" lon="103.3274"><ele>2813.26</ele><time>2025-09-13T12:53:03.000Z</time></trkpt>
        <trkpt lat="29.5299171" lon="103.3273683"><ele>2813.75</ele><time>2025-09-13T12:53:07.000Z</time></trkpt>
        <trkpt lat="29.5299171" lon="103.3273683"><ele>2813.75</ele><time>2025-09-13T12:53:51.000Z</time></trkpt>
        <trkpt lat="29.5298786" lon="103.3274102"><ele>2813.54</ele><time>2025-09-13T12:54:01.000Z</time></trkpt>
        <trkpt lat="29.5298424" lon="103.327471"><ele>2813.56</ele><time>2025-09-13T12:54:09.000Z</time></trkpt>
        <trkpt lat="29.5298116" lon="103.3275248"><ele>2814.05</ele><time>2025-09-13T12:54:15.000Z</time></trkpt>
        <trkpt lat="29.5297907" lon="103.3275766"><ele>2814.8</ele><time>2025-09-13T12:54:23.000Z</time></trkpt>
        <trkpt lat="29.5297665" lon="103.3276281"><ele>2815.31</ele><time>2025-09-13T12:54:31.000Z</time></trkpt>
        <trkpt lat="29.5297316" lon="103.3276703"><ele>2816.06</ele><time>2025-09-13T12:54:37.000Z</time></trkpt>
        <trkpt lat="29.5297019" lon="103.3277128"><ele>2816.56</ele><time>2025-09-13T12:54:41.000Z</time></trkpt>
        <trkpt lat="29.5296733" lon="103.3277558"><ele>2817.41</ele><time>2025-09-13T12:54:47.000Z</time></trkpt>
        <trkpt lat="29.5296378" lon="103.3277997"><ele>2818.74</ele><time>2025-09-13T12:54:55.000Z</time></trkpt>
        <trkpt lat="29.5295921" lon="103.327814"><ele>2819.14</ele><time>2025-09-13T12:55:03.000Z</time></trkpt>
        <trkpt lat="29.5295423" lon="103.3278285"><ele>2820.08</ele><time>2025-09-13T12:55:09.000Z</time></trkpt>
        <trkpt lat="29.5294869" lon="103.3278241"><ele>2820.76</ele><time>2025-09-13T12:55:17.000Z</time></trkpt>
        <trkpt lat="29.5294327" lon="103.32781"><ele>2821.15</ele><time>2025-09-13T12:55:23.000Z</time></trkpt>
        <trkpt lat="29.5293787" lon="103.3277964"><ele>2821.54</ele><time>2025-09-13T12:55:29.000Z</time></trkpt>
        <trkpt lat="29.5293327" lon="103.3277704"><ele>2821.21</ele><time>2025-09-13T12:55:35.000Z</time></trkpt>
        <trkpt lat="29.5292804" lon="103.3277594"><ele>2822.02</ele><time>2025-09-13T12:55:45.000Z</time></trkpt>
        <trkpt lat="29.529248" lon="103.3278001"><ele>2822.58</ele><time>2025-09-13T12:55:53.000Z</time></trkpt>
        <trkpt lat="29.5292363" lon="103.3278582"><ele>2822.61</ele><time>2025-09-13T12:55:59.000Z</time></trkpt>
        <trkpt lat="29.5292241" lon="103.3279157"><ele>2821.91</ele><time>2025-09-13T12:56:05.000Z</time></trkpt>
        <trkpt lat="29.5292264" lon="103.3279746"><ele>2821.77</ele><time>2025-09-13T12:56:13.000Z</time></trkpt>
        <trkpt lat="29.5292199" lon="103.3280324"><ele>2823.66</ele><time>2025-09-13T12:56:23.000Z</time></trkpt>
        <trkpt lat="29.5292063" lon="103.3281013"><ele>2825.79</ele><time>2025-09-13T12:56:41.000Z</time></trkpt>
        <trkpt lat="29.5291834" lon="103.3281668"><ele>2826.62</ele><time>2025-09-13T12:56:47.000Z</time></trkpt>
        <trkpt lat="29.5291548" lon="103.3282202"><ele>2828.67</ele><time>2025-09-13T12:56:53.000Z</time></trkpt>
        <trkpt lat="29.5291398" lon="103.328278"><ele>2828.97</ele><time>2025-09-13T12:57:03.000Z</time></trkpt>
        <trkpt lat="29.5291247" lon="103.328332"><ele>2829.35</ele><time>2025-09-13T12:57:15.000Z</time></trkpt>
        <trkpt lat="29.5291158" lon="103.3283889"><ele>2830.31</ele><time>2025-09-13T12:57:27.000Z</time></trkpt>
        <trkpt lat="29.5291017" lon="103.3284441"><ele>2831.31</ele><time>2025-09-13T12:57:39.000Z</time></trkpt>
        <trkpt lat="29.5290802" lon="103.3284964"><ele>2834.07</ele><time>2025-09-13T12:57:49.000Z</time></trkpt>
        <trkpt lat="29.5290536" lon="103.3285424"><ele>2835.86</ele><time>2025-09-13T12:57:59.000Z</time></trkpt>
        <trkpt lat="29.5290243" lon="103.3285911"><ele>2836.66</ele><time>2025-09-13T12:58:15.000Z</time></trkpt>
        <trkpt lat="29.5290002" lon="103.328647"><ele>2838.86</ele><time>2025-09-13T12:58:25.000Z</time></trkpt>
        <trkpt lat="29.5289966" lon="103.3287027"><ele>2841.51</ele><time>2025-09-13T12:58:35.000Z</time></trkpt>
        <trkpt lat="29.5289709" lon="103.3287524"><ele>2843.28</ele><time>2025-09-13T12:58:43.000Z</time></trkpt>
        <trkpt lat="29.5289511" lon="103.3288056"><ele>2844.22</ele><time>2025-09-13T12:58:53.000Z</time></trkpt>
        <trkpt lat="29.5289364" lon="103.3288641"><ele>2845.96</ele><time>2025-09-13T12:59:01.000Z</time></trkpt>
        <trkpt lat="29.5289161" lon="103.328923"><ele>2847.02</ele><time>2025-09-13T12:59:09.000Z</time></trkpt>
        <trkpt lat="29.5288942" lon="103.3289737"><ele>2848.29</ele><time>2025-09-13T12:59:17.000Z</time></trkpt>
        <trkpt lat="29.5288663" lon="103.3290183"><ele>2849.18</ele><time>2025-09-13T12:59:27.000Z</time></trkpt>
        <trkpt lat="29.5288341" lon="103.3290638"><ele>2849.56</ele><time>2025-09-13T12:59:37.000Z</time></trkpt>
        <trkpt lat="29.5288071" lon="103.3291181"><ele>2850.43</ele><time>2025-09-13T12:59:47.000Z</time></trkpt>
        <trkpt lat="29.5287864" lon="103.3291714"><ele>2850.86</ele><time>2025-09-13T12:59:55.000Z</time></trkpt>
        <trkpt lat="29.5287553" lon="103.3292151"><ele>2851.48</ele><time>2025-09-13T13:00:05.000Z</time></trkpt>
        <trkpt lat="29.528712" lon="103.3292488"><ele>2853.23</ele><time>2025-09-13T13:00:15.000Z</time></trkpt>
        <trkpt lat="29.5286763" lon="103.329294"><ele>2855.03</ele><time>2025-09-13T13:00:25.000Z</time></trkpt>
        <trkpt lat="29.5286567" lon="103.3293564"><ele>2857.82</ele><time>2025-09-13T13:00:33.000Z</time></trkpt>
        <trkpt lat="29.5286427" lon="103.329418"><ele>2858.35</ele><time>2025-09-13T13:00:41.000Z</time></trkpt>
        <trkpt lat="29.5286246" lon="103.3294707"><ele>2858.09</ele><time>2025-09-13T13:00:47.000Z</time></trkpt>
        <trkpt lat="29.5286099" lon="103.3295224"><ele>2857.39</ele><time>2025-09-13T13:00:53.000Z</time></trkpt>
        <trkpt lat="29.5285892" lon="103.3295781"><ele>2857.72</ele><time>2025-09-13T13:01:03.000Z</time></trkpt>
        <trkpt lat="29.5285764" lon="103.3296364"><ele>2858.52</ele><time>2025-09-13T13:01:13.000Z</time></trkpt>
        <trkpt lat="29.5285744" lon="103.3296903"><ele>2859.14</ele><time>2025-09-13T13:01:21.000Z</time></trkpt>
        <trkpt lat="29.5285644" lon="103.3297441"><ele>2859.8</ele><time>2025-09-13T13:01:29.000Z</time></trkpt>
        <trkpt lat="29.5285576" lon="103.3298003"><ele>2861.25</ele><time>2025-09-13T13:01:37.000Z</time></trkpt>
        <trkpt lat="29.5285396" lon="103.329868"><ele>2862.24</ele><time>2025-09-13T13:01:41.000Z</time></trkpt>
        <trkpt lat="29.5285447" lon="103.3299279"><ele>2864.82</ele><time>2025-09-13T13:01:49.000Z</time></trkpt>
        <trkpt lat="29.528531" lon="103.3299841"><ele>2864.52</ele><time>2025-09-13T13:02:01.000Z</time></trkpt>
        <trkpt lat="29.5284987" lon="103.3300325"><ele>2864.45</ele><time>2025-09-13T13:02:07.000Z</time></trkpt>
        <trkpt lat="29.5284702" lon="103.3300836"><ele>2865.15</ele><time>2025-09-13T13:02:13.000Z</time></trkpt>
        <trkpt lat="29.5284237" lon="103.3301151"><ele>2866.21</ele><time>2025-09-13T13:02:19.000Z</time></trkpt>
        <trkpt lat="29.5283823" lon="103.3301437"><ele>2866.85</ele><time>2025-09-13T13:02:25.000Z</time></trkpt>
        <trkpt lat="29.5283473" lon="103.33018"><ele>2866.41</ele><time>2025-09-13T13:02:31.000Z</time></trkpt>
        <trkpt lat="29.5283145" lon="103.3302185"><ele>2865.55</ele><time>2025-09-13T13:02:37.000Z</time></trkpt>
        <trkpt lat="29.5282811" lon="103.3302709"><ele>2865.27</ele><time>2025-09-13T13:02:45.000Z</time></trkpt>
        <trkpt lat="29.5282599" lon="103.330327"><ele>2865.83</ele><time>2025-09-13T13:02:51.000Z</time></trkpt>
        <trkpt lat="29.5282669" lon="103.3303854"><ele>2866.12</ele><time>2025-09-13T13:02:57.000Z</time></trkpt>
        <trkpt lat="29.5282817" lon="103.3304427"><ele>2866.4</ele><time>2025-09-13T13:03:03.000Z</time></trkpt>
        <trkpt lat="29.5282968" lon="103.3304965"><ele>2867.3</ele><time>2025-09-13T13:03:09.000Z</time></trkpt>
        <trkpt lat="29.5283037" lon="103.3305489"><ele>2866.97</ele><time>2025-09-13T13:03:17.000Z</time></trkpt>
        <trkpt lat="29.5283019" lon="103.3306048"><ele>2868.01</ele><time>2025-09-13T13:03:25.000Z</time></trkpt>
        <trkpt lat="29.5282885" lon="103.3306561"><ele>2868.79</ele><time>2025-09-13T13:03:37.000Z</time></trkpt>
        <trkpt lat="29.5282571" lon="103.3307003"><ele>2868.67</ele><time>2025-09-13T13:03:49.000Z</time></trkpt>
        <trkpt lat="29.5282163" lon="103.3307339"><ele>2868.39</ele><time>2025-09-13T13:03:57.000Z</time></trkpt>
        <trkpt lat="29.5281712" lon="103.3307659"><ele>2868.98</ele><time>2025-09-13T13:04:05.000Z</time></trkpt>
        <trkpt lat="29.5281303" lon="103.3308018"><ele>2869.68</ele><time>2025-09-13T13:04:13.000Z</time></trkpt>
        <trkpt lat="29.5281034" lon="103.3308529"><ele>2870.99</ele><time>2025-09-13T13:04:23.000Z</time></trkpt>
        <trkpt lat="29.528092" lon="103.3309126"><ele>2872.69</ele><time>2025-09-13T13:04:33.000Z</time></trkpt>
        <trkpt lat="29.5280827" lon="103.3309782"><ele>2874.65</ele><time>2025-09-13T13:04:43.000Z</time></trkpt>
        <trkpt lat="29.5280627" lon="103.3310381"><ele>2877.13</ele><time>2025-09-13T13:04:53.000Z</time></trkpt>
        <trkpt lat="29.5280393" lon="103.3310873"><ele>2878.56</ele><time>2025-09-13T13:05:01.000Z</time></trkpt>
        <trkpt lat="29.5280245" lon="103.3311426"><ele>2879.68</ele><time>2025-09-13T13:05:11.000Z</time></trkpt>
        <trkpt lat="29.5280164" lon="103.3311953"><ele>2880.1</ele><time>2025-09-13T13:05:19.000Z</time></trkpt>
        <trkpt lat="29.527988" lon="103.3312316"><ele>2880.44</ele><time>2025-09-13T13:05:27.000Z</time></trkpt>
        <trkpt lat="29.5279454" lon="103.331258"><ele>2880.9</ele><time>2025-09-13T13:05:37.000Z</time></trkpt>
        <trkpt lat="29.5279055" lon="103.331289"><ele>2882.49</ele><time>2025-09-13T13:05:47.000Z</time></trkpt>
        <trkpt lat="29.5278677" lon="103.33132"><ele>2884.21</ele><time>2025-09-13T13:05:55.000Z</time></trkpt>
        <trkpt lat="29.5278345" lon="103.3313624"><ele>2886.58</ele><time>2025-09-13T13:06:05.000Z</time></trkpt>
        <trkpt lat="29.5278039" lon="103.3314111"><ele>2887.16</ele><time>2025-09-13T13:06:15.000Z</time></trkpt>
        <trkpt lat="29.5277829" lon="103.3314634"><ele>2889.41</ele><time>2025-09-13T13:06:23.000Z</time></trkpt>
        <trkpt lat="29.5277672" lon="103.3315188"><ele>2891.84</ele><time>2025-09-13T13:06:33.000Z</time></trkpt>
        <trkpt lat="29.5277436" lon="103.3315665"><ele>2893.03</ele><time>2025-09-13T13:06:43.000Z</time></trkpt>
        <trkpt lat="29.5277246" lon="103.3316157"><ele>2893.05</ele><time>2025-09-13T13:06:51.000Z</time></trkpt>
        <trkpt lat="29.5277184" lon="103.3316725"><ele>2893.14</ele><time>2025-09-13T13:06:59.000Z</time></trkpt>
        <trkpt lat="29.5277251" lon="103.3317362"><ele>2894.09</ele><time>2025-09-13T13:07:07.000Z</time></trkpt>
        <trkpt lat="29.5277288" lon="103.3318047"><ele>2893.17</ele><time>2025-09-13T13:07:15.000Z</time></trkpt>
        <trkpt lat="29.5277273" lon="103.3318617"><ele>2892.36</ele><time>2025-09-13T13:07:21.000Z</time></trkpt>
        <trkpt lat="29.5277223" lon="103.3319157"><ele>2893.08</ele><time>2025-09-13T13:07:27.000Z</time></trkpt>
        <trkpt lat="29.5277095" lon="103.3319765"><ele>2894.63</ele><time>2025-09-13T13:07:35.000Z</time></trkpt>
        <trkpt lat="29.5276849" lon="103.3320234"><ele>2895.55</ele><time>2025-09-13T13:07:41.000Z</time></trkpt>
        <trkpt lat="29.5276474" lon="103.3320578"><ele>2896.72</ele><time>2025-09-13T13:07:53.000Z</time></trkpt>
        <trkpt lat="29.5276036" lon="103.3320803"><ele>2897.82</ele><time>2025-09-13T13:08:03.000Z</time></trkpt>
        <trkpt lat="29.5275581" lon="103.3321032"><ele>2899.76</ele><time>2025-09-13T13:08:15.000Z</time></trkpt>
        <trkpt lat="29.5275088" lon="103.3321203"><ele>2899.76</ele><time>2025-09-13T13:08:27.000Z</time></trkpt>
        <trkpt lat="29.5275007" lon="103.3321647"><ele>2901.71</ele><time>2025-09-13T13:08:41.000Z</time></trkpt>
        <trkpt lat="29.5275248" lon="103.3322135"><ele>2902.35</ele><time>2025-09-13T13:08:49.000Z</time></trkpt>
        <trkpt lat="29.5275524" lon="103.3322623"><ele>2902.3</ele><time>2025-09-13T13:08:57.000Z</time></trkpt>
        <trkpt lat="29.5275784" lon="103.3323123"><ele>2903.03</ele><time>2025-09-13T13:09:05.000Z</time></trkpt>
        <trkpt lat="29.5275679" lon="103.332368"><ele>2905</ele><time>2025-09-13T13:09:17.000Z</time></trkpt>
        <trkpt lat="29.5275249" lon="103.3324083"><ele>2905.69</ele><time>2025-09-13T13:09:25.000Z</time></trkpt>
        <trkpt lat="29.5274884" lon="103.3324504"><ele>2906.77</ele><time>2025-09-13T13:09:33.000Z</time></trkpt>
        <trkpt lat="29.5274534" lon="103.3324947"><ele>2907.35</ele><time>2025-09-13T13:09:43.000Z</time></trkpt>
        <trkpt lat="29.5274061" lon="103.332523"><ele>2908.75</ele><time>2025-09-13T13:09:55.000Z</time></trkpt>
        <trkpt lat="29.5273536" lon="103.332523"><ele>2910.82</ele><time>2025-09-13T13:10:05.000Z</time></trkpt>
        <trkpt lat="29.5273011" lon="103.3325127"><ele>2911.98</ele><time>2025-09-13T13:10:11.000Z</time></trkpt>
        <trkpt lat="29.527252" lon="103.3324958"><ele>2913.16</ele><time>2025-09-13T13:10:17.000Z</time></trkpt>
        <trkpt lat="29.527211" lon="103.3324573"><ele>2913.46</ele><time>2025-09-13T13:10:25.000Z</time></trkpt>
        <trkpt lat="29.5271763" lon="103.3324046"><ele>2913.58</ele><time>2025-09-13T13:10:33.000Z</time></trkpt>
        <trkpt lat="29.5271536" lon="103.3323437"><ele>2912.65</ele><time>2025-09-13T13:10:39.000Z</time></trkpt>
        <trkpt lat="29.5271236" lon="103.3322998"><ele>2911.62</ele><time>2025-09-13T13:10:45.000Z</time></trkpt>
        <trkpt lat="29.5270852" lon="103.3323116"><ele>2911.51</ele><time>2025-09-13T13:10:55.000Z</time></trkpt>
        <trkpt lat="29.5270573" lon="103.3323601"><ele>2914.19</ele><time>2025-09-13T13:11:03.000Z</time></trkpt>
        <trkpt lat="29.5270337" lon="103.3324172"><ele>2917.12</ele><time>2025-09-13T13:11:13.000Z</time></trkpt>
        <trkpt lat="29.5270264" lon="103.332478"><ele>2919.9</ele><time>2025-09-13T13:11:23.000Z</time></trkpt>
        <trkpt lat="29.5270249" lon="103.3325417"><ele>2921.68</ele><time>2025-09-13T13:11:35.000Z</time></trkpt>
        <trkpt lat="29.5270451" lon="103.3325993"><ele>2924.06</ele><time>2025-09-13T13:11:43.000Z</time></trkpt>
        <trkpt lat="29.5270668" lon="103.3326576"><ele>2924.81</ele><time>2025-09-13T13:11:51.000Z</time></trkpt>
        <trkpt lat="29.5270787" lon="103.3327125"><ele>2924.37</ele><time>2025-09-13T13:11:57.000Z</time></trkpt>
        <trkpt lat="29.5270774" lon="103.3327671"><ele>2924.44</ele><time>2025-09-13T13:12:05.000Z</time></trkpt>
        <trkpt lat="29.5270648" lon="103.3328218"><ele>2925.07</ele><time>2025-09-13T13:12:13.000Z</time></trkpt>
        <trkpt lat="29.5270381" lon="103.3328761"><ele>2925.72</ele><time>2025-09-13T13:12:21.000Z</time></trkpt>
        <trkpt lat="29.5270207" lon="103.3329287"><ele>2926.92</ele><time>2025-09-13T13:12:29.000Z</time></trkpt>
        <trkpt lat="29.5270313" lon="103.3329784"><ele>2928.15</ele><time>2025-09-13T13:12:37.000Z</time></trkpt>
        <trkpt lat="29.527063" lon="103.3330218"><ele>2928.04</ele><time>2025-09-13T13:12:45.000Z</time></trkpt>
        <trkpt lat="29.5270949" lon="103.3330685"><ele>2927.72</ele><time>2025-09-13T13:12:53.000Z</time></trkpt>
        <trkpt lat="29.527117" lon="103.3331212"><ele>2927.45</ele><time>2025-09-13T13:12:59.000Z</time></trkpt>
        <trkpt lat="29.5271355" lon="103.3331757"><ele>2926.74</ele><time>2025-09-13T13:13:05.000Z</time></trkpt>
        <trkpt lat="29.5271308" lon="103.3332296"><ele>2927.74</ele><time>2025-09-13T13:13:11.000Z</time></trkpt>
        <trkpt lat="29.5271065" lon="103.3332872"><ele>2928.48</ele><time>2025-09-13T13:13:19.000Z</time></trkpt>
        <trkpt lat="29.5270731" lon="103.3333377"><ele>2929.45</ele><time>2025-09-13T13:13:27.000Z</time></trkpt>
        <trkpt lat="29.5270284" lon="103.3333791"><ele>2930.57</ele><time>2025-09-13T13:13:35.000Z</time></trkpt>
        <trkpt lat="29.5269849" lon="103.3334082"><ele>2932.71</ele><time>2025-09-13T13:13:39.000Z</time></trkpt>
        <trkpt lat="29.5269404" lon="103.3334278"><ele>2933.13</ele><time>2025-09-13T13:13:47.000Z</time></trkpt>
        <trkpt lat="29.5269006" lon="103.3334609"><ele>2932.61</ele><time>2025-09-13T13:13:57.000Z</time></trkpt>
        <trkpt lat="29.5268527" lon="103.3334633"><ele>2932.97</ele><time>2025-09-13T13:14:07.000Z</time></trkpt>
        <trkpt lat="29.526803" lon="103.3334582"><ele>2934.49</ele><time>2025-09-13T13:14:17.000Z</time></trkpt>
        <trkpt lat="29.5267552" lon="103.3334516"><ele>2937.96</ele><time>2025-09-13T13:14:27.000Z</time></trkpt>
        <trkpt lat="29.5267094" lon="103.3334574"><ele>2939.93</ele><time>2025-09-13T13:14:39.000Z</time></trkpt>
        <trkpt lat="29.5266644" lon="103.3334641"><ele>2942.21</ele><time>2025-09-13T13:14:51.000Z</time></trkpt>
        <trkpt lat="29.5266157" lon="103.3334809"><ele>2945.61</ele><time>2025-09-13T13:15:01.000Z</time></trkpt>
        <trkpt lat="29.5265695" lon="103.3335112"><ele>2946.98</ele><time>2025-09-13T13:15:15.000Z</time></trkpt>
        <trkpt lat="29.5265301" lon="103.3335441"><ele>2948.15</ele><time>2025-09-13T13:15:23.000Z</time></trkpt>
        <trkpt lat="29.5264829" lon="103.3335806"><ele>2949.31</ele><time>2025-09-13T13:15:33.000Z</time></trkpt>
        <trkpt lat="29.526438" lon="103.333606"><ele>2949.89</ele><time>2025-09-13T13:15:41.000Z</time></trkpt>
        <trkpt lat="29.5263905" lon="103.333634"><ele>2949.64</ele><time>2025-09-13T13:15:49.000Z</time></trkpt>
        <trkpt lat="29.5263498" lon="103.3336632"><ele>2949.94</ele><time>2025-09-13T13:15:55.000Z</time></trkpt>
        <trkpt lat="29.5263111" lon="103.3336931"><ele>2950.38</ele><time>2025-09-13T13:16:01.000Z</time></trkpt>
        <trkpt lat="29.52627" lon="103.3337251"><ele>2951.02</ele><time>2025-09-13T13:16:07.000Z</time></trkpt>
        <trkpt lat="29.5262241" lon="103.3337627"><ele>2950.92</ele><time>2025-09-13T13:16:15.000Z</time></trkpt>
        <trkpt lat="29.5261769" lon="103.3337946"><ele>2950.98</ele><time>2025-09-13T13:16:23.000Z</time></trkpt>
        <trkpt lat="29.5261306" lon="103.3338242"><ele>2949.74</ele><time>2025-09-13T13:16:33.000Z</time></trkpt>
        <trkpt lat="29.52609" lon="103.3338557"><ele>2950</ele><time>2025-09-13T13:16:43.000Z</time></trkpt>
        <trkpt lat="29.5260501" lon="103.3338805"><ele>2951.4</ele><time>2025-09-13T13:16:53.000Z</time></trkpt>
        <trkpt lat="29.5260064" lon="103.333892"><ele>2952.8</ele><time>2025-09-13T13:17:01.000Z</time></trkpt>
        <trkpt lat="29.5259596" lon="103.3339091"><ele>2953.89</ele><time>2025-09-13T13:17:09.000Z</time></trkpt>
        <trkpt lat="29.5259219" lon="103.3339394"><ele>2955.2</ele><time>2025-09-13T13:17:17.000Z</time></trkpt>
        <trkpt lat="29.5258856" lon="103.3339722"><ele>2957.88</ele><time>2025-09-13T13:17:25.000Z</time></trkpt>
        <trkpt lat="29.5258414" lon="103.3339893"><ele>2959.58</ele><time>2025-09-13T13:17:33.000Z</time></trkpt>
        <trkpt lat="29.5257932" lon="103.3340046"><ele>2961.86</ele><time>2025-09-13T13:17:43.000Z</time></trkpt>
        <trkpt lat="29.52575" lon="103.3340315"><ele>2963.47</ele><time>2025-09-13T13:17:51.000Z</time></trkpt>
        <trkpt lat="29.5257123" lon="103.3340714"><ele>2963.71</ele><time>2025-09-13T13:17:59.000Z</time></trkpt>
        <trkpt lat="29.5256735" lon="103.3341022"><ele>2963.96</ele><time>2025-09-13T13:18:09.000Z</time></trkpt>
        <trkpt lat="29.5256351" lon="103.3341326"><ele>2964.86</ele><time>2025-09-13T13:18:19.000Z</time></trkpt>
        <trkpt lat="29.5256062" lon="103.3341779"><ele>2965.6</ele><time>2025-09-13T13:18:31.000Z</time></trkpt>
        <trkpt lat="29.5255785" lon="103.3342235"><ele>2966.52</ele><time>2025-09-13T13:18:41.000Z</time></trkpt>
        <trkpt lat="29.5255468" lon="103.3342652"><ele>2966.72</ele><time>2025-09-13T13:18:49.000Z</time></trkpt>
        <trkpt lat="29.5255146" lon="103.3343174"><ele>2966.98</ele><time>2025-09-13T13:18:57.000Z</time></trkpt>
        <trkpt lat="29.5254804" lon="103.3343689"><ele>2967.38</ele><time>2025-09-13T13:19:07.000Z</time></trkpt>
        <trkpt lat="29.5254486" lon="103.3344115"><ele>2968.28</ele><time>2025-09-13T13:19:15.000Z</time></trkpt>
        <trkpt lat="29.5254111" lon="103.3344521"><ele>2969.09</ele><time>2025-09-13T13:19:25.000Z</time></trkpt>
        <trkpt lat="29.52538" lon="103.3344945"><ele>2969.88</ele><time>2025-09-13T13:19:33.000Z</time></trkpt>
        <trkpt lat="29.5253492" lon="103.334542"><ele>2971.31</ele><time>2025-09-13T13:19:41.000Z</time></trkpt>
        <trkpt lat="29.525317" lon="103.334581"><ele>2972.74</ele><time>2025-09-13T13:19:47.000Z</time></trkpt>
        <trkpt lat="29.5252848" lon="103.3346196"><ele>2973.35</ele><time>2025-09-13T13:19:53.000Z</time></trkpt>
        <trkpt lat="29.5252469" lon="103.3346522"><ele>2973.94</ele><time>2025-09-13T13:20:01.000Z</time></trkpt>
        <trkpt lat="29.5252021" lon="103.3346749"><ele>2976.53</ele><time>2025-09-13T13:20:13.000Z</time></trkpt>
        <trkpt lat="29.5251581" lon="103.3346954"><ele>2976.83</ele><time>2025-09-13T13:20:27.000Z</time></trkpt>
        <trkpt lat="29.5251162" lon="103.33473"><ele>2977.94</ele><time>2025-09-13T13:20:39.000Z</time></trkpt>
        <trkpt lat="29.5250715" lon="103.3347671"><ele>2980.17</ele><time>2025-09-13T13:20:49.000Z</time></trkpt>
        <trkpt lat="29.5250221" lon="103.3347944"><ele>2982.02</ele><time>2025-09-13T13:21:01.000Z</time></trkpt>
        <trkpt lat="29.5249804" lon="103.3348251"><ele>2983.92</ele><time>2025-09-13T13:21:11.000Z</time></trkpt>
        <trkpt lat="29.5249346" lon="103.3348489"><ele>2985.56</ele><time>2025-09-13T13:21:23.000Z</time></trkpt>
        <trkpt lat="29.5248889" lon="103.334823"><ele>2986.25</ele><time>2025-09-13T13:21:31.000Z</time></trkpt>
        <trkpt lat="29.5248445" lon="103.3347834"><ele>2986.43</ele><time>2025-09-13T13:21:35.000Z</time></trkpt>
        <trkpt lat="29.524802" lon="103.33474"><ele>2987.54</ele><time>2025-09-13T13:21:43.000Z</time></trkpt>
        <trkpt lat="29.5247543" lon="103.3347212"><ele>2987.94</ele><time>2025-09-13T13:21:53.000Z</time></trkpt>
        <trkpt lat="29.5247023" lon="103.334713"><ele>2987.31</ele><time>2025-09-13T13:22:01.000Z</time></trkpt>
        <trkpt lat="29.5246496" lon="103.3347215"><ele>2987.67</ele><time>2025-09-13T13:22:13.000Z</time></trkpt>
        <trkpt lat="29.5246005" lon="103.334751"><ele>2988.68</ele><time>2025-09-13T13:22:25.000Z</time></trkpt>
        <trkpt lat="29.5246071" lon="103.3348141"><ele>2988.87</ele><time>2025-09-13T13:22:41.000Z</time></trkpt>
        <trkpt lat="29.524648" lon="103.3348695"><ele>2989.37</ele><time>2025-09-13T13:22:47.000Z</time></trkpt>
        <trkpt lat="29.5247006" lon="103.3349059"><ele>2989.33</ele><time>2025-09-13T13:22:53.000Z</time></trkpt>
        <trkpt lat="29.524739" lon="103.334953"><ele>2990.34</ele><time>2025-09-13T13:22:59.000Z</time></trkpt>
        <trkpt lat="29.524758" lon="103.3350096"><ele>2991.2</ele><time>2025-09-13T13:23:09.000Z</time></trkpt>
        <trkpt lat="29.5248045" lon="103.335017"><ele>2990.64</ele><time>2025-09-13T13:23:21.000Z</time></trkpt>
        <trkpt lat="29.5248045" lon="103.335017"><ele>2990.64</ele><time>2025-09-13T13:23:33.000Z</time></trkpt>
        <trkpt lat="29.5247935" lon="103.3349619"><ele>2989.93</ele><time>2025-09-13T13:23:39.000Z</time></trkpt>
        <trkpt lat="29.5247935" lon="103.3349619"><ele>2989.93</ele><time>2025-09-13T13:23:55.000Z</time></trkpt>
        <trkpt lat="29.5248069" lon="103.334897"><ele>2990.02</ele><time>2025-09-13T13:24:05.000Z</time></trkpt>
        <trkpt lat="29.5248272" lon="103.3348303"><ele>2989.39</ele><time>2025-09-13T13:24:11.000Z</time></trkpt>
        <trkpt lat="29.5248272" lon="103.3348303"><ele>2989.39</ele><time>2025-09-13T13:24:39.000Z</time></trkpt>
        <trkpt lat="29.5248272" lon="103.3348303"><ele>2989.39</ele><time>2025-09-13T13:24:43.000Z</time></trkpt>
        <trkpt lat="29.5248272" lon="103.3348303"><ele>2989.39</ele><time>2025-09-13T13:30:09.000Z</time></trkpt>
        <trkpt lat="29.5249339" lon="103.334617"><ele>2988.18</ele><time>2025-09-13T13:30:13.000Z</time></trkpt>
        <trkpt lat="29.5249339" lon="103.334617"><ele>2988.18</ele><time>2025-09-13T13:30:13.000Z</time></trkpt>
        <trkpt lat="29.524794" lon="103.3348618"><ele>2987.36</ele><time>2025-09-13T13:30:22.000Z</time></trkpt>
        <trkpt lat="29.5246542" lon="103.3347828"><ele>2992.26</ele><time>2025-09-13T13:30:48.000Z</time></trkpt>
        <trkpt lat="29.5246789" lon="103.3348155"><ele>2998.34</ele><time>2025-09-13T13:30:53.000Z</time></trkpt>
        <trkpt lat="29.5246726" lon="103.3348462"><ele>3000.38</ele><time>2025-09-13T13:31:03.000Z</time></trkpt>
        <trkpt lat="29.5246676" lon="103.3348935"><ele>2999.39</ele><time>2025-09-13T13:31:07.000Z</time></trkpt>
        <trkpt lat="29.5246284" lon="103.3349076"><ele>2996.24</ele><time>2025-09-13T13:31:13.000Z</time></trkpt>
        <trkpt lat="29.5245757" lon="103.3348907"><ele>2994.12</ele><time>2025-09-13T13:31:19.000Z</time></trkpt>
        <trkpt lat="29.5245185" lon="103.3348759"><ele>2993.18</ele><time>2025-09-13T13:31:25.000Z</time></trkpt>
        <trkpt lat="29.5244566" lon="103.3348781"><ele>2992.42</ele><time>2025-09-13T13:31:31.000Z</time></trkpt>
        <trkpt lat="29.5243924" lon="103.3348962"><ele>2992.38</ele><time>2025-09-13T13:31:37.000Z</time></trkpt>
        <trkpt lat="29.5243412" lon="103.3349108"><ele>2992.85</ele><time>2025-09-13T13:31:43.000Z</time></trkpt>
        <trkpt lat="29.5242938" lon="103.3349142"><ele>2993.79</ele><time>2025-09-13T13:31:47.000Z</time></trkpt>
        <trkpt lat="29.5242452" lon="103.3349183"><ele>2994.61</ele><time>2025-09-13T13:31:55.000Z</time></trkpt>
        <trkpt lat="29.5241928" lon="103.3349133"><ele>2994.56</ele><time>2025-09-13T13:32:03.000Z</time></trkpt>
        <trkpt lat="29.5241352" lon="103.3349207"><ele>2993.91</ele><time>2025-09-13T13:32:11.000Z</time></trkpt>
        <trkpt lat="29.5240859" lon="103.3349168"><ele>2992.62</ele><time>2025-09-13T13:32:17.000Z</time></trkpt>
        <trkpt lat="29.5240302" lon="103.3349117"><ele>2991.54</ele><time>2025-09-13T13:32:25.000Z</time></trkpt>
        <trkpt lat="29.5239816" lon="103.3348942"><ele>2990.57</ele><time>2025-09-13T13:32:31.000Z</time></trkpt>
        <trkpt lat="29.5239375" lon="103.3349001"><ele>2990.23</ele><time>2025-09-13T13:32:42.000Z</time></trkpt>
        <trkpt lat="29.5238939" lon="103.3348904"><ele>2989.75</ele><time>2025-09-13T13:33:03.000Z</time></trkpt>
        <trkpt lat="29.5238469" lon="103.3348836"><ele>2990.3</ele><time>2025-09-13T13:33:07.000Z</time></trkpt>
        <trkpt lat="29.5238045" lon="103.3349126"><ele>2990.77</ele><time>2025-09-13T13:33:17.000Z</time></trkpt>
        <trkpt lat="29.5238307" lon="103.3349477"><ele>2994.05</ele><time>2025-09-13T13:33:25.000Z</time></trkpt>
        <trkpt lat="29.5238777" lon="103.334978"><ele>2994.45</ele><time>2025-09-13T13:33:31.000Z</time></trkpt>
        <trkpt lat="29.5239013" lon="103.3350265"><ele>2995.06</ele><time>2025-09-13T13:33:41.000Z</time></trkpt>
        <trkpt lat="29.5239095" lon="103.3350805"><ele>2995.9</ele><time>2025-09-13T13:33:49.000Z</time></trkpt>
        <trkpt lat="29.5239051" lon="103.3351425"><ele>2996.17</ele><time>2025-09-13T13:33:59.000Z</time></trkpt>
        <trkpt lat="29.5239286" lon="103.335186"><ele>2996.51</ele><time>2025-09-13T13:34:09.000Z</time></trkpt>
        <trkpt lat="29.523981" lon="103.3351952"><ele>2996.45</ele><time>2025-09-13T13:34:19.000Z</time></trkpt>
        <trkpt lat="29.5240061" lon="103.3351802"><ele>2994.42</ele><time>2025-09-13T13:34:27.000Z</time></trkpt>
        <trkpt lat="29.5240487" lon="103.3351779"><ele>2994.02</ele><time>2025-09-13T13:34:43.000Z</time></trkpt>
        <trkpt lat="29.5241641" lon="103.3351721"><ele>2991.54</ele><time>2025-09-13T13:35:02.000Z</time></trkpt>
        <trkpt lat="29.5243793" lon="103.3352548"><ele>2985.19</ele><time>2025-09-13T13:35:11.000Z</time></trkpt>
        <trkpt lat="29.5243793" lon="103.3352548"><ele>2985.19</ele><time>2025-09-13T13:35:13.000Z</time></trkpt>
        <trkpt lat="29.524405" lon="103.3353679"><ele>2976.23</ele><time>2025-09-13T13:35:19.000Z</time></trkpt>
        <trkpt lat="29.524405" lon="103.3353679"><ele>2976.23</ele><time>2025-09-13T13:35:33.000Z</time></trkpt>
        <trkpt lat="29.5243993" lon="103.3353098"><ele>2955.28</ele><time>2025-09-13T13:35:37.000Z</time></trkpt>
        <trkpt lat="29.5243993" lon="103.3353098"><ele>2955.28</ele><time>2025-09-13T13:35:57.000Z</time></trkpt>
        <trkpt lat="29.5243147" lon="103.3353401"><ele>2942.9</ele><time>2025-09-13T13:36:01.000Z</time></trkpt>
        <trkpt lat="29.5243147" lon="103.3353401"><ele>2942.9</ele><time>2025-09-13T13:36:01.000Z</time></trkpt>
        <trkpt lat="29.5242687" lon="103.3353083"><ele>2957.2</ele><time>2025-09-13T13:36:03.000Z</time></trkpt>
        <trkpt lat="29.524198" lon="103.3352396"><ele>2964.76</ele><time>2025-09-13T13:36:07.000Z</time></trkpt>
        <trkpt lat="29.5241424" lon="103.3352263"><ele>2966.99</ele><time>2025-09-13T13:36:17.000Z</time></trkpt>
        <trkpt lat="29.5241424" lon="103.3352263"><ele>2966.99</ele><time>2025-09-13T13:36:23.000Z</time></trkpt>
        <trkpt lat="29.5241073" lon="103.3351901"><ele>2971.67</ele><time>2025-09-13T13:36:27.000Z</time></trkpt>
        <trkpt lat="29.5241073" lon="103.3351901"><ele>2971.67</ele><time>2025-09-13T13:37:07.000Z</time></trkpt>
        <trkpt lat="29.5240663" lon="103.3351508"><ele>2975.74</ele><time>2025-09-13T13:37:29.000Z</time></trkpt>
        <trkpt lat="29.5240313" lon="103.3351126"><ele>2979.35</ele><time>2025-09-13T13:37:37.000Z</time></trkpt>
        <trkpt lat="29.5240313" lon="103.3351126"><ele>2979.35</ele><time>2025-09-13T13:37:37.000Z</time></trkpt>
      </trkseg>
      <trkseg>
        <trkpt lat="29.5236617" lon="103.3349926"><ele>2984.24</ele><time>2025-09-13T14:30:02.000Z</time></trkpt>
        <trkpt lat="29.5236617" lon="103.3349926"><ele>2984.24</ele><time>2025-09-13T14:30:03.000Z</time></trkpt>
        <trkpt lat="29.5236038" lon="103.3349797"><ele>2988.55</ele><time>2025-09-13T14:30:11.000Z</time></trkpt>
        <trkpt lat="29.5235497" lon="103.3349607"><ele>2991.53</ele><time>2025-09-13T14:30:19.000Z</time></trkpt>
        <trkpt lat="29.5235269" lon="103.3349102"><ele>2993.67</ele><time>2025-09-13T14:30:27.000Z</time></trkpt>
        <trkpt lat="29.5234911" lon="103.3348688"><ele>2994.81</ele><time>2025-09-13T14:30:35.000Z</time></trkpt>
        <trkpt lat="29.5234488" lon="103.3348382"><ele>2995.05</ele><time>2025-09-13T14:30:45.000Z</time></trkpt>
        <trkpt lat="29.5233999" lon="103.3348377"><ele>2995.68</ele><time>2025-09-13T14:30:53.000Z</time></trkpt>
        <trkpt lat="29.5233521" lon="103.3348291"><ele>2996.64</ele><time>2025-09-13T14:31:01.000Z</time></trkpt>
        <trkpt lat="29.523303" lon="103.3348107"><ele>2996.83</ele><time>2025-09-13T14:31:09.000Z</time></trkpt>
        <trkpt lat="29.5232542" lon="103.3348104"><ele>2996.26</ele><time>2025-09-13T14:31:15.000Z</time></trkpt>
        <trkpt lat="29.5232049" lon="103.3348086"><ele>2996.26</ele><time>2025-09-13T14:31:23.000Z</time></trkpt>
        <trkpt lat="29.5231512" lon="103.3347977"><ele>2995.92</ele><time>2025-09-13T14:31:31.000Z</time></trkpt>
        <trkpt lat="29.5230775" lon="103.3347924"><ele>2996.48</ele><time>2025-09-13T14:31:38.000Z</time></trkpt>
        <trkpt lat="29.5230216" lon="103.3347853"><ele>2997.28</ele><time>2025-09-13T14:31:52.000Z</time></trkpt>
        <trkpt lat="29.5229759" lon="103.334767"><ele>2999.59</ele><time>2025-09-13T14:32:00.000Z</time></trkpt>
        <trkpt lat="29.5229226" lon="103.3347597"><ele>3001.53</ele><time>2025-09-13T14:32:10.000Z</time></trkpt>
        <trkpt lat="29.5228759" lon="103.3347722"><ele>3001.67</ele><time>2025-09-13T14:32:24.000Z</time></trkpt>
        <trkpt lat="29.5228212" lon="103.3347758"><ele>3003.42</ele><time>2025-09-13T14:32:38.000Z</time></trkpt>
        <trkpt lat="29.5227725" lon="103.3347831"><ele>3003.62</ele><time>2025-09-13T14:32:48.000Z</time></trkpt>
        <trkpt lat="29.5227246" lon="103.3348044"><ele>3004.01</ele><time>2025-09-13T14:32:56.000Z</time></trkpt>
        <trkpt lat="29.5226894" lon="103.3348423"><ele>3003.7</ele><time>2025-09-13T14:33:02.000Z</time></trkpt>
        <trkpt lat="29.5226818" lon="103.334894"><ele>3004.16</ele><time>2025-09-13T14:33:12.000Z</time></trkpt>
        <trkpt lat="29.5227007" lon="103.3349458"><ele>3006.18</ele><time>2025-09-13T14:33:28.000Z</time></trkpt>
        <trkpt lat="29.5226896" lon="103.335"><ele>3007.77</ele><time>2025-09-13T14:33:36.000Z</time></trkpt>
        <trkpt lat="29.5227109" lon="103.3350473"><ele>3009.63</ele><time>2025-09-13T14:33:42.000Z</time></trkpt>
        <trkpt lat="29.5227188" lon="103.3351029"><ele>3010.21</ele><time>2025-09-13T14:33:52.000Z</time></trkpt>
        <trkpt lat="29.5227137" lon="103.3351703"><ele>3010.61</ele><time>2025-09-13T14:34:12.000Z</time></trkpt>
        <trkpt lat="29.5227234" lon="103.3352259"><ele>3011.46</ele><time>2025-09-13T14:34:16.000Z</time></trkpt>
        <trkpt lat="29.5226944" lon="103.3352554"><ele>3012.41</ele><time>2025-09-13T14:34:22.000Z</time></trkpt>
        <trkpt lat="29.5226935" lon="103.3353098"><ele>3012.73</ele><time>2025-09-13T14:34:30.000Z</time></trkpt>
        <trkpt lat="29.5227134" lon="103.3353679"><ele>3012.76</ele><time>2025-09-13T14:34:36.000Z</time></trkpt>
        <trkpt lat="29.5227344" lon="103.3354273"><ele>3013.46</ele><time>2025-09-13T14:34:44.000Z</time></trkpt>
        <trkpt lat="29.522727" lon="103.3354835"><ele>3014.41</ele><time>2025-09-13T14:34:54.000Z</time></trkpt>
        <trkpt lat="29.5227496" lon="103.3355274"><ele>3015.1</ele><time>2025-09-13T14:35:00.000Z</time></trkpt>
        <trkpt lat="29.5227648" lon="103.3355757"><ele>3016.19</ele><time>2025-09-13T14:35:08.000Z</time></trkpt>
        <trkpt lat="29.5227765" lon="103.3356321"><ele>3016.18</ele><time>2025-09-13T14:35:18.000Z</time></trkpt>
        <trkpt lat="29.5227804" lon="103.3356925"><ele>3016.83</ele><time>2025-09-13T14:35:28.000Z</time></trkpt>
        <trkpt lat="29.5227865" lon="103.3357517"><ele>3017.41</ele><time>2025-09-13T14:35:38.000Z</time></trkpt>
        <trkpt lat="29.5228028" lon="103.33581"><ele>3019.39</ele><time>2025-09-13T14:35:46.000Z</time></trkpt>
        <trkpt lat="29.5228209" lon="103.3358617"><ele>3021.67</ele><time>2025-09-13T14:35:54.000Z</time></trkpt>
        <trkpt lat="29.5228577" lon="103.3358994"><ele>3023.32</ele><time>2025-09-13T14:36:02.000Z</time></trkpt>
        <trkpt lat="29.5229051" lon="103.3358964"><ele>3024.42</ele><time>2025-09-13T14:36:08.000Z</time></trkpt>
        <trkpt lat="29.5229609" lon="103.335879"><ele>3024.93</ele><time>2025-09-13T14:36:16.000Z</time></trkpt>
        <trkpt lat="29.5230091" lon="103.3358944"><ele>3025.11</ele><time>2025-09-13T14:36:24.000Z</time></trkpt>
        <trkpt lat="29.5230298" lon="103.3359504"><ele>3025.35</ele><time>2025-09-13T14:36:30.000Z</time></trkpt>
        <trkpt lat="29.5230343" lon="103.3360135"><ele>3026.13</ele><time>2025-09-13T14:36:34.000Z</time></trkpt>
        <trkpt lat="29.5230405" lon="103.3360801"><ele>3026.95</ele><time>2025-09-13T14:36:42.000Z</time></trkpt>
        <trkpt lat="29.5230639" lon="103.3361352"><ele>3027.19</ele><time>2025-09-13T14:36:50.000Z</time></trkpt>
        <trkpt lat="29.5230912" lon="103.3361804"><ele>3026.95</ele><time>2025-09-13T14:36:58.000Z</time></trkpt>
        <trkpt lat="29.5230852" lon="103.3362261"><ele>3026.63</ele><time>2025-09-13T14:37:08.000Z</time></trkpt>
        <trkpt lat="29.5230859" lon="103.3362766"><ele>3027.13</ele><time>2025-09-13T14:37:16.000Z</time></trkpt>
        <trkpt lat="29.5230942" lon="103.3363273"><ele>3027.77</ele><time>2025-09-13T14:37:22.000Z</time></trkpt>
        <trkpt lat="29.5231026" lon="103.3363844"><ele>3028.53</ele><time>2025-09-13T14:37:30.000Z</time></trkpt>
        <trkpt lat="29.5231025" lon="103.3364452"><ele>3029.69</ele><time>2025-09-13T14:37:38.000Z</time></trkpt>
        <trkpt lat="29.5231364" lon="103.336448"><ele>3030.46</ele><time>2025-09-13T14:38:03.000Z</time></trkpt>
        <trkpt lat="29.5231364" lon="103.336448"><ele>3030.46</ele><time>2025-09-13T14:38:13.000Z</time></trkpt>
        <trkpt lat="29.5231306" lon="103.3364849"><ele>3029.23</ele><time>2025-09-13T14:38:17.000Z</time></trkpt>
        <trkpt lat="29.5231306" lon="103.3364849"><ele>3029.23</ele><time>2025-09-13T14:38:23.000Z</time></trkpt>
        <trkpt lat="29.5230929" lon="103.3365123"><ele>3028.44</ele><time>2025-09-13T14:38:29.000Z</time></trkpt>
        <trkpt lat="29.5230383" lon="103.336518"><ele>3027.22</ele><time>2025-09-13T14:38:37.000Z</time></trkpt>
        <trkpt lat="29.5229825" lon="103.3365243"><ele>3026.13</ele><time>2025-09-13T14:38:45.000Z</time></trkpt>
        <trkpt lat="29.5229243" lon="103.3365494"><ele>3025.99</ele><time>2025-09-13T14:38:53.000Z</time></trkpt>
        <trkpt lat="29.5229036" lon="103.3365166"><ele>3026.82</ele><time>2025-09-13T14:39:18.000Z</time></trkpt>
        <trkpt lat="29.5229036" lon="103.3365166"><ele>3026.82</ele><time>2025-09-13T14:39:25.000Z</time></trkpt>
        <trkpt lat="29.5229036" lon="103.3365166"><ele>3026.82</ele><time>2025-09-13T14:39:31.000Z</time></trkpt>
        <trkpt lat="29.5229036" lon="103.3365166"><ele>3026.82</ele><time>2025-09-13T14:40:21.000Z</time></trkpt>
        <trkpt lat="29.522867" lon="103.3365116"><ele>3028.88</ele><time>2025-09-13T14:40:25.000Z</time></trkpt>
        <trkpt lat="29.522867" lon="103.3365116"><ele>3028.88</ele><time>2025-09-13T14:40:42.000Z</time></trkpt>
        <trkpt lat="29.5229108" lon="103.3364981"><ele>3030.92</ele><time>2025-09-13T14:41:20.000Z</time></trkpt>
        <trkpt lat="29.5229108" lon="103.3364981"><ele>3030.92</ele><time>2025-09-13T14:41:25.000Z</time></trkpt>
        <trkpt lat="29.5229105" lon="103.3365412"><ele>3031.48</ele><time>2025-09-13T14:41:29.000Z</time></trkpt>
        <trkpt lat="29.5229105" lon="103.3365412"><ele>3031.48</ele><time>2025-09-13T14:41:39.000Z</time></trkpt>
        <trkpt lat="29.5229105" lon="103.3365412"><ele>3031.48</ele><time>2025-09-13T14:41:51.000Z</time></trkpt>
        <trkpt lat="29.5228878" lon="103.3365207"><ele>3031.17</ele><time>2025-09-13T14:41:53.000Z</time></trkpt>
        <trkpt lat="29.5228878" lon="103.3365207"><ele>3031.17</ele><time>2025-09-13T14:41:53.000Z</time></trkpt>
        <trkpt lat="29.5228754" lon="103.3364721"><ele>3031.97</ele><time>2025-09-13T14:42:01.000Z</time></trkpt>
        <trkpt lat="29.5228754" lon="103.3364721"><ele>3031.97</ele><time>2025-09-13T14:42:29.000Z</time></trkpt>
        <trkpt lat="29.5228389" lon="103.3364722"><ele>3032.7</ele><time>2025-09-13T14:42:33.000Z</time></trkpt>
        <trkpt lat="29.5228389" lon="103.3364722"><ele>3032.7</ele><time>2025-09-13T14:42:37.000Z</time></trkpt>
        <trkpt lat="29.522788" lon="103.3364826"><ele>3031.87</ele><time>2025-09-13T14:42:49.000Z</time></trkpt>
        <trkpt lat="29.522788" lon="103.3364826"><ele>3031.87</ele><time>2025-09-13T14:42:59.000Z</time></trkpt>
        <trkpt lat="29.5228069" lon="103.336492"><ele>3031.24</ele><time>2025-09-13T14:43:05.000Z</time></trkpt>
        <trkpt lat="29.5228069" lon="103.336492"><ele>3031.24</ele><time>2025-09-13T14:43:37.000Z</time></trkpt>
        <trkpt lat="29.5228069" lon="103.336492"><ele>3031.24</ele><time>2025-09-13T14:43:49.000Z</time></trkpt>
        <trkpt lat="29.5227896" lon="103.3365306"><ele>3032.25</ele><time>2025-09-13T14:43:55.000Z</time></trkpt>
        <trkpt lat="29.5227896" lon="103.3365306"><ele>3032.25</ele><time>2025-09-13T14:43:59.000Z</time></trkpt>
        <trkpt lat="29.5227519" lon="103.3365554"><ele>3031.58</ele><time>2025-09-13T14:44:07.000Z</time></trkpt>
        <trkpt lat="29.5227038" lon="103.3365678"><ele>3031.21</ele><time>2025-09-13T14:44:15.000Z</time></trkpt>
        <trkpt lat="29.5226524" lon="103.3365748"><ele>3030.57</ele><time>2025-09-13T14:44:21.000Z</time></trkpt>
        <trkpt lat="29.5226059" lon="103.3365992"><ele>3030.73</ele><time>2025-09-13T14:44:27.000Z</time></trkpt>
        <trkpt lat="29.5225568" lon="103.3366399"><ele>3029.97</ele><time>2025-09-13T14:44:35.000Z</time></trkpt>
        <trkpt lat="29.5225002" lon="103.336666"><ele>3028.75</ele><time>2025-09-13T14:44:41.000Z</time></trkpt>
        <trkpt lat="29.5224511" lon="103.3366965"><ele>3027.84</ele><time>2025-09-13T14:44:47.000Z</time></trkpt>
        <trkpt lat="29.5224307" lon="103.336758"><ele>3027.75</ele><time>2025-09-13T14:44:55.000Z</time></trkpt>
        <trkpt lat="29.5224442" lon="103.3368211"><ele>3028.04</ele><time>2025-09-13T14:44:59.000Z</time></trkpt>
        <trkpt lat="29.5224712" lon="103.3368825"><ele>3029.19</ele><time>2025-09-13T14:45:05.000Z</time></trkpt>
        <trkpt lat="29.5224896" lon="103.336937"><ele>3030.77</ele><time>2025-09-13T14:45:13.000Z</time></trkpt>
        <trkpt lat="29.5224872" lon="103.3369925"><ele>3031.29</ele><time>2025-09-13T14:45:27.000Z</time></trkpt>
        <trkpt lat="29.5224661" lon="103.3370434"><ele>3030.77</ele><time>2025-09-13T14:45:35.000Z</time></trkpt>
        <trkpt lat="29.5224308" lon="103.337081"><ele>3029.78</ele><time>2025-09-13T14:45:43.000Z</time></trkpt>
        <trkpt lat="29.5224308" lon="103.337081"><ele>3029.78</ele><time>2025-09-13T14:45:53.000Z</time></trkpt>
        <trkpt lat="29.5224308" lon="103.337081"><ele>3029.78</ele><time>2025-09-13T14:45:57.000Z</time></trkpt>
        <trkpt lat="29.5224308" lon="103.337081"><ele>3029.78</ele><time>2025-09-13T14:46:57.000Z</time></trkpt>
        <trkpt lat="29.5224308" lon="103.337081"><ele>3029.78</ele><time>2025-09-13T14:47:01.000Z</time></trkpt>
        <trkpt lat="29.5224308" lon="103.337081"><ele>3029.78</ele><time>2025-09-13T14:47:59.000Z</time></trkpt>
        <trkpt lat="29.5224308" lon="103.337081"><ele>3029.78</ele><time>2025-09-13T14:48:03.000Z</time></trkpt>
        <trkpt lat="29.5224308" lon="103.337081"><ele>3029.78</ele><time>2025-09-13T14:48:39.000Z</time></trkpt>
        <trkpt lat="29.5224308" lon="103.337081"><ele>3029.78</ele><time>2025-09-13T14:48:43.000Z</time></trkpt>
        <trkpt lat="29.5224308" lon="103.337081"><ele>3029.78</ele><time>2025-09-13T14:49:05.000Z</time></trkpt>
        <trkpt lat="29.5224308" lon="103.337081"><ele>3029.78</ele><time>2025-09-13T14:49:11.000Z</time></trkpt>
        <trkpt lat="29.5224308" lon="103.337081"><ele>3029.78</ele><time>2025-09-13T14:49:31.000Z</time></trkpt>
        <trkpt lat="29.5223891" lon="103.3371182"><ele>3029.77</ele><time>2025-09-13T14:49:37.000Z</time></trkpt>
        <trkpt lat="29.5223891" lon="103.3371182"><ele>3029.77</ele><time>2025-09-13T14:49:50.000Z</time></trkpt>
        <trkpt lat="29.5223891" lon="103.3371182"><ele>3029.77</ele><time>2025-09-13T14:50:03.000Z</time></trkpt>
        <trkpt lat="29.5223891" lon="103.3371182"><ele>3029.77</ele><time>2025-09-13T14:50:07.000Z</time></trkpt>
        <trkpt lat="29.5223891" lon="103.3371182"><ele>3029.77</ele><time>2025-09-13T14:50:55.000Z</time></trkpt>
        <trkpt lat="29.5223891" lon="103.3371182"><ele>3029.77</ele><time>2025-09-13T14:50:59.000Z</time></trkpt>
        <trkpt lat="29.5223891" lon="103.3371182"><ele>3029.77</ele><time>2025-09-13T14:51:17.000Z</time></trkpt>
        <trkpt lat="29.5223891" lon="103.3371182"><ele>3029.77</ele><time>2025-09-13T14:51:21.000Z</time></trkpt>
        <trkpt lat="29.5223891" lon="103.3371182"><ele>3029.77</ele><time>2025-09-13T14:51:49.000Z</time></trkpt>
        <trkpt lat="29.5223891" lon="103.3371182"><ele>3029.77</ele><time>2025-09-13T14:51:55.000Z</time></trkpt>
        <trkpt lat="29.5223891" lon="103.3371182"><ele>3029.77</ele><time>2025-09-13T14:52:37.000Z</time></trkpt>
        <trkpt lat="29.5223891" lon="103.3371182"><ele>3029.77</ele><time>2025-09-13T14:52:41.000Z</time></trkpt>
        <trkpt lat="29.5223891" lon="103.3371182"><ele>3029.77</ele><time>2025-09-13T14:53:07.000Z</time></trkpt>
        <trkpt lat="29.5223891" lon="103.3371182"><ele>3029.77</ele><time>2025-09-13T14:53:13.000Z</time></trkpt>
        <trkpt lat="29.5223891" lon="103.3371182"><ele>3029.77</ele><time>2025-09-13T14:53:43.000Z</time></trkpt>
        <trkpt lat="29.5223993" lon="103.3370639"><ele>3031.55</ele><time>2025-09-13T14:53:49.000Z</time></trkpt>
        <trkpt lat="29.5223993" lon="103.3370639"><ele>3031.55</ele><time>2025-09-13T14:54:17.000Z</time></trkpt>
        <trkpt lat="29.5224416" lon="103.3370308"><ele>3031.74</ele><time>2025-09-13T14:54:57.000Z</time></trkpt>
        <trkpt lat="29.5224661" lon="103.3369809"><ele>3032.14</ele><time>2025-09-13T14:55:03.000Z</time></trkpt>
        <trkpt lat="29.5224628" lon="103.3369297"><ele>3032.06</ele><time>2025-09-13T14:55:16.000Z</time></trkpt>
        <trkpt lat="29.5224602" lon="103.336867"><ele>3031.54</ele><time>2025-09-13T14:55:30.000Z</time></trkpt>
        <trkpt lat="29.5224483" lon="103.3368067"><ele>3031.32</ele><time>2025-09-13T14:55:38.000Z</time></trkpt>
        <trkpt lat="29.5224285" lon="103.3367409"><ele>3031.58</ele><time>2025-09-13T14:55:46.000Z</time></trkpt>
        <trkpt lat="29.5224489" lon="103.3366778"><ele>3030.61</ele><time>2025-09-13T14:55:52.000Z</time></trkpt>
        <trkpt lat="29.522494" lon="103.3366522"><ele>3030.15</ele><time>2025-09-13T14:55:56.000Z</time></trkpt>
        <trkpt lat="29.5225469" lon="103.3366384"><ele>3030.51</ele><time>2025-09-13T14:56:06.000Z</time></trkpt>
        <trkpt lat="29.5225916" lon="103.3366047"><ele>3030.72</ele><time>2025-09-13T14:56:16.000Z</time></trkpt>
        <trkpt lat="29.5226254" lon="103.336631"><ele>3031.63</ele><time>2025-09-13T14:56:33.000Z</time></trkpt>
        <trkpt lat="29.5226605" lon="103.3366715"><ele>3031.69</ele><time>2025-09-13T14:56:41.000Z</time></trkpt>
        <trkpt lat="29.5226736" lon="103.3366405"><ele>3032.96</ele><time>2025-09-13T14:57:33.000Z</time></trkpt>
        <trkpt lat="29.5226709" lon="103.336583"><ele>3035.34</ele><time>2025-09-13T14:57:41.000Z</time></trkpt>
        <trkpt lat="29.5226709" lon="103.336583"><ele>3035.34</ele><time>2025-09-13T14:57:45.000Z</time></trkpt>
        <trkpt lat="29.5226365" lon="103.3364639"><ele>3035.69</ele><time>2025-09-13T14:57:51.000Z</time></trkpt>
        <trkpt lat="29.5226365" lon="103.3364639"><ele>3035.69</ele><time>2025-09-13T14:58:01.000Z</time></trkpt>
        <trkpt lat="29.5226421" lon="103.3363936"><ele>3041.09</ele><time>2025-09-13T14:58:40.000Z</time></trkpt>
        <trkpt lat="29.5226562" lon="103.3363325"><ele>3047.1</ele><time>2025-09-13T14:58:50.000Z</time></trkpt>
        <trkpt lat="29.5226562" lon="103.3363325"><ele>3047.1</ele><time>2025-09-13T14:58:51.000Z</time></trkpt>
        <trkpt lat="29.5226562" lon="103.3363325"><ele>3047.1</ele><time>2025-09-13T14:58:57.000Z</time></trkpt>
        <trkpt lat="29.5226562" lon="103.3363325"><ele>3047.1</ele><time>2025-09-13T14:59:17.000Z</time></trkpt>
        <trkpt lat="29.5226562" lon="103.3363325"><ele>3047.1</ele><time>2025-09-13T14:59:23.000Z</time></trkpt>
        <trkpt lat="29.5226562" lon="103.3363325"><ele>3047.1</ele><time>2025-09-13T15:00:25.000Z</time></trkpt>
        <trkpt lat="29.522676" lon="103.3362803"><ele>3048.7</ele><time>2025-09-13T15:00:31.000Z</time></trkpt>
        <trkpt lat="29.522676" lon="103.3362803"><ele>3048.7</ele><time>2025-09-13T15:02:21.000Z</time></trkpt>
        <trkpt lat="29.5226819" lon="103.3363395"><ele>3048.22</ele><time>2025-09-13T15:03:05.000Z</time></trkpt>
        <trkpt lat="29.5226651" lon="103.3363062"><ele>3047.68</ele><time>2025-09-13T15:03:21.000Z</time></trkpt>
        <trkpt lat="29.5226552" lon="103.3363551"><ele>3047.5</ele><time>2025-09-13T15:04:22.000Z</time></trkpt>
        <trkpt lat="29.5226552" lon="103.3363551"><ele>3047.5</ele><time>2025-09-13T15:04:27.000Z</time></trkpt>
        <trkpt lat="29.5226272" lon="103.3363077"><ele>3051.32</ele><time>2025-09-13T15:04:33.000Z</time></trkpt>
        <trkpt lat="29.5226272" lon="103.3363077"><ele>3051.32</ele><time>2025-09-13T15:05:36.000Z</time></trkpt>
        <trkpt lat="29.5226272" lon="103.3363077"><ele>3051.32</ele><time>2025-09-13T15:05:41.000Z</time></trkpt>
        <trkpt lat="29.5226458" lon="103.3363557"><ele>3051.77</ele><time>2025-09-13T15:05:45.000Z</time></trkpt>
        <trkpt lat="29.5226458" lon="103.3363557"><ele>3051.77</ele><time>2025-09-13T15:05:54.000Z</time></trkpt>
        <trkpt lat="29.5226458" lon="103.3363557"><ele>3051.77</ele><time>2025-09-13T15:06:01.000Z</time></trkpt>
        <trkpt lat="29.5226458" lon="103.3363557"><ele>3051.77</ele><time>2025-09-13T15:06:03.000Z</time></trkpt>
        <trkpt lat="29.5226458" lon="103.3363557"><ele>3051.77</ele><time>2025-09-13T15:06:19.000Z</time></trkpt>
        <trkpt lat="29.5226684" lon="103.3364296"><ele>3053.11</ele><time>2025-09-13T15:06:23.000Z</time></trkpt>
        <trkpt lat="29.5226684" lon="103.3364296"><ele>3053.11</ele><time>2025-09-13T15:09:24.000Z</time></trkpt>
        <trkpt lat="29.5226684" lon="103.3364296"><ele>3053.11</ele><time>2025-09-13T15:09:43.000Z</time></trkpt>
        <trkpt lat="29.5226507" lon="103.3364871"><ele>3052.68</ele><time>2025-09-13T15:09:45.000Z</time></trkpt>
        <trkpt lat="29.5226507" lon="103.3364871"><ele>3052.68</ele><time>2025-09-13T15:09:46.000Z</time></trkpt>
        <trkpt lat="29.5226254" lon="103.3365421"><ele>3050.35</ele><time>2025-09-13T15:10:16.000Z</time></trkpt>
        <trkpt lat="29.5226254" lon="103.3365421"><ele>3050.35</ele><time>2025-09-13T15:10:19.000Z</time></trkpt>
        <trkpt lat="29.5226699" lon="103.3365517"><ele>3046.69</ele><time>2025-09-13T15:10:23.000Z</time></trkpt>
        <trkpt lat="29.5226699" lon="103.3365517"><ele>3046.69</ele><time>2025-09-13T15:12:08.000Z</time></trkpt>
        <trkpt lat="29.5227215" lon="103.3365678"><ele>3042.08</ele><time>2025-09-13T15:12:14.000Z</time></trkpt>
        <trkpt lat="29.5227701" lon="103.3365638"><ele>3039.53</ele><time>2025-09-13T15:12:20.000Z</time></trkpt>
        <trkpt lat="29.5228214" lon="103.3365769"><ele>3038.8</ele><time>2025-09-13T15:12:28.000Z</time></trkpt>
        <trkpt lat="29.5228214" lon="103.3365769"><ele>3038.8</ele><time>2025-09-13T15:12:47.000Z</time></trkpt>
        <trkpt lat="29.5228747" lon="103.3365838"><ele>3038.57</ele><time>2025-09-13T15:12:53.000Z</time></trkpt>
        <trkpt lat="29.5228747" lon="103.3365838"><ele>3038.57</ele><time>2025-09-13T15:13:12.000Z</time></trkpt>
        <trkpt lat="29.5229248" lon="103.3365784"><ele>3037.84</ele><time>2025-09-13T15:13:22.000Z</time></trkpt>
        <trkpt lat="29.5229717" lon="103.3365868"><ele>3037.28</ele><time>2025-09-13T15:13:28.000Z</time></trkpt>
        <trkpt lat="29.5230114" lon="103.3365639"><ele>3037.37</ele><time>2025-09-13T15:13:40.000Z</time></trkpt>
        <trkpt lat="29.5230549" lon="103.3365475"><ele>3037.16</ele><time>2025-09-13T15:13:48.000Z</time></trkpt>
        <trkpt lat="29.5230979" lon="103.3365258"><ele>3035.66</ele><time>2025-09-13T15:13:56.000Z</time></trkpt>
        <trkpt lat="29.5231432" lon="103.3365021"><ele>3034.7</ele><time>2025-09-13T15:14:16.000Z</time></trkpt>
        <trkpt lat="29.5231885" lon="103.3364892"><ele>3033.27</ele><time>2025-09-13T15:14:28.000Z</time></trkpt>
        <trkpt lat="29.5231885" lon="103.3364892"><ele>3033.27</ele><time>2025-09-13T15:14:45.000Z</time></trkpt>
        <trkpt lat="29.5232292" lon="103.3364636"><ele>3032.54</ele><time>2025-09-13T15:14:47.000Z</time></trkpt>
        <trkpt lat="29.5232292" lon="103.3364636"><ele>3032.54</ele><time>2025-09-13T15:14:50.000Z</time></trkpt>
        <trkpt lat="29.5232019" lon="103.3364656"><ele>3031.49</ele><time>2025-09-13T15:15:32.000Z</time></trkpt>
        <trkpt lat="29.5232019" lon="103.3364656"><ele>3031.49</ele><time>2025-09-13T15:16:01.000Z</time></trkpt>
        <trkpt lat="29.5232189" lon="103.3364415"><ele>3031.14</ele><time>2025-09-13T15:16:07.000Z</time></trkpt>
        <trkpt lat="29.5232189" lon="103.3364415"><ele>3031.14</ele><time>2025-09-13T15:16:28.000Z</time></trkpt>
        <trkpt lat="29.5232579" lon="103.3364287"><ele>3031.08</ele><time>2025-09-13T15:16:36.000Z</time></trkpt>
        <trkpt lat="29.5233086" lon="103.3364108"><ele>3031.4</ele><time>2025-09-13T15:16:44.000Z</time></trkpt>
        <trkpt lat="29.5233522" lon="103.3363784"><ele>3031.66</ele><time>2025-09-13T15:16:52.000Z</time></trkpt>
        <trkpt lat="29.5233241" lon="103.3363695"><ele>3031.77</ele><time>2025-09-13T15:17:12.000Z</time></trkpt>
        <trkpt lat="29.5232718" lon="103.3363737"><ele>3031.46</ele><time>2025-09-13T15:17:20.000Z</time></trkpt>
        <trkpt lat="29.5232079" lon="103.3363686"><ele>3031.53</ele><time>2025-09-13T15:17:28.000Z</time></trkpt>
        <trkpt lat="29.5231567" lon="103.3363462"><ele>3031.61</ele><time>2025-09-13T15:17:34.000Z</time></trkpt>
        <trkpt lat="29.5231335" lon="103.3362974"><ele>3031.66</ele><time>2025-09-13T15:17:42.000Z</time></trkpt>
        <trkpt lat="29.5231401" lon="103.3362336"><ele>3031.39</ele><time>2025-09-13T15:17:50.000Z</time></trkpt>
        <trkpt lat="29.5231484" lon="103.3361696"><ele>3031</ele><time>2025-09-13T15:17:58.000Z</time></trkpt>
        <trkpt lat="29.5231448" lon="103.3361061"><ele>3030.6</ele><time>2025-09-13T15:18:08.000Z</time></trkpt>
        <trkpt lat="29.5231306" lon="103.3360509"><ele>3029.95</ele><time>2025-09-13T15:18:16.000Z</time></trkpt>
        <trkpt lat="29.5230912" lon="103.3360183"><ele>3029.39</ele><time>2025-09-13T15:18:24.000Z</time></trkpt>
        <trkpt lat="29.5230428" lon="103.3359975"><ele>3029.68</ele><time>2025-09-13T15:18:32.000Z</time></trkpt>
        <trkpt lat="29.5230149" lon="103.3359526"><ele>3030.3</ele><time>2025-09-13T15:18:42.000Z</time></trkpt>
        <trkpt lat="29.5229835" lon="103.3359102"><ele>3030.17</ele><time>2025-09-13T15:18:50.000Z</time></trkpt>
        <trkpt lat="29.5229407" lon="103.3359062"><ele>3030.9</ele><time>2025-09-13T15:18:56.000Z</time></trkpt>
        <trkpt lat="29.522887" lon="103.3359166"><ele>3032.3</ele><time>2025-09-13T15:19:06.000Z</time></trkpt>
        <trkpt lat="29.522836" lon="103.3359007"><ele>3032.87</ele><time>2025-09-13T15:19:16.000Z</time></trkpt>
        <trkpt lat="29.522836" lon="103.3359007"><ele>3032.87</ele><time>2025-09-13T15:19:49.000Z</time></trkpt>
        <trkpt lat="29.5229095" lon="103.3359244"><ele>3032.56</ele><time>2025-09-13T15:19:53.000Z</time></trkpt>
        <trkpt lat="29.5229095" lon="103.3359244"><ele>3032.56</ele><time>2025-09-13T15:19:57.000Z</time></trkpt>
        <trkpt lat="29.5229659" lon="103.3359134"><ele>3030.31</ele><time>2025-09-13T15:20:13.000Z</time></trkpt>
        <trkpt lat="29.5229659" lon="103.3359134"><ele>3030.31</ele><time>2025-09-13T15:20:35.000Z</time></trkpt>
        <trkpt lat="29.5229659" lon="103.3359134"><ele>3030.31</ele><time>2025-09-13T15:20:39.000Z</time></trkpt>
        <trkpt lat="29.5229659" lon="103.3359134"><ele>3030.31</ele><time>2025-09-13T15:20:55.000Z</time></trkpt>
        <trkpt lat="29.5229659" lon="103.3359134"><ele>3030.31</ele><time>2025-09-13T15:20:57.000Z</time></trkpt>
        <trkpt lat="29.5229659" lon="103.3359134"><ele>3030.31</ele><time>2025-09-13T15:21:25.000Z</time></trkpt>
        <trkpt lat="29.5229467" lon="103.3358455"><ele>3029.54</ele><time>2025-09-13T15:21:31.000Z</time></trkpt>
        <trkpt lat="29.5229467" lon="103.3358455"><ele>3029.54</ele><time>2025-09-13T15:22:16.000Z</time></trkpt>
        <trkpt lat="29.522897" lon="103.3358646"><ele>3029.13</ele><time>2025-09-13T15:22:26.000Z</time></trkpt>
        <trkpt lat="29.5228545" lon="103.3358398"><ele>3028.56</ele><time>2025-09-13T15:22:38.000Z</time></trkpt>
        <trkpt lat="29.5228519" lon="103.3357845"><ele>3027.07</ele><time>2025-09-13T15:22:44.000Z</time></trkpt>
        <trkpt lat="29.5228359" lon="103.3357275"><ele>3026.22</ele><time>2025-09-13T15:22:50.000Z</time></trkpt>
        <trkpt lat="29.522814" lon="103.3356661"><ele>3025.74</ele><time>2025-09-13T15:22:58.000Z</time></trkpt>
        <trkpt lat="29.5228027" lon="103.3356017"><ele>3025.39</ele><time>2025-09-13T15:23:06.000Z</time></trkpt>
        <trkpt lat="29.522795" lon="103.3355448"><ele>3025.01</ele><time>2025-09-13T15:23:14.000Z</time></trkpt>
        <trkpt lat="29.5227884" lon="103.3354834"><ele>3024.6</ele><time>2025-09-13T15:23:26.000Z</time></trkpt>
        <trkpt lat="29.5227724" lon="103.3354298"><ele>3022.72</ele><time>2025-09-13T15:23:32.000Z</time></trkpt>
        <trkpt lat="29.5227738" lon="103.3353631"><ele>3021.91</ele><time>2025-09-13T15:23:58.000Z</time></trkpt>
        <trkpt lat="29.5227772" lon="103.3352939"><ele>3021.1</ele><time>2025-09-13T15:24:04.000Z</time></trkpt>
        <trkpt lat="29.5227707" lon="103.3352381"><ele>3020.7</ele><time>2025-09-13T15:24:20.000Z</time></trkpt>
        <trkpt lat="29.5227499" lon="103.3351888"><ele>3021.39</ele><time>2025-09-13T15:24:42.000Z</time></trkpt>
        <trkpt lat="29.5227416" lon="103.3351382"><ele>3021.21</ele><time>2025-09-13T15:25:14.000Z</time></trkpt>
        <trkpt lat="29.5227366" lon="103.3350861"><ele>3019.09</ele><time>2025-09-13T15:25:39.000Z</time></trkpt>
        <trkpt lat="29.5227445" lon="103.3350335"><ele>3017.61</ele><time>2025-09-13T15:25:55.000Z</time></trkpt>
        <trkpt lat="29.5227495" lon="103.3349808"><ele>3015.07</ele><time>2025-09-13T15:26:03.000Z</time></trkpt>
        <trkpt lat="29.5227473" lon="103.3349197"><ele>3013.29</ele><time>2025-09-13T15:26:17.000Z</time></trkpt>
        <trkpt lat="29.5227111" lon="103.3348745"><ele>3012.61</ele><time>2025-09-13T15:26:25.000Z</time></trkpt>
        <trkpt lat="29.5227165" lon="103.334824"><ele>3011.5</ele><time>2025-09-13T15:26:37.000Z</time></trkpt>
        <trkpt lat="29.5227377" lon="103.334775"><ele>3009.73</ele><time>2025-09-13T15:26:45.000Z</time></trkpt>
        <trkpt lat="29.5227852" lon="103.3347649"><ele>3007.9</ele><time>2025-09-13T15:26:53.000Z</time></trkpt>
        <trkpt lat="29.5228571" lon="103.3347537"><ele>3006.95</ele><time>2025-09-13T15:27:05.000Z</time></trkpt>
        <trkpt lat="29.5229162" lon="103.334747"><ele>3007.02</ele><time>2025-09-13T15:27:17.000Z</time></trkpt>
        <trkpt lat="29.5229162" lon="103.334747"><ele>3007.02</ele><time>2025-09-13T15:27:23.000Z</time></trkpt>
        <trkpt lat="29.5229633" lon="103.3347312"><ele>3006.44</ele><time>2025-09-13T15:27:29.000Z</time></trkpt>
        <trkpt lat="29.5229633" lon="103.3347312"><ele>3006.44</ele><time>2025-09-13T15:27:29.000Z</time></trkpt>
        <trkpt lat="29.5230104" lon="103.3347383"><ele>3006.6</ele><time>2025-09-13T15:27:53.000Z</time></trkpt>
        <trkpt lat="29.5230558" lon="103.3347386"><ele>3004.79</ele><time>2025-09-13T15:27:59.000Z</time></trkpt>
        <trkpt lat="29.5231044" lon="103.3347366"><ele>3002.68</ele><time>2025-09-13T15:28:05.000Z</time></trkpt>
        <trkpt lat="29.5231419" lon="103.3347641"><ele>3001.47</ele><time>2025-09-13T15:28:15.000Z</time></trkpt>
        <trkpt lat="29.5231857" lon="103.3347956"><ele>2999.91</ele><time>2025-09-13T15:28:23.000Z</time></trkpt>
        <trkpt lat="29.5232302" lon="103.3348142"><ele>2998.55</ele><time>2025-09-13T15:28:29.000Z</time></trkpt>
        <trkpt lat="29.5232692" lon="103.3347946"><ele>2997.51</ele><time>2025-09-13T15:28:45.000Z</time></trkpt>
        <trkpt lat="29.5232692" lon="103.3347946"><ele>2997.51</ele><time>2025-09-13T15:28:47.000Z</time></trkpt>
        <trkpt lat="29.523312" lon="103.3348008"><ele>2996.27</ele><time>2025-09-13T15:28:53.000Z</time></trkpt>
        <trkpt lat="29.523312" lon="103.3348008"><ele>2996.27</ele><time>2025-09-13T15:29:17.000Z</time></trkpt>
        <trkpt lat="29.5233451" lon="103.3348359"><ele>2995.49</ele><time>2025-09-13T15:29:25.000Z</time></trkpt>
        <trkpt lat="29.5233888" lon="103.3348562"><ele>2995.15</ele><time>2025-09-13T15:29:31.000Z</time></trkpt>
        <trkpt lat="29.5234383" lon="103.3348757"><ele>2994.8</ele><time>2025-09-13T15:29:39.000Z</time></trkpt>
        <trkpt lat="29.5234855" lon="103.3348884"><ele>2995</ele><time>2025-09-13T15:29:47.000Z</time></trkpt>
        <trkpt lat="29.5235412" lon="103.3349097"><ele>2995.25</ele><time>2025-09-13T15:29:53.000Z</time></trkpt>
        <trkpt lat="29.5236015" lon="103.3349202"><ele>2995.85</ele><time>2025-09-13T15:29:59.000Z</time></trkpt>
        <trkpt lat="29.5236515" lon="103.3349179"><ele>2996.76</ele><time>2025-09-13T15:30:05.000Z</time></trkpt>
        <trkpt lat="29.5237031" lon="103.3349053"><ele>2997.3</ele><time>2025-09-13T15:30:09.000Z</time></trkpt>
        <trkpt lat="29.523752" lon="103.3349076"><ele>2997.66</ele><time>2025-09-13T15:30:21.000Z</time></trkpt>
        <trkpt lat="29.523752" lon="103.3349076"><ele>2997.66</ele><time>2025-09-13T15:30:23.000Z</time></trkpt>
        <trkpt lat="29.5237714" lon="103.3348707"><ele>2997.98</ele><time>2025-09-13T15:30:27.000Z</time></trkpt>
        <trkpt lat="29.5237714" lon="103.3348707"><ele>2997.98</ele><time>2025-09-13T15:30:35.000Z</time></trkpt>
        <trkpt lat="29.5237714" lon="103.3348707"><ele>2997.98</ele><time>2025-09-13T15:30:47.000Z</time></trkpt>
        <trkpt lat="29.5237075" lon="103.334883"><ele>2997.61</ele><time>2025-09-13T15:30:51.000Z</time></trkpt>
        <trkpt lat="29.5237075" lon="103.334883"><ele>2997.61</ele><time>2025-09-13T15:30:59.000Z</time></trkpt>
        <trkpt lat="29.5237075" lon="103.334883"><ele>2997.61</ele><time>2025-09-13T15:31:17.000Z</time></trkpt>
        <trkpt lat="29.5236604" lon="103.3349269"><ele>2997.09</ele><time>2025-09-13T15:31:23.000Z</time></trkpt>
        <trkpt lat="29.5236604" lon="103.3349269"><ele>2997.09</ele><time>2025-09-13T15:31:32.000Z</time></trkpt>
        <trkpt lat="29.5237028" lon="103.3349438"><ele>2994.99</ele><time>2025-09-13T15:31:42.000Z</time></trkpt>
        <trkpt lat="29.5237559" lon="103.3349608"><ele>2994.23</ele><time>2025-09-13T15:31:48.000Z</time></trkpt>
        <trkpt lat="29.5238122" lon="103.3349689"><ele>2993.63</ele><time>2025-09-13T15:31:54.000Z</time></trkpt>
        <trkpt lat="29.5238676" lon="103.3349777"><ele>2993.78</ele><time>2025-09-13T15:32:00.000Z</time></trkpt>
        <trkpt lat="29.5239031" lon="103.3350183"><ele>2992.55</ele><time>2025-09-13T15:32:10.000Z</time></trkpt>
        <trkpt lat="29.5239183" lon="103.3350754"><ele>2992.1</ele><time>2025-09-13T15:32:18.000Z</time></trkpt>
        <trkpt lat="29.5239233" lon="103.3351345"><ele>2990.78</ele><time>2025-09-13T15:32:26.000Z</time></trkpt>
        <trkpt lat="29.5239432" lon="103.3351863"><ele>2990.87</ele><time>2025-09-13T15:32:34.000Z</time></trkpt>
        <trkpt lat="29.5239432" lon="103.3351863"><ele>2990.87</ele><time>2025-09-13T15:32:47.000Z</time></trkpt>
        <trkpt lat="29.5239292" lon="103.3351674"><ele>2991.24</ele><time>2025-09-13T15:32:51.000Z</time></trkpt>
        <trkpt lat="29.5239292" lon="103.3351674"><ele>2991.24</ele><time>2025-09-13T15:33:12.000Z</time></trkpt>
        <trkpt lat="29.5238894" lon="103.3351369"><ele>2992.3</ele><time>2025-09-13T15:33:20.000Z</time></trkpt>
        <trkpt lat="29.5238356" lon="103.3351113"><ele>2993.21</ele><time>2025-09-13T15:33:30.000Z</time></trkpt>
        <trkpt lat="29.5237855" lon="103.3350742"><ele>2993.8</ele><time>2025-09-13T15:33:38.000Z</time></trkpt>
        <trkpt lat="29.5237379" lon="103.3350451"><ele>2994.81</ele><time>2025-09-13T15:33:46.000Z</time></trkpt>
        <trkpt lat="29.5236957" lon="103.3350083"><ele>2995.99</ele><time>2025-09-13T15:33:56.000Z</time></trkpt>
        <trkpt lat="29.5236529" lon="103.3349653"><ele>2997.37</ele><time>2025-09-13T15:34:07.000Z</time></trkpt>
        <trkpt lat="29.5236074" lon="103.334969"><ele>2998.13</ele><time>2025-09-13T15:34:13.000Z</time></trkpt>
        <trkpt lat="29.5235537" lon="103.3349519"><ele>2998.7</ele><time>2025-09-13T15:34:23.000Z</time></trkpt>
        <trkpt lat="29.5235101" lon="103.3349155"><ele>2998.98</ele><time>2025-09-13T15:34:31.000Z</time></trkpt>
        <trkpt lat="29.52346" lon="103.3348924"><ele>2999.15</ele><time>2025-09-13T15:34:41.000Z</time></trkpt>
        <trkpt lat="29.523414" lon="103.3348671"><ele>2998.83</ele><time>2025-09-13T15:34:53.000Z</time></trkpt>
        <trkpt lat="29.523374" lon="103.3348235"><ele>3000.69</ele><time>2025-09-13T15:35:01.000Z</time></trkpt>
        <trkpt lat="29.5233252" lon="103.334809"><ele>3002.84</ele><time>2025-09-13T15:35:09.000Z</time></trkpt>
        <trkpt lat="29.5232766" lon="103.3348004"><ele>3003.7</ele><time>2025-09-13T15:35:19.000Z</time></trkpt>
        <trkpt lat="29.5232312" lon="103.3347896"><ele>3003.6</ele><time>2025-09-13T15:35:29.000Z</time></trkpt>
        <trkpt lat="29.5231866" lon="103.3347832"><ele>3003.69</ele><time>2025-09-13T15:35:37.000Z</time></trkpt>
        <trkpt lat="29.5231357" lon="103.3347751"><ele>3004.26</ele><time>2025-09-13T15:35:45.000Z</time></trkpt>
        <trkpt lat="29.5230901" lon="103.3347571"><ele>3004.4</ele><time>2025-09-13T15:35:53.000Z</time></trkpt>
        <trkpt lat="29.5230388" lon="103.3347595"><ele>3004.93</ele><time>2025-09-13T15:36:03.000Z</time></trkpt>
        <trkpt lat="29.5229865" lon="103.3347557"><ele>3004.56</ele><time>2025-09-13T15:36:13.000Z</time></trkpt>
        <trkpt lat="29.5229401" lon="103.3347671"><ele>3004.22</ele><time>2025-09-13T15:36:25.000Z</time></trkpt>
        <trkpt lat="29.5228936" lon="103.3347712"><ele>3003.04</ele><time>2025-09-13T15:36:35.000Z</time></trkpt>
        <trkpt lat="29.5228442" lon="103.3347628"><ele>3002.95</ele><time>2025-09-13T15:36:47.000Z</time></trkpt>
        <trkpt lat="29.5228069" lon="103.3347882"><ele>3004.28</ele><time>2025-09-13T15:36:59.000Z</time></trkpt>
        <trkpt lat="29.5227614" lon="103.3347984"><ele>3005.08</ele><time>2025-09-13T15:37:09.000Z</time></trkpt>
        <trkpt lat="29.5227165" lon="103.3348231"><ele>3006.57</ele><time>2025-09-13T15:37:21.000Z</time></trkpt>
        <trkpt lat="29.5226899" lon="103.3348726"><ele>3008.43</ele><time>2025-09-13T15:37:31.000Z</time></trkpt>
        <trkpt lat="29.5227042" lon="103.3349251"><ele>3010.63</ele><time>2025-09-13T15:37:41.000Z</time></trkpt>
        <trkpt lat="29.5227276" lon="103.3349777"><ele>3010.84</ele><time>2025-09-13T15:37:47.000Z</time></trkpt>
        <trkpt lat="29.5227518" lon="103.3350367"><ele>3011.17</ele><time>2025-09-13T15:37:55.000Z</time></trkpt>
        <trkpt lat="29.5227431" lon="103.3350868"><ele>3010.31</ele><time>2025-09-13T15:38:03.000Z</time></trkpt>
        <trkpt lat="29.5227638" lon="103.3351283"><ele>3010.04</ele><time>2025-09-13T15:38:15.000Z</time></trkpt>
        <trkpt lat="29.5227692" lon="103.3351794"><ele>3009.63</ele><time>2025-09-13T15:38:23.000Z</time></trkpt>
        <trkpt lat="29.5227797" lon="103.3352309"><ele>3010.15</ele><time>2025-09-13T15:38:31.000Z</time></trkpt>
        <trkpt lat="29.5227913" lon="103.335289"><ele>3012.03</ele><time>2025-09-13T15:38:49.000Z</time></trkpt>
        <trkpt lat="29.5227963" lon="103.3353481"><ele>3014.94</ele><time>2025-09-13T15:38:59.000Z</time></trkpt>
        <trkpt lat="29.5227934" lon="103.3354079"><ele>3017.34</ele><time>2025-09-13T15:39:09.000Z</time></trkpt>
        <trkpt lat="29.5227921" lon="103.335463"><ele>3016.94</ele><time>2025-09-13T15:39:19.000Z</time></trkpt>
        <trkpt lat="29.5227845" lon="103.3355196"><ele>3018.37</ele><time>2025-09-13T15:39:29.000Z</time></trkpt>
        <trkpt lat="29.5227874" lon="103.3355745"><ele>3019.48</ele><time>2025-09-13T15:39:39.000Z</time></trkpt>
        <trkpt lat="29.5227954" lon="103.3356306"><ele>3020.25</ele><time>2025-09-13T15:39:51.000Z</time></trkpt>
        <trkpt lat="29.5228059" lon="103.3356828"><ele>3021.39</ele><time>2025-09-13T15:40:01.000Z</time></trkpt>
        <trkpt lat="29.5228154" lon="103.3357355"><ele>3022.7</ele><time>2025-09-13T15:40:13.000Z</time></trkpt>
        <trkpt lat="29.5228256" lon="103.3357904"><ele>3024.45</ele><time>2025-09-13T15:40:23.000Z</time></trkpt>
        <trkpt lat="29.5228334" lon="103.3358497"><ele>3026.5</ele><time>2025-09-13T15:40:35.000Z</time></trkpt>
        <trkpt lat="29.5228131" lon="103.3358954"><ele>3028.55</ele><time>2025-09-13T15:40:47.000Z</time></trkpt>
        <trkpt lat="29.5227648" lon="103.3359098"><ele>3029.49</ele><time>2025-09-13T15:40:57.000Z</time></trkpt>
        <trkpt lat="29.5227056" lon="103.3359156"><ele>3029.65</ele><time>2025-09-13T15:41:07.000Z</time></trkpt>
        <trkpt lat="29.5226499" lon="103.3359207"><ele>3029.62</ele><time>2025-09-13T15:41:15.000Z</time></trkpt>
        <trkpt lat="29.5226118" lon="103.3359619"><ele>3029.9</ele><time>2025-09-13T15:41:27.000Z</time></trkpt>
        <trkpt lat="29.5226018" lon="103.3360217"><ele>3030.38</ele><time>2025-09-13T15:41:35.000Z</time></trkpt>
        <trkpt lat="29.5225724" lon="103.3360658"><ele>3030.03</ele><time>2025-09-13T15:41:43.000Z</time></trkpt>
        <trkpt lat="29.5225364" lon="103.3361074"><ele>3029.82</ele><time>2025-09-13T15:41:48.000Z</time></trkpt>
        <trkpt lat="29.5224837" lon="103.3361372"><ele>3030.64</ele><time>2025-09-13T15:41:53.000Z</time></trkpt>
        <trkpt lat="29.5224223" lon="103.3361286"><ele>3029.56</ele><time>2025-09-13T15:42:10.000Z</time></trkpt>
        <trkpt lat="29.5223629" lon="103.3361398"><ele>3028.62</ele><time>2025-09-13T15:42:16.000Z</time></trkpt>
        <trkpt lat="29.522322" lon="103.336116"><ele>3028.62</ele><time>2025-09-13T15:42:34.000Z</time></trkpt>
        <trkpt lat="29.522322" lon="103.336116"><ele>3028.62</ele><time>2025-09-13T15:43:09.000Z</time></trkpt>
        <trkpt lat="29.522322" lon="103.336116"><ele>3028.62</ele><time>2025-09-13T15:43:13.000Z</time></trkpt>
        <trkpt lat="29.522322" lon="103.336116"><ele>3028.62</ele><time>2025-09-13T15:43:49.000Z</time></trkpt>
        <trkpt lat="29.522322" lon="103.336116"><ele>3028.62</ele><time>2025-09-13T15:43:51.000Z</time></trkpt>
        <trkpt lat="29.522322" lon="103.336116"><ele>3028.62</ele><time>2025-09-13T15:44:13.000Z</time></trkpt>
        <trkpt lat="29.522322" lon="103.336116"><ele>3028.62</ele><time>2025-09-13T15:44:19.000Z</time></trkpt>
        <trkpt lat="29.522322" lon="103.336116"><ele>3028.62</ele><time>2025-09-13T15:46:45.000Z</time></trkpt>
        <trkpt lat="29.522322" lon="103.336116"><ele>3028.62</ele><time>2025-09-13T15:46:51.000Z</time></trkpt>
        <trkpt lat="29.522322" lon="103.336116"><ele>3028.62</ele><time>2025-09-13T15:48:05.000Z</time></trkpt>
        <trkpt lat="29.522322" lon="103.336116"><ele>3028.62</ele><time>2025-09-13T15:48:11.000Z</time></trkpt>
        <trkpt lat="29.522322" lon="103.336116"><ele>3028.62</ele><time>2025-09-13T15:48:49.000Z</time></trkpt>
        <trkpt lat="29.522322" lon="103.336116"><ele>3028.62</ele><time>2025-09-13T15:48:53.000Z</time></trkpt>
        <trkpt lat="29.522322" lon="103.336116"><ele>3028.62</ele><time>2025-09-13T15:50:03.000Z</time></trkpt>
        <trkpt lat="29.522322" lon="103.336116"><ele>3028.62</ele><time>2025-09-13T15:50:09.000Z</time></trkpt>
        <trkpt lat="29.522322" lon="103.336116"><ele>3028.62</ele><time>2025-09-13T15:50:45.000Z</time></trkpt>
        <trkpt lat="29.522322" lon="103.336116"><ele>3028.62</ele><time>2025-09-13T15:50:49.000Z</time></trkpt>
        <trkpt lat="29.522322" lon="103.336116"><ele>3028.62</ele><time>2025-09-13T15:54:19.000Z</time></trkpt>
        <trkpt lat="29.522322" lon="103.336116"><ele>3028.62</ele><time>2025-09-13T15:54:25.000Z</time></trkpt>
        <trkpt lat="29.522322" lon="103.336116"><ele>3028.62</ele><time>2025-09-13T15:55:19.000Z</time></trkpt>
        <trkpt lat="29.522322" lon="103.336116"><ele>3028.62</ele><time>2025-09-13T15:55:23.000Z</time></trkpt>
        <trkpt lat="29.522322" lon="103.336116"><ele>3028.62</ele><time>2025-09-13T15:56:37.000Z</time></trkpt>
        <trkpt lat="29.522322" lon="103.336116"><ele>3028.62</ele><time>2025-09-13T15:56:41.000Z</time></trkpt>
        <trkpt lat="29.522322" lon="103.336116"><ele>3028.62</ele><time>2025-09-13T15:58:49.000Z</time></trkpt>
        <trkpt lat="29.522322" lon="103.336116"><ele>3028.62</ele><time>2025-09-13T15:58:55.000Z</time></trkpt>
        <trkpt lat="29.522322" lon="103.336116"><ele>3028.62</ele><time>2025-09-13T15:59:43.000Z</time></trkpt>
        <trkpt lat="29.5223741" lon="103.3361087"><ele>3028.73</ele><time>2025-09-13T15:59:49.000Z</time></trkpt>
        <trkpt lat="29.5223741" lon="103.3361087"><ele>3028.73</ele><time>2025-09-13T16:00:35.000Z</time></trkpt>
        <trkpt lat="29.522421" lon="103.3361215"><ele>3030.66</ele><time>2025-09-13T16:00:39.000Z</time></trkpt>
        <trkpt lat="29.522474" lon="103.3361169"><ele>3031.93</ele><time>2025-09-13T16:00:45.000Z</time></trkpt>
        <trkpt lat="29.522474" lon="103.3361169"><ele>3031.93</ele><time>2025-09-13T16:01:07.000Z</time></trkpt>
        <trkpt lat="29.522474" lon="103.3361169"><ele>3031.93</ele><time>2025-09-13T16:01:13.000Z</time></trkpt>
        <trkpt lat="29.522474" lon="103.3361169"><ele>3031.93</ele><time>2025-09-13T16:01:35.000Z</time></trkpt>
        <trkpt lat="29.5225209" lon="103.3361045"><ele>3032.97</ele><time>2025-09-13T16:01:39.000Z</time></trkpt>
        <trkpt lat="29.5225209" lon="103.3361045"><ele>3032.97</ele><time>2025-09-13T16:01:47.000Z</time></trkpt>
        <trkpt lat="29.522476" lon="103.3361152"><ele>3033.55</ele><time>2025-09-13T16:02:09.000Z</time></trkpt>
        <trkpt lat="29.5225149" lon="103.3361063"><ele>3033.91</ele><time>2025-09-13T16:02:17.000Z</time></trkpt>
        <trkpt lat="29.5225496" lon="103.3360727"><ele>3033.77</ele><time>2025-09-13T16:02:23.000Z</time></trkpt>
        <trkpt lat="29.5225815" lon="103.3360216"><ele>3033.2</ele><time>2025-09-13T16:02:29.000Z</time></trkpt>
        <trkpt lat="29.52262" lon="103.3359808"><ele>3032.99</ele><time>2025-09-13T16:02:37.000Z</time></trkpt>
        <trkpt lat="29.5226528" lon="103.3359359"><ele>3032.41</ele><time>2025-09-13T16:02:43.000Z</time></trkpt>
        <trkpt lat="29.5226934" lon="103.3359087"><ele>3032.26</ele><time>2025-09-13T16:02:53.000Z</time></trkpt>
        <trkpt lat="29.5227398" lon="103.3359041"><ele>3031.15</ele><time>2025-09-13T16:02:59.000Z</time></trkpt>
        <trkpt lat="29.5227932" lon="103.3359005"><ele>3030.2</ele><time>2025-09-13T16:03:05.000Z</time></trkpt>
        <trkpt lat="29.5228112" lon="103.3358591"><ele>3029.88</ele><time>2025-09-13T16:03:11.000Z</time></trkpt>
        <trkpt lat="29.5228136" lon="103.3358009"><ele>3029.08</ele><time>2025-09-13T16:03:17.000Z</time></trkpt>
        <trkpt lat="29.5228151" lon="103.3357395"><ele>3027.95</ele><time>2025-09-13T16:03:23.000Z</time></trkpt>
        <trkpt lat="29.5228176" lon="103.3356772"><ele>3026.72</ele><time>2025-09-13T16:03:31.000Z</time></trkpt>
        <trkpt lat="29.5227882" lon="103.3356276"><ele>3025.3</ele><time>2025-09-13T16:03:39.000Z</time></trkpt>
        <trkpt lat="29.5227729" lon="103.3355764"><ele>3024.54</ele><time>2025-09-13T16:03:47.000Z</time></trkpt>
        <trkpt lat="29.5227444" lon="103.3355159"><ele>3023.86</ele><time>2025-09-13T16:03:55.000Z</time></trkpt>
        <trkpt lat="29.5227294" lon="103.3354578"><ele>3023</ele><time>2025-09-13T16:03:59.000Z</time></trkpt>
        <trkpt lat="29.5227412" lon="103.3353979"><ele>3022.39</ele><time>2025-09-13T16:04:07.000Z</time></trkpt>
        <trkpt lat="29.5227394" lon="103.3353361"><ele>3021.26</ele><time>2025-09-13T16:04:13.000Z</time></trkpt>
        <trkpt lat="29.5227387" lon="103.3352779"><ele>3021.16</ele><time>2025-09-13T16:04:19.000Z</time></trkpt>
        <trkpt lat="29.522755" lon="103.3352227"><ele>3020.25</ele><time>2025-09-13T16:04:29.000Z</time></trkpt>
        <trkpt lat="29.5227664" lon="103.3351667"><ele>3018.91</ele><time>2025-09-13T16:04:39.000Z</time></trkpt>
        <trkpt lat="29.5227706" lon="103.3351005"><ele>3017.25</ele><time>2025-09-13T16:04:47.000Z</time></trkpt>
        <trkpt lat="29.5227893" lon="103.335045"><ele>3015.89</ele><time>2025-09-13T16:04:57.000Z</time></trkpt>
        <trkpt lat="29.5228021" lon="103.3349889"><ele>3014.7</ele><time>2025-09-13T16:05:05.000Z</time></trkpt>
        <trkpt lat="29.522795" lon="103.3349283"><ele>3012.89</ele><time>2025-09-13T16:05:11.000Z</time></trkpt>
        <trkpt lat="29.5227832" lon="103.334864"><ele>3011.89</ele><time>2025-09-13T16:05:19.000Z</time></trkpt>
        <trkpt lat="29.5227451" lon="103.3348258"><ele>3012.09</ele><time>2025-09-13T16:05:27.000Z</time></trkpt>
        <trkpt lat="29.5227492" lon="103.3347848"><ele>3011.62</ele><time>2025-09-13T16:05:37.000Z</time></trkpt>
        <trkpt lat="29.5227909" lon="103.3347778"><ele>3011.01</ele><time>2025-09-13T16:05:45.000Z</time></trkpt>
        <trkpt lat="29.5228417" lon="103.3347965"><ele>3010.76</ele><time>2025-09-13T16:05:55.000Z</time></trkpt>
        <trkpt lat="29.5228936" lon="103.3347927"><ele>3010.15</ele><time>2025-09-13T16:06:01.000Z</time></trkpt>
        <trkpt lat="29.5229529" lon="103.3347848"><ele>3008.97</ele><time>2025-09-13T16:06:09.000Z</time></trkpt>
        <trkpt lat="29.5230101" lon="103.3347454"><ele>3008.12</ele><time>2025-09-13T16:06:21.000Z</time></trkpt>
        <trkpt lat="29.523066" lon="103.3347355"><ele>3007.14</ele><time>2025-09-13T16:06:27.000Z</time></trkpt>
        <trkpt lat="29.5231223" lon="103.3347489"><ele>3005.59</ele><time>2025-09-13T16:06:33.000Z</time></trkpt>
        <trkpt lat="29.5231723" lon="103.3347662"><ele>3004.33</ele><time>2025-09-13T16:06:39.000Z</time></trkpt>
        <trkpt lat="29.5232243" lon="103.334784"><ele>3003.46</ele><time>2025-09-13T16:06:45.000Z</time></trkpt>
        <trkpt lat="29.5232764" lon="103.3348039"><ele>3002.95</ele><time>2025-09-13T16:06:51.000Z</time></trkpt>
        <trkpt lat="29.5233296" lon="103.334832"><ele>3002.75</ele><time>2025-09-13T16:06:57.000Z</time></trkpt>
        <trkpt lat="29.5233778" lon="103.3348529"><ele>3002.63</ele><time>2025-09-13T16:07:03.000Z</time></trkpt>
        <trkpt lat="29.5234285" lon="103.3348735"><ele>3002.21</ele><time>2025-09-13T16:07:09.000Z</time></trkpt>
        <trkpt lat="29.5234815" lon="103.3348959"><ele>3002.47</ele><time>2025-09-13T16:07:15.000Z</time></trkpt>
        <trkpt lat="29.5235386" lon="103.3349142"><ele>3001.67</ele><time>2025-09-13T16:07:21.000Z</time></trkpt>
        <trkpt lat="29.5235906" lon="103.3349215"><ele>3000.99</ele><time>2025-09-13T16:07:25.000Z</time></trkpt>
        <trkpt lat="29.523646" lon="103.3349257"><ele>2999.64</ele><time>2025-09-13T16:07:31.000Z</time></trkpt>
        <trkpt lat="29.5237023" lon="103.3349321"><ele>2998.48</ele><time>2025-09-13T16:07:37.000Z</time></trkpt>
        <trkpt lat="29.5237642" lon="103.334936"><ele>2998.76</ele><time>2025-09-13T16:07:43.000Z</time></trkpt>
        <trkpt lat="29.5238279" lon="103.3349373"><ele>2999.37</ele><time>2025-09-13T16:07:49.000Z</time></trkpt>
        <trkpt lat="29.5238879" lon="103.3349452"><ele>2999.72</ele><time>2025-09-13T16:07:55.000Z</time></trkpt>
        <trkpt lat="29.5239253" lon="103.3349889"><ele>2999.43</ele><time>2025-09-13T16:08:01.000Z</time></trkpt>
        <trkpt lat="29.5239295" lon="103.33506"><ele>2999.86</ele><time>2025-09-13T16:08:09.000Z</time></trkpt>
        <trkpt lat="29.5239315" lon="103.3351241"><ele>3000.61</ele><time>2025-09-13T16:08:13.000Z</time></trkpt>
        <trkpt lat="29.5239328" lon="103.335196"><ele>3001.25</ele><time>2025-09-13T16:08:19.000Z</time></trkpt>
        <trkpt lat="29.523939" lon="103.3352564"><ele>3002.33</ele><time>2025-09-13T16:08:23.000Z</time></trkpt>
        <trkpt lat="29.5239443" lon="103.3353173"><ele>3003.16</ele><time>2025-09-13T16:08:27.000Z</time></trkpt>
        <trkpt lat="29.5239621" lon="103.3353784"><ele>3004.01</ele><time>2025-09-13T16:08:31.000Z</time></trkpt>
        <trkpt lat="29.523996" lon="103.3354166"><ele>3005.28</ele><time>2025-09-13T16:08:35.000Z</time></trkpt>
        <trkpt lat="29.524039" lon="103.3354448"><ele>3005.55</ele><time>2025-09-13T16:08:39.000Z</time></trkpt>
        <trkpt lat="29.52405" lon="103.3354397"><ele>3004.11</ele><time>2025-09-13T16:08:41.000Z</time></trkpt>
        <trkpt lat="29.5240935" lon="103.3354612"><ele>3003.9</ele><time>2025-09-13T16:08:49.000Z</time></trkpt>
        <trkpt lat="29.5241315" lon="103.3355011"><ele>3002.93</ele><time>2025-09-13T16:08:53.000Z</time></trkpt>
        <trkpt lat="29.5241702" lon="103.335553"><ele>3001.08</ele><time>2025-09-13T16:08:57.000Z</time></trkpt>
        <trkpt lat="29.5241983" lon="103.3356057"><ele>3000.49</ele><time>2025-09-13T16:09:01.000Z</time></trkpt>
        <trkpt lat="29.5242287" lon="103.3356496"><ele>3000.57</ele><time>2025-09-13T16:09:05.000Z</time></trkpt>
        <trkpt lat="29.5242596" lon="103.3357042"><ele>2999.91</ele><time>2025-09-13T16:09:11.000Z</time></trkpt>
        <trkpt lat="29.5243015" lon="103.3357393"><ele>2999.74</ele><time>2025-09-13T16:09:15.000Z</time></trkpt>
        <trkpt lat="29.5243465" lon="103.3357587"><ele>3001.24</ele><time>2025-09-13T16:09:18.000Z</time></trkpt>
        <trkpt lat="29.5243847" lon="103.3357864"><ele>3002.1</ele><time>2025-09-13T16:09:21.000Z</time></trkpt>
        <trkpt lat="29.5244314" lon="103.3358112"><ele>3003.37</ele><time>2025-09-13T16:09:25.000Z</time></trkpt>
        <trkpt lat="29.5244755" lon="103.3358408"><ele>3003.62</ele><time>2025-09-13T16:09:32.000Z</time></trkpt>
        <trkpt lat="29.5245314" lon="103.3358792"><ele>3003.67</ele><time>2025-09-13T16:09:38.000Z</time></trkpt>
        <trkpt lat="29.5245895" lon="103.3359091"><ele>3003.91</ele><time>2025-09-13T16:09:47.000Z</time></trkpt>
        <trkpt lat="29.5246444" lon="103.3359209"><ele>3005.63</ele><time>2025-09-13T16:09:57.000Z</time></trkpt>
        <trkpt lat="29.5246883" lon="103.3358967"><ele>3006.73</ele><time>2025-09-13T16:10:01.000Z</time></trkpt>
        <trkpt lat="29.5247263" lon="103.3358636"><ele>3007.11</ele><time>2025-09-13T16:10:07.000Z</time></trkpt>
        <trkpt lat="29.5247635" lon="103.3358183"><ele>3007.17</ele><time>2025-09-13T16:10:13.000Z</time></trkpt>
        <trkpt lat="29.5248085" lon="103.3357993"><ele>3007</ele><time>2025-09-13T16:10:17.000Z</time></trkpt>
        <trkpt lat="29.5248622" lon="103.3358039"><ele>3007.19</ele><time>2025-09-13T16:10:21.000Z</time></trkpt>
        <trkpt lat="29.5249201" lon="103.3357975"><ele>3007.74</ele><time>2025-09-13T16:10:27.000Z</time></trkpt>
        <trkpt lat="29.5249373" lon="103.335786"><ele>3008.18</ele><time>2025-09-13T16:10:29.000Z</time></trkpt>
        <trkpt lat="29.5249072" lon="103.3357501"><ele>3008.26</ele><time>2025-09-13T16:10:47.000Z</time></trkpt>
        <trkpt lat="29.5249037" lon="103.3357749"><ele>3008.43</ele><time>2025-09-13T16:11:23.000Z</time></trkpt>
        <trkpt lat="29.5249037" lon="103.3357749"><ele>3008.43</ele><time>2025-09-13T16:12:01.000Z</time></trkpt>
        <trkpt lat="29.5248569" lon="103.3357789"><ele>3007.74</ele><time>2025-09-13T16:12:05.000Z</time></trkpt>
        <trkpt lat="29.5248569" lon="103.3357789"><ele>3007.74</ele><time>2025-09-13T16:12:29.000Z</time></trkpt>
        <trkpt lat="29.5248569" lon="103.3357789"><ele>3007.74</ele><time>2025-09-13T16:13:09.000Z</time></trkpt>
        <trkpt lat="29.5248119" lon="103.3357848"><ele>3007.23</ele><time>2025-09-13T16:13:15.000Z</time></trkpt>
        <trkpt lat="29.5248119" lon="103.3357848"><ele>3007.23</ele><time>2025-09-13T16:14:07.000Z</time></trkpt>
        <trkpt lat="29.5248119" lon="103.3357848"><ele>3007.23</ele><time>2025-09-13T16:15:55.000Z</time></trkpt>
        <trkpt lat="29.5248119" lon="103.3357848"><ele>3007.23</ele><time>2025-09-13T16:16:01.000Z</time></trkpt>
        <trkpt lat="29.5248119" lon="103.3357848"><ele>3007.23</ele><time>2025-09-13T16:16:33.000Z</time></trkpt>
        <trkpt lat="29.5247671" lon="103.3357943"><ele>3006.06</ele><time>2025-09-13T16:16:39.000Z</time></trkpt>
        <trkpt lat="29.5247671" lon="103.3357943"><ele>3006.06</ele><time>2025-09-13T16:16:45.000Z</time></trkpt>
        <trkpt lat="29.5247671" lon="103.3357943"><ele>3006.06</ele><time>2025-09-13T16:16:59.000Z</time></trkpt>
        <trkpt lat="29.5247671" lon="103.3357943"><ele>3006.06</ele><time>2025-09-13T16:17:03.000Z</time></trkpt>
        <trkpt lat="29.5247671" lon="103.3357943"><ele>3006.06</ele><time>2025-09-13T16:17:53.000Z</time></trkpt>
        <trkpt lat="29.524728" lon="103.3358209"><ele>3006.02</ele><time>2025-09-13T16:17:57.000Z</time></trkpt>
        <trkpt lat="29.524728" lon="103.3358209"><ele>3006.02</ele><time>2025-09-13T16:18:31.000Z</time></trkpt>
        <trkpt lat="29.524728" lon="103.3358209"><ele>3006.02</ele><time>2025-09-13T16:18:53.000Z</time></trkpt>
        <trkpt lat="29.524728" lon="103.3358209"><ele>3006.02</ele><time>2025-09-13T16:18:57.000Z</time></trkpt>
        <trkpt lat="29.524728" lon="103.3358209"><ele>3006.02</ele><time>2025-09-13T16:19:39.000Z</time></trkpt>
        <trkpt lat="29.524728" lon="103.3358209"><ele>3006.02</ele><time>2025-09-13T16:19:45.000Z</time></trkpt>
        <trkpt lat="29.524728" lon="103.3358209"><ele>3006.02</ele><time>2025-09-13T16:20:17.000Z</time></trkpt>
        <trkpt lat="29.524688" lon="103.335847"><ele>3005.38</ele><time>2025-09-13T16:20:23.000Z</time></trkpt>
        <trkpt lat="29.524688" lon="103.335847"><ele>3005.38</ele><time>2025-09-13T16:20:51.000Z</time></trkpt>
        <trkpt lat="29.524688" lon="103.335847"><ele>3005.38</ele><time>2025-09-13T16:20:59.000Z</time></trkpt>
        <trkpt lat="29.524688" lon="103.335847"><ele>3005.38</ele><time>2025-09-13T16:21:03.000Z</time></trkpt>
        <trkpt lat="29.524688" lon="103.335847"><ele>3005.38</ele><time>2025-09-13T16:21:19.000Z</time></trkpt>
        <trkpt lat="29.524688" lon="103.335847"><ele>3005.38</ele><time>2025-09-13T16:21:23.000Z</time></trkpt>
        <trkpt lat="29.524688" lon="103.335847"><ele>3005.38</ele><time>2025-09-13T16:21:53.000Z</time></trkpt>
        <trkpt lat="29.5246419" lon="103.3358528"><ele>3005.57</ele><time>2025-09-13T16:21:57.000Z</time></trkpt>
        <trkpt lat="29.5246419" lon="103.3358528"><ele>3005.57</ele><time>2025-09-13T16:23:53.000Z</time></trkpt>
        <trkpt lat="29.5245948" lon="103.335854"><ele>3004.03</ele><time>2025-09-13T16:25:49.000Z</time></trkpt>
        <trkpt lat="29.5245612" lon="103.3358134"><ele>3003.96</ele><time>2025-09-13T16:25:53.000Z</time></trkpt>
        <trkpt lat="29.5245685" lon="103.3358168"><ele>3003.83</ele><time>2025-09-13T16:25:55.000Z</time></trkpt>
        <trkpt lat="29.5246149" lon="103.3358606"><ele>3003.27</ele><time>2025-09-13T16:27:33.000Z</time></trkpt>
        <trkpt lat="29.5245667" lon="103.3358255"><ele>3002.78</ele><time>2025-09-13T16:28:05.000Z</time></trkpt>
        <trkpt lat="29.5245638" lon="103.3358358"><ele>3001.68</ele><time>2025-09-13T16:28:07.000Z</time></trkpt>
        <trkpt lat="29.5246169" lon="103.3358318"><ele>3001.31</ele><time>2025-09-13T16:28:25.000Z</time></trkpt>
        <trkpt lat="29.5246718" lon="103.3358473"><ele>3001.06</ele><time>2025-09-13T16:28:31.000Z</time></trkpt>
        <trkpt lat="29.5247328" lon="103.3358386"><ele>3001.29</ele><time>2025-09-13T16:28:37.000Z</time></trkpt>
        <trkpt lat="29.524783" lon="103.3358171"><ele>3001.62</ele><time>2025-09-13T16:28:43.000Z</time></trkpt>
        <trkpt lat="29.5248224" lon="103.3357805"><ele>3001.85</ele><time>2025-09-13T16:28:53.000Z</time></trkpt>
        <trkpt lat="29.5247899" lon="103.3357565"><ele>3002.83</ele><time>2025-09-13T16:29:22.000Z</time></trkpt>
        <trkpt lat="29.5247884" lon="103.3357499"><ele>3001.3</ele><time>2025-09-13T16:29:24.000Z</time></trkpt>
        <trkpt lat="29.5247884" lon="103.3357499"><ele>3001.3</ele><time>2025-09-13T16:29:25.000Z</time></trkpt>
        <trkpt lat="29.5247884" lon="103.3357499"><ele>3001.3</ele><time>2025-09-13T16:29:31.000Z</time></trkpt>
        <trkpt lat="29.5247884" lon="103.3357499"><ele>3001.3</ele><time>2025-09-13T16:29:55.000Z</time></trkpt>
        <trkpt lat="29.5247621" lon="103.3358155"><ele>3000.47</ele><time>2025-09-13T16:29:59.000Z</time></trkpt>
        <trkpt lat="29.5247621" lon="103.3358155"><ele>3000.47</ele><time>2025-09-13T16:31:14.000Z</time></trkpt>
        <trkpt lat="29.5247124" lon="103.3358278"><ele>3001.95</ele><time>2025-09-13T16:31:18.000Z</time></trkpt>
        <trkpt lat="29.5246686" lon="103.3358443"><ele>3003.44</ele><time>2025-09-13T16:31:24.000Z</time></trkpt>
        <trkpt lat="29.5246272" lon="103.3358653"><ele>3003.91</ele><time>2025-09-13T16:31:30.000Z</time></trkpt>
        <trkpt lat="29.5245853" lon="103.3358963"><ele>3004.39</ele><time>2025-09-13T16:31:38.000Z</time></trkpt>
        <trkpt lat="29.52454" lon="103.3358788"><ele>3003.88</ele><time>2025-09-13T16:31:50.000Z</time></trkpt>
        <trkpt lat="29.5244968" lon="103.3358448"><ele>3002.13</ele><time>2025-09-13T16:32:00.000Z</time></trkpt>
        <trkpt lat="29.5244432" lon="103.3358228"><ele>3000.79</ele><time>2025-09-13T16:32:10.000Z</time></trkpt>
        <trkpt lat="29.5243869" lon="103.335804"><ele>3000.75</ele><time>2025-09-13T16:32:18.000Z</time></trkpt>
        <trkpt lat="29.5243426" lon="103.3357789"><ele>3001.44</ele><time>2025-09-13T16:32:24.000Z</time></trkpt>
        <trkpt lat="29.5243133" lon="103.3357394"><ele>3001.83</ele><time>2025-09-13T16:32:30.000Z</time></trkpt>
        <trkpt lat="29.524284" lon="103.3356889"><ele>3002.46</ele><time>2025-09-13T16:32:36.000Z</time></trkpt>
        <trkpt lat="29.5242527" lon="103.3356417"><ele>3003.03</ele><time>2025-09-13T16:32:44.000Z</time></trkpt>
        <trkpt lat="29.5242177" lon="103.3356004"><ele>3002.49</ele><time>2025-09-13T16:32:50.000Z</time></trkpt>
        <trkpt lat="29.5241793" lon="103.3355502"><ele>3001.45</ele><time>2025-09-13T16:32:58.000Z</time></trkpt>
        <trkpt lat="29.5241315" lon="103.3355117"><ele>3000.62</ele><time>2025-09-13T16:33:04.000Z</time></trkpt>
        <trkpt lat="29.5240821" lon="103.3354793"><ele>3000.13</ele><time>2025-09-13T16:33:10.000Z</time></trkpt>
        <trkpt lat="29.52404" lon="103.3354491"><ele>2999.9</ele><time>2025-09-13T16:33:16.000Z</time></trkpt>
        <trkpt lat="29.5239973" lon="103.3354258"><ele>2999.45</ele><time>2025-09-13T16:33:24.000Z</time></trkpt>
        <trkpt lat="29.523961" lon="103.3353779"><ele>2998.56</ele><time>2025-09-13T16:33:30.000Z</time></trkpt>
        <trkpt lat="29.5239326" lon="103.3353162"><ele>2997.35</ele><time>2025-09-13T16:33:36.000Z</time></trkpt>
        <trkpt lat="29.5239294" lon="103.3352471"><ele>2997.09</ele><time>2025-09-13T16:33:42.000Z</time></trkpt>
        <trkpt lat="29.5239195" lon="103.3351788"><ele>2997.07</ele><time>2025-09-13T16:33:48.000Z</time></trkpt>
        <trkpt lat="29.5239247" lon="103.3351127"><ele>2997.93</ele><time>2025-09-13T16:33:54.000Z</time></trkpt>
        <trkpt lat="29.5239414" lon="103.3350724"><ele>2998.7</ele><time>2025-09-13T16:34:02.000Z</time></trkpt>
        <trkpt lat="29.5239931" lon="103.3351478"><ele>3000.08</ele><time>2025-09-13T16:34:07.000Z</time></trkpt>
        <trkpt lat="29.5239854" lon="103.3351435"><ele>2998.97</ele><time>2025-09-13T16:34:13.000Z</time></trkpt>
        <trkpt lat="29.5239566" lon="103.3351344"><ele>2997.88</ele><time>2025-09-13T16:34:15.000Z</time></trkpt>
        <trkpt lat="29.5239287" lon="103.3350865"><ele>2997.45</ele><time>2025-09-13T16:34:21.000Z</time></trkpt>
        <trkpt lat="29.5239129" lon="103.3350076"><ele>2996.77</ele><time>2025-09-13T16:34:27.000Z</time></trkpt>
        <trkpt lat="29.5238914" lon="103.334945"><ele>2996.92</ele><time>2025-09-13T16:34:33.000Z</time></trkpt>
        <trkpt lat="29.5239143" lon="103.3349056"><ele>2996.7</ele><time>2025-09-13T16:34:39.000Z</time></trkpt>
        <trkpt lat="29.5239657" lon="103.3349041"><ele>2995.98</ele><time>2025-09-13T16:34:45.000Z</time></trkpt>
        <trkpt lat="29.5240245" lon="103.3348979"><ele>2994.99</ele><time>2025-09-13T16:34:51.000Z</time></trkpt>
        <trkpt lat="29.5240923" lon="103.3348951"><ele>2996.31</ele><time>2025-09-13T16:34:57.000Z</time></trkpt>
        <trkpt lat="29.5241503" lon="103.3349069"><ele>2996.99</ele><time>2025-09-13T16:35:03.000Z</time></trkpt>
        <trkpt lat="29.5241558" lon="103.3348541"><ele>2997.33</ele><time>2025-09-13T16:35:09.000Z</time></trkpt>
        <trkpt lat="29.524148" lon="103.3347957"><ele>2994.69</ele><time>2025-09-13T16:35:13.000Z</time></trkpt>
        <trkpt lat="29.524148" lon="103.3347957"><ele>2994.69</ele><time>2025-09-13T16:35:27.000Z</time></trkpt>
        <trkpt lat="29.5241288" lon="103.3348162"><ele>2992.84</ele><time>2025-09-13T16:35:31.000Z</time></trkpt>
        <trkpt lat="29.5241288" lon="103.3348162"><ele>2992.84</ele><time>2025-09-13T16:36:10.000Z</time></trkpt>
        <trkpt lat="29.5241494" lon="103.3348641"><ele>2990.92</ele><time>2025-09-13T16:36:16.000Z</time></trkpt>
        <trkpt lat="29.5241857" lon="103.3349144"><ele>2990.24</ele><time>2025-09-13T16:36:20.000Z</time></trkpt>
        <trkpt lat="29.5242334" lon="103.3349495"><ele>2990.21</ele><time>2025-09-13T16:36:26.000Z</time></trkpt>
        <trkpt lat="29.524285" lon="103.3349524"><ele>2991.66</ele><time>2025-09-13T16:36:32.000Z</time></trkpt>
        <trkpt lat="29.5243439" lon="103.3349433"><ele>2992.38</ele><time>2025-09-13T16:36:38.000Z</time></trkpt>
        <trkpt lat="29.5244048" lon="103.3349257"><ele>2992.96</ele><time>2025-09-13T16:36:44.000Z</time></trkpt>
        <trkpt lat="29.5244626" lon="103.3349054"><ele>2993.26</ele><time>2025-09-13T16:36:50.000Z</time></trkpt>
        <trkpt lat="29.5245215" lon="103.3348805"><ele>2994.22</ele><time>2025-09-13T16:36:56.000Z</time></trkpt>
        <trkpt lat="29.5245669" lon="103.3348405"><ele>2994.77</ele><time>2025-09-13T16:37:02.000Z</time></trkpt>
        <trkpt lat="29.5246206" lon="103.3348096"><ele>2994.3</ele><time>2025-09-13T16:37:08.000Z</time></trkpt>
        <trkpt lat="29.5246719" lon="103.3347861"><ele>2993.32</ele><time>2025-09-13T16:37:14.000Z</time></trkpt>
        <trkpt lat="29.524721" lon="103.3347719"><ele>2993.35</ele><time>2025-09-13T16:37:20.000Z</time></trkpt>
        <trkpt lat="29.5247652" lon="103.3347893"><ele>2993.36</ele><time>2025-09-13T16:37:28.000Z</time></trkpt>
        <trkpt lat="29.5248183" lon="103.3348042"><ele>2990.97</ele><time>2025-09-13T16:37:34.000Z</time></trkpt>
        <trkpt lat="29.5248676" lon="103.3348328"><ele>2990.04</ele><time>2025-09-13T16:37:42.000Z</time></trkpt>
        <trkpt lat="29.5249214" lon="103.3348426"><ele>2989.29</ele><time>2025-09-13T16:37:50.000Z</time></trkpt>
        <trkpt lat="29.5249768" lon="103.3348378"><ele>2988.74</ele><time>2025-09-13T16:37:58.000Z</time></trkpt>
        <trkpt lat="29.5250246" lon="103.3348307"><ele>2988.23</ele><time>2025-09-13T16:38:04.000Z</time></trkpt>
        <trkpt lat="29.5250739" lon="103.3348016"><ele>2986.75</ele><time>2025-09-13T16:38:14.000Z</time></trkpt>
        <trkpt lat="29.5251104" lon="103.3347596"><ele>2984.87</ele><time>2025-09-13T16:38:20.000Z</time></trkpt>
        <trkpt lat="29.5251504" lon="103.3347195"><ele>2984.61</ele><time>2025-09-13T16:38:28.000Z</time></trkpt>
        <trkpt lat="29.5251908" lon="103.3346807"><ele>2984.23</ele><time>2025-09-13T16:38:38.000Z</time></trkpt>
        <trkpt lat="29.5252325" lon="103.3346572"><ele>2983.13</ele><time>2025-09-13T16:38:46.000Z</time></trkpt>
        <trkpt lat="29.5252761" lon="103.3346348"><ele>2983.99</ele><time>2025-09-13T16:38:54.000Z</time></trkpt>
        <trkpt lat="29.5253199" lon="103.3345942"><ele>2984.25</ele><time>2025-09-13T16:39:04.000Z</time></trkpt>
        <trkpt lat="29.5253475" lon="103.3345464"><ele>2984.52</ele><time>2025-09-13T16:39:18.000Z</time></trkpt>
        <trkpt lat="29.5253817" lon="103.3344982"><ele>2983.27</ele><time>2025-09-13T16:39:28.000Z</time></trkpt>
        <trkpt lat="29.5254138" lon="103.334452"><ele>2982.62</ele><time>2025-09-13T16:39:34.000Z</time></trkpt>
        <trkpt lat="29.5254571" lon="103.3344291"><ele>2982.33</ele><time>2025-09-13T16:39:44.000Z</time></trkpt>
        <trkpt lat="29.5254997" lon="103.3344013"><ele>2980.31</ele><time>2025-09-13T16:39:58.000Z</time></trkpt>
        <trkpt lat="29.5255329" lon="103.3343623"><ele>2976.33</ele><time>2025-09-13T16:40:06.000Z</time></trkpt>
        <trkpt lat="29.5255643" lon="103.3343126"><ele>2973.55</ele><time>2025-09-13T16:40:12.000Z</time></trkpt>
        <trkpt lat="29.5255926" lon="103.3342589"><ele>2971.84</ele><time>2025-09-13T16:40:18.000Z</time></trkpt>
        <trkpt lat="29.5256202" lon="103.334209"><ele>2971.11</ele><time>2025-09-13T16:40:26.000Z</time></trkpt>
        <trkpt lat="29.5256558" lon="103.3341602"><ele>2970.25</ele><time>2025-09-13T16:40:36.000Z</time></trkpt>
        <trkpt lat="29.52569" lon="103.3341177"><ele>2968.68</ele><time>2025-09-13T16:40:44.000Z</time></trkpt>
        <trkpt lat="29.52573" lon="103.3340855"><ele>2967.06</ele><time>2025-09-13T16:40:52.000Z</time></trkpt>
        <trkpt lat="29.5257792" lon="103.3340506"><ele>2965.26</ele><time>2025-09-13T16:41:00.000Z</time></trkpt>
        <trkpt lat="29.5258239" lon="103.3340154"><ele>2963.48</ele><time>2025-09-13T16:41:06.000Z</time></trkpt>
        <trkpt lat="29.5258672" lon="103.3339884"><ele>2962.62</ele><time>2025-09-13T16:41:14.000Z</time></trkpt>
        <trkpt lat="29.5259097" lon="103.3339584"><ele>2963.28</ele><time>2025-09-13T16:41:22.000Z</time></trkpt>
        <trkpt lat="29.5259584" lon="103.3339403"><ele>2963.63</ele><time>2025-09-13T16:41:28.000Z</time></trkpt>
        <trkpt lat="29.5260119" lon="103.3339182"><ele>2963.61</ele><time>2025-09-13T16:41:40.000Z</time></trkpt>
        <trkpt lat="29.5260557" lon="103.3338821"><ele>2963.55</ele><time>2025-09-13T16:41:56.000Z</time></trkpt>
        <trkpt lat="29.5260994" lon="103.3338479"><ele>2963.01</ele><time>2025-09-13T16:42:10.000Z</time></trkpt>
        <trkpt lat="29.5261418" lon="103.3338237"><ele>2962</ele><time>2025-09-13T16:42:18.000Z</time></trkpt>
        <trkpt lat="29.5261952" lon="103.333812"><ele>2961.25</ele><time>2025-09-13T16:42:28.000Z</time></trkpt>
        <trkpt lat="29.526247" lon="103.3337967"><ele>2957.71</ele><time>2025-09-13T16:42:32.000Z</time></trkpt>
        <trkpt lat="29.5263075" lon="103.3337939"><ele>2955.33</ele><time>2025-09-13T16:42:38.000Z</time></trkpt>
        <trkpt lat="29.5263382" lon="103.3337434"><ele>2954.82</ele><time>2025-09-13T16:42:46.000Z</time></trkpt>
        <trkpt lat="29.5263702" lon="103.3336906"><ele>2954.46</ele><time>2025-09-13T16:42:56.000Z</time></trkpt>
        <trkpt lat="29.5264106" lon="103.3336608"><ele>2953.56</ele><time>2025-09-13T16:43:00.000Z</time></trkpt>
        <trkpt lat="29.5264696" lon="103.3336332"><ele>2953.27</ele><time>2025-09-13T16:43:06.000Z</time></trkpt>
        <trkpt lat="29.5265273" lon="103.3336049"><ele>2953.52</ele><time>2025-09-13T16:43:12.000Z</time></trkpt>
        <trkpt lat="29.5265741" lon="103.3335836"><ele>2952.78</ele><time>2025-09-13T16:43:18.000Z</time></trkpt>
        <trkpt lat="29.5266134" lon="103.3335514"><ele>2952.35</ele><time>2025-09-13T16:43:22.000Z</time></trkpt>
        <trkpt lat="29.5266581" lon="103.3335291"><ele>2950.75</ele><time>2025-09-13T16:43:26.000Z</time></trkpt>
        <trkpt lat="29.5267058" lon="103.333526"><ele>2949.16</ele><time>2025-09-13T16:43:32.000Z</time></trkpt>
        <trkpt lat="29.5267532" lon="103.3335121"><ele>2947.21</ele><time>2025-09-13T16:43:40.000Z</time></trkpt>
        <trkpt lat="29.5267942" lon="103.3334795"><ele>2945.15</ele><time>2025-09-13T16:43:54.000Z</time></trkpt>
        <trkpt lat="29.5268409" lon="103.33347"><ele>2943.2</ele><time>2025-09-13T16:44:04.000Z</time></trkpt>
        <trkpt lat="29.526897" lon="103.3334715"><ele>2941.38</ele><time>2025-09-13T16:44:14.000Z</time></trkpt>
        <trkpt lat="29.5269542" lon="103.3334679"><ele>2938.78</ele><time>2025-09-13T16:44:24.000Z</time></trkpt>
        <trkpt lat="29.5270153" lon="103.3334469"><ele>2936.49</ele><time>2025-09-13T16:44:32.000Z</time></trkpt>
        <trkpt lat="29.5270576" lon="103.3334092"><ele>2933.85</ele><time>2025-09-13T16:44:38.000Z</time></trkpt>
        <trkpt lat="29.527104" lon="103.333368"><ele>2930.57</ele><time>2025-09-13T16:44:44.000Z</time></trkpt>
        <trkpt lat="29.5271308" lon="103.3333162"><ele>2928.61</ele><time>2025-09-13T16:44:50.000Z</time></trkpt>
        <trkpt lat="29.5271427" lon="103.3332621"><ele>2928.06</ele><time>2025-09-13T16:44:56.000Z</time></trkpt>
        <trkpt lat="29.5271482" lon="103.3332033"><ele>2928.11</ele><time>2025-09-13T16:45:02.000Z</time></trkpt>
        <trkpt lat="29.5271277" lon="103.3331524"><ele>2928.17</ele><time>2025-09-13T16:45:06.000Z</time></trkpt>
        <trkpt lat="29.5270907" lon="103.3331043"><ele>2927.93</ele><time>2025-09-13T16:45:12.000Z</time></trkpt>
        <trkpt lat="29.527052" lon="103.3330468"><ele>2927.35</ele><time>2025-09-13T16:45:20.000Z</time></trkpt>
        <trkpt lat="29.5270177" lon="103.3329894"><ele>2926.67</ele><time>2025-09-13T16:45:26.000Z</time></trkpt>
        <trkpt lat="29.5270007" lon="103.3329274"><ele>2925.73</ele><time>2025-09-13T16:45:32.000Z</time></trkpt>
        <trkpt lat="29.5269988" lon="103.3328722"><ele>2924.35</ele><time>2025-09-13T16:45:38.000Z</time></trkpt>
        <trkpt lat="29.527017" lon="103.3328101"><ele>2923.98</ele><time>2025-09-13T16:45:44.000Z</time></trkpt>
        <trkpt lat="29.5270303" lon="103.3327552"><ele>2923.74</ele><time>2025-09-13T16:45:50.000Z</time></trkpt>
        <trkpt lat="29.5270371" lon="103.3327029"><ele>2924.29</ele><time>2025-09-13T16:45:56.000Z</time></trkpt>
        <trkpt lat="29.5270366" lon="103.3326503"><ele>2923.31</ele><time>2025-09-13T16:46:02.000Z</time></trkpt>
        <trkpt lat="29.5270254" lon="103.3325897"><ele>2923</ele><time>2025-09-13T16:46:10.000Z</time></trkpt>
        <trkpt lat="29.5270096" lon="103.3325304"><ele>2922.71</ele><time>2025-09-13T16:46:16.000Z</time></trkpt>
        <trkpt lat="29.5270188" lon="103.332473"><ele>2922.65</ele><time>2025-09-13T16:46:22.000Z</time></trkpt>
        <trkpt lat="29.5270325" lon="103.3324147"><ele>2922.25</ele><time>2025-09-13T16:46:30.000Z</time></trkpt>
        <trkpt lat="29.5270507" lon="103.3323627"><ele>2920.49</ele><time>2025-09-13T16:46:48.000Z</time></trkpt>
        <trkpt lat="29.5270507" lon="103.3323627"><ele>2920.49</ele><time>2025-09-13T16:46:51.000Z</time></trkpt>
        <trkpt lat="29.5270765" lon="103.3323157"><ele>2919.24</ele><time>2025-09-13T16:46:55.000Z</time></trkpt>
        <trkpt lat="29.5270765" lon="103.3323157"><ele>2919.24</ele><time>2025-09-13T16:47:40.000Z</time></trkpt>
        <trkpt lat="29.5270999" lon="103.3322581"><ele>2918.57</ele><time>2025-09-13T16:47:46.000Z</time></trkpt>
        <trkpt lat="29.5271452" lon="103.3322439"><ele>2918.53</ele><time>2025-09-13T16:47:54.000Z</time></trkpt>
        <trkpt lat="29.5271836" lon="103.3322903"><ele>2918.38</ele><time>2025-09-13T16:48:00.000Z</time></trkpt>
        <trkpt lat="29.5272085" lon="103.3323485"><ele>2915.99</ele><time>2025-09-13T16:48:04.000Z</time></trkpt>
        <trkpt lat="29.5272416" lon="103.3323954"><ele>2914.18</ele><time>2025-09-13T16:48:08.000Z</time></trkpt>
        <trkpt lat="29.5272836" lon="103.3324494"><ele>2912.1</ele><time>2025-09-13T16:48:14.000Z</time></trkpt>
        <trkpt lat="29.5273244" lon="103.3324965"><ele>2911.83</ele><time>2025-09-13T16:48:18.000Z</time></trkpt>
        <trkpt lat="29.5273632" lon="103.3325338"><ele>2911.41</ele><time>2025-09-13T16:48:22.000Z</time></trkpt>
        <trkpt lat="29.5274133" lon="103.3325331"><ele>2911.51</ele><time>2025-09-13T16:48:26.000Z</time></trkpt>
        <trkpt lat="29.527451" lon="103.3324964"><ele>2911.27</ele><time>2025-09-13T16:48:32.000Z</time></trkpt>
        <trkpt lat="29.5274925" lon="103.3324626"><ele>2911.07</ele><time>2025-09-13T16:48:36.000Z</time></trkpt>
        <trkpt lat="29.5275263" lon="103.3324195"><ele>2911.68</ele><time>2025-09-13T16:48:40.000Z</time></trkpt>
        <trkpt lat="29.52757" lon="103.3323653"><ele>2911.63</ele><time>2025-09-13T16:48:46.000Z</time></trkpt>
        <trkpt lat="29.5276068" lon="103.3323165"><ele>2911.93</ele><time>2025-09-13T16:48:50.000Z</time></trkpt>
        <trkpt lat="29.5275915" lon="103.332264"><ele>2911.6</ele><time>2025-09-13T16:48:58.000Z</time></trkpt>
        <trkpt lat="29.5275609" lon="103.3322186"><ele>2909.73</ele><time>2025-09-13T16:49:06.000Z</time></trkpt>
        <trkpt lat="29.5275336" lon="103.3321653"><ele>2909.17</ele><time>2025-09-13T16:49:12.000Z</time></trkpt>
        <trkpt lat="29.5275387" lon="103.3321158"><ele>2909.33</ele><time>2025-09-13T16:49:18.000Z</time></trkpt>
        <trkpt lat="29.5275685" lon="103.3320776"><ele>2907.39</ele><time>2025-09-13T16:49:24.000Z</time></trkpt>
        <trkpt lat="29.527615" lon="103.3320409"><ele>2904.11</ele><time>2025-09-13T16:49:34.000Z</time></trkpt>
        <trkpt lat="29.5276615" lon="103.3320003"><ele>2902.42</ele><time>2025-09-13T16:49:40.000Z</time></trkpt>
        <trkpt lat="29.5276878" lon="103.3319436"><ele>2901.68</ele><time>2025-09-13T16:49:48.000Z</time></trkpt>
        <trkpt lat="29.52768" lon="103.3318836"><ele>2901.89</ele><time>2025-09-13T16:49:54.000Z</time></trkpt>
        <trkpt lat="29.5276669" lon="103.331813"><ele>2902.47</ele><time>2025-09-13T16:50:04.000Z</time></trkpt>
        <trkpt lat="29.5276564" lon="103.3317531"><ele>2901.3</ele><time>2025-09-13T16:50:08.000Z</time></trkpt>
        <trkpt lat="29.5276519" lon="103.3316817"><ele>2899.32</ele><time>2025-09-13T16:50:14.000Z</time></trkpt>
        <trkpt lat="29.5276604" lon="103.3316231"><ele>2898.07</ele><time>2025-09-13T16:50:18.000Z</time></trkpt>
        <trkpt lat="29.5277004" lon="103.3315682"><ele>2897.71</ele><time>2025-09-13T16:50:22.000Z</time></trkpt>
        <trkpt lat="29.5277508" lon="103.3315167"><ele>2897.9</ele><time>2025-09-13T16:50:26.000Z</time></trkpt>
        <trkpt lat="29.5277992" lon="103.3314661"><ele>2897.06</ele><time>2025-09-13T16:50:30.000Z</time></trkpt>
        <trkpt lat="29.5278228" lon="103.3314152"><ele>2896.89</ele><time>2025-09-13T16:50:34.000Z</time></trkpt>
        <trkpt lat="29.5278544" lon="103.331377"><ele>2896.08</ele><time>2025-09-13T16:50:38.000Z</time></trkpt>
        <trkpt lat="29.5278914" lon="103.3313407"><ele>2895.23</ele><time>2025-09-13T16:50:44.000Z</time></trkpt>
        <trkpt lat="29.5279309" lon="103.3312885"><ele>2893.3</ele><time>2025-09-13T16:50:52.000Z</time></trkpt>
        <trkpt lat="29.5279675" lon="103.3312393"><ele>2892.06</ele><time>2025-09-13T16:50:58.000Z</time></trkpt>
        <trkpt lat="29.5280098" lon="103.3311939"><ele>2890.26</ele><time>2025-09-13T16:51:04.000Z</time></trkpt>
        <trkpt lat="29.5280449" lon="103.3311461"><ele>2888.28</ele><time>2025-09-13T16:51:10.000Z</time></trkpt>
        <trkpt lat="29.5280651" lon="103.3310971"><ele>2887</ele><time>2025-09-13T16:51:16.000Z</time></trkpt>
        <trkpt lat="29.5280851" lon="103.3310417"><ele>2885.36</ele><time>2025-09-13T16:51:22.000Z</time></trkpt>
        <trkpt lat="29.5281045" lon="103.3309809"><ele>2884.95</ele><time>2025-09-13T16:51:28.000Z</time></trkpt>
        <trkpt lat="29.5281236" lon="103.3309232"><ele>2885.49</ele><time>2025-09-13T16:51:34.000Z</time></trkpt>
        <trkpt lat="29.5281305" lon="103.3308652"><ele>2885.4</ele><time>2025-09-13T16:51:40.000Z</time></trkpt>
        <trkpt lat="29.5281381" lon="103.3308059"><ele>2883.84</ele><time>2025-09-13T16:51:46.000Z</time></trkpt>
        <trkpt lat="29.5281654" lon="103.330762"><ele>2881.47</ele><time>2025-09-13T16:51:52.000Z</time></trkpt>
        <trkpt lat="29.528206" lon="103.3307199"><ele>2878.77</ele><time>2025-09-13T16:51:58.000Z</time></trkpt>
        <trkpt lat="29.5282532" lon="103.3306758"><ele>2877.01</ele><time>2025-09-13T16:52:04.000Z</time></trkpt>
        <trkpt lat="29.5282928" lon="103.3306371"><ele>2875.93</ele><time>2025-09-13T16:52:12.000Z</time></trkpt>
        <trkpt lat="29.5283316" lon="103.3305902"><ele>2875.19</ele><time>2025-09-13T16:52:20.000Z</time></trkpt>
        <trkpt lat="29.5283648" lon="103.3305496"><ele>2874.58</ele><time>2025-09-13T16:52:26.000Z</time></trkpt>
        <trkpt lat="29.5283628" lon="103.3304984"><ele>2874.35</ele><time>2025-09-13T16:52:34.000Z</time></trkpt>
        <trkpt lat="29.5283486" lon="103.3304468"><ele>2873.86</ele><time>2025-09-13T16:52:40.000Z</time></trkpt>
        <trkpt lat="29.5283211" lon="103.3303929"><ele>2874.29</ele><time>2025-09-13T16:52:50.000Z</time></trkpt>
        <trkpt lat="29.5283074" lon="103.3303367"><ele>2872.93</ele><time>2025-09-13T16:52:56.000Z</time></trkpt>
        <trkpt lat="29.5282961" lon="103.3302725"><ele>2871.58</ele><time>2025-09-13T16:53:04.000Z</time></trkpt>
        <trkpt lat="29.5282458" lon="103.3302545"><ele>2869.78</ele><time>2025-09-13T16:53:10.000Z</time></trkpt>
        <trkpt lat="29.5281916" lon="103.3302593"><ele>2866.7</ele><time>2025-09-13T16:53:16.000Z</time></trkpt>
        <trkpt lat="29.5281532" lon="103.3302981"><ele>2864.91</ele><time>2025-09-13T16:53:22.000Z</time></trkpt>
        <trkpt lat="29.5281532" lon="103.3302981"><ele>2864.91</ele><time>2025-09-13T16:53:37.000Z</time></trkpt>
        <trkpt lat="29.5281532" lon="103.3302981"><ele>2864.91</ele><time>2025-09-13T16:53:41.000Z</time></trkpt>
        <trkpt lat="29.5281532" lon="103.3302981"><ele>2864.91</ele><time>2025-09-13T16:54:07.000Z</time></trkpt>
        <trkpt lat="29.5281532" lon="103.3302981"><ele>2864.91</ele><time>2025-09-13T16:54:11.000Z</time></trkpt>
        <trkpt lat="29.5281532" lon="103.3302981"><ele>2864.91</ele><time>2025-09-13T16:54:49.000Z</time></trkpt>
        <trkpt lat="29.528274" lon="103.3303298"><ele>2863.72</ele><time>2025-09-13T16:54:53.000Z</time></trkpt>
        <trkpt lat="29.528274" lon="103.3303298"><ele>2863.72</ele><time>2025-09-13T16:55:20.000Z</time></trkpt>
        <trkpt lat="29.5283163" lon="103.3303504"><ele>2863.29</ele><time>2025-09-13T16:55:24.000Z</time></trkpt>
        <trkpt lat="29.5283351" lon="103.3302965"><ele>2863.67</ele><time>2025-09-13T16:55:28.000Z</time></trkpt>
        <trkpt lat="29.5283604" lon="103.3302211"><ele>2865.17</ele><time>2025-09-13T16:55:32.000Z</time></trkpt>
        <trkpt lat="29.5283995" lon="103.3301838"><ele>2863.29</ele><time>2025-09-13T16:55:36.000Z</time></trkpt>
        <trkpt lat="29.528445" lon="103.3301546"><ele>2861.64</ele><time>2025-09-13T16:55:40.000Z</time></trkpt>
        <trkpt lat="29.5284649" lon="103.3301102"><ele>2860.2</ele><time>2025-09-13T16:55:44.000Z</time></trkpt>
        <trkpt lat="29.5284828" lon="103.3300609"><ele>2859.11</ele><time>2025-09-13T16:55:48.000Z</time></trkpt>
        <trkpt lat="29.5284892" lon="103.3300495"><ele>2858.8</ele><time>2025-09-13T16:55:52.000Z</time></trkpt>
        <trkpt lat="29.5285207" lon="103.3300733"><ele>2858.96</ele><time>2025-09-13T16:56:08.000Z</time></trkpt>
        <trkpt lat="29.5285207" lon="103.3300733"><ele>2858.96</ele><time>2025-09-13T16:56:23.000Z</time></trkpt>
        <trkpt lat="29.5284632" lon="103.3300486"><ele>2858.68</ele><time>2025-09-13T16:56:27.000Z</time></trkpt>
        <trkpt lat="29.5284632" lon="103.3300486"><ele>2858.68</ele><time>2025-09-13T16:57:17.000Z</time></trkpt>
        <trkpt lat="29.5284632" lon="103.3300486"><ele>2858.68</ele><time>2025-09-13T16:57:47.000Z</time></trkpt>
        <trkpt lat="29.5284632" lon="103.3300486"><ele>2858.68</ele><time>2025-09-13T17:46:43.000Z</time></trkpt>
        <trkpt lat="29.5284632" lon="103.3300486"><ele>2858.68</ele><time>2025-09-13T17:46:49.000Z</time></trkpt>
        <trkpt lat="29.5284632" lon="103.3300486"><ele>2858.68</ele><time>2025-09-13T17:46:55.000Z</time></trkpt>
        <trkpt lat="29.5284632" lon="103.3300486"><ele>2858.68</ele><time>2025-09-13T17:47:29.000Z</time></trkpt>
        <trkpt lat="29.5348336" lon="103.3329054"><ele>2858.74</ele><time>2025-09-13T17:47:35.000Z</time></trkpt>
        <trkpt lat="29.5348336" lon="103.3329054"><ele>2858.74</ele><time>2025-09-13T17:50:48.000Z</time></trkpt>
        <trkpt lat="29.5348679" lon="103.3328636"><ele>2702.09</ele><time>2025-09-13T17:50:56.000Z</time></trkpt>
        <trkpt lat="29.5349216" lon="103.3328456"><ele>2612.6</ele><time>2025-09-13T17:51:04.000Z</time></trkpt>
        <trkpt lat="29.5349767" lon="103.332839"><ele>2561.37</ele><time>2025-09-13T17:51:10.000Z</time></trkpt>
        <trkpt lat="29.5350183" lon="103.3328676"><ele>2532.11</ele><time>2025-09-13T17:51:16.000Z</time></trkpt>
        <trkpt lat="29.5350549" lon="103.3329039"><ele>2515.88</ele><time>2025-09-13T17:51:28.000Z</time></trkpt>
        <trkpt lat="29.5350844" lon="103.3329499"><ele>2506.62</ele><time>2025-09-13T17:51:42.000Z</time></trkpt>
        <trkpt lat="29.5351126" lon="103.333003"><ele>2501.27</ele><time>2025-09-13T17:51:50.000Z</time></trkpt>
        <trkpt lat="29.5351391" lon="103.3330593"><ele>2498</ele><time>2025-09-13T17:52:00.000Z</time></trkpt>
        <trkpt lat="29.5351647" lon="103.3331112"><ele>2494.93</ele><time>2025-09-13T17:52:06.000Z</time></trkpt>
        <trkpt lat="29.5351896" lon="103.3331619"><ele>2493.83</ele><time>2025-09-13T17:52:12.000Z</time></trkpt>
        <trkpt lat="29.5352074" lon="103.3332207"><ele>2493.48</ele><time>2025-09-13T17:52:20.000Z</time></trkpt>
        <trkpt lat="29.5352251" lon="103.3332811"><ele>2493.11</ele><time>2025-09-13T17:52:28.000Z</time></trkpt>
        <trkpt lat="29.5352395" lon="103.3333397"><ele>2492.88</ele><time>2025-09-13T17:52:36.000Z</time></trkpt>
        <trkpt lat="29.5352508" lon="103.3333934"><ele>2492.51</ele><time>2025-09-13T17:52:46.000Z</time></trkpt>
        <trkpt lat="29.5352698" lon="103.3334437"><ele>2491.47</ele><time>2025-09-13T17:52:54.000Z</time></trkpt>
        <trkpt lat="29.5352949" lon="103.3335028"><ele>2490.86</ele><time>2025-09-13T17:53:00.000Z</time></trkpt>
        <trkpt lat="29.5353228" lon="103.3335608"><ele>2490.8</ele><time>2025-09-13T17:53:06.000Z</time></trkpt>
        <trkpt lat="29.5353557" lon="103.3336114"><ele>2490.32</ele><time>2025-09-13T17:53:16.000Z</time></trkpt>
        <trkpt lat="29.535393" lon="103.333601"><ele>2490.28</ele><time>2025-09-13T17:53:24.000Z</time></trkpt>
        <trkpt lat="29.5354199" lon="103.3336345"><ele>2487.27</ele><time>2025-09-13T17:53:34.000Z</time></trkpt>
        <trkpt lat="29.5354445" lon="103.3336779"><ele>2482.9</ele><time>2025-09-13T17:53:40.000Z</time></trkpt>
        <trkpt lat="29.5354763" lon="103.3337251"><ele>2478.98</ele><time>2025-09-13T17:53:46.000Z</time></trkpt>
        <trkpt lat="29.5355235" lon="103.333766"><ele>2475.81</ele><time>2025-09-13T17:53:52.000Z</time></trkpt>
        <trkpt lat="29.5355373" lon="103.3338187"><ele>2473.97</ele><time>2025-09-13T17:54:02.000Z</time></trkpt>
        <trkpt lat="29.5355563" lon="103.3338679"><ele>2473.66</ele><time>2025-09-13T17:54:12.000Z</time></trkpt>
        <trkpt lat="29.535576" lon="103.3339262"><ele>2473.03</ele><time>2025-09-13T17:54:20.000Z</time></trkpt>
        <trkpt lat="29.5356045" lon="103.3339854"><ele>2473.04</ele><time>2025-09-13T17:54:30.000Z</time></trkpt>
        <trkpt lat="29.5356349" lon="103.3340373"><ele>2472.98</ele><time>2025-09-13T17:54:38.000Z</time></trkpt>
        <trkpt lat="29.5356666" lon="103.3340792"><ele>2473.26</ele><time>2025-09-13T17:54:48.000Z</time></trkpt>
        <trkpt lat="29.5357082" lon="103.3341176"><ele>2472.22</ele><time>2025-09-13T17:54:56.000Z</time></trkpt>
        <trkpt lat="29.5357571" lon="103.3341377"><ele>2471.6</ele><time>2025-09-13T17:55:06.000Z</time></trkpt>
        <trkpt lat="29.5358109" lon="103.3341216"><ele>2470.32</ele><time>2025-09-13T17:55:12.000Z</time></trkpt>
        <trkpt lat="29.5358521" lon="103.3341368"><ele>2468.98</ele><time>2025-09-13T17:55:22.000Z</time></trkpt>
        <trkpt lat="29.5358941" lon="103.3341677"><ele>2468.89</ele><time>2025-09-13T17:55:32.000Z</time></trkpt>
        <trkpt lat="29.5359366" lon="103.3341989"><ele>2468.92</ele><time>2025-09-13T17:55:38.000Z</time></trkpt>
        <trkpt lat="29.5359922" lon="103.334216"><ele>2468.59</ele><time>2025-09-13T17:56:00.000Z</time></trkpt>
        <trkpt lat="29.5360417" lon="103.3342337"><ele>2466.21</ele><time>2025-09-13T17:56:08.000Z</time></trkpt>
        <trkpt lat="29.5360836" lon="103.3342583"><ele>2465.14</ele><time>2025-09-13T17:56:14.000Z</time></trkpt>
        <trkpt lat="29.536121" lon="103.3342877"><ele>2464.41</ele><time>2025-09-13T17:56:22.000Z</time></trkpt>
        <trkpt lat="29.5361609" lon="103.3343101"><ele>2463.9</ele><time>2025-09-13T17:56:34.000Z</time></trkpt>
        <trkpt lat="29.5362014" lon="103.3343341"><ele>2462.63</ele><time>2025-09-13T17:56:42.000Z</time></trkpt>
        <trkpt lat="29.53625" lon="103.3343535"><ele>2461.77</ele><time>2025-09-13T17:56:48.000Z</time></trkpt>
        <trkpt lat="29.5362974" lon="103.3343729"><ele>2461.07</ele><time>2025-09-13T17:56:54.000Z</time></trkpt>
        <trkpt lat="29.5363439" lon="103.3343798"><ele>2459.9</ele><time>2025-09-13T17:57:02.000Z</time></trkpt>
        <trkpt lat="29.5363926" lon="103.3343796"><ele>2459.25</ele><time>2025-09-13T17:57:12.000Z</time></trkpt>
        <trkpt lat="29.5364438" lon="103.33437"><ele>2458.67</ele><time>2025-09-13T17:57:20.000Z</time></trkpt>
        <trkpt lat="29.5364881" lon="103.3343471"><ele>2457.64</ele><time>2025-09-13T17:57:26.000Z</time></trkpt>
        <trkpt lat="29.5365354" lon="103.3343268"><ele>2456.12</ele><time>2025-09-13T17:57:36.000Z</time></trkpt>
        <trkpt lat="29.536579" lon="103.334338"><ele>2453.86</ele><time>2025-09-13T17:57:48.000Z</time></trkpt>
        <trkpt lat="29.536579" lon="103.334338"><ele>2453.86</ele><time>2025-09-13T17:58:07.000Z</time></trkpt>
        <trkpt lat="29.5365955" lon="103.3343055"><ele>2451.88</ele><time>2025-09-13T17:58:11.000Z</time></trkpt>
        <trkpt lat="29.5365955" lon="103.3343055"><ele>2451.88</ele><time>2025-09-13T17:58:18.000Z</time></trkpt>
        <trkpt lat="29.5365942" lon="103.3342871"><ele>2450.92</ele><time>2025-09-13T17:58:20.000Z</time></trkpt>
        <trkpt lat="29.536615" lon="103.3342558"><ele>2450.27</ele><time>2025-09-13T17:58:40.000Z</time></trkpt>
        <trkpt lat="29.536661" lon="103.3342837"><ele>2448.35</ele><time>2025-09-13T17:58:48.000Z</time></trkpt>
        <trkpt lat="29.5366785" lon="103.3343105"><ele>2447.87</ele><time>2025-09-13T17:58:50.000Z</time></trkpt>
        <trkpt lat="29.536711" lon="103.3342954"><ele>2447.58</ele><time>2025-09-13T17:59:00.000Z</time></trkpt>
        <trkpt lat="29.5367552" lon="103.3342909"><ele>2446.85</ele><time>2025-09-13T17:59:04.000Z</time></trkpt>
        <trkpt lat="29.5368154" lon="103.3342857"><ele>2446.59</ele><time>2025-09-13T17:59:10.000Z</time></trkpt>
        <trkpt lat="29.5368737" lon="103.3342724"><ele>2446.49</ele><time>2025-09-13T17:59:14.000Z</time></trkpt>
        <trkpt lat="29.5369315" lon="103.3342461"><ele>2446.54</ele><time>2025-09-13T17:59:20.000Z</time></trkpt>
        <trkpt lat="29.536985" lon="103.3342224"><ele>2446.63</ele><time>2025-09-13T17:59:28.000Z</time></trkpt>
        <trkpt lat="29.537034" lon="103.3341913"><ele>2446.1</ele><time>2025-09-13T17:59:36.000Z</time></trkpt>
        <trkpt lat="29.5370817" lon="103.3341735"><ele>2445.31</ele><time>2025-09-13T17:59:46.000Z</time></trkpt>
        <trkpt lat="29.5371285" lon="103.3341542"><ele>2443.97</ele><time>2025-09-13T17:59:56.000Z</time></trkpt>
        <trkpt lat="29.5371705" lon="103.3341284"><ele>2442.56</ele><time>2025-09-13T18:00:04.000Z</time></trkpt>
        <trkpt lat="29.5372148" lon="103.3340967"><ele>2441.4</ele><time>2025-09-13T18:00:12.000Z</time></trkpt>
        <trkpt lat="29.5372502" lon="103.334058"><ele>2439.9</ele><time>2025-09-13T18:00:20.000Z</time></trkpt>
        <trkpt lat="29.5372612" lon="103.3340074"><ele>2438.23</ele><time>2025-09-13T18:00:26.000Z</time></trkpt>
        <trkpt lat="29.5372776" lon="103.3339452"><ele>2437.21</ele><time>2025-09-13T18:00:38.000Z</time></trkpt>
        <trkpt lat="29.537295" lon="103.3338917"><ele>2435.96</ele><time>2025-09-13T18:00:46.000Z</time></trkpt>
        <trkpt lat="29.5373077" lon="103.3338334"><ele>2434.68</ele><time>2025-09-13T18:00:54.000Z</time></trkpt>
        <trkpt lat="29.5373313" lon="103.3337799"><ele>2434.65</ele><time>2025-09-13T18:01:02.000Z</time></trkpt>
        <trkpt lat="29.5373664" lon="103.3337453"><ele>2433.99</ele><time>2025-09-13T18:01:10.000Z</time></trkpt>
        <trkpt lat="29.5374076" lon="103.333708"><ele>2431.59</ele><time>2025-09-13T18:01:18.000Z</time></trkpt>
        <trkpt lat="29.5374628" lon="103.3337042"><ele>2431.68</ele><time>2025-09-13T18:01:26.000Z</time></trkpt>
        <trkpt lat="29.5375162" lon="103.3337206"><ele>2430.75</ele><time>2025-09-13T18:01:32.000Z</time></trkpt>
        <trkpt lat="29.5375738" lon="103.3337413"><ele>2429.43</ele><time>2025-09-13T18:01:40.000Z</time></trkpt>
        <trkpt lat="29.5376299" lon="103.3337507"><ele>2427.78</ele><time>2025-09-13T18:01:48.000Z</time></trkpt>
        <trkpt lat="29.5376808" lon="103.3337359"><ele>2426.45</ele><time>2025-09-13T18:01:56.000Z</time></trkpt>
        <trkpt lat="29.5377207" lon="103.3337031"><ele>2425.74</ele><time>2025-09-13T18:02:02.000Z</time></trkpt>
        <trkpt lat="29.537756" lon="103.3336586"><ele>2425.44</ele><time>2025-09-13T18:02:10.000Z</time></trkpt>
        <trkpt lat="29.5377934" lon="103.3336106"><ele>2424.61</ele><time>2025-09-13T18:02:18.000Z</time></trkpt>
        <trkpt lat="29.5378287" lon="103.3335671"><ele>2422.98</ele><time>2025-09-13T18:02:24.000Z</time></trkpt>
        <trkpt lat="29.5378685" lon="103.3335351"><ele>2421.46</ele><time>2025-09-13T18:02:30.000Z</time></trkpt>
        <trkpt lat="29.537915" lon="103.333524"><ele>2421.08</ele><time>2025-09-13T18:02:38.000Z</time></trkpt>
        <trkpt lat="29.5379593" lon="103.3334981"><ele>2420.62</ele><time>2025-09-13T18:02:50.000Z</time></trkpt>
        <trkpt lat="29.5380066" lon="103.3334708"><ele>2421.41</ele><time>2025-09-13T18:02:58.000Z</time></trkpt>
        <trkpt lat="29.5380482" lon="103.3334399"><ele>2421.47</ele><time>2025-09-13T18:03:04.000Z</time></trkpt>
        <trkpt lat="29.5380931" lon="103.3334144"><ele>2421.39</ele><time>2025-09-13T18:03:10.000Z</time></trkpt>
        <trkpt lat="29.5381425" lon="103.3333783"><ele>2421.02</ele><time>2025-09-13T18:03:18.000Z</time></trkpt>
        <trkpt lat="29.538182" lon="103.3333348"><ele>2420.39</ele><time>2025-09-13T18:03:24.000Z</time></trkpt>
        <trkpt lat="29.5382308" lon="103.333304"><ele>2419.2</ele><time>2025-09-13T18:03:30.000Z</time></trkpt>
        <trkpt lat="29.5382739" lon="103.333273"><ele>2419.09</ele><time>2025-09-13T18:03:36.000Z</time></trkpt>
        <trkpt lat="29.5383144" lon="103.3332343"><ele>2418.64</ele><time>2025-09-13T18:03:44.000Z</time></trkpt>
        <trkpt lat="29.5383603" lon="103.3332036"><ele>2418.43</ele><time>2025-09-13T18:03:52.000Z</time></trkpt>
        <trkpt lat="29.538413" lon="103.3331904"><ele>2418.02</ele><time>2025-09-13T18:04:00.000Z</time></trkpt>
        <trkpt lat="29.5384656" lon="103.3331822"><ele>2417.79</ele><time>2025-09-13T18:04:08.000Z</time></trkpt>
        <trkpt lat="29.5385144" lon="103.3331789"><ele>2417.62</ele><time>2025-09-13T18:04:14.000Z</time></trkpt>
        <trkpt lat="29.538567" lon="103.3331729"><ele>2417.7</ele><time>2025-09-13T18:04:20.000Z</time></trkpt>
        <trkpt lat="29.5386142" lon="103.333164"><ele>2417.2</ele><time>2025-09-13T18:04:26.000Z</time></trkpt>
        <trkpt lat="29.5386615" lon="103.3331497"><ele>2415.74</ele><time>2025-09-13T18:04:32.000Z</time></trkpt>
        <trkpt lat="29.5387068" lon="103.3331492"><ele>2415.23</ele><time>2025-09-13T18:04:38.000Z</time></trkpt>
        <trkpt lat="29.5387553" lon="103.333124"><ele>2413.89</ele><time>2025-09-13T18:04:46.000Z</time></trkpt>
        <trkpt lat="29.5387977" lon="103.3330951"><ele>2412.8</ele><time>2025-09-13T18:04:52.000Z</time></trkpt>
        <trkpt lat="29.5388497" lon="103.333069"><ele>2412.01</ele><time>2025-09-13T18:04:58.000Z</time></trkpt>
        <trkpt lat="29.5388992" lon="103.3330435"><ele>2412.07</ele><time>2025-09-13T18:05:04.000Z</time></trkpt>
        <trkpt lat="29.5389496" lon="103.3330179"><ele>2411.93</ele><time>2025-09-13T18:05:10.000Z</time></trkpt>
        <trkpt lat="29.5389999" lon="103.3329816"><ele>2411.11</ele><time>2025-09-13T18:05:16.000Z</time></trkpt>
        <trkpt lat="29.5390455" lon="103.3329464"><ele>2412.06</ele><time>2025-09-13T18:05:22.000Z</time></trkpt>
        <trkpt lat="29.5390908" lon="103.3329006"><ele>2412.84</ele><time>2025-09-13T18:05:28.000Z</time></trkpt>
        <trkpt lat="29.5391291" lon="103.3328612"><ele>2412.7</ele><time>2025-09-13T18:05:34.000Z</time></trkpt>
        <trkpt lat="29.5391712" lon="103.3328384"><ele>2413.09</ele><time>2025-09-13T18:05:40.000Z</time></trkpt>
        <trkpt lat="29.5392113" lon="103.3328142"><ele>2413.13</ele><time>2025-09-13T18:05:46.000Z</time></trkpt>
        <trkpt lat="29.5392504" lon="103.3327765"><ele>2413.04</ele><time>2025-09-13T18:05:52.000Z</time></trkpt>
        <trkpt lat="29.5392845" lon="103.3327331"><ele>2413.92</ele><time>2025-09-13T18:06:00.000Z</time></trkpt>
        <trkpt lat="29.5393241" lon="103.3326927"><ele>2414.27</ele><time>2025-09-13T18:06:10.000Z</time></trkpt>
        <trkpt lat="29.5393614" lon="103.3326442"><ele>2413.77</ele><time>2025-09-13T18:06:18.000Z</time></trkpt>
        <trkpt lat="29.5393929" lon="103.332596"><ele>2413.38</ele><time>2025-09-13T18:06:26.000Z</time></trkpt>
        <trkpt lat="29.5394243" lon="103.332552"><ele>2413.76</ele><time>2025-09-13T18:06:34.000Z</time></trkpt>
        <trkpt lat="29.5394579" lon="103.3325131"><ele>2411.72</ele><time>2025-09-13T18:06:46.000Z</time></trkpt>
        <trkpt lat="29.539502" lon="103.3324904"><ele>2410.28</ele><time>2025-09-13T18:06:54.000Z</time></trkpt>
        <trkpt lat="29.5395442" lon="103.3324586"><ele>2408.35</ele><time>2025-09-13T18:07:02.000Z</time></trkpt>
        <trkpt lat="29.539588" lon="103.3324247"><ele>2406.44</ele><time>2025-09-13T18:07:10.000Z</time></trkpt>
        <trkpt lat="29.5396303" lon="103.3323866"><ele>2404.77</ele><time>2025-09-13T18:07:18.000Z</time></trkpt>
        <trkpt lat="29.5396665" lon="103.3323444"><ele>2402.92</ele><time>2025-09-13T18:07:26.000Z</time></trkpt>
        <trkpt lat="29.5397165" lon="103.3323124"><ele>2400.79</ele><time>2025-09-13T18:07:34.000Z</time></trkpt>
        <trkpt lat="29.5397608" lon="103.3322885"><ele>2399.64</ele><time>2025-09-13T18:07:40.000Z</time></trkpt>
        <trkpt lat="29.5398003" lon="103.332241"><ele>2399.31</ele><time>2025-09-13T18:07:50.000Z</time></trkpt>
        <trkpt lat="29.5398462" lon="103.332212"><ele>2399.66</ele><time>2025-09-13T18:07:56.000Z</time></trkpt>
        <trkpt lat="29.5398907" lon="103.332191"><ele>2399.69</ele><time>2025-09-13T18:08:02.000Z</time></trkpt>
        <trkpt lat="29.5399507" lon="103.3321685"><ele>2399.59</ele><time>2025-09-13T18:08:08.000Z</time></trkpt>
        <trkpt lat="29.5400125" lon="103.332143"><ele>2399.7</ele><time>2025-09-13T18:08:14.000Z</time></trkpt>
        <trkpt lat="29.540069" lon="103.3321037"><ele>2399.98</ele><time>2025-09-13T18:08:18.000Z</time></trkpt>
        <trkpt lat="29.5401136" lon="103.3320693"><ele>2400.71</ele><time>2025-09-13T18:08:22.000Z</time></trkpt>
        <trkpt lat="29.5401569" lon="103.3320223"><ele>2401.33</ele><time>2025-09-13T18:08:28.000Z</time></trkpt>
        <trkpt lat="29.5402123" lon="103.3320291"><ele>2402.26</ele><time>2025-09-13T18:08:34.000Z</time></trkpt>
        <trkpt lat="29.5402614" lon="103.332036"><ele>2401.89</ele><time>2025-09-13T18:08:38.000Z</time></trkpt>
        <trkpt lat="29.5403057" lon="103.3320074"><ele>2401.64</ele><time>2025-09-13T18:08:44.000Z</time></trkpt>
        <trkpt lat="29.5403063" lon="103.3320247"><ele>2401.56</ele><time>2025-09-13T18:08:51.000Z</time></trkpt>
        <trkpt lat="29.5403063" lon="103.3320247"><ele>2401.56</ele><time>2025-09-13T18:09:03.000Z</time></trkpt>
        <trkpt lat="29.5402788" lon="103.3319852"><ele>2400.71</ele><time>2025-09-13T18:09:05.000Z</time></trkpt>
        <trkpt lat="29.5402788" lon="103.3319852"><ele>2400.71</ele><time>2025-09-13T18:09:11.000Z</time></trkpt>
        <trkpt lat="29.5402788" lon="103.3319852"><ele>2400.71</ele><time>2025-09-13T18:09:25.000Z</time></trkpt>
        <trkpt lat="29.5402498" lon="103.3319143"><ele>2398.63</ele><time>2025-09-13T18:09:29.000Z</time></trkpt>
        <trkpt lat="29.5402498" lon="103.3319143"><ele>2398.63</ele><time>2025-09-13T18:09:51.000Z</time></trkpt>
        <trkpt lat="29.5402182" lon="103.3318143"><ele>2396.84</ele><time>2025-09-13T18:09:54.000Z</time></trkpt>
        <trkpt lat="29.5401634" lon="103.331753"><ele>2395.79</ele><time>2025-09-13T18:09:58.000Z</time></trkpt>
        <trkpt lat="29.5401084" lon="103.3318252"><ele>2395.19</ele><time>2025-09-13T18:10:02.000Z</time></trkpt>
        <trkpt lat="29.5401318" lon="103.3319259"><ele>2401.41</ele><time>2025-09-13T18:10:04.000Z</time></trkpt>
        <trkpt lat="29.5401729" lon="103.3319989"><ele>2400.35</ele><time>2025-09-13T18:10:08.000Z</time></trkpt>
        <trkpt lat="29.5401807" lon="103.3320577"><ele>2398.36</ele><time>2025-09-13T18:10:20.000Z</time></trkpt>
        <trkpt lat="29.5401846" lon="103.3321113"><ele>2397.04</ele><time>2025-09-13T18:10:26.000Z</time></trkpt>
        <trkpt lat="29.5401408" lon="103.3321313"><ele>2394.47</ele><time>2025-09-13T18:10:34.000Z</time></trkpt>
        <trkpt lat="29.5400949" lon="103.3321575"><ele>2392.64</ele><time>2025-09-13T18:10:40.000Z</time></trkpt>
        <trkpt lat="29.5400873" lon="103.3322093"><ele>2391.26</ele><time>2025-09-13T18:10:46.000Z</time></trkpt>
        <trkpt lat="29.5400728" lon="103.3322753"><ele>2390.2</ele><time>2025-09-13T18:10:54.000Z</time></trkpt>
        <trkpt lat="29.5400719" lon="103.332357"><ele>2388.86</ele><time>2025-09-13T18:11:02.000Z</time></trkpt>
        <trkpt lat="29.5401103" lon="103.3323848"><ele>2386.95</ele><time>2025-09-13T18:11:11.000Z</time></trkpt>
        <trkpt lat="29.5401103" lon="103.3323848"><ele>2386.95</ele><time>2025-09-13T18:11:11.000Z</time></trkpt>
      </trkseg>
  </trk>
</gpx>